<?xml version="1.0" encoding="UTF-8" standalone="no" ?>
<gpx xmlns="http://www.topografix.com/GPX/1/1" xmlns:xsi="http://www.w3.org/2001/XMLSchema-instance" xsi:schemaLocation="http://www.topografix.com/GPX/1/1 http://www.topografix.com/GPX/1/1/gpx.xsd" version="1.1" creator="VisuGPX - https://www.visugpx.com">
  <metadata>
    <name>Saverne Strasbourg 46 Km</name>
    <desc><![CDATA[Saverne Strasbourg par la piste cyclable.]]></desc>
  </metadata>
  <trk>
    <name><![CDATA[ADi2010/07/03_08:51-2]]></name>
    <trkseg>
      <trkpt lat="48.74189" lon="7.36942">
        <ele>186.253052</ele>
        <time>2010-07-03T06:59:32Z</time>
      </trkpt>
      <trkpt lat="48.74823" lon="7.38157">
        <ele>183.421021</ele>
        <time>2010-07-03T07:03:51Z</time>
      </trkpt>
      <trkpt lat="48.74835" lon="7.38176">
        <ele>183.506958</ele>
        <time>2010-07-03T07:03:55Z</time>
      </trkpt>
      <trkpt lat="48.74847" lon="7.38195">
        <ele>183.796021</ele>
        <time>2010-07-03T07:03:59Z</time>
      </trkpt>
      <trkpt lat="48.74857" lon="7.3821">
        <ele>183.944458</ele>
        <time>2010-07-03T07:04:02Z</time>
      </trkpt>
      <trkpt lat="48.74867" lon="7.38226">
        <ele>183.788208</ele>
        <time>2010-07-03T07:04:05Z</time>
      </trkpt>
      <trkpt lat="48.74878" lon="7.3824">
        <ele>183.604614</ele>
        <time>2010-07-03T07:04:08Z</time>
      </trkpt>
      <trkpt lat="48.74888" lon="7.38254">
        <ele>183.624146</ele>
        <time>2010-07-03T07:04:11Z</time>
      </trkpt>
      <trkpt lat="48.74898" lon="7.38268">
        <ele>183.983521</ele>
        <time>2010-07-03T07:04:14Z</time>
      </trkpt>
      <trkpt lat="48.74908" lon="7.38283">
        <ele>184.046021</ele>
        <time>2010-07-03T07:04:17Z</time>
      </trkpt>
      <trkpt lat="48.74919" lon="7.38297">
        <ele>183.991333</ele>
        <time>2010-07-03T07:04:20Z</time>
      </trkpt>
      <trkpt lat="48.74929" lon="7.38311">
        <ele>184.010864</ele>
        <time>2010-07-03T07:04:23Z</time>
      </trkpt>
      <trkpt lat="48.7494" lon="7.38325">
        <ele>184.038208</ele>
        <time>2010-07-03T07:04:26Z</time>
      </trkpt>
      <trkpt lat="48.74949" lon="7.38339">
        <ele>183.893677</ele>
        <time>2010-07-03T07:04:29Z</time>
      </trkpt>
      <trkpt lat="48.7496" lon="7.38352">
        <ele>183.854614</ele>
        <time>2010-07-03T07:04:32Z</time>
      </trkpt>
      <trkpt lat="48.74971" lon="7.38366">
        <ele>184.096802</ele>
        <time>2010-07-03T07:04:35Z</time>
      </trkpt>
      <trkpt lat="48.74982" lon="7.38379">
        <ele>183.983521</ele>
        <time>2010-07-03T07:04:38Z</time>
      </trkpt>
      <trkpt lat="48.74994" lon="7.38392">
        <ele>183.190552</ele>
        <time>2010-07-03T07:04:40Z</time>
      </trkpt>
      <trkpt lat="48.75005" lon="7.38403">
        <ele>183.249146</ele>
        <time>2010-07-03T07:04:43Z</time>
      </trkpt>
      <trkpt lat="48.75016" lon="7.38415">
        <ele>183.612427</ele>
        <time>2010-07-03T07:04:46Z</time>
      </trkpt>
      <trkpt lat="48.75028" lon="7.38427">
        <ele>184.421021</ele>
        <time>2010-07-03T07:04:49Z</time>
      </trkpt>
      <trkpt lat="48.7504" lon="7.38439">
        <ele>184.671021</ele>
        <time>2010-07-03T07:04:52Z</time>
      </trkpt>
      <trkpt lat="48.75056" lon="7.38454">
        <ele>185.413208</ele>
        <time>2010-07-03T07:04:56Z</time>
      </trkpt>
      <trkpt lat="48.75069" lon="7.38465">
        <ele>185.503052</ele>
        <time>2010-07-03T07:04:59Z</time>
      </trkpt>
      <trkpt lat="48.75081" lon="7.38477">
        <ele>185.436646</ele>
        <time>2010-07-03T07:05:02Z</time>
      </trkpt>
      <trkpt lat="48.75093" lon="7.38487">
        <ele>185.319458</ele>
        <time>2010-07-03T07:05:05Z</time>
      </trkpt>
      <trkpt lat="48.75108" lon="7.38501">
        <ele>185.010864</ele>
        <time>2010-07-03T07:05:09Z</time>
      </trkpt>
      <trkpt lat="48.75118" lon="7.38519">
        <ele>185.983521</ele>
        <time>2010-07-03T07:05:13Z</time>
      </trkpt>
      <trkpt lat="48.7513" lon="7.38532">
        <ele>185.878052</ele>
        <time>2010-07-03T07:05:41Z</time>
      </trkpt>
      <trkpt lat="48.75142" lon="7.38542">
        <ele>184.186646</ele>
        <time>2010-07-03T07:05:45Z</time>
      </trkpt>
      <trkpt lat="48.75156" lon="7.38554">
        <ele>183.042114</ele>
        <time>2010-07-03T07:05:48Z</time>
      </trkpt>
      <trkpt lat="48.75172" lon="7.38568">
        <ele>182.378052</ele>
        <time>2010-07-03T07:05:51Z</time>
      </trkpt>
      <trkpt lat="48.75185" lon="7.38582">
        <ele>182.194458</ele>
        <time>2010-07-03T07:05:54Z</time>
      </trkpt>
      <trkpt lat="48.75198" lon="7.38594">
        <ele>182.178833</ele>
        <time>2010-07-03T07:05:57Z</time>
      </trkpt>
      <trkpt lat="48.75213" lon="7.38607">
        <ele>182.311646</ele>
        <time>2010-07-03T07:06:01Z</time>
      </trkpt>
      <trkpt lat="48.75227" lon="7.38622">
        <ele>182.573364</ele>
        <time>2010-07-03T07:06:05Z</time>
      </trkpt>
      <trkpt lat="48.75238" lon="7.38634">
        <ele>182.264771</ele>
        <time>2010-07-03T07:06:08Z</time>
      </trkpt>
      <trkpt lat="48.75252" lon="7.38648">
        <ele>182.405396</ele>
        <time>2010-07-03T07:06:12Z</time>
      </trkpt>
      <trkpt lat="48.75266" lon="7.38662">
        <ele>182.549927</ele>
        <time>2010-07-03T07:06:16Z</time>
      </trkpt>
      <trkpt lat="48.75279" lon="7.38678">
        <ele>181.885864</ele>
        <time>2010-07-03T07:06:20Z</time>
      </trkpt>
      <trkpt lat="48.75292" lon="7.38692">
        <ele>181.698364</ele>
        <time>2010-07-03T07:06:24Z</time>
      </trkpt>
      <trkpt lat="48.75305" lon="7.38706">
        <ele>181.518677</ele>
        <time>2010-07-03T07:06:28Z</time>
      </trkpt>
      <trkpt lat="48.75318" lon="7.38721">
        <ele>180.760864</ele>
        <time>2010-07-03T07:06:32Z</time>
      </trkpt>
      <trkpt lat="48.75329" lon="7.38736">
        <ele>180.643677</ele>
        <time>2010-07-03T07:06:36Z</time>
      </trkpt>
      <trkpt lat="48.7534" lon="7.38754">
        <ele>181.510864</ele>
        <time>2010-07-03T07:06:40Z</time>
      </trkpt>
      <trkpt lat="48.75353" lon="7.38771">
        <ele>181.440552</ele>
        <time>2010-07-03T07:06:44Z</time>
      </trkpt>
      <trkpt lat="48.75364" lon="7.3879">
        <ele>181.092896</ele>
        <time>2010-07-03T07:06:48Z</time>
      </trkpt>
      <trkpt lat="48.75375" lon="7.38807">
        <ele>180.667114</ele>
        <time>2010-07-03T07:06:52Z</time>
      </trkpt>
      <trkpt lat="48.75384" lon="7.38825">
        <ele>180.311646</ele>
        <time>2010-07-03T07:06:56Z</time>
      </trkpt>
      <trkpt lat="48.75394" lon="7.38845">
        <ele>179.850708</ele>
        <time>2010-07-03T07:07:00Z</time>
      </trkpt>
      <trkpt lat="48.75403" lon="7.38864">
        <ele>178.745239</ele>
        <time>2010-07-03T07:07:04Z</time>
      </trkpt>
      <trkpt lat="48.7541" lon="7.38882">
        <ele>179.038208</ele>
        <time>2010-07-03T07:07:07Z</time>
      </trkpt>
      <trkpt lat="48.75418" lon="7.389">
        <ele>179.799927</ele>
        <time>2010-07-03T07:07:10Z</time>
      </trkpt>
      <trkpt lat="48.75426" lon="7.38916">
        <ele>180.143677</ele>
        <time>2010-07-03T07:07:14Z</time>
      </trkpt>
      <trkpt lat="48.75434" lon="7.38933">
        <ele>179.944458</ele>
        <time>2010-07-03T07:07:17Z</time>
      </trkpt>
      <trkpt lat="48.75441" lon="7.38951">
        <ele>178.686646</ele>
        <time>2010-07-03T07:07:21Z</time>
      </trkpt>
      <trkpt lat="48.7545" lon="7.38969">
        <ele>179.874146</ele>
        <time>2010-07-03T07:07:25Z</time>
      </trkpt>
      <trkpt lat="48.75459" lon="7.38992">
        <ele>179.600708</ele>
        <time>2010-07-03T07:07:29Z</time>
      </trkpt>
      <trkpt lat="48.75467" lon="7.39015">
        <ele>179.202271</ele>
        <time>2010-07-03T07:07:33Z</time>
      </trkpt>
      <trkpt lat="48.75475" lon="7.39038">
        <ele>179.198364</ele>
        <time>2010-07-03T07:07:37Z</time>
      </trkpt>
      <trkpt lat="48.75483" lon="7.39062">
        <ele>179.421021</ele>
        <time>2010-07-03T07:07:41Z</time>
      </trkpt>
      <trkpt lat="48.75488" lon="7.39081">
        <ele>179.151489</ele>
        <time>2010-07-03T07:07:44Z</time>
      </trkpt>
      <trkpt lat="48.75496" lon="7.39106">
        <ele>178.987427</ele>
        <time>2010-07-03T07:07:48Z</time>
      </trkpt>
      <trkpt lat="48.75503" lon="7.3913">
        <ele>179.159302</ele>
        <time>2010-07-03T07:07:52Z</time>
      </trkpt>
      <trkpt lat="48.7551" lon="7.39154">
        <ele>179.522583</ele>
        <time>2010-07-03T07:07:56Z</time>
      </trkpt>
      <trkpt lat="48.75516" lon="7.39176">
        <ele>179.796021</ele>
        <time>2010-07-03T07:08:00Z</time>
      </trkpt>
      <trkpt lat="48.75522" lon="7.39199">
        <ele>179.987427</ele>
        <time>2010-07-03T07:08:04Z</time>
      </trkpt>
      <trkpt lat="48.7553" lon="7.39223">
        <ele>180.393677</ele>
        <time>2010-07-03T07:08:08Z</time>
      </trkpt>
      <trkpt lat="48.75535" lon="7.39242">
        <ele>180.483521</ele>
        <time>2010-07-03T07:08:11Z</time>
      </trkpt>
      <trkpt lat="48.75542" lon="7.39267">
        <ele>180.928833</ele>
        <time>2010-07-03T07:08:15Z</time>
      </trkpt>
      <trkpt lat="48.75547" lon="7.39286">
        <ele>181.296021</ele>
        <time>2010-07-03T07:08:18Z</time>
      </trkpt>
      <trkpt lat="48.75554" lon="7.39305">
        <ele>181.721802</ele>
        <time>2010-07-03T07:08:21Z</time>
      </trkpt>
      <trkpt lat="48.75561" lon="7.39323">
        <ele>182.749146</ele>
        <time>2010-07-03T07:08:24Z</time>
      </trkpt>
      <trkpt lat="48.75567" lon="7.39341">
        <ele>183.522583</ele>
        <time>2010-07-03T07:08:27Z</time>
      </trkpt>
      <trkpt lat="48.75573" lon="7.39364">
        <ele>182.823364</ele>
        <time>2010-07-03T07:08:31Z</time>
      </trkpt>
      <trkpt lat="48.75579" lon="7.39384">
        <ele>182.706177</ele>
        <time>2010-07-03T07:08:34Z</time>
      </trkpt>
      <trkpt lat="48.75584" lon="7.39403">
        <ele>183.299927</ele>
        <time>2010-07-03T07:08:37Z</time>
      </trkpt>
      <trkpt lat="48.7559" lon="7.39421">
        <ele>183.671021</ele>
        <time>2010-07-03T07:08:40Z</time>
      </trkpt>
      <trkpt lat="48.75598" lon="7.39445">
        <ele>184.549927</ele>
        <time>2010-07-03T07:08:44Z</time>
      </trkpt>
      <trkpt lat="48.75606" lon="7.39469">
        <ele>184.651489</ele>
        <time>2010-07-03T07:08:48Z</time>
      </trkpt>
      <trkpt lat="48.75612" lon="7.39489">
        <ele>184.682739</ele>
        <time>2010-07-03T07:08:51Z</time>
      </trkpt>
      <trkpt lat="48.75619" lon="7.39513">
        <ele>184.991333</ele>
        <time>2010-07-03T07:08:55Z</time>
      </trkpt>
      <trkpt lat="48.75626" lon="7.39539">
        <ele>185.510864</ele>
        <time>2010-07-03T07:08:59Z</time>
      </trkpt>
      <trkpt lat="48.75632" lon="7.39558">
        <ele>185.768677</ele>
        <time>2010-07-03T07:09:02Z</time>
      </trkpt>
      <trkpt lat="48.75639" lon="7.39577">
        <ele>185.616333</ele>
        <time>2010-07-03T07:09:05Z</time>
      </trkpt>
      <trkpt lat="48.75645" lon="7.39597">
        <ele>185.612427</ele>
        <time>2010-07-03T07:09:08Z</time>
      </trkpt>
      <trkpt lat="48.75654" lon="7.3962">
        <ele>184.831177</ele>
        <time>2010-07-03T07:09:12Z</time>
      </trkpt>
      <trkpt lat="48.75658" lon="7.3964">
        <ele>184.717896</ele>
        <time>2010-07-03T07:09:15Z</time>
      </trkpt>
      <trkpt lat="48.75664" lon="7.3966">
        <ele>185.217896</ele>
        <time>2010-07-03T07:09:18Z</time>
      </trkpt>
      <trkpt lat="48.75671" lon="7.39679">
        <ele>185.741333</ele>
        <time>2010-07-03T07:09:21Z</time>
      </trkpt>
      <trkpt lat="48.75677" lon="7.39698">
        <ele>185.651489</ele>
        <time>2010-07-03T07:09:24Z</time>
      </trkpt>
      <trkpt lat="48.75683" lon="7.39717">
        <ele>186.128052</ele>
        <time>2010-07-03T07:09:27Z</time>
      </trkpt>
      <trkpt lat="48.75689" lon="7.39741">
        <ele>185.995239</ele>
        <time>2010-07-03T07:09:31Z</time>
      </trkpt>
      <trkpt lat="48.75696" lon="7.39763">
        <ele>186.335083</ele>
        <time>2010-07-03T07:09:35Z</time>
      </trkpt>
      <trkpt lat="48.75703" lon="7.39784">
        <ele>186.346802</ele>
        <time>2010-07-03T07:09:39Z</time>
      </trkpt>
      <trkpt lat="48.75709" lon="7.39804">
        <ele>186.760864</ele>
        <time>2010-07-03T07:09:43Z</time>
      </trkpt>
      <trkpt lat="48.75715" lon="7.39824">
        <ele>186.710083</ele>
        <time>2010-07-03T07:09:47Z</time>
      </trkpt>
      <trkpt lat="48.7572" lon="7.39845">
        <ele>186.842896</ele>
        <time>2010-07-03T07:09:58Z</time>
      </trkpt>
      <trkpt lat="48.75726" lon="7.39865">
        <ele>184.838989</ele>
        <time>2010-07-03T07:10:04Z</time>
      </trkpt>
      <trkpt lat="48.75734" lon="7.39887">
        <ele>184.049927</ele>
        <time>2010-07-03T07:10:07Z</time>
      </trkpt>
      <trkpt lat="48.75742" lon="7.39913">
        <ele>184.190552</ele>
        <time>2010-07-03T07:10:10Z</time>
      </trkpt>
      <trkpt lat="48.7575" lon="7.39936">
        <ele>184.163208</ele>
        <time>2010-07-03T07:10:13Z</time>
      </trkpt>
      <trkpt lat="48.75755" lon="7.39957">
        <ele>184.389771</ele>
        <time>2010-07-03T07:10:16Z</time>
      </trkpt>
      <trkpt lat="48.75761" lon="7.39976">
        <ele>184.503052</ele>
        <time>2010-07-03T07:10:19Z</time>
      </trkpt>
      <trkpt lat="48.75768" lon="7.4">
        <ele>184.581177</ele>
        <time>2010-07-03T07:10:23Z</time>
      </trkpt>
      <trkpt lat="48.75775" lon="7.40023">
        <ele>184.460083</ele>
        <time>2010-07-03T07:10:27Z</time>
      </trkpt>
      <trkpt lat="48.75782" lon="7.40047">
        <ele>184.581177</ele>
        <time>2010-07-03T07:10:31Z</time>
      </trkpt>
      <trkpt lat="48.75789" lon="7.4007">
        <ele>184.639771</ele>
        <time>2010-07-03T07:10:35Z</time>
      </trkpt>
      <trkpt lat="48.75797" lon="7.40094">
        <ele>184.253052</ele>
        <time>2010-07-03T07:10:39Z</time>
      </trkpt>
      <trkpt lat="48.75802" lon="7.40113">
        <ele>184.491333</ele>
        <time>2010-07-03T07:10:42Z</time>
      </trkpt>
      <trkpt lat="48.75808" lon="7.40131">
        <ele>184.749146</ele>
        <time>2010-07-03T07:10:45Z</time>
      </trkpt>
      <trkpt lat="48.75814" lon="7.40151">
        <ele>185.057739</ele>
        <time>2010-07-03T07:10:48Z</time>
      </trkpt>
      <trkpt lat="48.7582" lon="7.4017">
        <ele>184.565552</ele>
        <time>2010-07-03T07:10:51Z</time>
      </trkpt>
      <trkpt lat="48.75826" lon="7.40192">
        <ele>184.514771</ele>
        <time>2010-07-03T07:10:54Z</time>
      </trkpt>
      <trkpt lat="48.75832" lon="7.40215">
        <ele>184.678833</ele>
        <time>2010-07-03T07:10:57Z</time>
      </trkpt>
      <trkpt lat="48.75839" lon="7.40235">
        <ele>184.729614</ele>
        <time>2010-07-03T07:11:00Z</time>
      </trkpt>
      <trkpt lat="48.75847" lon="7.40258">
        <ele>183.733521</ele>
        <time>2010-07-03T07:11:03Z</time>
      </trkpt>
      <trkpt lat="48.75855" lon="7.40284">
        <ele>182.010864</ele>
        <time>2010-07-03T07:11:06Z</time>
      </trkpt>
      <trkpt lat="48.75864" lon="7.4031">
        <ele>181.628052</ele>
        <time>2010-07-03T07:11:09Z</time>
      </trkpt>
      <trkpt lat="48.75871" lon="7.40333">
        <ele>181.940552</ele>
        <time>2010-07-03T07:11:12Z</time>
      </trkpt>
      <trkpt lat="48.75878" lon="7.40356">
        <ele>182.514771</ele>
        <time>2010-07-03T07:11:15Z</time>
      </trkpt>
      <trkpt lat="48.75884" lon="7.40377">
        <ele>182.635864</ele>
        <time>2010-07-03T07:11:18Z</time>
      </trkpt>
      <trkpt lat="48.75891" lon="7.40398">
        <ele>182.092896</ele>
        <time>2010-07-03T07:11:21Z</time>
      </trkpt>
      <trkpt lat="48.75897" lon="7.40419">
        <ele>182.210083</ele>
        <time>2010-07-03T07:11:24Z</time>
      </trkpt>
      <trkpt lat="48.75903" lon="7.4044">
        <ele>182.272583</ele>
        <time>2010-07-03T07:11:27Z</time>
      </trkpt>
      <trkpt lat="48.75909" lon="7.40459">
        <ele>182.272583</ele>
        <time>2010-07-03T07:11:30Z</time>
      </trkpt>
      <trkpt lat="48.75915" lon="7.40478">
        <ele>182.510864</ele>
        <time>2010-07-03T07:11:33Z</time>
      </trkpt>
      <trkpt lat="48.75921" lon="7.40498">
        <ele>182.331177</ele>
        <time>2010-07-03T07:11:36Z</time>
      </trkpt>
      <trkpt lat="48.75927" lon="7.40518">
        <ele>182.327271</ele>
        <time>2010-07-03T07:11:39Z</time>
      </trkpt>
      <trkpt lat="48.75933" lon="7.40538">
        <ele>182.600708</ele>
        <time>2010-07-03T07:11:42Z</time>
      </trkpt>
      <trkpt lat="48.75939" lon="7.40558">
        <ele>182.874146</ele>
        <time>2010-07-03T07:11:45Z</time>
      </trkpt>
      <trkpt lat="48.75945" lon="7.40578">
        <ele>182.823364</ele>
        <time>2010-07-03T07:11:48Z</time>
      </trkpt>
      <trkpt lat="48.75951" lon="7.40598">
        <ele>182.721802</ele>
        <time>2010-07-03T07:11:51Z</time>
      </trkpt>
      <trkpt lat="48.75956" lon="7.40617">
        <ele>182.682739</ele>
        <time>2010-07-03T07:11:54Z</time>
      </trkpt>
      <trkpt lat="48.75962" lon="7.40637">
        <ele>182.901489</ele>
        <time>2010-07-03T07:11:57Z</time>
      </trkpt>
      <trkpt lat="48.75968" lon="7.40656">
        <ele>182.838989</ele>
        <time>2010-07-03T07:12:00Z</time>
      </trkpt>
      <trkpt lat="48.75974" lon="7.40675">
        <ele>182.846802</ele>
        <time>2010-07-03T07:12:03Z</time>
      </trkpt>
      <trkpt lat="48.7598" lon="7.40694">
        <ele>182.655396</ele>
        <time>2010-07-03T07:12:06Z</time>
      </trkpt>
      <trkpt lat="48.75986" lon="7.40713">
        <ele>182.393677</ele>
        <time>2010-07-03T07:12:09Z</time>
      </trkpt>
      <trkpt lat="48.75992" lon="7.40732">
        <ele>182.335083</ele>
        <time>2010-07-03T07:12:12Z</time>
      </trkpt>
      <trkpt lat="48.75999" lon="7.40756">
        <ele>182.499146</ele>
        <time>2010-07-03T07:12:16Z</time>
      </trkpt>
      <trkpt lat="48.76004" lon="7.40776">
        <ele>181.749146</ele>
        <time>2010-07-03T07:12:19Z</time>
      </trkpt>
      <trkpt lat="48.7601" lon="7.40794">
        <ele>180.924927</ele>
        <time>2010-07-03T07:12:23Z</time>
      </trkpt>
      <trkpt lat="48.76017" lon="7.40816">
        <ele>180.194458</ele>
        <time>2010-07-03T07:12:26Z</time>
      </trkpt>
      <trkpt lat="48.76024" lon="7.40835">
        <ele>179.147583</ele>
        <time>2010-07-03T07:12:30Z</time>
      </trkpt>
      <trkpt lat="48.7603" lon="7.40854">
        <ele>179.085083</ele>
        <time>2010-07-03T07:12:33Z</time>
      </trkpt>
      <trkpt lat="48.76036" lon="7.40873">
        <ele>179.100708</ele>
        <time>2010-07-03T07:12:36Z</time>
      </trkpt>
      <trkpt lat="48.76041" lon="7.40893">
        <ele>179.131958</ele>
        <time>2010-07-03T07:12:39Z</time>
      </trkpt>
      <trkpt lat="48.76046" lon="7.40912">
        <ele>179.159302</ele>
        <time>2010-07-03T07:12:42Z</time>
      </trkpt>
      <trkpt lat="48.76052" lon="7.40931">
        <ele>179.284302</ele>
        <time>2010-07-03T07:12:45Z</time>
      </trkpt>
      <trkpt lat="48.76057" lon="7.40951">
        <ele>179.249146</ele>
        <time>2010-07-03T07:12:48Z</time>
      </trkpt>
      <trkpt lat="48.76064" lon="7.40974">
        <ele>179.307739</ele>
        <time>2010-07-03T07:12:52Z</time>
      </trkpt>
      <trkpt lat="48.7607" lon="7.40994">
        <ele>178.928833</ele>
        <time>2010-07-03T07:12:55Z</time>
      </trkpt>
      <trkpt lat="48.76076" lon="7.41013">
        <ele>178.475708</ele>
        <time>2010-07-03T07:12:58Z</time>
      </trkpt>
      <trkpt lat="48.76082" lon="7.41036">
        <ele>177.565552</ele>
        <time>2010-07-03T07:13:02Z</time>
      </trkpt>
      <trkpt lat="48.76088" lon="7.41056">
        <ele>176.909302</ele>
        <time>2010-07-03T07:13:06Z</time>
      </trkpt>
      <trkpt lat="48.76094" lon="7.41079">
        <ele>176.624146</ele>
        <time>2010-07-03T07:13:11Z</time>
      </trkpt>
      <trkpt lat="48.761" lon="7.41101">
        <ele>176.585083</ele>
        <time>2010-07-03T07:13:15Z</time>
      </trkpt>
      <trkpt lat="48.76106" lon="7.41121">
        <ele>176.405396</ele>
        <time>2010-07-03T07:13:19Z</time>
      </trkpt>
      <trkpt lat="48.76112" lon="7.41143">
        <ele>176.421021</ele>
        <time>2010-07-03T07:13:24Z</time>
      </trkpt>
      <trkpt lat="48.76118" lon="7.41161">
        <ele>176.288208</ele>
        <time>2010-07-03T07:13:28Z</time>
      </trkpt>
      <trkpt lat="48.76125" lon="7.41184">
        <ele>176.495239</ele>
        <time>2010-07-03T07:13:32Z</time>
      </trkpt>
      <trkpt lat="48.76132" lon="7.41206">
        <ele>176.272583</ele>
        <time>2010-07-03T07:13:36Z</time>
      </trkpt>
      <trkpt lat="48.76139" lon="7.41228">
        <ele>176.124146</ele>
        <time>2010-07-03T07:13:40Z</time>
      </trkpt>
      <trkpt lat="48.76146" lon="7.4125">
        <ele>176.628052</ele>
        <time>2010-07-03T07:13:44Z</time>
      </trkpt>
      <trkpt lat="48.76154" lon="7.41274">
        <ele>177.085083</ele>
        <time>2010-07-03T07:13:48Z</time>
      </trkpt>
      <trkpt lat="48.76162" lon="7.41297">
        <ele>177.276489</ele>
        <time>2010-07-03T07:13:52Z</time>
      </trkpt>
      <trkpt lat="48.76168" lon="7.4132">
        <ele>177.503052</ele>
        <time>2010-07-03T07:13:56Z</time>
      </trkpt>
      <trkpt lat="48.76175" lon="7.41342">
        <ele>177.221802</ele>
        <time>2010-07-03T07:14:00Z</time>
      </trkpt>
      <trkpt lat="48.76181" lon="7.41364">
        <ele>177.655396</ele>
        <time>2010-07-03T07:14:04Z</time>
      </trkpt>
      <trkpt lat="48.76189" lon="7.41386">
        <ele>177.518677</ele>
        <time>2010-07-03T07:14:08Z</time>
      </trkpt>
      <trkpt lat="48.76195" lon="7.41408">
        <ele>177.413208</ele>
        <time>2010-07-03T07:14:12Z</time>
      </trkpt>
      <trkpt lat="48.76202" lon="7.41431">
        <ele>177.483521</ele>
        <time>2010-07-03T07:14:16Z</time>
      </trkpt>
      <trkpt lat="48.76209" lon="7.41454">
        <ele>177.354614</ele>
        <time>2010-07-03T07:14:20Z</time>
      </trkpt>
      <trkpt lat="48.76217" lon="7.41478">
        <ele>177.444458</ele>
        <time>2010-07-03T07:14:24Z</time>
      </trkpt>
      <trkpt lat="48.76224" lon="7.41501">
        <ele>177.338989</ele>
        <time>2010-07-03T07:14:28Z</time>
      </trkpt>
      <trkpt lat="48.76231" lon="7.41525">
        <ele>177.245239</ele>
        <time>2010-07-03T07:14:32Z</time>
      </trkpt>
      <trkpt lat="48.76238" lon="7.4155">
        <ele>177.510864</ele>
        <time>2010-07-03T07:14:36Z</time>
      </trkpt>
      <trkpt lat="48.76244" lon="7.4157">
        <ele>177.256958</ele>
        <time>2010-07-03T07:14:39Z</time>
      </trkpt>
      <trkpt lat="48.7625" lon="7.4159">
        <ele>177.229614</ele>
        <time>2010-07-03T07:14:42Z</time>
      </trkpt>
      <trkpt lat="48.76256" lon="7.4161">
        <ele>177.049927</ele>
        <time>2010-07-03T07:14:45Z</time>
      </trkpt>
      <trkpt lat="48.7626" lon="7.41635">
        <ele>176.854614</ele>
        <time>2010-07-03T07:14:49Z</time>
      </trkpt>
      <trkpt lat="48.76265" lon="7.41656">
        <ele>177.928833</ele>
        <time>2010-07-03T07:14:58Z</time>
      </trkpt>
      <trkpt lat="48.76268" lon="7.4168">
        <ele>178.178833</ele>
        <time>2010-07-03T07:15:05Z</time>
      </trkpt>
      <trkpt lat="48.76278" lon="7.41704">
        <ele>177.495239</ele>
        <time>2010-07-03T07:15:09Z</time>
      </trkpt>
      <trkpt lat="48.76288" lon="7.41723">
        <ele>175.956177</ele>
        <time>2010-07-03T07:15:13Z</time>
      </trkpt>
      <trkpt lat="48.76281" lon="7.41741">
        <ele>175.057739</ele>
        <time>2010-07-03T07:15:17Z</time>
      </trkpt>
      <trkpt lat="48.76269" lon="7.41756">
        <ele>174.838989</ele>
        <time>2010-07-03T07:15:21Z</time>
      </trkpt>
      <trkpt lat="48.76254" lon="7.41763">
        <ele>174.397583</ele>
        <time>2010-07-03T07:15:25Z</time>
      </trkpt>
      <trkpt lat="48.76253" lon="7.41784">
        <ele>173.346802</ele>
        <time>2010-07-03T07:15:29Z</time>
      </trkpt>
      <trkpt lat="48.7626" lon="7.41807">
        <ele>173.616333</ele>
        <time>2010-07-03T07:15:33Z</time>
      </trkpt>
      <trkpt lat="48.76267" lon="7.4183">
        <ele>173.358521</ele>
        <time>2010-07-03T07:15:37Z</time>
      </trkpt>
      <trkpt lat="48.76272" lon="7.4185">
        <ele>173.424927</ele>
        <time>2010-07-03T07:15:40Z</time>
      </trkpt>
      <trkpt lat="48.76278" lon="7.41869">
        <ele>173.272583</ele>
        <time>2010-07-03T07:15:43Z</time>
      </trkpt>
      <trkpt lat="48.76284" lon="7.41888">
        <ele>173.350708</ele>
        <time>2010-07-03T07:15:46Z</time>
      </trkpt>
      <trkpt lat="48.76299" lon="7.41894">
        <ele>172.799927</ele>
        <time>2010-07-03T07:15:50Z</time>
      </trkpt>
      <trkpt lat="48.76315" lon="7.41889">
        <ele>173.128052</ele>
        <time>2010-07-03T07:15:54Z</time>
      </trkpt>
      <trkpt lat="48.76324" lon="7.41906">
        <ele>173.276489</ele>
        <time>2010-07-03T07:15:58Z</time>
      </trkpt>
      <trkpt lat="48.76326" lon="7.4193">
        <ele>173.530396</ele>
        <time>2010-07-03T07:16:02Z</time>
      </trkpt>
      <trkpt lat="48.76327" lon="7.41956">
        <ele>173.452271</ele>
        <time>2010-07-03T07:16:06Z</time>
      </trkpt>
      <trkpt lat="48.76327" lon="7.41983">
        <ele>173.213989</ele>
        <time>2010-07-03T07:16:10Z</time>
      </trkpt>
      <trkpt lat="48.76327" lon="7.4201">
        <ele>173.171021</ele>
        <time>2010-07-03T07:16:14Z</time>
      </trkpt>
      <trkpt lat="48.76328" lon="7.42031">
        <ele>173.217896</ele>
        <time>2010-07-03T07:16:17Z</time>
      </trkpt>
      <trkpt lat="48.76327" lon="7.42053">
        <ele>172.585083</ele>
        <time>2010-07-03T07:16:20Z</time>
      </trkpt>
      <trkpt lat="48.76326" lon="7.42075">
        <ele>172.338989</ele>
        <time>2010-07-03T07:16:23Z</time>
      </trkpt>
      <trkpt lat="48.76326" lon="7.42096">
        <ele>172.506958</ele>
        <time>2010-07-03T07:16:26Z</time>
      </trkpt>
      <trkpt lat="48.76326" lon="7.42117">
        <ele>172.499146</ele>
        <time>2010-07-03T07:16:29Z</time>
      </trkpt>
      <trkpt lat="48.76326" lon="7.42138">
        <ele>172.577271</ele>
        <time>2010-07-03T07:16:32Z</time>
      </trkpt>
      <trkpt lat="48.76326" lon="7.4216">
        <ele>172.569458</ele>
        <time>2010-07-03T07:16:35Z</time>
      </trkpt>
      <trkpt lat="48.76326" lon="7.42182">
        <ele>172.366333</ele>
        <time>2010-07-03T07:16:38Z</time>
      </trkpt>
      <trkpt lat="48.76325" lon="7.42204">
        <ele>172.272583</ele>
        <time>2010-07-03T07:16:41Z</time>
      </trkpt>
      <trkpt lat="48.76326" lon="7.42225">
        <ele>172.253052</ele>
        <time>2010-07-03T07:16:44Z</time>
      </trkpt>
      <trkpt lat="48.76325" lon="7.42247">
        <ele>172.182739</ele>
        <time>2010-07-03T07:16:47Z</time>
      </trkpt>
      <trkpt lat="48.76324" lon="7.42268">
        <ele>172.331177</ele>
        <time>2010-07-03T07:16:50Z</time>
      </trkpt>
      <trkpt lat="48.76325" lon="7.42291">
        <ele>172.346802</ele>
        <time>2010-07-03T07:16:53Z</time>
      </trkpt>
      <trkpt lat="48.76325" lon="7.42313">
        <ele>172.100708</ele>
        <time>2010-07-03T07:16:56Z</time>
      </trkpt>
      <trkpt lat="48.76325" lon="7.42334">
        <ele>172.057739</ele>
        <time>2010-07-03T07:16:59Z</time>
      </trkpt>
      <trkpt lat="48.76325" lon="7.42356">
        <ele>172.307739</ele>
        <time>2010-07-03T07:17:02Z</time>
      </trkpt>
      <trkpt lat="48.76325" lon="7.42379">
        <ele>171.940552</ele>
        <time>2010-07-03T07:17:05Z</time>
      </trkpt>
      <trkpt lat="48.76325" lon="7.42401">
        <ele>172.147583</ele>
        <time>2010-07-03T07:17:08Z</time>
      </trkpt>
      <trkpt lat="48.76325" lon="7.42422">
        <ele>172.194458</ele>
        <time>2010-07-03T07:17:11Z</time>
      </trkpt>
      <trkpt lat="48.76325" lon="7.42443">
        <ele>172.346802</ele>
        <time>2010-07-03T07:17:14Z</time>
      </trkpt>
      <trkpt lat="48.76324" lon="7.4247">
        <ele>172.885864</ele>
        <time>2010-07-03T07:17:18Z</time>
      </trkpt>
      <trkpt lat="48.76325" lon="7.4249">
        <ele>172.999146</ele>
        <time>2010-07-03T07:17:21Z</time>
      </trkpt>
      <trkpt lat="48.76324" lon="7.42511">
        <ele>173.135864</ele>
        <time>2010-07-03T07:17:24Z</time>
      </trkpt>
      <trkpt lat="48.76324" lon="7.42532">
        <ele>173.186646</ele>
        <time>2010-07-03T07:17:27Z</time>
      </trkpt>
      <trkpt lat="48.76325" lon="7.42554">
        <ele>173.210083</ele>
        <time>2010-07-03T07:17:30Z</time>
      </trkpt>
      <trkpt lat="48.76325" lon="7.42577">
        <ele>173.100708</ele>
        <time>2010-07-03T07:17:33Z</time>
      </trkpt>
      <trkpt lat="48.76325" lon="7.426">
        <ele>172.893677</ele>
        <time>2010-07-03T07:17:36Z</time>
      </trkpt>
      <trkpt lat="48.76325" lon="7.42623">
        <ele>172.612427</ele>
        <time>2010-07-03T07:17:39Z</time>
      </trkpt>
      <trkpt lat="48.76325" lon="7.42646">
        <ele>172.393677</ele>
        <time>2010-07-03T07:17:42Z</time>
      </trkpt>
      <trkpt lat="48.76326" lon="7.42668">
        <ele>171.967896</ele>
        <time>2010-07-03T07:17:45Z</time>
      </trkpt>
      <trkpt lat="48.76325" lon="7.42691">
        <ele>171.647583</ele>
        <time>2010-07-03T07:17:48Z</time>
      </trkpt>
      <trkpt lat="48.76325" lon="7.42713">
        <ele>171.495239</ele>
        <time>2010-07-03T07:17:51Z</time>
      </trkpt>
      <trkpt lat="48.76325" lon="7.42735">
        <ele>171.003052</ele>
        <time>2010-07-03T07:17:54Z</time>
      </trkpt>
      <trkpt lat="48.76325" lon="7.42758">
        <ele>170.827271</ele>
        <time>2010-07-03T07:17:57Z</time>
      </trkpt>
      <trkpt lat="48.76325" lon="7.4278">
        <ele>170.889771</ele>
        <time>2010-07-03T07:18:00Z</time>
      </trkpt>
      <trkpt lat="48.76325" lon="7.42801">
        <ele>170.674927</ele>
        <time>2010-07-03T07:18:03Z</time>
      </trkpt>
      <trkpt lat="48.76325" lon="7.42823">
        <ele>170.838989</ele>
        <time>2010-07-03T07:18:06Z</time>
      </trkpt>
      <trkpt lat="48.76325" lon="7.42845">
        <ele>170.874146</ele>
        <time>2010-07-03T07:18:09Z</time>
      </trkpt>
      <trkpt lat="48.76325" lon="7.42867">
        <ele>171.108521</ele>
        <time>2010-07-03T07:18:12Z</time>
      </trkpt>
      <trkpt lat="48.76325" lon="7.42889">
        <ele>171.417114</ele>
        <time>2010-07-03T07:18:15Z</time>
      </trkpt>
      <trkpt lat="48.76324" lon="7.42912">
        <ele>171.944458</ele>
        <time>2010-07-03T07:18:18Z</time>
      </trkpt>
      <trkpt lat="48.76323" lon="7.42934">
        <ele>172.217896</ele>
        <time>2010-07-03T07:18:21Z</time>
      </trkpt>
      <trkpt lat="48.76323" lon="7.42956">
        <ele>172.186646</ele>
        <time>2010-07-03T07:18:24Z</time>
      </trkpt>
      <trkpt lat="48.7632" lon="7.42977">
        <ele>172.198364</ele>
        <time>2010-07-03T07:18:27Z</time>
      </trkpt>
      <trkpt lat="48.76319" lon="7.42999">
        <ele>172.393677</ele>
        <time>2010-07-03T07:18:30Z</time>
      </trkpt>
      <trkpt lat="48.76317" lon="7.43021">
        <ele>172.858521</ele>
        <time>2010-07-03T07:18:33Z</time>
      </trkpt>
      <trkpt lat="48.76315" lon="7.43042">
        <ele>172.639771</ele>
        <time>2010-07-03T07:18:36Z</time>
      </trkpt>
      <trkpt lat="48.76314" lon="7.43064">
        <ele>172.456177</ele>
        <time>2010-07-03T07:18:39Z</time>
      </trkpt>
      <trkpt lat="48.76312" lon="7.43086">
        <ele>172.190552</ele>
        <time>2010-07-03T07:18:42Z</time>
      </trkpt>
      <trkpt lat="48.76309" lon="7.43107">
        <ele>172.358521</ele>
        <time>2010-07-03T07:18:45Z</time>
      </trkpt>
      <trkpt lat="48.76307" lon="7.43129">
        <ele>172.198364</ele>
        <time>2010-07-03T07:18:48Z</time>
      </trkpt>
      <trkpt lat="48.76305" lon="7.43151">
        <ele>172.178833</ele>
        <time>2010-07-03T07:18:51Z</time>
      </trkpt>
      <trkpt lat="48.76301" lon="7.43172">
        <ele>172.206177</ele>
        <time>2010-07-03T07:18:54Z</time>
      </trkpt>
      <trkpt lat="48.76299" lon="7.43194">
        <ele>172.389771</ele>
        <time>2010-07-03T07:18:57Z</time>
      </trkpt>
      <trkpt lat="48.76295" lon="7.43215">
        <ele>172.577271</ele>
        <time>2010-07-03T07:19:00Z</time>
      </trkpt>
      <trkpt lat="48.76292" lon="7.43237">
        <ele>172.702271</ele>
        <time>2010-07-03T07:19:03Z</time>
      </trkpt>
      <trkpt lat="48.76289" lon="7.43259">
        <ele>172.838989</ele>
        <time>2010-07-03T07:19:06Z</time>
      </trkpt>
      <trkpt lat="48.76285" lon="7.43281">
        <ele>172.561646</ele>
        <time>2010-07-03T07:19:09Z</time>
      </trkpt>
      <trkpt lat="48.76281" lon="7.43303">
        <ele>172.534302</ele>
        <time>2010-07-03T07:19:12Z</time>
      </trkpt>
      <trkpt lat="48.76277" lon="7.43325">
        <ele>172.608521</ele>
        <time>2010-07-03T07:19:15Z</time>
      </trkpt>
      <trkpt lat="48.76273" lon="7.43345">
        <ele>172.788208</ele>
        <time>2010-07-03T07:19:18Z</time>
      </trkpt>
      <trkpt lat="48.76269" lon="7.43367">
        <ele>172.803833</ele>
        <time>2010-07-03T07:19:21Z</time>
      </trkpt>
      <trkpt lat="48.76264" lon="7.43388">
        <ele>172.549927</ele>
        <time>2010-07-03T07:19:24Z</time>
      </trkpt>
      <trkpt lat="48.7626" lon="7.43409">
        <ele>172.651489</ele>
        <time>2010-07-03T07:19:27Z</time>
      </trkpt>
      <trkpt lat="48.76255" lon="7.4343">
        <ele>172.631958</ele>
        <time>2010-07-03T07:19:30Z</time>
      </trkpt>
      <trkpt lat="48.76251" lon="7.4345">
        <ele>173.264771</ele>
        <time>2010-07-03T07:19:33Z</time>
      </trkpt>
      <trkpt lat="48.76246" lon="7.43469">
        <ele>173.796021</ele>
        <time>2010-07-03T07:19:36Z</time>
      </trkpt>
      <trkpt lat="48.76241" lon="7.43489">
        <ele>173.917114</ele>
        <time>2010-07-03T07:19:39Z</time>
      </trkpt>
      <trkpt lat="48.76236" lon="7.4351">
        <ele>174.046021</ele>
        <time>2010-07-03T07:19:42Z</time>
      </trkpt>
      <trkpt lat="48.7623" lon="7.43531">
        <ele>174.049927</ele>
        <time>2010-07-03T07:19:45Z</time>
      </trkpt>
      <trkpt lat="48.76225" lon="7.43551">
        <ele>174.264771</ele>
        <time>2010-07-03T07:19:48Z</time>
      </trkpt>
      <trkpt lat="48.76219" lon="7.43571">
        <ele>174.514771</ele>
        <time>2010-07-03T07:19:51Z</time>
      </trkpt>
      <trkpt lat="48.76213" lon="7.43592">
        <ele>175.065552</ele>
        <time>2010-07-03T07:19:54Z</time>
      </trkpt>
      <trkpt lat="48.76205" lon="7.43612">
        <ele>175.467896</ele>
        <time>2010-07-03T07:19:57Z</time>
      </trkpt>
      <trkpt lat="48.76199" lon="7.43632">
        <ele>175.733521</ele>
        <time>2010-07-03T07:20:00Z</time>
      </trkpt>
      <trkpt lat="48.76193" lon="7.43653">
        <ele>176.186646</ele>
        <time>2010-07-03T07:20:03Z</time>
      </trkpt>
      <trkpt lat="48.76186" lon="7.43673">
        <ele>177.026489</ele>
        <time>2010-07-03T07:20:06Z</time>
      </trkpt>
      <trkpt lat="48.76179" lon="7.43693">
        <ele>177.631958</ele>
        <time>2010-07-03T07:20:09Z</time>
      </trkpt>
      <trkpt lat="48.76171" lon="7.43713">
        <ele>178.178833</ele>
        <time>2010-07-03T07:20:12Z</time>
      </trkpt>
      <trkpt lat="48.76164" lon="7.43732">
        <ele>178.643677</ele>
        <time>2010-07-03T07:20:15Z</time>
      </trkpt>
      <trkpt lat="48.76157" lon="7.43751">
        <ele>178.655396</ele>
        <time>2010-07-03T07:20:18Z</time>
      </trkpt>
      <trkpt lat="48.7615" lon="7.4377">
        <ele>178.694458</ele>
        <time>2010-07-03T07:20:21Z</time>
      </trkpt>
      <trkpt lat="48.76143" lon="7.43789">
        <ele>178.741333</ele>
        <time>2010-07-03T07:20:24Z</time>
      </trkpt>
      <trkpt lat="48.76136" lon="7.43807">
        <ele>179.014771</ele>
        <time>2010-07-03T07:20:27Z</time>
      </trkpt>
      <trkpt lat="48.76129" lon="7.43826">
        <ele>179.405396</ele>
        <time>2010-07-03T07:20:30Z</time>
      </trkpt>
      <trkpt lat="48.76123" lon="7.43844">
        <ele>179.225708</ele>
        <time>2010-07-03T07:20:33Z</time>
      </trkpt>
      <trkpt lat="48.76115" lon="7.43864">
        <ele>178.928833</ele>
        <time>2010-07-03T07:20:37Z</time>
      </trkpt>
      <trkpt lat="48.76107" lon="7.43886">
        <ele>178.928833</ele>
        <time>2010-07-03T07:20:41Z</time>
      </trkpt>
      <trkpt lat="48.761" lon="7.43906">
        <ele>178.940552</ele>
        <time>2010-07-03T07:20:45Z</time>
      </trkpt>
      <trkpt lat="48.76092" lon="7.43927">
        <ele>178.694458</ele>
        <time>2010-07-03T07:20:49Z</time>
      </trkpt>
      <trkpt lat="48.76085" lon="7.43949">
        <ele>178.413208</ele>
        <time>2010-07-03T07:20:53Z</time>
      </trkpt>
      <trkpt lat="48.76077" lon="7.4397">
        <ele>178.288208</ele>
        <time>2010-07-03T07:20:57Z</time>
      </trkpt>
      <trkpt lat="48.76069" lon="7.4399">
        <ele>178.280396</ele>
        <time>2010-07-03T07:21:01Z</time>
      </trkpt>
      <trkpt lat="48.7606" lon="7.44013">
        <ele>177.838989</ele>
        <time>2010-07-03T07:21:05Z</time>
      </trkpt>
      <trkpt lat="48.76053" lon="7.4403">
        <ele>177.921021</ele>
        <time>2010-07-03T07:21:08Z</time>
      </trkpt>
      <trkpt lat="48.76046" lon="7.44048">
        <ele>178.143677</ele>
        <time>2010-07-03T07:21:11Z</time>
      </trkpt>
      <trkpt lat="48.76039" lon="7.44067">
        <ele>178.299927</ele>
        <time>2010-07-03T07:21:14Z</time>
      </trkpt>
      <trkpt lat="48.76032" lon="7.44086">
        <ele>178.331177</ele>
        <time>2010-07-03T07:21:17Z</time>
      </trkpt>
      <trkpt lat="48.76026" lon="7.44104">
        <ele>178.331177</ele>
        <time>2010-07-03T07:21:20Z</time>
      </trkpt>
      <trkpt lat="48.76019" lon="7.44123">
        <ele>178.417114</ele>
        <time>2010-07-03T07:21:23Z</time>
      </trkpt>
      <trkpt lat="48.76012" lon="7.44142">
        <ele>178.530396</ele>
        <time>2010-07-03T07:21:26Z</time>
      </trkpt>
      <trkpt lat="48.76005" lon="7.44161">
        <ele>179.049927</ele>
        <time>2010-07-03T07:21:29Z</time>
      </trkpt>
      <trkpt lat="48.75998" lon="7.4418">
        <ele>179.354614</ele>
        <time>2010-07-03T07:21:32Z</time>
      </trkpt>
      <trkpt lat="48.75991" lon="7.442">
        <ele>179.350708</ele>
        <time>2010-07-03T07:21:35Z</time>
      </trkpt>
      <trkpt lat="48.75983" lon="7.44219">
        <ele>179.460083</ele>
        <time>2010-07-03T07:21:38Z</time>
      </trkpt>
      <trkpt lat="48.75977" lon="7.44239">
        <ele>179.354614</ele>
        <time>2010-07-03T07:21:41Z</time>
      </trkpt>
      <trkpt lat="48.75969" lon="7.44258">
        <ele>179.530396</ele>
        <time>2010-07-03T07:21:44Z</time>
      </trkpt>
      <trkpt lat="48.75962" lon="7.44277">
        <ele>179.518677</ele>
        <time>2010-07-03T07:21:47Z</time>
      </trkpt>
      <trkpt lat="48.75956" lon="7.44296">
        <ele>179.682739</ele>
        <time>2010-07-03T07:21:50Z</time>
      </trkpt>
      <trkpt lat="48.75948" lon="7.44315">
        <ele>179.823364</ele>
        <time>2010-07-03T07:21:53Z</time>
      </trkpt>
      <trkpt lat="48.75941" lon="7.44334">
        <ele>179.628052</ele>
        <time>2010-07-03T07:21:56Z</time>
      </trkpt>
      <trkpt lat="48.75934" lon="7.44354">
        <ele>179.710083</ele>
        <time>2010-07-03T07:21:59Z</time>
      </trkpt>
      <trkpt lat="48.75926" lon="7.44374">
        <ele>179.643677</ele>
        <time>2010-07-03T07:22:02Z</time>
      </trkpt>
      <trkpt lat="48.75919" lon="7.44393">
        <ele>179.936646</ele>
        <time>2010-07-03T07:22:05Z</time>
      </trkpt>
      <trkpt lat="48.75911" lon="7.44413">
        <ele>179.975708</ele>
        <time>2010-07-03T07:22:08Z</time>
      </trkpt>
      <trkpt lat="48.75903" lon="7.44433">
        <ele>179.631958</ele>
        <time>2010-07-03T07:22:11Z</time>
      </trkpt>
      <trkpt lat="48.75896" lon="7.44453">
        <ele>180.046021</ele>
        <time>2010-07-03T07:22:14Z</time>
      </trkpt>
      <trkpt lat="48.75888" lon="7.44471">
        <ele>180.202271</ele>
        <time>2010-07-03T07:22:17Z</time>
      </trkpt>
      <trkpt lat="48.7588" lon="7.44489">
        <ele>180.319458</ele>
        <time>2010-07-03T07:22:20Z</time>
      </trkpt>
      <trkpt lat="48.75871" lon="7.44507">
        <ele>180.764771</ele>
        <time>2010-07-03T07:22:23Z</time>
      </trkpt>
      <trkpt lat="48.75862" lon="7.44524">
        <ele>181.030396</ele>
        <time>2010-07-03T07:22:26Z</time>
      </trkpt>
      <trkpt lat="48.75852" lon="7.44543">
        <ele>180.713989</ele>
        <time>2010-07-03T07:22:29Z</time>
      </trkpt>
      <trkpt lat="48.75842" lon="7.44559">
        <ele>180.178833</ele>
        <time>2010-07-03T07:22:32Z</time>
      </trkpt>
      <trkpt lat="48.7583" lon="7.44573">
        <ele>179.749146</ele>
        <time>2010-07-03T07:22:35Z</time>
      </trkpt>
      <trkpt lat="48.75819" lon="7.44586">
        <ele>179.971802</ele>
        <time>2010-07-03T07:22:38Z</time>
      </trkpt>
      <trkpt lat="48.75806" lon="7.446">
        <ele>179.921021</ele>
        <time>2010-07-03T07:22:41Z</time>
      </trkpt>
      <trkpt lat="48.75794" lon="7.44612">
        <ele>180.018677</ele>
        <time>2010-07-03T07:22:44Z</time>
      </trkpt>
      <trkpt lat="48.75781" lon="7.44624">
        <ele>180.686646</ele>
        <time>2010-07-03T07:22:47Z</time>
      </trkpt>
      <trkpt lat="48.75766" lon="7.44636">
        <ele>180.698364</ele>
        <time>2010-07-03T07:22:50Z</time>
      </trkpt>
      <trkpt lat="48.75753" lon="7.44646">
        <ele>180.331177</ele>
        <time>2010-07-03T07:22:53Z</time>
      </trkpt>
      <trkpt lat="48.75738" lon="7.44657">
        <ele>180.979614</ele>
        <time>2010-07-03T07:22:56Z</time>
      </trkpt>
      <trkpt lat="48.75723" lon="7.44665">
        <ele>181.471802</ele>
        <time>2010-07-03T07:22:59Z</time>
      </trkpt>
      <trkpt lat="48.75709" lon="7.44674">
        <ele>182.194458</ele>
        <time>2010-07-03T07:23:02Z</time>
      </trkpt>
      <trkpt lat="48.75693" lon="7.44683">
        <ele>182.499146</ele>
        <time>2010-07-03T07:23:06Z</time>
      </trkpt>
      <trkpt lat="48.75678" lon="7.44691">
        <ele>182.737427</ele>
        <time>2010-07-03T07:23:10Z</time>
      </trkpt>
      <trkpt lat="48.75665" lon="7.44697">
        <ele>182.409302</ele>
        <time>2010-07-03T07:23:16Z</time>
      </trkpt>
      <trkpt lat="48.75651" lon="7.44703">
        <ele>179.967896</ele>
        <time>2010-07-03T07:24:27Z</time>
      </trkpt>
      <trkpt lat="48.75638" lon="7.44708">
        <ele>180.081177</ele>
        <time>2010-07-03T07:24:31Z</time>
      </trkpt>
      <trkpt lat="48.75622" lon="7.44716">
        <ele>180.307739</ele>
        <time>2010-07-03T07:24:35Z</time>
      </trkpt>
      <trkpt lat="48.75608" lon="7.44723">
        <ele>180.674927</ele>
        <time>2010-07-03T07:24:38Z</time>
      </trkpt>
      <trkpt lat="48.75592" lon="7.44731">
        <ele>180.760864</ele>
        <time>2010-07-03T07:24:41Z</time>
      </trkpt>
      <trkpt lat="48.75574" lon="7.44741">
        <ele>180.846802</ele>
        <time>2010-07-03T07:24:44Z</time>
      </trkpt>
      <trkpt lat="48.75561" lon="7.44748">
        <ele>180.815552</ele>
        <time>2010-07-03T07:24:46Z</time>
      </trkpt>
      <trkpt lat="48.75547" lon="7.44756">
        <ele>180.893677</ele>
        <time>2010-07-03T07:24:48Z</time>
      </trkpt>
      <trkpt lat="48.75534" lon="7.44762">
        <ele>180.948364</ele>
        <time>2010-07-03T07:24:50Z</time>
      </trkpt>
      <trkpt lat="48.75521" lon="7.44769">
        <ele>180.827271</ele>
        <time>2010-07-03T07:24:52Z</time>
      </trkpt>
      <trkpt lat="48.75503" lon="7.44779">
        <ele>180.952271</ele>
        <time>2010-07-03T07:24:55Z</time>
      </trkpt>
      <trkpt lat="48.75486" lon="7.44789">
        <ele>181.190552</ele>
        <time>2010-07-03T07:24:58Z</time>
      </trkpt>
      <trkpt lat="48.75468" lon="7.44801">
        <ele>181.409302</ele>
        <time>2010-07-03T07:25:01Z</time>
      </trkpt>
      <trkpt lat="48.75451" lon="7.44814">
        <ele>181.159302</ele>
        <time>2010-07-03T07:25:04Z</time>
      </trkpt>
      <trkpt lat="48.75434" lon="7.44828">
        <ele>181.030396</ele>
        <time>2010-07-03T07:25:07Z</time>
      </trkpt>
      <trkpt lat="48.75417" lon="7.44844">
        <ele>181.034302</ele>
        <time>2010-07-03T07:25:10Z</time>
      </trkpt>
      <trkpt lat="48.75406" lon="7.44856">
        <ele>180.889771</ele>
        <time>2010-07-03T07:25:12Z</time>
      </trkpt>
      <trkpt lat="48.7539" lon="7.44873">
        <ele>180.944458</ele>
        <time>2010-07-03T07:25:15Z</time>
      </trkpt>
      <trkpt lat="48.75375" lon="7.4489">
        <ele>181.213989</ele>
        <time>2010-07-03T07:25:18Z</time>
      </trkpt>
      <trkpt lat="48.75361" lon="7.44907">
        <ele>181.358521</ele>
        <time>2010-07-03T07:25:21Z</time>
      </trkpt>
      <trkpt lat="48.75345" lon="7.44924">
        <ele>181.952271</ele>
        <time>2010-07-03T07:25:24Z</time>
      </trkpt>
      <trkpt lat="48.7533" lon="7.4494">
        <ele>181.749146</ele>
        <time>2010-07-03T07:25:27Z</time>
      </trkpt>
      <trkpt lat="48.75319" lon="7.44955">
        <ele>181.421021</ele>
        <time>2010-07-03T07:25:30Z</time>
      </trkpt>
      <trkpt lat="48.75308" lon="7.44968">
        <ele>180.960083</ele>
        <time>2010-07-03T07:25:34Z</time>
      </trkpt>
      <trkpt lat="48.75295" lon="7.44981">
        <ele>180.940552</ele>
        <time>2010-07-03T07:25:38Z</time>
      </trkpt>
      <trkpt lat="48.75283" lon="7.44993">
        <ele>180.776489</ele>
        <time>2010-07-03T07:25:42Z</time>
      </trkpt>
      <trkpt lat="48.75272" lon="7.45007">
        <ele>180.592896</ele>
        <time>2010-07-03T07:25:46Z</time>
      </trkpt>
      <trkpt lat="48.7526" lon="7.4502">
        <ele>179.862427</ele>
        <time>2010-07-03T07:25:50Z</time>
      </trkpt>
      <trkpt lat="48.75246" lon="7.45031">
        <ele>180.065552</ele>
        <time>2010-07-03T07:25:55Z</time>
      </trkpt>
      <trkpt lat="48.75232" lon="7.45039">
        <ele>179.952271</ele>
        <time>2010-07-03T07:26:00Z</time>
      </trkpt>
      <trkpt lat="48.75217" lon="7.45044">
        <ele>179.354614</ele>
        <time>2010-07-03T07:26:05Z</time>
      </trkpt>
      <trkpt lat="48.75203" lon="7.45049">
        <ele>178.467896</ele>
        <time>2010-07-03T07:26:10Z</time>
      </trkpt>
      <trkpt lat="48.75188" lon="7.45053">
        <ele>178.272583</ele>
        <time>2010-07-03T07:26:15Z</time>
      </trkpt>
      <trkpt lat="48.75174" lon="7.45058">
        <ele>178.038208</ele>
        <time>2010-07-03T07:26:20Z</time>
      </trkpt>
      <trkpt lat="48.7516" lon="7.45066">
        <ele>177.467896</ele>
        <time>2010-07-03T07:26:25Z</time>
      </trkpt>
      <trkpt lat="48.75146" lon="7.45075">
        <ele>177.085083</ele>
        <time>2010-07-03T07:26:30Z</time>
      </trkpt>
      <trkpt lat="48.75132" lon="7.45084">
        <ele>177.264771</ele>
        <time>2010-07-03T07:26:35Z</time>
      </trkpt>
      <trkpt lat="48.7512" lon="7.45095">
        <ele>177.092896</ele>
        <time>2010-07-03T07:26:39Z</time>
      </trkpt>
      <trkpt lat="48.75107" lon="7.45109">
        <ele>177.210083</ele>
        <time>2010-07-03T07:26:44Z</time>
      </trkpt>
      <trkpt lat="48.75094" lon="7.45122">
        <ele>178.268677</ele>
        <time>2010-07-03T07:26:49Z</time>
      </trkpt>
      <trkpt lat="48.75081" lon="7.45135">
        <ele>178.530396</ele>
        <time>2010-07-03T07:26:54Z</time>
      </trkpt>
      <trkpt lat="48.75069" lon="7.45148">
        <ele>178.710083</ele>
        <time>2010-07-03T07:26:59Z</time>
      </trkpt>
      <trkpt lat="48.75057" lon="7.45159">
        <ele>179.299927</ele>
        <time>2010-07-03T07:27:03Z</time>
      </trkpt>
      <trkpt lat="48.75045" lon="7.4517">
        <ele>179.350708</ele>
        <time>2010-07-03T07:27:07Z</time>
      </trkpt>
      <trkpt lat="48.75034" lon="7.45186">
        <ele>179.374146</ele>
        <time>2010-07-03T07:27:11Z</time>
      </trkpt>
      <trkpt lat="48.75023" lon="7.45198">
        <ele>179.987427</ele>
        <time>2010-07-03T07:27:15Z</time>
      </trkpt>
      <trkpt lat="48.75022" lon="7.45219">
        <ele>180.600708</ele>
        <time>2010-07-03T07:27:19Z</time>
      </trkpt>
      <trkpt lat="48.75026" lon="7.4524">
        <ele>179.663208</ele>
        <time>2010-07-03T07:27:23Z</time>
      </trkpt>
      <trkpt lat="48.75028" lon="7.45259">
        <ele>174.698364</ele>
        <time>2010-07-03T07:30:39Z</time>
      </trkpt>
      <trkpt lat="48.75023" lon="7.45278">
        <ele>176.307739</ele>
        <time>2010-07-03T07:31:00Z</time>
      </trkpt>
      <trkpt lat="48.7501" lon="7.45291">
        <ele>177.128052</ele>
        <time>2010-07-03T07:31:08Z</time>
      </trkpt>
      <trkpt lat="48.74998" lon="7.45302">
        <ele>175.143677</ele>
        <time>2010-07-03T07:31:12Z</time>
      </trkpt>
      <trkpt lat="48.74987" lon="7.45313">
        <ele>171.838989</ele>
        <time>2010-07-03T07:31:16Z</time>
      </trkpt>
      <trkpt lat="48.74975" lon="7.45326">
        <ele>170.588989</ele>
        <time>2010-07-03T07:31:20Z</time>
      </trkpt>
      <trkpt lat="48.74964" lon="7.45339">
        <ele>171.577271</ele>
        <time>2010-07-03T07:31:25Z</time>
      </trkpt>
      <trkpt lat="48.74953" lon="7.45352">
        <ele>171.858521</ele>
        <time>2010-07-03T07:31:30Z</time>
      </trkpt>
      <trkpt lat="48.74943" lon="7.45367">
        <ele>172.350708</ele>
        <time>2010-07-03T07:31:34Z</time>
      </trkpt>
      <trkpt lat="48.7493" lon="7.45382">
        <ele>172.038208</ele>
        <time>2010-07-03T07:31:38Z</time>
      </trkpt>
      <trkpt lat="48.7492" lon="7.45398">
        <ele>171.081177</ele>
        <time>2010-07-03T07:31:42Z</time>
      </trkpt>
      <trkpt lat="48.74908" lon="7.45417">
        <ele>170.792114</ele>
        <time>2010-07-03T07:31:47Z</time>
      </trkpt>
      <trkpt lat="48.74897" lon="7.45437">
        <ele>170.671021</ele>
        <time>2010-07-03T07:31:52Z</time>
      </trkpt>
      <trkpt lat="48.74888" lon="7.45456">
        <ele>170.776489</ele>
        <time>2010-07-03T07:31:56Z</time>
      </trkpt>
      <trkpt lat="48.74879" lon="7.45476">
        <ele>170.424927</ele>
        <time>2010-07-03T07:32:00Z</time>
      </trkpt>
      <trkpt lat="48.7487" lon="7.45499">
        <ele>171.096802</ele>
        <time>2010-07-03T07:32:04Z</time>
      </trkpt>
      <trkpt lat="48.74862" lon="7.45523">
        <ele>171.186646</ele>
        <time>2010-07-03T07:32:08Z</time>
      </trkpt>
      <trkpt lat="48.74856" lon="7.45541">
        <ele>171.292114</ele>
        <time>2010-07-03T07:32:11Z</time>
      </trkpt>
      <trkpt lat="48.74848" lon="7.45565">
        <ele>170.917114</ele>
        <time>2010-07-03T07:32:15Z</time>
      </trkpt>
      <trkpt lat="48.74841" lon="7.4559">
        <ele>170.346802</ele>
        <time>2010-07-03T07:32:19Z</time>
      </trkpt>
      <trkpt lat="48.74836" lon="7.4561">
        <ele>170.182739</ele>
        <time>2010-07-03T07:32:22Z</time>
      </trkpt>
      <trkpt lat="48.74833" lon="7.45631">
        <ele>170.034302</ele>
        <time>2010-07-03T07:32:25Z</time>
      </trkpt>
      <trkpt lat="48.7483" lon="7.45652">
        <ele>170.253052</ele>
        <time>2010-07-03T07:32:28Z</time>
      </trkpt>
      <trkpt lat="48.74827" lon="7.45673">
        <ele>170.475708</ele>
        <time>2010-07-03T07:32:31Z</time>
      </trkpt>
      <trkpt lat="48.74824" lon="7.45693">
        <ele>170.452271</ele>
        <time>2010-07-03T07:32:34Z</time>
      </trkpt>
      <trkpt lat="48.74821" lon="7.45713">
        <ele>170.628052</ele>
        <time>2010-07-03T07:32:37Z</time>
      </trkpt>
      <trkpt lat="48.7482" lon="7.45735">
        <ele>170.858521</ele>
        <time>2010-07-03T07:32:40Z</time>
      </trkpt>
      <trkpt lat="48.7482" lon="7.45756">
        <ele>171.006958</ele>
        <time>2010-07-03T07:32:43Z</time>
      </trkpt>
      <trkpt lat="48.7482" lon="7.45777">
        <ele>171.249146</ele>
        <time>2010-07-03T07:32:46Z</time>
      </trkpt>
      <trkpt lat="48.74825" lon="7.45801">
        <ele>171.592896</ele>
        <time>2010-07-03T07:32:50Z</time>
      </trkpt>
      <trkpt lat="48.74825" lon="7.45823">
        <ele>171.737427</ele>
        <time>2010-07-03T07:32:55Z</time>
      </trkpt>
      <trkpt lat="48.74826" lon="7.45845">
        <ele>172.342896</ele>
        <time>2010-07-03T07:44:08Z</time>
      </trkpt>
      <trkpt lat="48.74824" lon="7.45866">
        <ele>173.131958</ele>
        <time>2010-07-03T07:44:15Z</time>
      </trkpt>
      <trkpt lat="48.74822" lon="7.45889">
        <ele>173.639771</ele>
        <time>2010-07-03T07:44:21Z</time>
      </trkpt>
      <trkpt lat="48.74822" lon="7.45911">
        <ele>172.901489</ele>
        <time>2010-07-03T07:44:28Z</time>
      </trkpt>
      <trkpt lat="48.74822" lon="7.45937">
        <ele>172.249146</ele>
        <time>2010-07-03T07:44:32Z</time>
      </trkpt>
      <trkpt lat="48.74822" lon="7.4596">
        <ele>171.405396</ele>
        <time>2010-07-03T07:44:35Z</time>
      </trkpt>
      <trkpt lat="48.74822" lon="7.45984">
        <ele>171.096802</ele>
        <time>2010-07-03T07:44:38Z</time>
      </trkpt>
      <trkpt lat="48.74823" lon="7.46007">
        <ele>171.131958</ele>
        <time>2010-07-03T07:44:41Z</time>
      </trkpt>
      <trkpt lat="48.74823" lon="7.4603">
        <ele>171.088989</ele>
        <time>2010-07-03T07:44:44Z</time>
      </trkpt>
      <trkpt lat="48.74824" lon="7.46054">
        <ele>170.921021</ele>
        <time>2010-07-03T07:44:47Z</time>
      </trkpt>
      <trkpt lat="48.74825" lon="7.46076">
        <ele>170.553833</ele>
        <time>2010-07-03T07:44:50Z</time>
      </trkpt>
      <trkpt lat="48.74825" lon="7.461">
        <ele>170.651489</ele>
        <time>2010-07-03T07:44:53Z</time>
      </trkpt>
      <trkpt lat="48.74825" lon="7.46123">
        <ele>170.967896</ele>
        <time>2010-07-03T07:44:56Z</time>
      </trkpt>
      <trkpt lat="48.74825" lon="7.46145">
        <ele>171.096802</ele>
        <time>2010-07-03T07:44:59Z</time>
      </trkpt>
      <trkpt lat="48.74825" lon="7.46167">
        <ele>171.006958</ele>
        <time>2010-07-03T07:45:02Z</time>
      </trkpt>
      <trkpt lat="48.74825" lon="7.46189">
        <ele>170.756958</ele>
        <time>2010-07-03T07:45:05Z</time>
      </trkpt>
      <trkpt lat="48.74823" lon="7.4621">
        <ele>171.120239</ele>
        <time>2010-07-03T07:45:08Z</time>
      </trkpt>
      <trkpt lat="48.74822" lon="7.46234">
        <ele>171.354614</ele>
        <time>2010-07-03T07:45:12Z</time>
      </trkpt>
      <trkpt lat="48.74819" lon="7.46254">
        <ele>171.991333</ele>
        <time>2010-07-03T07:45:16Z</time>
      </trkpt>
      <trkpt lat="48.74815" lon="7.46278">
        <ele>172.014771</ele>
        <time>2010-07-03T07:45:21Z</time>
      </trkpt>
      <trkpt lat="48.7481" lon="7.46299">
        <ele>172.155396</ele>
        <time>2010-07-03T07:45:25Z</time>
      </trkpt>
      <trkpt lat="48.74804" lon="7.46318">
        <ele>172.514771</ele>
        <time>2010-07-03T07:45:29Z</time>
      </trkpt>
      <trkpt lat="48.74788" lon="7.4633">
        <ele>172.385864</ele>
        <time>2010-07-03T07:45:33Z</time>
      </trkpt>
      <trkpt lat="48.74774" lon="7.46339">
        <ele>173.022583</ele>
        <time>2010-07-03T07:45:37Z</time>
      </trkpt>
      <trkpt lat="48.74765" lon="7.46357">
        <ele>173.811646</ele>
        <time>2010-07-03T07:45:43Z</time>
      </trkpt>
      <trkpt lat="48.74754" lon="7.46369">
        <ele>174.335083</ele>
        <time>2010-07-03T07:46:02Z</time>
      </trkpt>
      <trkpt lat="48.74746" lon="7.46386">
        <ele>173.311646</ele>
        <time>2010-07-03T07:46:10Z</time>
      </trkpt>
      <trkpt lat="48.74747" lon="7.46408">
        <ele>173.432739</ele>
        <time>2010-07-03T07:46:29Z</time>
      </trkpt>
      <trkpt lat="48.74741" lon="7.46428">
        <ele>172.901489</ele>
        <time>2010-07-03T07:46:33Z</time>
      </trkpt>
      <trkpt lat="48.74735" lon="7.46453">
        <ele>172.764771</ele>
        <time>2010-07-03T07:46:37Z</time>
      </trkpt>
      <trkpt lat="48.74728" lon="7.46473">
        <ele>172.749146</ele>
        <time>2010-07-03T07:46:40Z</time>
      </trkpt>
      <trkpt lat="48.74721" lon="7.46492">
        <ele>172.432739</ele>
        <time>2010-07-03T07:46:43Z</time>
      </trkpt>
      <trkpt lat="48.74714" lon="7.4651">
        <ele>172.647583</ele>
        <time>2010-07-03T07:46:46Z</time>
      </trkpt>
      <trkpt lat="48.74705" lon="7.46527">
        <ele>172.151489</ele>
        <time>2010-07-03T07:46:49Z</time>
      </trkpt>
      <trkpt lat="48.74696" lon="7.46542">
        <ele>172.018677</ele>
        <time>2010-07-03T07:46:52Z</time>
      </trkpt>
      <trkpt lat="48.74686" lon="7.46558">
        <ele>171.854614</ele>
        <time>2010-07-03T07:46:55Z</time>
      </trkpt>
      <trkpt lat="48.74677" lon="7.46574">
        <ele>171.749146</ele>
        <time>2010-07-03T07:46:58Z</time>
      </trkpt>
      <trkpt lat="48.74668" lon="7.4659">
        <ele>171.655396</ele>
        <time>2010-07-03T07:47:01Z</time>
      </trkpt>
      <trkpt lat="48.74659" lon="7.46606">
        <ele>172.038208</ele>
        <time>2010-07-03T07:47:04Z</time>
      </trkpt>
      <trkpt lat="48.7465" lon="7.46622">
        <ele>172.401489</ele>
        <time>2010-07-03T07:47:07Z</time>
      </trkpt>
      <trkpt lat="48.74639" lon="7.46643">
        <ele>172.557739</ele>
        <time>2010-07-03T07:47:11Z</time>
      </trkpt>
      <trkpt lat="48.74628" lon="7.46664">
        <ele>172.881958</ele>
        <time>2010-07-03T07:47:15Z</time>
      </trkpt>
      <trkpt lat="48.74621" lon="7.46681">
        <ele>172.944458</ele>
        <time>2010-07-03T07:47:18Z</time>
      </trkpt>
      <trkpt lat="48.74612" lon="7.46698">
        <ele>172.784302</ele>
        <time>2010-07-03T07:47:21Z</time>
      </trkpt>
      <trkpt lat="48.74604" lon="7.46715">
        <ele>172.811646</ele>
        <time>2010-07-03T07:47:24Z</time>
      </trkpt>
      <trkpt lat="48.74596" lon="7.46733">
        <ele>172.616333</ele>
        <time>2010-07-03T07:47:27Z</time>
      </trkpt>
      <trkpt lat="48.74588" lon="7.4675">
        <ele>172.417114</ele>
        <time>2010-07-03T07:47:30Z</time>
      </trkpt>
      <trkpt lat="48.74581" lon="7.46768">
        <ele>172.303833</ele>
        <time>2010-07-03T07:47:33Z</time>
      </trkpt>
      <trkpt lat="48.74573" lon="7.46785">
        <ele>171.983521</ele>
        <time>2010-07-03T07:47:36Z</time>
      </trkpt>
      <trkpt lat="48.74564" lon="7.46809">
        <ele>172.229614</ele>
        <time>2010-07-03T07:47:40Z</time>
      </trkpt>
      <trkpt lat="48.74557" lon="7.46826">
        <ele>172.073364</ele>
        <time>2010-07-03T07:47:43Z</time>
      </trkpt>
      <trkpt lat="48.7455" lon="7.46845">
        <ele>172.088989</ele>
        <time>2010-07-03T07:47:46Z</time>
      </trkpt>
      <trkpt lat="48.74543" lon="7.46862">
        <ele>171.815552</ele>
        <time>2010-07-03T07:47:49Z</time>
      </trkpt>
      <trkpt lat="48.74537" lon="7.46881">
        <ele>171.393677</ele>
        <time>2010-07-03T07:47:52Z</time>
      </trkpt>
      <trkpt lat="48.7453" lon="7.46901">
        <ele>171.237427</ele>
        <time>2010-07-03T07:47:55Z</time>
      </trkpt>
      <trkpt lat="48.74522" lon="7.4692">
        <ele>171.499146</ele>
        <time>2010-07-03T07:47:58Z</time>
      </trkpt>
      <trkpt lat="48.74516" lon="7.46938">
        <ele>171.909302</ele>
        <time>2010-07-03T07:48:01Z</time>
      </trkpt>
      <trkpt lat="48.74509" lon="7.46961">
        <ele>172.182739</ele>
        <time>2010-07-03T07:48:05Z</time>
      </trkpt>
      <trkpt lat="48.74503" lon="7.4698">
        <ele>172.272583</ele>
        <time>2010-07-03T07:48:08Z</time>
      </trkpt>
      <trkpt lat="48.74497" lon="7.46999">
        <ele>172.702271</ele>
        <time>2010-07-03T07:48:11Z</time>
      </trkpt>
      <trkpt lat="48.74491" lon="7.47017">
        <ele>172.643677</ele>
        <time>2010-07-03T07:48:14Z</time>
      </trkpt>
      <trkpt lat="48.74485" lon="7.47036">
        <ele>172.756958</ele>
        <time>2010-07-03T07:48:17Z</time>
      </trkpt>
      <trkpt lat="48.74478" lon="7.4706">
        <ele>172.444458</ele>
        <time>2010-07-03T07:48:21Z</time>
      </trkpt>
      <trkpt lat="48.74472" lon="7.47083">
        <ele>172.495239</ele>
        <time>2010-07-03T07:48:25Z</time>
      </trkpt>
      <trkpt lat="48.74467" lon="7.47103">
        <ele>172.288208</ele>
        <time>2010-07-03T07:48:29Z</time>
      </trkpt>
      <trkpt lat="48.74462" lon="7.47123">
        <ele>171.827271</ele>
        <time>2010-07-03T07:48:34Z</time>
      </trkpt>
      <trkpt lat="48.74456" lon="7.47144">
        <ele>171.463989</ele>
        <time>2010-07-03T07:48:40Z</time>
      </trkpt>
      <trkpt lat="48.7445" lon="7.47163">
        <ele>171.799927</ele>
        <time>2010-07-03T07:48:45Z</time>
      </trkpt>
      <trkpt lat="48.74443" lon="7.47185">
        <ele>171.753052</ele>
        <time>2010-07-03T07:48:49Z</time>
      </trkpt>
      <trkpt lat="48.74435" lon="7.47209">
        <ele>171.862427</ele>
        <time>2010-07-03T07:48:53Z</time>
      </trkpt>
      <trkpt lat="48.74427" lon="7.47232">
        <ele>171.366333</ele>
        <time>2010-07-03T07:48:57Z</time>
      </trkpt>
      <trkpt lat="48.74421" lon="7.47257">
        <ele>171.721802</ele>
        <time>2010-07-03T07:49:01Z</time>
      </trkpt>
      <trkpt lat="48.74413" lon="7.47281">
        <ele>171.737427</ele>
        <time>2010-07-03T07:49:05Z</time>
      </trkpt>
      <trkpt lat="48.74406" lon="7.47304">
        <ele>171.604614</ele>
        <time>2010-07-03T07:49:09Z</time>
      </trkpt>
      <trkpt lat="48.74398" lon="7.47327">
        <ele>171.616333</ele>
        <time>2010-07-03T07:49:13Z</time>
      </trkpt>
      <trkpt lat="48.74392" lon="7.47347">
        <ele>171.331177</ele>
        <time>2010-07-03T07:49:17Z</time>
      </trkpt>
      <trkpt lat="48.74385" lon="7.47368">
        <ele>171.713989</ele>
        <time>2010-07-03T07:49:21Z</time>
      </trkpt>
      <trkpt lat="48.74378" lon="7.47391">
        <ele>171.616333</ele>
        <time>2010-07-03T07:49:26Z</time>
      </trkpt>
      <trkpt lat="48.74372" lon="7.4741">
        <ele>171.245239</ele>
        <time>2010-07-03T07:49:50Z</time>
      </trkpt>
      <trkpt lat="48.74365" lon="7.4743">
        <ele>169.799927</ele>
        <time>2010-07-03T07:50:00Z</time>
      </trkpt>
      <trkpt lat="48.74358" lon="7.47449">
        <ele>170.756958</ele>
        <time>2010-07-03T07:50:05Z</time>
      </trkpt>
      <trkpt lat="48.74352" lon="7.47471">
        <ele>170.760864</ele>
        <time>2010-07-03T07:50:09Z</time>
      </trkpt>
      <trkpt lat="48.74346" lon="7.47494">
        <ele>169.756958</ele>
        <time>2010-07-03T07:50:12Z</time>
      </trkpt>
      <trkpt lat="48.7434" lon="7.47521">
        <ele>168.963989</ele>
        <time>2010-07-03T07:50:15Z</time>
      </trkpt>
      <trkpt lat="48.74333" lon="7.47545">
        <ele>168.663208</ele>
        <time>2010-07-03T07:50:18Z</time>
      </trkpt>
      <trkpt lat="48.74326" lon="7.47566">
        <ele>168.444458</ele>
        <time>2010-07-03T07:50:21Z</time>
      </trkpt>
      <trkpt lat="48.7432" lon="7.47585">
        <ele>168.729614</ele>
        <time>2010-07-03T07:50:24Z</time>
      </trkpt>
      <trkpt lat="48.74313" lon="7.47609">
        <ele>169.014771</ele>
        <time>2010-07-03T07:50:28Z</time>
      </trkpt>
      <trkpt lat="48.74306" lon="7.47629">
        <ele>167.635864</ele>
        <time>2010-07-03T07:50:31Z</time>
      </trkpt>
      <trkpt lat="48.743" lon="7.47649">
        <ele>165.963989</ele>
        <time>2010-07-03T07:50:34Z</time>
      </trkpt>
      <trkpt lat="48.74294" lon="7.47669">
        <ele>166.112427</ele>
        <time>2010-07-03T07:50:37Z</time>
      </trkpt>
      <trkpt lat="48.74289" lon="7.47688">
        <ele>166.327271</ele>
        <time>2010-07-03T07:50:40Z</time>
      </trkpt>
      <trkpt lat="48.74283" lon="7.47708">
        <ele>167.171021</ele>
        <time>2010-07-03T07:50:43Z</time>
      </trkpt>
      <trkpt lat="48.74278" lon="7.47728">
        <ele>167.612427</ele>
        <time>2010-07-03T07:50:47Z</time>
      </trkpt>
      <trkpt lat="48.7427" lon="7.47752">
        <ele>167.487427</ele>
        <time>2010-07-03T07:50:51Z</time>
      </trkpt>
      <trkpt lat="48.74263" lon="7.47775">
        <ele>167.397583</ele>
        <time>2010-07-03T07:50:55Z</time>
      </trkpt>
      <trkpt lat="48.74255" lon="7.47798">
        <ele>167.253052</ele>
        <time>2010-07-03T07:50:59Z</time>
      </trkpt>
      <trkpt lat="48.74246" lon="7.4782">
        <ele>167.940552</ele>
        <time>2010-07-03T07:51:03Z</time>
      </trkpt>
      <trkpt lat="48.74236" lon="7.47843">
        <ele>169.100708</ele>
        <time>2010-07-03T07:51:07Z</time>
      </trkpt>
      <trkpt lat="48.74227" lon="7.47865">
        <ele>170.006958</ele>
        <time>2010-07-03T07:51:11Z</time>
      </trkpt>
      <trkpt lat="48.74221" lon="7.47887">
        <ele>169.682739</ele>
        <time>2010-07-03T07:51:56Z</time>
      </trkpt>
      <trkpt lat="48.74216" lon="7.47911">
        <ele>169.128052</ele>
        <time>2010-07-03T07:52:00Z</time>
      </trkpt>
      <trkpt lat="48.74211" lon="7.47934">
        <ele>168.639771</ele>
        <time>2010-07-03T07:52:03Z</time>
      </trkpt>
      <trkpt lat="48.74207" lon="7.47957">
        <ele>168.307739</ele>
        <time>2010-07-03T07:52:06Z</time>
      </trkpt>
      <trkpt lat="48.74201" lon="7.47979">
        <ele>168.342896</ele>
        <time>2010-07-03T07:52:09Z</time>
      </trkpt>
      <trkpt lat="48.74196" lon="7.47999">
        <ele>168.417114</ele>
        <time>2010-07-03T07:52:12Z</time>
      </trkpt>
      <trkpt lat="48.74189" lon="7.48023">
        <ele>168.807739</ele>
        <time>2010-07-03T07:52:16Z</time>
      </trkpt>
      <trkpt lat="48.74184" lon="7.48047">
        <ele>168.764771</ele>
        <time>2010-07-03T07:52:20Z</time>
      </trkpt>
      <trkpt lat="48.7418" lon="7.48069">
        <ele>168.725708</ele>
        <time>2010-07-03T07:52:24Z</time>
      </trkpt>
      <trkpt lat="48.74175" lon="7.48093">
        <ele>168.487427</ele>
        <time>2010-07-03T07:52:28Z</time>
      </trkpt>
      <trkpt lat="48.74172" lon="7.48116">
        <ele>168.202271</ele>
        <time>2010-07-03T07:52:32Z</time>
      </trkpt>
      <trkpt lat="48.74169" lon="7.4814">
        <ele>168.253052</ele>
        <time>2010-07-03T07:52:36Z</time>
      </trkpt>
      <trkpt lat="48.74167" lon="7.48164">
        <ele>168.577271</ele>
        <time>2010-07-03T07:52:40Z</time>
      </trkpt>
      <trkpt lat="48.74167" lon="7.48189">
        <ele>168.448364</ele>
        <time>2010-07-03T07:52:44Z</time>
      </trkpt>
      <trkpt lat="48.74166" lon="7.48214">
        <ele>168.546021</ele>
        <time>2010-07-03T07:52:48Z</time>
      </trkpt>
      <trkpt lat="48.74166" lon="7.48239">
        <ele>168.233521</ele>
        <time>2010-07-03T07:52:52Z</time>
      </trkpt>
      <trkpt lat="48.74167" lon="7.48264">
        <ele>168.202271</ele>
        <time>2010-07-03T07:52:56Z</time>
      </trkpt>
      <trkpt lat="48.74167" lon="7.48288">
        <ele>167.897583</ele>
        <time>2010-07-03T07:53:00Z</time>
      </trkpt>
      <trkpt lat="48.74167" lon="7.48313">
        <ele>167.643677</ele>
        <time>2010-07-03T07:53:04Z</time>
      </trkpt>
      <trkpt lat="48.74166" lon="7.48338">
        <ele>167.401489</ele>
        <time>2010-07-03T07:53:08Z</time>
      </trkpt>
      <trkpt lat="48.74166" lon="7.48362">
        <ele>167.471802</ele>
        <time>2010-07-03T07:53:12Z</time>
      </trkpt>
      <trkpt lat="48.74167" lon="7.48388">
        <ele>167.471802</ele>
        <time>2010-07-03T07:53:16Z</time>
      </trkpt>
      <trkpt lat="48.74167" lon="7.48413">
        <ele>167.631958</ele>
        <time>2010-07-03T07:53:20Z</time>
      </trkpt>
      <trkpt lat="48.74168" lon="7.48438">
        <ele>167.499146</ele>
        <time>2010-07-03T07:53:24Z</time>
      </trkpt>
      <trkpt lat="48.74168" lon="7.48463">
        <ele>167.799927</ele>
        <time>2010-07-03T07:53:28Z</time>
      </trkpt>
      <trkpt lat="48.74169" lon="7.48487">
        <ele>167.936646</ele>
        <time>2010-07-03T07:53:32Z</time>
      </trkpt>
      <trkpt lat="48.7417" lon="7.48512">
        <ele>168.186646</ele>
        <time>2010-07-03T07:53:36Z</time>
      </trkpt>
      <trkpt lat="48.74171" lon="7.48535">
        <ele>167.971802</ele>
        <time>2010-07-03T07:53:40Z</time>
      </trkpt>
      <trkpt lat="48.74172" lon="7.48559">
        <ele>168.112427</ele>
        <time>2010-07-03T07:53:44Z</time>
      </trkpt>
      <trkpt lat="48.74171" lon="7.48583">
        <ele>167.963989</ele>
        <time>2010-07-03T07:53:48Z</time>
      </trkpt>
      <trkpt lat="48.74169" lon="7.48605">
        <ele>167.272583</ele>
        <time>2010-07-03T07:53:51Z</time>
      </trkpt>
      <trkpt lat="48.74169" lon="7.48631">
        <ele>166.467896</ele>
        <time>2010-07-03T07:53:54Z</time>
      </trkpt>
      <trkpt lat="48.7417" lon="7.48658">
        <ele>165.885864</ele>
        <time>2010-07-03T07:53:57Z</time>
      </trkpt>
      <trkpt lat="48.74171" lon="7.48685">
        <ele>165.799927</ele>
        <time>2010-07-03T07:54:00Z</time>
      </trkpt>
      <trkpt lat="48.74171" lon="7.48709">
        <ele>165.811646</ele>
        <time>2010-07-03T07:54:03Z</time>
      </trkpt>
      <trkpt lat="48.74172" lon="7.4873">
        <ele>165.760864</ele>
        <time>2010-07-03T07:54:06Z</time>
      </trkpt>
      <trkpt lat="48.74172" lon="7.48753">
        <ele>165.721802</ele>
        <time>2010-07-03T07:54:09Z</time>
      </trkpt>
      <trkpt lat="48.74172" lon="7.48775">
        <ele>166.018677</ele>
        <time>2010-07-03T07:54:12Z</time>
      </trkpt>
      <trkpt lat="48.74172" lon="7.48799">
        <ele>166.260864</ele>
        <time>2010-07-03T07:54:15Z</time>
      </trkpt>
      <trkpt lat="48.74173" lon="7.48822">
        <ele>166.264771</ele>
        <time>2010-07-03T07:54:18Z</time>
      </trkpt>
      <trkpt lat="48.74173" lon="7.48846">
        <ele>166.354614</ele>
        <time>2010-07-03T07:54:21Z</time>
      </trkpt>
      <trkpt lat="48.74173" lon="7.48869">
        <ele>166.612427</ele>
        <time>2010-07-03T07:54:24Z</time>
      </trkpt>
      <trkpt lat="48.74173" lon="7.48892">
        <ele>166.862427</ele>
        <time>2010-07-03T07:54:27Z</time>
      </trkpt>
      <trkpt lat="48.74173" lon="7.48915">
        <ele>166.745239</ele>
        <time>2010-07-03T07:54:30Z</time>
      </trkpt>
      <trkpt lat="48.74173" lon="7.48938">
        <ele>166.506958</ele>
        <time>2010-07-03T07:54:33Z</time>
      </trkpt>
      <trkpt lat="48.74172" lon="7.48961">
        <ele>166.561646</ele>
        <time>2010-07-03T07:54:36Z</time>
      </trkpt>
      <trkpt lat="48.7417" lon="7.48985">
        <ele>167.210083</ele>
        <time>2010-07-03T07:54:40Z</time>
      </trkpt>
      <trkpt lat="48.74169" lon="7.49007">
        <ele>167.967896</ele>
        <time>2010-07-03T07:54:45Z</time>
      </trkpt>
      <trkpt lat="48.74169" lon="7.4903">
        <ele>169.049927</ele>
        <time>2010-07-03T07:54:58Z</time>
      </trkpt>
      <trkpt lat="48.7417" lon="7.49052">
        <ele>168.213989</ele>
        <time>2010-07-03T07:55:07Z</time>
      </trkpt>
      <trkpt lat="48.74171" lon="7.49076">
        <ele>167.139771</ele>
        <time>2010-07-03T07:55:11Z</time>
      </trkpt>
      <trkpt lat="48.74173" lon="7.49097">
        <ele>166.499146</ele>
        <time>2010-07-03T07:55:14Z</time>
      </trkpt>
      <trkpt lat="48.74173" lon="7.4912">
        <ele>166.112427</ele>
        <time>2010-07-03T07:55:17Z</time>
      </trkpt>
      <trkpt lat="48.74175" lon="7.49143">
        <ele>166.436646</ele>
        <time>2010-07-03T07:55:20Z</time>
      </trkpt>
      <trkpt lat="48.74175" lon="7.49165">
        <ele>166.335083</ele>
        <time>2010-07-03T07:55:23Z</time>
      </trkpt>
      <trkpt lat="48.74176" lon="7.49186">
        <ele>166.092896</ele>
        <time>2010-07-03T07:55:26Z</time>
      </trkpt>
      <trkpt lat="48.74177" lon="7.49206">
        <ele>166.272583</ele>
        <time>2010-07-03T07:55:29Z</time>
      </trkpt>
      <trkpt lat="48.74178" lon="7.49232">
        <ele>165.967896</ele>
        <time>2010-07-03T07:55:33Z</time>
      </trkpt>
      <trkpt lat="48.74178" lon="7.49253">
        <ele>165.932739</ele>
        <time>2010-07-03T07:55:36Z</time>
      </trkpt>
      <trkpt lat="48.74178" lon="7.49274">
        <ele>165.733521</ele>
        <time>2010-07-03T07:55:39Z</time>
      </trkpt>
      <trkpt lat="48.74179" lon="7.49295">
        <ele>165.510864</ele>
        <time>2010-07-03T07:55:42Z</time>
      </trkpt>
      <trkpt lat="48.74179" lon="7.49316">
        <ele>165.221802</ele>
        <time>2010-07-03T07:55:45Z</time>
      </trkpt>
      <trkpt lat="48.7418" lon="7.49342">
        <ele>165.381958</ele>
        <time>2010-07-03T07:55:49Z</time>
      </trkpt>
      <trkpt lat="48.74181" lon="7.49367">
        <ele>165.749146</ele>
        <time>2010-07-03T07:55:53Z</time>
      </trkpt>
      <trkpt lat="48.7418" lon="7.4939">
        <ele>165.463989</ele>
        <time>2010-07-03T07:55:57Z</time>
      </trkpt>
      <trkpt lat="48.74179" lon="7.49412">
        <ele>165.280396</ele>
        <time>2010-07-03T07:56:01Z</time>
      </trkpt>
      <trkpt lat="48.74178" lon="7.49437">
        <ele>165.413208</ele>
        <time>2010-07-03T07:56:05Z</time>
      </trkpt>
      <trkpt lat="48.74177" lon="7.49462">
        <ele>165.702271</ele>
        <time>2010-07-03T07:56:09Z</time>
      </trkpt>
      <trkpt lat="48.74176" lon="7.49487">
        <ele>165.854614</ele>
        <time>2010-07-03T07:56:13Z</time>
      </trkpt>
      <trkpt lat="48.74175" lon="7.49512">
        <ele>166.003052</ele>
        <time>2010-07-03T07:56:17Z</time>
      </trkpt>
      <trkpt lat="48.74173" lon="7.49536">
        <ele>166.346802</ele>
        <time>2010-07-03T07:56:21Z</time>
      </trkpt>
      <trkpt lat="48.74173" lon="7.49561">
        <ele>166.331177</ele>
        <time>2010-07-03T07:56:25Z</time>
      </trkpt>
      <trkpt lat="48.74173" lon="7.49587">
        <ele>166.350708</ele>
        <time>2010-07-03T07:56:29Z</time>
      </trkpt>
      <trkpt lat="48.74172" lon="7.49613">
        <ele>166.131958</ele>
        <time>2010-07-03T07:56:33Z</time>
      </trkpt>
      <trkpt lat="48.74171" lon="7.4964">
        <ele>165.534302</ele>
        <time>2010-07-03T07:56:37Z</time>
      </trkpt>
      <trkpt lat="48.7417" lon="7.49665">
        <ele>165.690552</ele>
        <time>2010-07-03T07:56:41Z</time>
      </trkpt>
      <trkpt lat="48.74169" lon="7.49691">
        <ele>165.581177</ele>
        <time>2010-07-03T07:56:45Z</time>
      </trkpt>
      <trkpt lat="48.74168" lon="7.49718">
        <ele>165.264771</ele>
        <time>2010-07-03T07:56:49Z</time>
      </trkpt>
      <trkpt lat="48.74167" lon="7.49744">
        <ele>165.448364</ele>
        <time>2010-07-03T07:56:53Z</time>
      </trkpt>
      <trkpt lat="48.74167" lon="7.49765">
        <ele>165.046021</ele>
        <time>2010-07-03T07:56:56Z</time>
      </trkpt>
      <trkpt lat="48.74167" lon="7.49786">
        <ele>165.553833</ele>
        <time>2010-07-03T07:56:59Z</time>
      </trkpt>
      <trkpt lat="48.74165" lon="7.49807">
        <ele>165.299927</ele>
        <time>2010-07-03T07:57:02Z</time>
      </trkpt>
      <trkpt lat="48.74165" lon="7.49828">
        <ele>165.413208</ele>
        <time>2010-07-03T07:57:05Z</time>
      </trkpt>
      <trkpt lat="48.74165" lon="7.49855">
        <ele>165.338989</ele>
        <time>2010-07-03T07:57:09Z</time>
      </trkpt>
      <trkpt lat="48.74165" lon="7.49876">
        <ele>165.225708</ele>
        <time>2010-07-03T07:57:12Z</time>
      </trkpt>
      <trkpt lat="48.74166" lon="7.49897">
        <ele>165.448364</ele>
        <time>2010-07-03T07:57:15Z</time>
      </trkpt>
      <trkpt lat="48.74167" lon="7.49923">
        <ele>165.202271</ele>
        <time>2010-07-03T07:57:19Z</time>
      </trkpt>
      <trkpt lat="48.74168" lon="7.49949">
        <ele>163.874146</ele>
        <time>2010-07-03T07:57:23Z</time>
      </trkpt>
      <trkpt lat="48.7417" lon="7.49975">
        <ele>163.264771</ele>
        <time>2010-07-03T07:57:27Z</time>
      </trkpt>
      <trkpt lat="48.74172" lon="7.49996">
        <ele>162.878052</ele>
        <time>2010-07-03T07:57:30Z</time>
      </trkpt>
      <trkpt lat="48.74175" lon="7.5002">
        <ele>162.163208</ele>
        <time>2010-07-03T07:57:34Z</time>
      </trkpt>
      <trkpt lat="48.74179" lon="7.50045">
        <ele>162.241333</ele>
        <time>2010-07-03T07:57:38Z</time>
      </trkpt>
      <trkpt lat="48.74183" lon="7.50069">
        <ele>162.022583</ele>
        <time>2010-07-03T07:57:42Z</time>
      </trkpt>
      <trkpt lat="48.74189" lon="7.50093">
        <ele>161.729614</ele>
        <time>2010-07-03T07:57:46Z</time>
      </trkpt>
      <trkpt lat="48.74196" lon="7.50117">
        <ele>162.120239</ele>
        <time>2010-07-03T07:57:50Z</time>
      </trkpt>
      <trkpt lat="48.74202" lon="7.50142">
        <ele>161.428833</ele>
        <time>2010-07-03T07:57:54Z</time>
      </trkpt>
      <trkpt lat="48.74207" lon="7.50161">
        <ele>161.823364</ele>
        <time>2010-07-03T07:57:57Z</time>
      </trkpt>
      <trkpt lat="48.74212" lon="7.50187">
        <ele>162.077271</ele>
        <time>2010-07-03T07:58:01Z</time>
      </trkpt>
      <trkpt lat="48.74217" lon="7.50212">
        <ele>162.069458</ele>
        <time>2010-07-03T07:58:05Z</time>
      </trkpt>
      <trkpt lat="48.74221" lon="7.50238">
        <ele>162.655396</ele>
        <time>2010-07-03T07:58:09Z</time>
      </trkpt>
      <trkpt lat="48.74223" lon="7.50262">
        <ele>160.530396</ele>
        <time>2010-07-03T07:58:13Z</time>
      </trkpt>
      <trkpt lat="48.74225" lon="7.50288">
        <ele>161.463989</ele>
        <time>2010-07-03T07:58:17Z</time>
      </trkpt>
      <trkpt lat="48.74228" lon="7.50314">
        <ele>161.467896</ele>
        <time>2010-07-03T07:58:21Z</time>
      </trkpt>
      <trkpt lat="48.74231" lon="7.5034">
        <ele>161.749146</ele>
        <time>2010-07-03T07:58:25Z</time>
      </trkpt>
      <trkpt lat="48.74234" lon="7.50366">
        <ele>162.335083</ele>
        <time>2010-07-03T07:58:29Z</time>
      </trkpt>
      <trkpt lat="48.74237" lon="7.50392">
        <ele>162.651489</ele>
        <time>2010-07-03T07:58:33Z</time>
      </trkpt>
      <trkpt lat="48.7424" lon="7.5042">
        <ele>162.901489</ele>
        <time>2010-07-03T07:58:37Z</time>
      </trkpt>
      <trkpt lat="48.74242" lon="7.50446">
        <ele>162.749146</ele>
        <time>2010-07-03T07:58:41Z</time>
      </trkpt>
      <trkpt lat="48.74244" lon="7.50466">
        <ele>163.182739</ele>
        <time>2010-07-03T07:58:44Z</time>
      </trkpt>
      <trkpt lat="48.74246" lon="7.50493">
        <ele>163.124146</ele>
        <time>2010-07-03T07:58:48Z</time>
      </trkpt>
      <trkpt lat="48.74247" lon="7.50514">
        <ele>163.003052</ele>
        <time>2010-07-03T07:58:51Z</time>
      </trkpt>
      <trkpt lat="48.74248" lon="7.50535">
        <ele>163.163208</ele>
        <time>2010-07-03T07:58:54Z</time>
      </trkpt>
      <trkpt lat="48.74248" lon="7.50555">
        <ele>162.870239</ele>
        <time>2010-07-03T07:58:57Z</time>
      </trkpt>
      <trkpt lat="48.74248" lon="7.50583">
        <ele>162.889771</ele>
        <time>2010-07-03T07:59:01Z</time>
      </trkpt>
      <trkpt lat="48.74248" lon="7.50604">
        <ele>163.249146</ele>
        <time>2010-07-03T07:59:04Z</time>
      </trkpt>
      <trkpt lat="48.74247" lon="7.50625">
        <ele>163.546021</ele>
        <time>2010-07-03T07:59:07Z</time>
      </trkpt>
      <trkpt lat="48.74245" lon="7.50652">
        <ele>163.866333</ele>
        <time>2010-07-03T07:59:11Z</time>
      </trkpt>
      <trkpt lat="48.74243" lon="7.50679">
        <ele>164.163208</ele>
        <time>2010-07-03T07:59:15Z</time>
      </trkpt>
      <trkpt lat="48.74241" lon="7.50703">
        <ele>164.202271</ele>
        <time>2010-07-03T07:59:19Z</time>
      </trkpt>
      <trkpt lat="48.74239" lon="7.50725">
        <ele>164.444458</ele>
        <time>2010-07-03T07:59:23Z</time>
      </trkpt>
      <trkpt lat="48.74237" lon="7.50749">
        <ele>164.987427</ele>
        <time>2010-07-03T07:59:28Z</time>
      </trkpt>
      <trkpt lat="48.74234" lon="7.5077">
        <ele>165.686646</ele>
        <time>2010-07-03T07:59:33Z</time>
      </trkpt>
      <trkpt lat="48.7423" lon="7.5079">
        <ele>164.565552</ele>
        <time>2010-07-03T08:00:37Z</time>
      </trkpt>
      <trkpt lat="48.74228" lon="7.50811">
        <ele>163.342896</ele>
        <time>2010-07-03T08:00:50Z</time>
      </trkpt>
      <trkpt lat="48.74226" lon="7.50839">
        <ele>161.835083</ele>
        <time>2010-07-03T08:00:54Z</time>
      </trkpt>
      <trkpt lat="48.74224" lon="7.50866">
        <ele>161.159302</ele>
        <time>2010-07-03T08:00:57Z</time>
      </trkpt>
      <trkpt lat="48.74221" lon="7.50893">
        <ele>160.788208</ele>
        <time>2010-07-03T08:01:00Z</time>
      </trkpt>
      <trkpt lat="48.74218" lon="7.50919">
        <ele>161.358521</ele>
        <time>2010-07-03T08:01:03Z</time>
      </trkpt>
      <trkpt lat="48.74216" lon="7.50942">
        <ele>162.237427</ele>
        <time>2010-07-03T08:01:06Z</time>
      </trkpt>
      <trkpt lat="48.74213" lon="7.50963">
        <ele>162.217896</ele>
        <time>2010-07-03T08:01:09Z</time>
      </trkpt>
      <trkpt lat="48.7421" lon="7.50985">
        <ele>161.659302</ele>
        <time>2010-07-03T08:01:12Z</time>
      </trkpt>
      <trkpt lat="48.74207" lon="7.51008">
        <ele>161.819458</ele>
        <time>2010-07-03T08:01:15Z</time>
      </trkpt>
      <trkpt lat="48.74205" lon="7.5103">
        <ele>161.745239</ele>
        <time>2010-07-03T08:01:18Z</time>
      </trkpt>
      <trkpt lat="48.74202" lon="7.51053">
        <ele>161.749146</ele>
        <time>2010-07-03T08:01:21Z</time>
      </trkpt>
      <trkpt lat="48.74199" lon="7.51074">
        <ele>161.667114</ele>
        <time>2010-07-03T08:01:24Z</time>
      </trkpt>
      <trkpt lat="48.74197" lon="7.51095">
        <ele>161.463989</ele>
        <time>2010-07-03T08:01:27Z</time>
      </trkpt>
      <trkpt lat="48.74195" lon="7.51117">
        <ele>161.296021</ele>
        <time>2010-07-03T08:01:30Z</time>
      </trkpt>
      <trkpt lat="48.74192" lon="7.51138">
        <ele>161.038208</ele>
        <time>2010-07-03T08:01:33Z</time>
      </trkpt>
      <trkpt lat="48.7419" lon="7.51159">
        <ele>161.010864</ele>
        <time>2010-07-03T08:01:36Z</time>
      </trkpt>
      <trkpt lat="48.74187" lon="7.51186">
        <ele>160.854614</ele>
        <time>2010-07-03T08:01:40Z</time>
      </trkpt>
      <trkpt lat="48.74185" lon="7.51206">
        <ele>160.600708</ele>
        <time>2010-07-03T08:01:43Z</time>
      </trkpt>
      <trkpt lat="48.74183" lon="7.51227">
        <ele>160.686646</ele>
        <time>2010-07-03T08:01:46Z</time>
      </trkpt>
      <trkpt lat="48.7418" lon="7.51253">
        <ele>160.022583</ele>
        <time>2010-07-03T08:01:50Z</time>
      </trkpt>
      <trkpt lat="48.74176" lon="7.51277">
        <ele>160.088989</ele>
        <time>2010-07-03T08:01:54Z</time>
      </trkpt>
      <trkpt lat="48.74173" lon="7.51297">
        <ele>161.792114</ele>
        <time>2010-07-03T08:01:58Z</time>
      </trkpt>
      <trkpt lat="48.7417" lon="7.51318">
        <ele>162.983521</ele>
        <time>2010-07-03T08:02:03Z</time>
      </trkpt>
      <trkpt lat="48.74166" lon="7.51339">
        <ele>163.280396</ele>
        <time>2010-07-03T08:02:27Z</time>
      </trkpt>
      <trkpt lat="48.74166" lon="7.5136">
        <ele>161.409302</ele>
        <time>2010-07-03T08:02:31Z</time>
      </trkpt>
      <trkpt lat="48.74165" lon="7.51388">
        <ele>160.522583</ele>
        <time>2010-07-03T08:02:34Z</time>
      </trkpt>
      <trkpt lat="48.74163" lon="7.51417">
        <ele>160.245239</ele>
        <time>2010-07-03T08:02:37Z</time>
      </trkpt>
      <trkpt lat="48.7416" lon="7.51445">
        <ele>160.233521</ele>
        <time>2010-07-03T08:02:40Z</time>
      </trkpt>
      <trkpt lat="48.74157" lon="7.51471">
        <ele>160.190552</ele>
        <time>2010-07-03T08:02:43Z</time>
      </trkpt>
      <trkpt lat="48.74154" lon="7.51497">
        <ele>161.124146</ele>
        <time>2010-07-03T08:02:46Z</time>
      </trkpt>
      <trkpt lat="48.74152" lon="7.5152">
        <ele>161.323364</ele>
        <time>2010-07-03T08:02:49Z</time>
      </trkpt>
      <trkpt lat="48.7415" lon="7.51541">
        <ele>161.120239</ele>
        <time>2010-07-03T08:02:52Z</time>
      </trkpt>
      <trkpt lat="48.74147" lon="7.51565">
        <ele>161.104614</ele>
        <time>2010-07-03T08:02:56Z</time>
      </trkpt>
      <trkpt lat="48.74144" lon="7.51588">
        <ele>160.917114</ele>
        <time>2010-07-03T08:03:00Z</time>
      </trkpt>
      <trkpt lat="48.74141" lon="7.51612">
        <ele>161.128052</ele>
        <time>2010-07-03T08:03:04Z</time>
      </trkpt>
      <trkpt lat="48.74139" lon="7.51635">
        <ele>161.221802</ele>
        <time>2010-07-03T08:03:08Z</time>
      </trkpt>
      <trkpt lat="48.74136" lon="7.51657">
        <ele>161.311646</ele>
        <time>2010-07-03T08:03:12Z</time>
      </trkpt>
      <trkpt lat="48.74134" lon="7.51677">
        <ele>161.608521</ele>
        <time>2010-07-03T08:03:16Z</time>
      </trkpt>
      <trkpt lat="48.74132" lon="7.51701">
        <ele>161.428833</ele>
        <time>2010-07-03T08:03:20Z</time>
      </trkpt>
      <trkpt lat="48.74131" lon="7.51726">
        <ele>160.010864</ele>
        <time>2010-07-03T08:03:24Z</time>
      </trkpt>
      <trkpt lat="48.7413" lon="7.51746">
        <ele>159.534302</ele>
        <time>2010-07-03T08:03:27Z</time>
      </trkpt>
      <trkpt lat="48.74127" lon="7.51767">
        <ele>159.397583</ele>
        <time>2010-07-03T08:03:30Z</time>
      </trkpt>
      <trkpt lat="48.74125" lon="7.51789">
        <ele>159.975708</ele>
        <time>2010-07-03T08:03:33Z</time>
      </trkpt>
      <trkpt lat="48.74122" lon="7.51811">
        <ele>159.924927</ele>
        <time>2010-07-03T08:03:36Z</time>
      </trkpt>
      <trkpt lat="48.7412" lon="7.51832">
        <ele>160.182739</ele>
        <time>2010-07-03T08:03:39Z</time>
      </trkpt>
      <trkpt lat="48.74117" lon="7.51858">
        <ele>160.182739</ele>
        <time>2010-07-03T08:03:43Z</time>
      </trkpt>
      <trkpt lat="48.74115" lon="7.51879">
        <ele>160.139771</ele>
        <time>2010-07-03T08:03:46Z</time>
      </trkpt>
      <trkpt lat="48.74111" lon="7.51901">
        <ele>161.514771</ele>
        <time>2010-07-03T08:04:00Z</time>
      </trkpt>
      <trkpt lat="48.7411" lon="7.51923">
        <ele>162.147583</ele>
        <time>2010-07-03T08:04:05Z</time>
      </trkpt>
      <trkpt lat="48.74107" lon="7.51948">
        <ele>162.139771</ele>
        <time>2010-07-03T08:04:09Z</time>
      </trkpt>
      <trkpt lat="48.74105" lon="7.51968">
        <ele>162.034302</ele>
        <time>2010-07-03T08:04:12Z</time>
      </trkpt>
      <trkpt lat="48.74102" lon="7.51993">
        <ele>161.838989</ele>
        <time>2010-07-03T08:04:16Z</time>
      </trkpt>
      <trkpt lat="48.741" lon="7.52015">
        <ele>161.495239</ele>
        <time>2010-07-03T08:04:20Z</time>
      </trkpt>
      <trkpt lat="48.74097" lon="7.52039">
        <ele>160.936646</ele>
        <time>2010-07-03T08:04:24Z</time>
      </trkpt>
      <trkpt lat="48.74094" lon="7.52064">
        <ele>159.881958</ele>
        <time>2010-07-03T08:04:28Z</time>
      </trkpt>
      <trkpt lat="48.74092" lon="7.5209">
        <ele>159.858521</ele>
        <time>2010-07-03T08:04:32Z</time>
      </trkpt>
      <trkpt lat="48.74089" lon="7.52115">
        <ele>159.510864</ele>
        <time>2010-07-03T08:04:36Z</time>
      </trkpt>
      <trkpt lat="48.74086" lon="7.52141">
        <ele>159.268677</ele>
        <time>2010-07-03T08:04:40Z</time>
      </trkpt>
      <trkpt lat="48.74083" lon="7.52162">
        <ele>159.596802</ele>
        <time>2010-07-03T08:04:43Z</time>
      </trkpt>
      <trkpt lat="48.74081" lon="7.52189">
        <ele>159.381958</ele>
        <time>2010-07-03T08:04:47Z</time>
      </trkpt>
      <trkpt lat="48.74078" lon="7.52216">
        <ele>159.163208</ele>
        <time>2010-07-03T08:04:51Z</time>
      </trkpt>
      <trkpt lat="48.74076" lon="7.52237">
        <ele>159.327271</ele>
        <time>2010-07-03T08:04:54Z</time>
      </trkpt>
      <trkpt lat="48.74074" lon="7.52259">
        <ele>159.663208</ele>
        <time>2010-07-03T08:04:57Z</time>
      </trkpt>
      <trkpt lat="48.74071" lon="7.5228">
        <ele>159.784302</ele>
        <time>2010-07-03T08:05:00Z</time>
      </trkpt>
      <trkpt lat="48.74069" lon="7.52301">
        <ele>159.960083</ele>
        <time>2010-07-03T08:05:03Z</time>
      </trkpt>
      <trkpt lat="48.74066" lon="7.52323">
        <ele>160.241333</ele>
        <time>2010-07-03T08:05:06Z</time>
      </trkpt>
      <trkpt lat="48.74063" lon="7.52345">
        <ele>160.241333</ele>
        <time>2010-07-03T08:05:09Z</time>
      </trkpt>
      <trkpt lat="48.7406" lon="7.52366">
        <ele>159.979614</ele>
        <time>2010-07-03T08:05:12Z</time>
      </trkpt>
      <trkpt lat="48.74057" lon="7.52388">
        <ele>160.401489</ele>
        <time>2010-07-03T08:05:15Z</time>
      </trkpt>
      <trkpt lat="48.74055" lon="7.5241">
        <ele>160.460083</ele>
        <time>2010-07-03T08:05:18Z</time>
      </trkpt>
      <trkpt lat="48.74052" lon="7.52431">
        <ele>160.260864</ele>
        <time>2010-07-03T08:05:21Z</time>
      </trkpt>
      <trkpt lat="48.7405" lon="7.52452">
        <ele>159.764771</ele>
        <time>2010-07-03T08:05:24Z</time>
      </trkpt>
      <trkpt lat="48.74048" lon="7.52475">
        <ele>159.862427</ele>
        <time>2010-07-03T08:05:27Z</time>
      </trkpt>
      <trkpt lat="48.74046" lon="7.52496">
        <ele>160.194458</ele>
        <time>2010-07-03T08:05:30Z</time>
      </trkpt>
      <trkpt lat="48.74043" lon="7.52518">
        <ele>160.253052</ele>
        <time>2010-07-03T08:05:33Z</time>
      </trkpt>
      <trkpt lat="48.74041" lon="7.52539">
        <ele>160.315552</ele>
        <time>2010-07-03T08:05:36Z</time>
      </trkpt>
      <trkpt lat="48.7404" lon="7.52561">
        <ele>160.092896</ele>
        <time>2010-07-03T08:05:39Z</time>
      </trkpt>
      <trkpt lat="48.74038" lon="7.52582">
        <ele>160.253052</ele>
        <time>2010-07-03T08:05:42Z</time>
      </trkpt>
      <trkpt lat="48.74036" lon="7.52607">
        <ele>159.604614</ele>
        <time>2010-07-03T08:05:46Z</time>
      </trkpt>
      <trkpt lat="48.74035" lon="7.52628">
        <ele>158.612427</ele>
        <time>2010-07-03T08:05:50Z</time>
      </trkpt>
      <trkpt lat="48.74032" lon="7.52653">
        <ele>158.303833</ele>
        <time>2010-07-03T08:05:55Z</time>
      </trkpt>
      <trkpt lat="48.74029" lon="7.52675">
        <ele>158.479614</ele>
        <time>2010-07-03T08:06:31Z</time>
      </trkpt>
      <trkpt lat="48.74027" lon="7.52699">
        <ele>158.885864</ele>
        <time>2010-07-03T08:06:36Z</time>
      </trkpt>
      <trkpt lat="48.74023" lon="7.52719">
        <ele>159.440552</ele>
        <time>2010-07-03T08:06:40Z</time>
      </trkpt>
      <trkpt lat="48.74022" lon="7.52742">
        <ele>160.061646</ele>
        <time>2010-07-03T08:06:45Z</time>
      </trkpt>
      <trkpt lat="48.74019" lon="7.52763">
        <ele>160.409302</ele>
        <time>2010-07-03T08:06:50Z</time>
      </trkpt>
      <trkpt lat="48.74018" lon="7.52786">
        <ele>161.112427</ele>
        <time>2010-07-03T08:06:55Z</time>
      </trkpt>
      <trkpt lat="48.74016" lon="7.52806">
        <ele>161.768677</ele>
        <time>2010-07-03T08:06:59Z</time>
      </trkpt>
      <trkpt lat="48.74013" lon="7.52827">
        <ele>162.960083</ele>
        <time>2010-07-03T08:07:05Z</time>
      </trkpt>
      <trkpt lat="48.74009" lon="7.52847">
        <ele>162.178833</ele>
        <time>2010-07-03T08:07:52Z</time>
      </trkpt>
      <trkpt lat="48.74007" lon="7.52868">
        <ele>162.542114</ele>
        <time>2010-07-03T08:07:58Z</time>
      </trkpt>
      <trkpt lat="48.74004" lon="7.52893">
        <ele>162.846802</ele>
        <time>2010-07-03T08:08:03Z</time>
      </trkpt>
      <trkpt lat="48.74002" lon="7.52915">
        <ele>163.335083</ele>
        <time>2010-07-03T08:08:07Z</time>
      </trkpt>
      <trkpt lat="48.73999" lon="7.52936">
        <ele>163.096802</ele>
        <time>2010-07-03T08:08:11Z</time>
      </trkpt>
      <trkpt lat="48.73998" lon="7.52957">
        <ele>163.018677</ele>
        <time>2010-07-03T08:08:15Z</time>
      </trkpt>
      <trkpt lat="48.73998" lon="7.52981">
        <ele>163.350708</ele>
        <time>2010-07-03T08:08:20Z</time>
      </trkpt>
      <trkpt lat="48.73999" lon="7.53004">
        <ele>164.116333</ele>
        <time>2010-07-03T08:08:25Z</time>
      </trkpt>
      <trkpt lat="48.74001" lon="7.53025">
        <ele>164.565552</ele>
        <time>2010-07-03T08:08:29Z</time>
      </trkpt>
      <trkpt lat="48.73998" lon="7.53047">
        <ele>164.366333</ele>
        <time>2010-07-03T08:08:33Z</time>
      </trkpt>
      <trkpt lat="48.73993" lon="7.53067">
        <ele>164.092896</ele>
        <time>2010-07-03T08:08:37Z</time>
      </trkpt>
      <trkpt lat="48.73991" lon="7.5309">
        <ele>164.713989</ele>
        <time>2010-07-03T08:08:41Z</time>
      </trkpt>
      <trkpt lat="48.73995" lon="7.53111">
        <ele>165.518677</ele>
        <time>2010-07-03T08:08:45Z</time>
      </trkpt>
      <trkpt lat="48.73994" lon="7.5313">
        <ele>169.202271</ele>
        <time>2010-07-03T08:13:11Z</time>
      </trkpt>
      <trkpt lat="48.74002" lon="7.53113">
        <ele>169.772583</ele>
        <time>2010-07-03T08:17:25Z</time>
      </trkpt>
      <trkpt lat="48.74007" lon="7.53132">
        <ele>166.491333</ele>
        <time>2010-07-03T08:19:11Z</time>
      </trkpt>
      <trkpt lat="48.74009" lon="7.53152">
        <ele>162.635864</ele>
        <time>2010-07-03T08:21:00Z</time>
      </trkpt>
      <trkpt lat="48.74012" lon="7.53172">
        <ele>161.381958</ele>
        <time>2010-07-03T08:21:04Z</time>
      </trkpt>
      <trkpt lat="48.74017" lon="7.53192">
        <ele>161.409302</ele>
        <time>2010-07-03T08:21:07Z</time>
      </trkpt>
      <trkpt lat="48.7402" lon="7.53219">
        <ele>161.260864</ele>
        <time>2010-07-03T08:21:11Z</time>
      </trkpt>
      <trkpt lat="48.74022" lon="7.5324">
        <ele>161.850708</ele>
        <time>2010-07-03T08:21:14Z</time>
      </trkpt>
      <trkpt lat="48.74025" lon="7.53261">
        <ele>161.878052</ele>
        <time>2010-07-03T08:21:17Z</time>
      </trkpt>
      <trkpt lat="48.74027" lon="7.53282">
        <ele>161.624146</ele>
        <time>2010-07-03T08:21:20Z</time>
      </trkpt>
      <trkpt lat="48.74028" lon="7.53303">
        <ele>161.831177</ele>
        <time>2010-07-03T08:21:23Z</time>
      </trkpt>
      <trkpt lat="48.74031" lon="7.53328">
        <ele>161.983521</ele>
        <time>2010-07-03T08:21:27Z</time>
      </trkpt>
      <trkpt lat="48.74034" lon="7.5335">
        <ele>162.096802</ele>
        <time>2010-07-03T08:21:31Z</time>
      </trkpt>
      <trkpt lat="48.74037" lon="7.53371">
        <ele>161.901489</ele>
        <time>2010-07-03T08:21:35Z</time>
      </trkpt>
      <trkpt lat="48.74039" lon="7.53392">
        <ele>162.151489</ele>
        <time>2010-07-03T08:21:39Z</time>
      </trkpt>
      <trkpt lat="48.74043" lon="7.53416">
        <ele>162.397583</ele>
        <time>2010-07-03T08:21:43Z</time>
      </trkpt>
      <trkpt lat="48.74046" lon="7.53441">
        <ele>162.182739</ele>
        <time>2010-07-03T08:21:47Z</time>
      </trkpt>
      <trkpt lat="48.7405" lon="7.53467">
        <ele>162.174927</ele>
        <time>2010-07-03T08:21:51Z</time>
      </trkpt>
      <trkpt lat="48.74054" lon="7.53493">
        <ele>161.756958</ele>
        <time>2010-07-03T08:21:55Z</time>
      </trkpt>
      <trkpt lat="48.74057" lon="7.53518">
        <ele>161.194458</ele>
        <time>2010-07-03T08:21:59Z</time>
      </trkpt>
      <trkpt lat="48.7406" lon="7.53543">
        <ele>160.901489</ele>
        <time>2010-07-03T08:22:03Z</time>
      </trkpt>
      <trkpt lat="48.74064" lon="7.53569">
        <ele>161.057739</ele>
        <time>2010-07-03T08:22:07Z</time>
      </trkpt>
      <trkpt lat="48.7407" lon="7.53593">
        <ele>161.085083</ele>
        <time>2010-07-03T08:22:11Z</time>
      </trkpt>
      <trkpt lat="48.74076" lon="7.53615">
        <ele>161.424927</ele>
        <time>2010-07-03T08:22:15Z</time>
      </trkpt>
      <trkpt lat="48.74085" lon="7.53636">
        <ele>161.046021</ele>
        <time>2010-07-03T08:22:19Z</time>
      </trkpt>
      <trkpt lat="48.74093" lon="7.53659">
        <ele>161.030396</ele>
        <time>2010-07-03T08:22:23Z</time>
      </trkpt>
      <trkpt lat="48.74101" lon="7.53682">
        <ele>161.335083</ele>
        <time>2010-07-03T08:22:27Z</time>
      </trkpt>
      <trkpt lat="48.74108" lon="7.53701">
        <ele>162.237427</ele>
        <time>2010-07-03T08:22:31Z</time>
      </trkpt>
      <trkpt lat="48.74113" lon="7.53724">
        <ele>163.733521</ele>
        <time>2010-07-03T08:22:37Z</time>
      </trkpt>
      <trkpt lat="48.74117" lon="7.53745">
        <ele>163.866333</ele>
        <time>2010-07-03T08:22:40Z</time>
      </trkpt>
      <trkpt lat="48.74125" lon="7.53767">
        <ele>163.225708</ele>
        <time>2010-07-03T08:22:43Z</time>
      </trkpt>
      <trkpt lat="48.74134" lon="7.53788">
        <ele>162.917114</ele>
        <time>2010-07-03T08:22:46Z</time>
      </trkpt>
      <trkpt lat="48.74142" lon="7.53809">
        <ele>162.737427</ele>
        <time>2010-07-03T08:22:49Z</time>
      </trkpt>
      <trkpt lat="48.74148" lon="7.53828">
        <ele>162.104614</ele>
        <time>2010-07-03T08:22:52Z</time>
      </trkpt>
      <trkpt lat="48.74157" lon="7.5385">
        <ele>162.085083</ele>
        <time>2010-07-03T08:22:56Z</time>
      </trkpt>
      <trkpt lat="48.74163" lon="7.5387">
        <ele>161.842896</ele>
        <time>2010-07-03T08:23:00Z</time>
      </trkpt>
      <trkpt lat="48.74171" lon="7.53891">
        <ele>161.921021</ele>
        <time>2010-07-03T08:23:04Z</time>
      </trkpt>
      <trkpt lat="48.74178" lon="7.53913">
        <ele>161.292114</ele>
        <time>2010-07-03T08:23:08Z</time>
      </trkpt>
      <trkpt lat="48.74185" lon="7.53934">
        <ele>161.487427</ele>
        <time>2010-07-03T08:23:12Z</time>
      </trkpt>
      <trkpt lat="48.74194" lon="7.53957">
        <ele>161.284302</ele>
        <time>2010-07-03T08:23:16Z</time>
      </trkpt>
      <trkpt lat="48.74202" lon="7.53978">
        <ele>160.905396</ele>
        <time>2010-07-03T08:23:20Z</time>
      </trkpt>
      <trkpt lat="48.7421" lon="7.54001">
        <ele>160.870239</ele>
        <time>2010-07-03T08:23:24Z</time>
      </trkpt>
      <trkpt lat="48.74219" lon="7.54023">
        <ele>159.432739</ele>
        <time>2010-07-03T08:23:28Z</time>
      </trkpt>
      <trkpt lat="48.74226" lon="7.54046">
        <ele>159.573364</ele>
        <time>2010-07-03T08:23:32Z</time>
      </trkpt>
      <trkpt lat="48.74235" lon="7.5407">
        <ele>159.436646</ele>
        <time>2010-07-03T08:23:36Z</time>
      </trkpt>
      <trkpt lat="48.74243" lon="7.54093">
        <ele>159.319458</ele>
        <time>2010-07-03T08:23:40Z</time>
      </trkpt>
      <trkpt lat="48.7425" lon="7.54115">
        <ele>159.694458</ele>
        <time>2010-07-03T08:23:44Z</time>
      </trkpt>
      <trkpt lat="48.74257" lon="7.54137">
        <ele>159.264771</ele>
        <time>2010-07-03T08:23:48Z</time>
      </trkpt>
      <trkpt lat="48.74265" lon="7.5416">
        <ele>159.569458</ele>
        <time>2010-07-03T08:23:52Z</time>
      </trkpt>
      <trkpt lat="48.74274" lon="7.54182">
        <ele>159.303833</ele>
        <time>2010-07-03T08:23:56Z</time>
      </trkpt>
      <trkpt lat="48.74283" lon="7.54204">
        <ele>158.788208</ele>
        <time>2010-07-03T08:24:00Z</time>
      </trkpt>
      <trkpt lat="48.74291" lon="7.54225">
        <ele>159.104614</ele>
        <time>2010-07-03T08:24:04Z</time>
      </trkpt>
      <trkpt lat="48.74299" lon="7.54248">
        <ele>158.690552</ele>
        <time>2010-07-03T08:24:08Z</time>
      </trkpt>
      <trkpt lat="48.74308" lon="7.54271">
        <ele>158.292114</ele>
        <time>2010-07-03T08:24:12Z</time>
      </trkpt>
      <trkpt lat="48.74315" lon="7.54295">
        <ele>157.862427</ele>
        <time>2010-07-03T08:24:16Z</time>
      </trkpt>
      <trkpt lat="48.74322" lon="7.54318">
        <ele>158.311646</ele>
        <time>2010-07-03T08:24:20Z</time>
      </trkpt>
      <trkpt lat="48.74329" lon="7.54342">
        <ele>158.096802</ele>
        <time>2010-07-03T08:24:24Z</time>
      </trkpt>
      <trkpt lat="48.74336" lon="7.54367">
        <ele>157.756958</ele>
        <time>2010-07-03T08:24:28Z</time>
      </trkpt>
      <trkpt lat="48.74342" lon="7.54391">
        <ele>157.276489</ele>
        <time>2010-07-03T08:24:32Z</time>
      </trkpt>
      <trkpt lat="48.74348" lon="7.54415">
        <ele>157.167114</ele>
        <time>2010-07-03T08:24:36Z</time>
      </trkpt>
      <trkpt lat="48.74352" lon="7.5444">
        <ele>158.085083</ele>
        <time>2010-07-03T08:24:40Z</time>
      </trkpt>
      <trkpt lat="48.74358" lon="7.54463">
        <ele>158.421021</ele>
        <time>2010-07-03T08:24:44Z</time>
      </trkpt>
      <trkpt lat="48.74363" lon="7.54486">
        <ele>158.143677</ele>
        <time>2010-07-03T08:24:48Z</time>
      </trkpt>
      <trkpt lat="48.74367" lon="7.5451">
        <ele>157.827271</ele>
        <time>2010-07-03T08:24:52Z</time>
      </trkpt>
      <trkpt lat="48.74373" lon="7.54533">
        <ele>157.081177</ele>
        <time>2010-07-03T08:24:56Z</time>
      </trkpt>
      <trkpt lat="48.74377" lon="7.54558">
        <ele>156.479614</ele>
        <time>2010-07-03T08:25:00Z</time>
      </trkpt>
      <trkpt lat="48.74383" lon="7.54582">
        <ele>156.565552</ele>
        <time>2010-07-03T08:25:04Z</time>
      </trkpt>
      <trkpt lat="48.74387" lon="7.54606">
        <ele>156.475708</ele>
        <time>2010-07-03T08:25:08Z</time>
      </trkpt>
      <trkpt lat="48.74392" lon="7.5463">
        <ele>156.147583</ele>
        <time>2010-07-03T08:25:12Z</time>
      </trkpt>
      <trkpt lat="48.74397" lon="7.54655">
        <ele>156.428833</ele>
        <time>2010-07-03T08:25:16Z</time>
      </trkpt>
      <trkpt lat="48.74401" lon="7.54681">
        <ele>156.342896</ele>
        <time>2010-07-03T08:25:20Z</time>
      </trkpt>
      <trkpt lat="48.74405" lon="7.54706">
        <ele>156.518677</ele>
        <time>2010-07-03T08:25:24Z</time>
      </trkpt>
      <trkpt lat="48.74406" lon="7.54729">
        <ele>156.417114</ele>
        <time>2010-07-03T08:25:28Z</time>
      </trkpt>
      <trkpt lat="48.74408" lon="7.54754">
        <ele>156.116333</ele>
        <time>2010-07-03T08:25:32Z</time>
      </trkpt>
      <trkpt lat="48.74409" lon="7.5478">
        <ele>156.210083</ele>
        <time>2010-07-03T08:25:36Z</time>
      </trkpt>
      <trkpt lat="48.74409" lon="7.54806">
        <ele>156.995239</ele>
        <time>2010-07-03T08:25:40Z</time>
      </trkpt>
      <trkpt lat="48.74408" lon="7.54831">
        <ele>157.186646</ele>
        <time>2010-07-03T08:25:44Z</time>
      </trkpt>
      <trkpt lat="48.74405" lon="7.54855">
        <ele>157.003052</ele>
        <time>2010-07-03T08:25:48Z</time>
      </trkpt>
      <trkpt lat="48.74403" lon="7.5488">
        <ele>157.112427</ele>
        <time>2010-07-03T08:25:52Z</time>
      </trkpt>
      <trkpt lat="48.74399" lon="7.54905">
        <ele>157.510864</ele>
        <time>2010-07-03T08:25:56Z</time>
      </trkpt>
      <trkpt lat="48.74396" lon="7.54931">
        <ele>157.655396</ele>
        <time>2010-07-03T08:26:00Z</time>
      </trkpt>
      <trkpt lat="48.74393" lon="7.54951">
        <ele>158.049927</ele>
        <time>2010-07-03T08:26:03Z</time>
      </trkpt>
      <trkpt lat="48.7439" lon="7.54971">
        <ele>158.085083</ele>
        <time>2010-07-03T08:26:06Z</time>
      </trkpt>
      <trkpt lat="48.74388" lon="7.54998">
        <ele>158.069458</ele>
        <time>2010-07-03T08:26:10Z</time>
      </trkpt>
      <trkpt lat="48.74386" lon="7.55018">
        <ele>158.069458</ele>
        <time>2010-07-03T08:26:13Z</time>
      </trkpt>
      <trkpt lat="48.74382" lon="7.55038">
        <ele>158.100708</ele>
        <time>2010-07-03T08:26:16Z</time>
      </trkpt>
      <trkpt lat="48.74379" lon="7.55063">
        <ele>157.612427</ele>
        <time>2010-07-03T08:26:20Z</time>
      </trkpt>
      <trkpt lat="48.74375" lon="7.5509">
        <ele>158.069458</ele>
        <time>2010-07-03T08:26:24Z</time>
      </trkpt>
      <trkpt lat="48.7437" lon="7.55109">
        <ele>158.213989</ele>
        <time>2010-07-03T08:26:27Z</time>
      </trkpt>
      <trkpt lat="48.74367" lon="7.55135">
        <ele>157.866333</ele>
        <time>2010-07-03T08:26:31Z</time>
      </trkpt>
      <trkpt lat="48.74367" lon="7.55159">
        <ele>156.745239</ele>
        <time>2010-07-03T08:26:35Z</time>
      </trkpt>
      <trkpt lat="48.74365" lon="7.55184">
        <ele>155.975708</ele>
        <time>2010-07-03T08:26:39Z</time>
      </trkpt>
      <trkpt lat="48.74361" lon="7.55209">
        <ele>154.967896</ele>
        <time>2010-07-03T08:26:43Z</time>
      </trkpt>
      <trkpt lat="48.74361" lon="7.55233">
        <ele>154.139771</ele>
        <time>2010-07-03T08:26:47Z</time>
      </trkpt>
      <trkpt lat="48.74359" lon="7.55257">
        <ele>152.436646</ele>
        <time>2010-07-03T08:26:52Z</time>
      </trkpt>
      <trkpt lat="48.74357" lon="7.55279">
        <ele>151.854614</ele>
        <time>2010-07-03T08:26:57Z</time>
      </trkpt>
      <trkpt lat="48.74357" lon="7.55302">
        <ele>151.702271</ele>
        <time>2010-07-03T08:27:04Z</time>
      </trkpt>
      <trkpt lat="48.74358" lon="7.55325">
        <ele>150.569458</ele>
        <time>2010-07-03T08:27:13Z</time>
      </trkpt>
      <trkpt lat="48.7436" lon="7.55347">
        <ele>148.635864</ele>
        <time>2010-07-03T08:27:20Z</time>
      </trkpt>
      <trkpt lat="48.74362" lon="7.5537">
        <ele>148.073364</ele>
        <time>2010-07-03T08:27:26Z</time>
      </trkpt>
      <trkpt lat="48.74366" lon="7.5539">
        <ele>146.975708</ele>
        <time>2010-07-03T08:27:31Z</time>
      </trkpt>
      <trkpt lat="48.74371" lon="7.55414">
        <ele>146.440552</ele>
        <time>2010-07-03T08:27:36Z</time>
      </trkpt>
      <trkpt lat="48.74376" lon="7.55435">
        <ele>146.713989</ele>
        <time>2010-07-03T08:27:43Z</time>
      </trkpt>
      <trkpt lat="48.74381" lon="7.55456">
        <ele>149.975708</ele>
        <time>2010-07-03T08:27:50Z</time>
      </trkpt>
      <trkpt lat="48.74386" lon="7.55476">
        <ele>150.182739</ele>
        <time>2010-07-03T08:27:57Z</time>
      </trkpt>
      <trkpt lat="48.74391" lon="7.55496">
        <ele>151.624146</ele>
        <time>2010-07-03T08:28:04Z</time>
      </trkpt>
      <trkpt lat="48.74398" lon="7.55515">
        <ele>152.846802</ele>
        <time>2010-07-03T08:28:10Z</time>
      </trkpt>
      <trkpt lat="48.74405" lon="7.55532">
        <ele>158.046021</ele>
        <time>2010-07-03T08:28:16Z</time>
      </trkpt>
      <trkpt lat="48.74412" lon="7.55548">
        <ele>163.522583</ele>
        <time>2010-07-03T08:28:25Z</time>
      </trkpt>
      <trkpt lat="48.74419" lon="7.55567">
        <ele>165.034302</ele>
        <time>2010-07-03T08:28:44Z</time>
      </trkpt>
      <trkpt lat="48.74427" lon="7.55585">
        <ele>166.311646</ele>
        <time>2010-07-03T08:28:48Z</time>
      </trkpt>
      <trkpt lat="48.74435" lon="7.55604">
        <ele>166.553833</ele>
        <time>2010-07-03T08:28:53Z</time>
      </trkpt>
      <trkpt lat="48.74443" lon="7.55623">
        <ele>166.171021</ele>
        <time>2010-07-03T08:28:58Z</time>
      </trkpt>
      <trkpt lat="48.74452" lon="7.55643">
        <ele>167.448364</ele>
        <time>2010-07-03T08:29:03Z</time>
      </trkpt>
      <trkpt lat="48.7446" lon="7.55662">
        <ele>165.827271</ele>
        <time>2010-07-03T08:29:08Z</time>
      </trkpt>
      <trkpt lat="48.74471" lon="7.55679">
        <ele>166.006958</ele>
        <time>2010-07-03T08:29:13Z</time>
      </trkpt>
      <trkpt lat="48.74483" lon="7.55697">
        <ele>166.315552</ele>
        <time>2010-07-03T08:29:18Z</time>
      </trkpt>
      <trkpt lat="48.74495" lon="7.55713">
        <ele>165.768677</ele>
        <time>2010-07-03T08:29:23Z</time>
      </trkpt>
      <trkpt lat="48.74507" lon="7.5573">
        <ele>165.776489</ele>
        <time>2010-07-03T08:29:28Z</time>
      </trkpt>
      <trkpt lat="48.74519" lon="7.55745">
        <ele>165.604614</ele>
        <time>2010-07-03T08:29:32Z</time>
      </trkpt>
      <trkpt lat="48.74532" lon="7.5576">
        <ele>165.510864</ele>
        <time>2010-07-03T08:29:36Z</time>
      </trkpt>
      <trkpt lat="48.74545" lon="7.55776">
        <ele>165.378052</ele>
        <time>2010-07-03T08:29:40Z</time>
      </trkpt>
      <trkpt lat="48.74557" lon="7.55792">
        <ele>165.221802</ele>
        <time>2010-07-03T08:29:44Z</time>
      </trkpt>
      <trkpt lat="48.74571" lon="7.55809">
        <ele>164.518677</ele>
        <time>2010-07-03T08:29:48Z</time>
      </trkpt>
      <trkpt lat="48.74583" lon="7.55828">
        <ele>164.159302</ele>
        <time>2010-07-03T08:29:52Z</time>
      </trkpt>
      <trkpt lat="48.74593" lon="7.55843">
        <ele>164.628052</ele>
        <time>2010-07-03T08:29:55Z</time>
      </trkpt>
      <trkpt lat="48.74603" lon="7.55859">
        <ele>164.803833</ele>
        <time>2010-07-03T08:29:58Z</time>
      </trkpt>
      <trkpt lat="48.74612" lon="7.55877">
        <ele>165.358521</ele>
        <time>2010-07-03T08:30:01Z</time>
      </trkpt>
      <trkpt lat="48.7462" lon="7.55897">
        <ele>163.631958</ele>
        <time>2010-07-03T08:30:04Z</time>
      </trkpt>
      <trkpt lat="48.74627" lon="7.55915">
        <ele>162.299927</ele>
        <time>2010-07-03T08:30:07Z</time>
      </trkpt>
      <trkpt lat="48.74634" lon="7.55932">
        <ele>160.620239</ele>
        <time>2010-07-03T08:30:10Z</time>
      </trkpt>
      <trkpt lat="48.74641" lon="7.55954">
        <ele>157.819458</ele>
        <time>2010-07-03T08:30:14Z</time>
      </trkpt>
      <trkpt lat="48.74646" lon="7.55975">
        <ele>156.167114</ele>
        <time>2010-07-03T08:30:18Z</time>
      </trkpt>
      <trkpt lat="48.74653" lon="7.55995">
        <ele>155.588989</ele>
        <time>2010-07-03T08:30:22Z</time>
      </trkpt>
      <trkpt lat="48.74659" lon="7.56015">
        <ele>155.272583</ele>
        <time>2010-07-03T08:30:26Z</time>
      </trkpt>
      <trkpt lat="48.74666" lon="7.56034">
        <ele>154.901489</ele>
        <time>2010-07-03T08:30:30Z</time>
      </trkpt>
      <trkpt lat="48.74672" lon="7.56053">
        <ele>154.772583</ele>
        <time>2010-07-03T08:30:34Z</time>
      </trkpt>
      <trkpt lat="48.74677" lon="7.56072">
        <ele>154.389771</ele>
        <time>2010-07-03T08:30:38Z</time>
      </trkpt>
      <trkpt lat="48.74683" lon="7.56094">
        <ele>154.690552</ele>
        <time>2010-07-03T08:30:42Z</time>
      </trkpt>
      <trkpt lat="48.7469" lon="7.56116">
        <ele>154.753052</ele>
        <time>2010-07-03T08:30:46Z</time>
      </trkpt>
      <trkpt lat="48.74696" lon="7.56138">
        <ele>155.210083</ele>
        <time>2010-07-03T08:30:50Z</time>
      </trkpt>
      <trkpt lat="48.74703" lon="7.5616">
        <ele>155.815552</ele>
        <time>2010-07-03T08:30:54Z</time>
      </trkpt>
      <trkpt lat="48.74709" lon="7.56183">
        <ele>156.487427</ele>
        <time>2010-07-03T08:30:58Z</time>
      </trkpt>
      <trkpt lat="48.74715" lon="7.56206">
        <ele>156.796021</ele>
        <time>2010-07-03T08:31:02Z</time>
      </trkpt>
      <trkpt lat="48.74721" lon="7.5623">
        <ele>157.870239</ele>
        <time>2010-07-03T08:31:06Z</time>
      </trkpt>
      <trkpt lat="48.74729" lon="7.56254">
        <ele>157.503052</ele>
        <time>2010-07-03T08:31:10Z</time>
      </trkpt>
      <trkpt lat="48.74736" lon="7.56277">
        <ele>156.975708</ele>
        <time>2010-07-03T08:31:14Z</time>
      </trkpt>
      <trkpt lat="48.74742" lon="7.56299">
        <ele>156.862427</ele>
        <time>2010-07-03T08:31:18Z</time>
      </trkpt>
      <trkpt lat="48.74749" lon="7.56321">
        <ele>156.831177</ele>
        <time>2010-07-03T08:31:22Z</time>
      </trkpt>
      <trkpt lat="48.74755" lon="7.56342">
        <ele>156.940552</ele>
        <time>2010-07-03T08:31:26Z</time>
      </trkpt>
      <trkpt lat="48.74762" lon="7.56364">
        <ele>156.749146</ele>
        <time>2010-07-03T08:31:30Z</time>
      </trkpt>
      <trkpt lat="48.74768" lon="7.56386">
        <ele>156.686646</ele>
        <time>2010-07-03T08:31:34Z</time>
      </trkpt>
      <trkpt lat="48.74776" lon="7.56409">
        <ele>156.135864</ele>
        <time>2010-07-03T08:31:38Z</time>
      </trkpt>
      <trkpt lat="48.74782" lon="7.56432">
        <ele>156.280396</ele>
        <time>2010-07-03T08:31:42Z</time>
      </trkpt>
      <trkpt lat="48.74789" lon="7.56453">
        <ele>156.256958</ele>
        <time>2010-07-03T08:31:46Z</time>
      </trkpt>
      <trkpt lat="48.74795" lon="7.56475">
        <ele>155.885864</ele>
        <time>2010-07-03T08:31:50Z</time>
      </trkpt>
      <trkpt lat="48.74802" lon="7.56498">
        <ele>155.971802</ele>
        <time>2010-07-03T08:31:54Z</time>
      </trkpt>
      <trkpt lat="48.74807" lon="7.5652">
        <ele>155.792114</ele>
        <time>2010-07-03T08:31:58Z</time>
      </trkpt>
      <trkpt lat="48.74814" lon="7.56543">
        <ele>155.569458</ele>
        <time>2010-07-03T08:32:02Z</time>
      </trkpt>
      <trkpt lat="48.74819" lon="7.56566">
        <ele>155.452271</ele>
        <time>2010-07-03T08:32:06Z</time>
      </trkpt>
      <trkpt lat="48.74823" lon="7.56589">
        <ele>155.487427</ele>
        <time>2010-07-03T08:32:10Z</time>
      </trkpt>
      <trkpt lat="48.74827" lon="7.56613">
        <ele>155.585083</ele>
        <time>2010-07-03T08:32:14Z</time>
      </trkpt>
      <trkpt lat="48.74831" lon="7.56638">
        <ele>155.116333</ele>
        <time>2010-07-03T08:32:18Z</time>
      </trkpt>
      <trkpt lat="48.74834" lon="7.56662">
        <ele>155.139771</ele>
        <time>2010-07-03T08:32:22Z</time>
      </trkpt>
      <trkpt lat="48.74838" lon="7.56686">
        <ele>155.182739</ele>
        <time>2010-07-03T08:32:26Z</time>
      </trkpt>
      <trkpt lat="48.74839" lon="7.56711">
        <ele>154.870239</ele>
        <time>2010-07-03T08:32:30Z</time>
      </trkpt>
      <trkpt lat="48.74841" lon="7.56735">
        <ele>154.487427</ele>
        <time>2010-07-03T08:32:34Z</time>
      </trkpt>
      <trkpt lat="48.74844" lon="7.56759">
        <ele>154.456177</ele>
        <time>2010-07-03T08:32:38Z</time>
      </trkpt>
      <trkpt lat="48.74847" lon="7.56784">
        <ele>154.233521</ele>
        <time>2010-07-03T08:32:42Z</time>
      </trkpt>
      <trkpt lat="48.74854" lon="7.56807">
        <ele>154.483521</ele>
        <time>2010-07-03T08:32:46Z</time>
      </trkpt>
      <trkpt lat="48.7486" lon="7.56829">
        <ele>155.225708</ele>
        <time>2010-07-03T08:32:50Z</time>
      </trkpt>
      <trkpt lat="48.74859" lon="7.5685">
        <ele>155.811646</ele>
        <time>2010-07-03T08:32:54Z</time>
      </trkpt>
      <trkpt lat="48.74846" lon="7.5686">
        <ele>155.686646</ele>
        <time>2010-07-03T08:32:58Z</time>
      </trkpt>
      <trkpt lat="48.74841" lon="7.56882">
        <ele>155.596802</ele>
        <time>2010-07-03T08:33:02Z</time>
      </trkpt>
      <trkpt lat="48.74844" lon="7.56907">
        <ele>155.245239</ele>
        <time>2010-07-03T08:33:06Z</time>
      </trkpt>
      <trkpt lat="48.74844" lon="7.5693">
        <ele>156.284302</ele>
        <time>2010-07-03T08:33:11Z</time>
      </trkpt>
      <trkpt lat="48.74847" lon="7.56951">
        <ele>156.440552</ele>
        <time>2010-07-03T08:33:32Z</time>
      </trkpt>
      <trkpt lat="48.74851" lon="7.56971">
        <ele>157.198364</ele>
        <time>2010-07-03T08:33:37Z</time>
      </trkpt>
      <trkpt lat="48.74852" lon="7.56992">
        <ele>158.753052</ele>
        <time>2010-07-03T08:35:40Z</time>
      </trkpt>
      <trkpt lat="48.74852" lon="7.57015">
        <ele>160.600708</ele>
        <time>2010-07-03T08:35:48Z</time>
      </trkpt>
      <trkpt lat="48.74854" lon="7.57036">
        <ele>160.725708</ele>
        <time>2010-07-03T08:35:54Z</time>
      </trkpt>
      <trkpt lat="48.74858" lon="7.57057">
        <ele>160.366333</ele>
        <time>2010-07-03T08:35:59Z</time>
      </trkpt>
      <trkpt lat="48.74863" lon="7.57082">
        <ele>160.034302</ele>
        <time>2010-07-03T08:36:04Z</time>
      </trkpt>
      <trkpt lat="48.74868" lon="7.57103">
        <ele>159.835083</ele>
        <time>2010-07-03T08:36:08Z</time>
      </trkpt>
      <trkpt lat="48.74872" lon="7.57125">
        <ele>159.241333</ele>
        <time>2010-07-03T08:36:12Z</time>
      </trkpt>
      <trkpt lat="48.74877" lon="7.57148">
        <ele>158.842896</ele>
        <time>2010-07-03T08:36:16Z</time>
      </trkpt>
      <trkpt lat="48.74883" lon="7.57169">
        <ele>159.159302</ele>
        <time>2010-07-03T08:36:20Z</time>
      </trkpt>
      <trkpt lat="48.74891" lon="7.57188">
        <ele>159.956177</ele>
        <time>2010-07-03T08:36:24Z</time>
      </trkpt>
      <trkpt lat="48.74899" lon="7.57205">
        <ele>160.061646</ele>
        <time>2010-07-03T08:36:28Z</time>
      </trkpt>
      <trkpt lat="48.74904" lon="7.57227">
        <ele>159.694458</ele>
        <time>2010-07-03T08:36:33Z</time>
      </trkpt>
      <trkpt lat="48.74908" lon="7.57249">
        <ele>159.538208</ele>
        <time>2010-07-03T08:36:39Z</time>
      </trkpt>
      <trkpt lat="48.7491" lon="7.57271">
        <ele>158.299927</ele>
        <time>2010-07-03T08:36:44Z</time>
      </trkpt>
      <trkpt lat="48.74913" lon="7.57292">
        <ele>158.264771</ele>
        <time>2010-07-03T08:36:48Z</time>
      </trkpt>
      <trkpt lat="48.74915" lon="7.57315">
        <ele>157.835083</ele>
        <time>2010-07-03T08:36:52Z</time>
      </trkpt>
      <trkpt lat="48.74917" lon="7.57339">
        <ele>156.788208</ele>
        <time>2010-07-03T08:36:56Z</time>
      </trkpt>
      <trkpt lat="48.7492" lon="7.57364">
        <ele>156.530396</ele>
        <time>2010-07-03T08:37:00Z</time>
      </trkpt>
      <trkpt lat="48.74922" lon="7.57387">
        <ele>156.366333</ele>
        <time>2010-07-03T08:37:04Z</time>
      </trkpt>
      <trkpt lat="48.74924" lon="7.57409">
        <ele>155.710083</ele>
        <time>2010-07-03T08:37:08Z</time>
      </trkpt>
      <trkpt lat="48.74927" lon="7.57431">
        <ele>156.069458</ele>
        <time>2010-07-03T08:37:13Z</time>
      </trkpt>
      <trkpt lat="48.74929" lon="7.57457">
        <ele>156.475708</ele>
        <time>2010-07-03T08:37:18Z</time>
      </trkpt>
      <trkpt lat="48.74933" lon="7.57481">
        <ele>158.471802</ele>
        <time>2010-07-03T08:37:22Z</time>
      </trkpt>
      <trkpt lat="48.74935" lon="7.57504">
        <ele>159.780396</ele>
        <time>2010-07-03T08:37:26Z</time>
      </trkpt>
      <trkpt lat="48.74937" lon="7.57525">
        <ele>159.210083</ele>
        <time>2010-07-03T08:37:30Z</time>
      </trkpt>
      <trkpt lat="48.74938" lon="7.57548">
        <ele>159.120239</ele>
        <time>2010-07-03T08:37:34Z</time>
      </trkpt>
      <trkpt lat="48.74939" lon="7.57569">
        <ele>159.022583</ele>
        <time>2010-07-03T08:37:38Z</time>
      </trkpt>
      <trkpt lat="48.74941" lon="7.57593">
        <ele>158.682739</ele>
        <time>2010-07-03T08:37:43Z</time>
      </trkpt>
      <trkpt lat="48.74943" lon="7.57615">
        <ele>158.811646</ele>
        <time>2010-07-03T08:37:48Z</time>
      </trkpt>
      <trkpt lat="48.74945" lon="7.57638">
        <ele>159.444458</ele>
        <time>2010-07-03T08:38:03Z</time>
      </trkpt>
      <trkpt lat="48.74945" lon="7.57661">
        <ele>159.483521</ele>
        <time>2010-07-03T08:38:07Z</time>
      </trkpt>
      <trkpt lat="48.74946" lon="7.57686">
        <ele>159.081177</ele>
        <time>2010-07-03T08:38:11Z</time>
      </trkpt>
      <trkpt lat="48.74948" lon="7.57707">
        <ele>158.901489</ele>
        <time>2010-07-03T08:38:15Z</time>
      </trkpt>
      <trkpt lat="48.7495" lon="7.57729">
        <ele>158.741333</ele>
        <time>2010-07-03T08:38:20Z</time>
      </trkpt>
      <trkpt lat="48.74951" lon="7.57753">
        <ele>158.784302</ele>
        <time>2010-07-03T08:38:26Z</time>
      </trkpt>
      <trkpt lat="48.74952" lon="7.57778">
        <ele>158.448364</ele>
        <time>2010-07-03T08:38:31Z</time>
      </trkpt>
      <trkpt lat="48.74953" lon="7.57804">
        <ele>158.573364</ele>
        <time>2010-07-03T08:38:35Z</time>
      </trkpt>
      <trkpt lat="48.74954" lon="7.57831">
        <ele>158.780396</ele>
        <time>2010-07-03T08:38:39Z</time>
      </trkpt>
      <trkpt lat="48.74955" lon="7.57852">
        <ele>158.671021</ele>
        <time>2010-07-03T08:38:42Z</time>
      </trkpt>
      <trkpt lat="48.74957" lon="7.57873">
        <ele>158.921021</ele>
        <time>2010-07-03T08:38:45Z</time>
      </trkpt>
      <trkpt lat="48.74958" lon="7.57894">
        <ele>159.229614</ele>
        <time>2010-07-03T08:38:48Z</time>
      </trkpt>
      <trkpt lat="48.7496" lon="7.57915">
        <ele>159.139771</ele>
        <time>2010-07-03T08:38:51Z</time>
      </trkpt>
      <trkpt lat="48.7496" lon="7.57936">
        <ele>159.381958</ele>
        <time>2010-07-03T08:38:54Z</time>
      </trkpt>
      <trkpt lat="48.7496" lon="7.57958">
        <ele>159.768677</ele>
        <time>2010-07-03T08:38:57Z</time>
      </trkpt>
      <trkpt lat="48.74961" lon="7.57979">
        <ele>160.057739</ele>
        <time>2010-07-03T08:39:00Z</time>
      </trkpt>
      <trkpt lat="48.74962" lon="7.58">
        <ele>160.163208</ele>
        <time>2010-07-03T08:39:03Z</time>
      </trkpt>
      <trkpt lat="48.74962" lon="7.58022">
        <ele>160.385864</ele>
        <time>2010-07-03T08:39:06Z</time>
      </trkpt>
      <trkpt lat="48.74962" lon="7.58042">
        <ele>159.975708</ele>
        <time>2010-07-03T08:39:09Z</time>
      </trkpt>
      <trkpt lat="48.74961" lon="7.58063">
        <ele>159.917114</ele>
        <time>2010-07-03T08:39:12Z</time>
      </trkpt>
      <trkpt lat="48.7496" lon="7.58084">
        <ele>159.796021</ele>
        <time>2010-07-03T08:39:15Z</time>
      </trkpt>
      <trkpt lat="48.74958" lon="7.58105">
        <ele>159.721802</ele>
        <time>2010-07-03T08:39:18Z</time>
      </trkpt>
      <trkpt lat="48.74957" lon="7.58131">
        <ele>159.171021</ele>
        <time>2010-07-03T08:39:22Z</time>
      </trkpt>
      <trkpt lat="48.74955" lon="7.58153">
        <ele>159.128052</ele>
        <time>2010-07-03T08:39:25Z</time>
      </trkpt>
      <trkpt lat="48.74952" lon="7.5818">
        <ele>158.565552</ele>
        <time>2010-07-03T08:39:29Z</time>
      </trkpt>
      <trkpt lat="48.74949" lon="7.58204">
        <ele>158.635864</ele>
        <time>2010-07-03T08:39:32Z</time>
      </trkpt>
      <trkpt lat="48.74947" lon="7.58228">
        <ele>158.444458</ele>
        <time>2010-07-03T08:39:35Z</time>
      </trkpt>
      <trkpt lat="48.74944" lon="7.58251">
        <ele>158.374146</ele>
        <time>2010-07-03T08:39:38Z</time>
      </trkpt>
      <trkpt lat="48.74942" lon="7.58272">
        <ele>158.389771</ele>
        <time>2010-07-03T08:39:41Z</time>
      </trkpt>
      <trkpt lat="48.74939" lon="7.58298">
        <ele>158.526489</ele>
        <time>2010-07-03T08:39:45Z</time>
      </trkpt>
      <trkpt lat="48.74936" lon="7.58319">
        <ele>158.643677</ele>
        <time>2010-07-03T08:39:48Z</time>
      </trkpt>
      <trkpt lat="48.74934" lon="7.5834">
        <ele>158.491333</ele>
        <time>2010-07-03T08:39:51Z</time>
      </trkpt>
      <trkpt lat="48.74932" lon="7.58361">
        <ele>158.397583</ele>
        <time>2010-07-03T08:39:54Z</time>
      </trkpt>
      <trkpt lat="48.74929" lon="7.58383">
        <ele>158.385864</ele>
        <time>2010-07-03T08:39:57Z</time>
      </trkpt>
      <trkpt lat="48.74928" lon="7.58404">
        <ele>158.378052</ele>
        <time>2010-07-03T08:40:00Z</time>
      </trkpt>
      <trkpt lat="48.74925" lon="7.58424">
        <ele>158.139771</ele>
        <time>2010-07-03T08:40:03Z</time>
      </trkpt>
      <trkpt lat="48.74923" lon="7.58445">
        <ele>157.917114</ele>
        <time>2010-07-03T08:40:06Z</time>
      </trkpt>
      <trkpt lat="48.7492" lon="7.58471">
        <ele>157.296021</ele>
        <time>2010-07-03T08:40:10Z</time>
      </trkpt>
      <trkpt lat="48.74917" lon="7.58498">
        <ele>157.487427</ele>
        <time>2010-07-03T08:40:14Z</time>
      </trkpt>
      <trkpt lat="48.74915" lon="7.58518">
        <ele>157.651489</ele>
        <time>2010-07-03T08:40:17Z</time>
      </trkpt>
      <trkpt lat="48.74912" lon="7.58544">
        <ele>157.854614</ele>
        <time>2010-07-03T08:40:21Z</time>
      </trkpt>
      <trkpt lat="48.74909" lon="7.58569">
        <ele>157.514771</ele>
        <time>2010-07-03T08:40:25Z</time>
      </trkpt>
      <trkpt lat="48.74906" lon="7.58594">
        <ele>157.042114</ele>
        <time>2010-07-03T08:40:29Z</time>
      </trkpt>
      <trkpt lat="48.74903" lon="7.58619">
        <ele>156.909302</ele>
        <time>2010-07-03T08:40:33Z</time>
      </trkpt>
      <trkpt lat="48.749" lon="7.58644">
        <ele>157.124146</ele>
        <time>2010-07-03T08:40:37Z</time>
      </trkpt>
      <trkpt lat="48.74897" lon="7.5867">
        <ele>157.190552</ele>
        <time>2010-07-03T08:40:41Z</time>
      </trkpt>
      <trkpt lat="48.74894" lon="7.58695">
        <ele>157.460083</ele>
        <time>2010-07-03T08:40:45Z</time>
      </trkpt>
      <trkpt lat="48.74892" lon="7.58722">
        <ele>157.725708</ele>
        <time>2010-07-03T08:40:49Z</time>
      </trkpt>
      <trkpt lat="48.7489" lon="7.58747">
        <ele>157.776489</ele>
        <time>2010-07-03T08:40:53Z</time>
      </trkpt>
      <trkpt lat="48.74889" lon="7.58773">
        <ele>158.463989</ele>
        <time>2010-07-03T08:40:57Z</time>
      </trkpt>
      <trkpt lat="48.74888" lon="7.58797">
        <ele>157.858521</ele>
        <time>2010-07-03T08:41:01Z</time>
      </trkpt>
      <trkpt lat="48.74889" lon="7.58823">
        <ele>156.096802</ele>
        <time>2010-07-03T08:41:05Z</time>
      </trkpt>
      <trkpt lat="48.74889" lon="7.5885">
        <ele>156.350708</ele>
        <time>2010-07-03T08:41:09Z</time>
      </trkpt>
      <trkpt lat="48.7489" lon="7.58877">
        <ele>156.655396</ele>
        <time>2010-07-03T08:41:13Z</time>
      </trkpt>
      <trkpt lat="48.74891" lon="7.58897">
        <ele>156.608521</ele>
        <time>2010-07-03T08:41:16Z</time>
      </trkpt>
      <trkpt lat="48.74892" lon="7.58918">
        <ele>156.706177</ele>
        <time>2010-07-03T08:41:19Z</time>
      </trkpt>
      <trkpt lat="48.74892" lon="7.58939">
        <ele>156.698364</ele>
        <time>2010-07-03T08:41:22Z</time>
      </trkpt>
      <trkpt lat="48.74893" lon="7.5896">
        <ele>156.854614</ele>
        <time>2010-07-03T08:41:25Z</time>
      </trkpt>
      <trkpt lat="48.74893" lon="7.58987">
        <ele>157.796021</ele>
        <time>2010-07-03T08:41:29Z</time>
      </trkpt>
      <trkpt lat="48.74894" lon="7.59013">
        <ele>158.069458</ele>
        <time>2010-07-03T08:41:33Z</time>
      </trkpt>
      <trkpt lat="48.74895" lon="7.59033">
        <ele>158.077271</ele>
        <time>2010-07-03T08:41:36Z</time>
      </trkpt>
      <trkpt lat="48.74896" lon="7.59054">
        <ele>158.319458</ele>
        <time>2010-07-03T08:41:39Z</time>
      </trkpt>
      <trkpt lat="48.74897" lon="7.59081">
        <ele>159.276489</ele>
        <time>2010-07-03T08:41:43Z</time>
      </trkpt>
      <trkpt lat="48.74897" lon="7.59101">
        <ele>159.346802</ele>
        <time>2010-07-03T08:41:46Z</time>
      </trkpt>
      <trkpt lat="48.74897" lon="7.59127">
        <ele>158.932739</ele>
        <time>2010-07-03T08:41:50Z</time>
      </trkpt>
      <trkpt lat="48.74898" lon="7.59148">
        <ele>158.831177</ele>
        <time>2010-07-03T08:41:53Z</time>
      </trkpt>
      <trkpt lat="48.74898" lon="7.59169">
        <ele>159.147583</ele>
        <time>2010-07-03T08:41:56Z</time>
      </trkpt>
      <trkpt lat="48.74899" lon="7.59195">
        <ele>158.698364</ele>
        <time>2010-07-03T08:42:00Z</time>
      </trkpt>
      <trkpt lat="48.74898" lon="7.59222">
        <ele>158.858521</ele>
        <time>2010-07-03T08:42:04Z</time>
      </trkpt>
      <trkpt lat="48.74896" lon="7.59247">
        <ele>158.725708</ele>
        <time>2010-07-03T08:42:08Z</time>
      </trkpt>
      <trkpt lat="48.74892" lon="7.59272">
        <ele>158.592896</ele>
        <time>2010-07-03T08:42:12Z</time>
      </trkpt>
      <trkpt lat="48.74889" lon="7.59297">
        <ele>158.190552</ele>
        <time>2010-07-03T08:42:16Z</time>
      </trkpt>
      <trkpt lat="48.74886" lon="7.59317">
        <ele>158.440552</ele>
        <time>2010-07-03T08:42:19Z</time>
      </trkpt>
      <trkpt lat="48.74884" lon="7.59338">
        <ele>158.354614</ele>
        <time>2010-07-03T08:42:22Z</time>
      </trkpt>
      <trkpt lat="48.7488" lon="7.59363">
        <ele>158.780396</ele>
        <time>2010-07-03T08:42:26Z</time>
      </trkpt>
      <trkpt lat="48.74876" lon="7.59385">
        <ele>158.776489</ele>
        <time>2010-07-03T08:42:30Z</time>
      </trkpt>
      <trkpt lat="48.74867" lon="7.59403">
        <ele>159.424927</ele>
        <time>2010-07-03T08:42:48Z</time>
      </trkpt>
      <trkpt lat="48.74854" lon="7.59398">
        <ele>159.124146</ele>
        <time>2010-07-03T08:42:53Z</time>
      </trkpt>
      <trkpt lat="48.74849" lon="7.59421">
        <ele>155.897583</ele>
        <time>2010-07-03T08:43:00Z</time>
      </trkpt>
      <trkpt lat="48.74844" lon="7.59447">
        <ele>156.553833</ele>
        <time>2010-07-03T08:43:04Z</time>
      </trkpt>
      <trkpt lat="48.74839" lon="7.5947">
        <ele>156.178833</ele>
        <time>2010-07-03T08:43:08Z</time>
      </trkpt>
      <trkpt lat="48.74834" lon="7.59494">
        <ele>154.342896</ele>
        <time>2010-07-03T08:43:13Z</time>
      </trkpt>
      <trkpt lat="48.74829" lon="7.59517">
        <ele>153.686646</ele>
        <time>2010-07-03T08:43:17Z</time>
      </trkpt>
      <trkpt lat="48.74823" lon="7.59543">
        <ele>154.491333</ele>
        <time>2010-07-03T08:43:21Z</time>
      </trkpt>
      <trkpt lat="48.74818" lon="7.59564">
        <ele>151.225708</ele>
        <time>2010-07-03T08:43:25Z</time>
      </trkpt>
      <trkpt lat="48.74812" lon="7.59585">
        <ele>153.624146</ele>
        <time>2010-07-03T08:43:28Z</time>
      </trkpt>
      <trkpt lat="48.74806" lon="7.5961">
        <ele>153.577271</ele>
        <time>2010-07-03T08:43:32Z</time>
      </trkpt>
      <trkpt lat="48.748" lon="7.59636">
        <ele>154.706177</ele>
        <time>2010-07-03T08:43:36Z</time>
      </trkpt>
      <trkpt lat="48.74794" lon="7.59663">
        <ele>155.967896</ele>
        <time>2010-07-03T08:43:40Z</time>
      </trkpt>
      <trkpt lat="48.74797" lon="7.59686">
        <ele>155.237427</ele>
        <time>2010-07-03T08:43:44Z</time>
      </trkpt>
      <trkpt lat="48.74802" lon="7.59704">
        <ele>156.588989</ele>
        <time>2010-07-03T08:43:47Z</time>
      </trkpt>
      <trkpt lat="48.748" lon="7.59728">
        <ele>156.280396</ele>
        <time>2010-07-03T08:43:51Z</time>
      </trkpt>
      <trkpt lat="48.74795" lon="7.59752">
        <ele>156.635864</ele>
        <time>2010-07-03T08:43:55Z</time>
      </trkpt>
      <trkpt lat="48.74789" lon="7.59775">
        <ele>155.159302</ele>
        <time>2010-07-03T08:43:59Z</time>
      </trkpt>
      <trkpt lat="48.74785" lon="7.59796">
        <ele>152.838989</ele>
        <time>2010-07-03T08:44:03Z</time>
      </trkpt>
      <trkpt lat="48.74781" lon="7.59817">
        <ele>149.753052</ele>
        <time>2010-07-03T08:44:07Z</time>
      </trkpt>
      <trkpt lat="48.74776" lon="7.59837">
        <ele>151.631958</ele>
        <time>2010-07-03T08:44:10Z</time>
      </trkpt>
      <trkpt lat="48.74771" lon="7.59858">
        <ele>151.194458</ele>
        <time>2010-07-03T08:44:14Z</time>
      </trkpt>
      <trkpt lat="48.74767" lon="7.59879">
        <ele>151.475708</ele>
        <time>2010-07-03T08:44:18Z</time>
      </trkpt>
      <trkpt lat="48.74762" lon="7.59902">
        <ele>151.186646</ele>
        <time>2010-07-03T08:44:22Z</time>
      </trkpt>
      <trkpt lat="48.74757" lon="7.59925">
        <ele>150.577271</ele>
        <time>2010-07-03T08:44:26Z</time>
      </trkpt>
      <trkpt lat="48.74752" lon="7.59949">
        <ele>150.526489</ele>
        <time>2010-07-03T08:44:30Z</time>
      </trkpt>
      <trkpt lat="48.74746" lon="7.59974">
        <ele>150.671021</ele>
        <time>2010-07-03T08:44:34Z</time>
      </trkpt>
      <trkpt lat="48.74742" lon="7.59997">
        <ele>149.327271</ele>
        <time>2010-07-03T08:44:38Z</time>
      </trkpt>
      <trkpt lat="48.74738" lon="7.60017">
        <ele>150.237427</ele>
        <time>2010-07-03T08:44:41Z</time>
      </trkpt>
      <trkpt lat="48.74735" lon="7.60039">
        <ele>152.440552</ele>
        <time>2010-07-03T08:44:44Z</time>
      </trkpt>
      <trkpt lat="48.74734" lon="7.60059">
        <ele>155.245239</ele>
        <time>2010-07-03T08:44:46Z</time>
      </trkpt>
      <trkpt lat="48.74733" lon="7.6008">
        <ele>157.049927</ele>
        <time>2010-07-03T08:44:49Z</time>
      </trkpt>
      <trkpt lat="48.74732" lon="7.60102">
        <ele>157.635864</ele>
        <time>2010-07-03T08:44:53Z</time>
      </trkpt>
      <trkpt lat="48.74732" lon="7.60129">
        <ele>158.014771</ele>
        <time>2010-07-03T08:44:57Z</time>
      </trkpt>
      <trkpt lat="48.74732" lon="7.60155">
        <ele>159.030396</ele>
        <time>2010-07-03T08:45:01Z</time>
      </trkpt>
      <trkpt lat="48.74731" lon="7.6018">
        <ele>158.995239</ele>
        <time>2010-07-03T08:45:05Z</time>
      </trkpt>
      <trkpt lat="48.74733" lon="7.60202">
        <ele>159.983521</ele>
        <time>2010-07-03T08:45:08Z</time>
      </trkpt>
      <trkpt lat="48.74736" lon="7.60223">
        <ele>160.717896</ele>
        <time>2010-07-03T08:45:11Z</time>
      </trkpt>
      <trkpt lat="48.74739" lon="7.60244">
        <ele>160.729614</ele>
        <time>2010-07-03T08:45:14Z</time>
      </trkpt>
      <trkpt lat="48.74742" lon="7.60271">
        <ele>159.338989</ele>
        <time>2010-07-03T08:45:19Z</time>
      </trkpt>
      <trkpt lat="48.74746" lon="7.60294">
        <ele>158.901489</ele>
        <time>2010-07-03T08:45:23Z</time>
      </trkpt>
      <trkpt lat="48.74749" lon="7.60316">
        <ele>159.303833</ele>
        <time>2010-07-03T08:45:27Z</time>
      </trkpt>
      <trkpt lat="48.74749" lon="7.60338">
        <ele>159.034302</ele>
        <time>2010-07-03T08:46:01Z</time>
      </trkpt>
      <trkpt lat="48.74757" lon="7.60357">
        <ele>155.225708</ele>
        <time>2010-07-03T08:46:09Z</time>
      </trkpt>
      <trkpt lat="48.74762" lon="7.60377">
        <ele>154.995239</ele>
        <time>2010-07-03T08:46:12Z</time>
      </trkpt>
      <trkpt lat="48.74768" lon="7.604">
        <ele>156.088989</ele>
        <time>2010-07-03T08:46:15Z</time>
      </trkpt>
      <trkpt lat="48.74777" lon="7.6042">
        <ele>156.499146</ele>
        <time>2010-07-03T08:46:18Z</time>
      </trkpt>
      <trkpt lat="48.74787" lon="7.60438">
        <ele>157.327271</ele>
        <time>2010-07-03T08:46:21Z</time>
      </trkpt>
      <trkpt lat="48.74796" lon="7.60456">
        <ele>158.792114</ele>
        <time>2010-07-03T08:46:24Z</time>
      </trkpt>
      <trkpt lat="48.74804" lon="7.60472">
        <ele>158.917114</ele>
        <time>2010-07-03T08:46:27Z</time>
      </trkpt>
      <trkpt lat="48.74812" lon="7.60489">
        <ele>159.405396</ele>
        <time>2010-07-03T08:46:30Z</time>
      </trkpt>
      <trkpt lat="48.74821" lon="7.60509">
        <ele>159.323364</ele>
        <time>2010-07-03T08:46:34Z</time>
      </trkpt>
      <trkpt lat="48.74828" lon="7.60527">
        <ele>158.694458</ele>
        <time>2010-07-03T08:46:38Z</time>
      </trkpt>
      <trkpt lat="48.74836" lon="7.60547">
        <ele>158.471802</ele>
        <time>2010-07-03T08:46:42Z</time>
      </trkpt>
      <trkpt lat="48.74843" lon="7.60567">
        <ele>157.776489</ele>
        <time>2010-07-03T08:46:46Z</time>
      </trkpt>
      <trkpt lat="48.74848" lon="7.60586">
        <ele>156.956177</ele>
        <time>2010-07-03T08:46:50Z</time>
      </trkpt>
      <trkpt lat="48.74852" lon="7.60607">
        <ele>157.327271</ele>
        <time>2010-07-03T08:46:54Z</time>
      </trkpt>
      <trkpt lat="48.74853" lon="7.60628">
        <ele>157.108521</ele>
        <time>2010-07-03T08:46:58Z</time>
      </trkpt>
      <trkpt lat="48.74854" lon="7.6065">
        <ele>157.206177</ele>
        <time>2010-07-03T08:47:02Z</time>
      </trkpt>
      <trkpt lat="48.74855" lon="7.60673">
        <ele>157.612427</ele>
        <time>2010-07-03T08:47:06Z</time>
      </trkpt>
      <trkpt lat="48.74856" lon="7.60695">
        <ele>157.690552</ele>
        <time>2010-07-03T08:47:10Z</time>
      </trkpt>
      <trkpt lat="48.74857" lon="7.60717">
        <ele>158.264771</ele>
        <time>2010-07-03T08:47:15Z</time>
      </trkpt>
      <trkpt lat="48.74859" lon="7.60739">
        <ele>157.717896</ele>
        <time>2010-07-03T08:47:20Z</time>
      </trkpt>
      <trkpt lat="48.74857" lon="7.60762">
        <ele>157.104614</ele>
        <time>2010-07-03T08:47:24Z</time>
      </trkpt>
      <trkpt lat="48.74859" lon="7.60784">
        <ele>156.561646</ele>
        <time>2010-07-03T08:47:27Z</time>
      </trkpt>
      <trkpt lat="48.7486" lon="7.60808">
        <ele>156.272583</ele>
        <time>2010-07-03T08:47:30Z</time>
      </trkpt>
      <trkpt lat="48.74862" lon="7.60832">
        <ele>156.053833</ele>
        <time>2010-07-03T08:47:33Z</time>
      </trkpt>
      <trkpt lat="48.74863" lon="7.60855">
        <ele>155.999146</ele>
        <time>2010-07-03T08:47:36Z</time>
      </trkpt>
      <trkpt lat="48.74865" lon="7.60876">
        <ele>155.913208</ele>
        <time>2010-07-03T08:47:39Z</time>
      </trkpt>
      <trkpt lat="48.74866" lon="7.60902">
        <ele>156.378052</ele>
        <time>2010-07-03T08:47:43Z</time>
      </trkpt>
      <trkpt lat="48.74867" lon="7.60927">
        <ele>157.237427</ele>
        <time>2010-07-03T08:47:47Z</time>
      </trkpt>
      <trkpt lat="48.74869" lon="7.60952">
        <ele>157.518677</ele>
        <time>2010-07-03T08:47:51Z</time>
      </trkpt>
      <trkpt lat="48.7487" lon="7.60977">
        <ele>157.796021</ele>
        <time>2010-07-03T08:47:55Z</time>
      </trkpt>
      <trkpt lat="48.74871" lon="7.61002">
        <ele>158.303833</ele>
        <time>2010-07-03T08:47:59Z</time>
      </trkpt>
      <trkpt lat="48.74873" lon="7.61028">
        <ele>158.702271</ele>
        <time>2010-07-03T08:48:03Z</time>
      </trkpt>
      <trkpt lat="48.74873" lon="7.61054">
        <ele>159.397583</ele>
        <time>2010-07-03T08:48:07Z</time>
      </trkpt>
      <trkpt lat="48.74874" lon="7.61078">
        <ele>159.190552</ele>
        <time>2010-07-03T08:48:11Z</time>
      </trkpt>
      <trkpt lat="48.74875" lon="7.61103">
        <ele>159.182739</ele>
        <time>2010-07-03T08:48:15Z</time>
      </trkpt>
      <trkpt lat="48.74876" lon="7.61128">
        <ele>159.585083</ele>
        <time>2010-07-03T08:48:19Z</time>
      </trkpt>
      <trkpt lat="48.74877" lon="7.61152">
        <ele>159.151489</ele>
        <time>2010-07-03T08:48:23Z</time>
      </trkpt>
      <trkpt lat="48.74878" lon="7.61177">
        <ele>158.960083</ele>
        <time>2010-07-03T08:48:27Z</time>
      </trkpt>
      <trkpt lat="48.74879" lon="7.61202">
        <ele>158.846802</ele>
        <time>2010-07-03T08:48:31Z</time>
      </trkpt>
      <trkpt lat="48.7488" lon="7.61227">
        <ele>158.573364</ele>
        <time>2010-07-03T08:48:35Z</time>
      </trkpt>
      <trkpt lat="48.7488" lon="7.61249">
        <ele>158.503052</ele>
        <time>2010-07-03T08:48:39Z</time>
      </trkpt>
      <trkpt lat="48.7488" lon="7.6127">
        <ele>158.233521</ele>
        <time>2010-07-03T08:48:43Z</time>
      </trkpt>
      <trkpt lat="48.7488" lon="7.61294">
        <ele>158.014771</ele>
        <time>2010-07-03T08:48:47Z</time>
      </trkpt>
      <trkpt lat="48.7488" lon="7.61317">
        <ele>157.448364</ele>
        <time>2010-07-03T08:48:51Z</time>
      </trkpt>
      <trkpt lat="48.7488" lon="7.6134">
        <ele>157.081177</ele>
        <time>2010-07-03T08:48:55Z</time>
      </trkpt>
      <trkpt lat="48.7488" lon="7.61363">
        <ele>157.026489</ele>
        <time>2010-07-03T08:48:59Z</time>
      </trkpt>
      <trkpt lat="48.74881" lon="7.61388">
        <ele>157.104614</ele>
        <time>2010-07-03T08:49:03Z</time>
      </trkpt>
      <trkpt lat="48.74883" lon="7.61412">
        <ele>157.323364</ele>
        <time>2010-07-03T08:49:07Z</time>
      </trkpt>
      <trkpt lat="48.74883" lon="7.61436">
        <ele>156.878052</ele>
        <time>2010-07-03T08:49:11Z</time>
      </trkpt>
      <trkpt lat="48.74885" lon="7.6146">
        <ele>156.116333</ele>
        <time>2010-07-03T08:49:15Z</time>
      </trkpt>
      <trkpt lat="48.74886" lon="7.61482">
        <ele>156.706177</ele>
        <time>2010-07-03T08:49:19Z</time>
      </trkpt>
      <trkpt lat="48.74889" lon="7.61506">
        <ele>155.354614</ele>
        <time>2010-07-03T08:49:23Z</time>
      </trkpt>
      <trkpt lat="48.7489" lon="7.61528">
        <ele>155.573364</ele>
        <time>2010-07-03T08:49:27Z</time>
      </trkpt>
      <trkpt lat="48.74892" lon="7.61551">
        <ele>154.796021</ele>
        <time>2010-07-03T08:49:31Z</time>
      </trkpt>
      <trkpt lat="48.74892" lon="7.61575">
        <ele>154.948364</ele>
        <time>2010-07-03T08:49:35Z</time>
      </trkpt>
      <trkpt lat="48.7489" lon="7.61595">
        <ele>155.202271</ele>
        <time>2010-07-03T08:49:39Z</time>
      </trkpt>
      <trkpt lat="48.74891" lon="7.61618">
        <ele>153.374146</ele>
        <time>2010-07-03T08:49:45Z</time>
      </trkpt>
      <trkpt lat="48.74895" lon="7.61639">
        <ele>154.038208</ele>
        <time>2010-07-03T08:49:54Z</time>
      </trkpt>
      <trkpt lat="48.74901" lon="7.61658">
        <ele>154.190552</ele>
        <time>2010-07-03T08:50:01Z</time>
      </trkpt>
      <trkpt lat="48.74905" lon="7.6168">
        <ele>153.366333</ele>
        <time>2010-07-03T08:50:08Z</time>
      </trkpt>
      <trkpt lat="48.7491" lon="7.61704">
        <ele>153.811646</ele>
        <time>2010-07-03T08:50:13Z</time>
      </trkpt>
      <trkpt lat="48.74917" lon="7.61726">
        <ele>153.549927</ele>
        <time>2010-07-03T08:50:18Z</time>
      </trkpt>
      <trkpt lat="48.7492" lon="7.61746">
        <ele>153.624146</ele>
        <time>2010-07-03T08:50:22Z</time>
      </trkpt>
      <trkpt lat="48.74929" lon="7.61764">
        <ele>152.362427</ele>
        <time>2010-07-03T08:50:26Z</time>
      </trkpt>
      <trkpt lat="48.74933" lon="7.61785">
        <ele>152.760864</ele>
        <time>2010-07-03T08:50:30Z</time>
      </trkpt>
      <trkpt lat="48.74939" lon="7.61803">
        <ele>154.979614</ele>
        <time>2010-07-03T08:50:34Z</time>
      </trkpt>
      <trkpt lat="48.74945" lon="7.61823">
        <ele>155.604614</ele>
        <time>2010-07-03T08:50:38Z</time>
      </trkpt>
      <trkpt lat="48.7495" lon="7.61843">
        <ele>156.432739</ele>
        <time>2010-07-03T08:50:42Z</time>
      </trkpt>
      <trkpt lat="48.74956" lon="7.61863">
        <ele>152.651489</ele>
        <time>2010-07-03T08:50:46Z</time>
      </trkpt>
      <trkpt lat="48.74963" lon="7.61886">
        <ele>154.073364</ele>
        <time>2010-07-03T08:50:50Z</time>
      </trkpt>
      <trkpt lat="48.7497" lon="7.61907">
        <ele>153.995239</ele>
        <time>2010-07-03T08:50:54Z</time>
      </trkpt>
      <trkpt lat="48.74976" lon="7.61928">
        <ele>152.561646</ele>
        <time>2010-07-03T08:50:58Z</time>
      </trkpt>
      <trkpt lat="48.74981" lon="7.6195">
        <ele>152.717896</ele>
        <time>2010-07-03T08:51:02Z</time>
      </trkpt>
      <trkpt lat="48.74985" lon="7.61973">
        <ele>153.628052</ele>
        <time>2010-07-03T08:51:06Z</time>
      </trkpt>
      <trkpt lat="48.74987" lon="7.61997">
        <ele>153.245239</ele>
        <time>2010-07-03T08:51:10Z</time>
      </trkpt>
      <trkpt lat="48.74988" lon="7.62021">
        <ele>152.108521</ele>
        <time>2010-07-03T08:51:14Z</time>
      </trkpt>
      <trkpt lat="48.7499" lon="7.62044">
        <ele>151.917114</ele>
        <time>2010-07-03T08:51:18Z</time>
      </trkpt>
      <trkpt lat="48.74991" lon="7.62066">
        <ele>151.643677</ele>
        <time>2010-07-03T08:51:22Z</time>
      </trkpt>
      <trkpt lat="48.7499" lon="7.6209">
        <ele>150.815552</ele>
        <time>2010-07-03T08:51:26Z</time>
      </trkpt>
      <trkpt lat="48.74988" lon="7.62113">
        <ele>149.792114</ele>
        <time>2010-07-03T08:51:30Z</time>
      </trkpt>
      <trkpt lat="48.74985" lon="7.62136">
        <ele>148.081177</ele>
        <time>2010-07-03T08:51:34Z</time>
      </trkpt>
      <trkpt lat="48.74981" lon="7.62159">
        <ele>146.296021</ele>
        <time>2010-07-03T08:51:38Z</time>
      </trkpt>
      <trkpt lat="48.74978" lon="7.62181">
        <ele>144.995239</ele>
        <time>2010-07-03T08:51:42Z</time>
      </trkpt>
      <trkpt lat="48.74974" lon="7.62203">
        <ele>143.475708</ele>
        <time>2010-07-03T08:51:46Z</time>
      </trkpt>
      <trkpt lat="48.74971" lon="7.62225">
        <ele>141.905396</ele>
        <time>2010-07-03T08:51:50Z</time>
      </trkpt>
      <trkpt lat="48.74968" lon="7.62247">
        <ele>141.092896</ele>
        <time>2010-07-03T08:51:54Z</time>
      </trkpt>
      <trkpt lat="48.74966" lon="7.62268">
        <ele>141.881958</ele>
        <time>2010-07-03T08:52:20Z</time>
      </trkpt>
      <trkpt lat="48.74963" lon="7.62289">
        <ele>145.202271</ele>
        <time>2010-07-03T08:53:04Z</time>
      </trkpt>
      <trkpt lat="48.74963" lon="7.62309">
        <ele>150.182739</ele>
        <time>2010-07-03T08:57:32Z</time>
      </trkpt>
      <trkpt lat="48.74964" lon="7.62332">
        <ele>150.756958</ele>
        <time>2010-07-03T08:57:39Z</time>
      </trkpt>
      <trkpt lat="48.74964" lon="7.62353">
        <ele>151.651489</ele>
        <time>2010-07-03T08:57:44Z</time>
      </trkpt>
      <trkpt lat="48.74965" lon="7.62375">
        <ele>152.870239</ele>
        <time>2010-07-03T08:57:49Z</time>
      </trkpt>
      <trkpt lat="48.74965" lon="7.62397">
        <ele>152.999146</ele>
        <time>2010-07-03T08:57:54Z</time>
      </trkpt>
      <trkpt lat="48.74967" lon="7.62417">
        <ele>153.553833</ele>
        <time>2010-07-03T08:57:59Z</time>
      </trkpt>
      <trkpt lat="48.74968" lon="7.62442">
        <ele>154.073364</ele>
        <time>2010-07-03T08:58:04Z</time>
      </trkpt>
      <trkpt lat="48.74969" lon="7.62464">
        <ele>154.381958</ele>
        <time>2010-07-03T08:58:08Z</time>
      </trkpt>
      <trkpt lat="48.74971" lon="7.62487">
        <ele>154.682739</ele>
        <time>2010-07-03T08:58:12Z</time>
      </trkpt>
      <trkpt lat="48.74973" lon="7.62511">
        <ele>154.448364</ele>
        <time>2010-07-03T08:58:16Z</time>
      </trkpt>
      <trkpt lat="48.74975" lon="7.62533">
        <ele>154.057739</ele>
        <time>2010-07-03T08:58:19Z</time>
      </trkpt>
      <trkpt lat="48.74978" lon="7.6256">
        <ele>154.346802</ele>
        <time>2010-07-03T08:58:23Z</time>
      </trkpt>
      <trkpt lat="48.7498" lon="7.62586">
        <ele>154.436646</ele>
        <time>2010-07-03T08:58:27Z</time>
      </trkpt>
      <trkpt lat="48.74983" lon="7.62611">
        <ele>154.053833</ele>
        <time>2010-07-03T08:58:31Z</time>
      </trkpt>
      <trkpt lat="48.74985" lon="7.62636">
        <ele>153.608521</ele>
        <time>2010-07-03T08:58:35Z</time>
      </trkpt>
      <trkpt lat="48.74987" lon="7.62656">
        <ele>153.600708</ele>
        <time>2010-07-03T08:58:39Z</time>
      </trkpt>
      <trkpt lat="48.7499" lon="7.62678">
        <ele>153.772583</ele>
        <time>2010-07-03T08:58:43Z</time>
      </trkpt>
      <trkpt lat="48.74991" lon="7.627">
        <ele>154.104614</ele>
        <time>2010-07-03T08:58:47Z</time>
      </trkpt>
      <trkpt lat="48.74993" lon="7.62725">
        <ele>154.233521</ele>
        <time>2010-07-03T08:58:51Z</time>
      </trkpt>
      <trkpt lat="48.74995" lon="7.6275">
        <ele>154.272583</ele>
        <time>2010-07-03T08:58:55Z</time>
      </trkpt>
      <trkpt lat="48.74996" lon="7.62775">
        <ele>154.077271</ele>
        <time>2010-07-03T08:58:59Z</time>
      </trkpt>
      <trkpt lat="48.74997" lon="7.62801">
        <ele>153.768677</ele>
        <time>2010-07-03T08:59:03Z</time>
      </trkpt>
      <trkpt lat="48.74997" lon="7.62827">
        <ele>153.577271</ele>
        <time>2010-07-03T08:59:07Z</time>
      </trkpt>
      <trkpt lat="48.74997" lon="7.62847">
        <ele>153.026489</ele>
        <time>2010-07-03T08:59:10Z</time>
      </trkpt>
      <trkpt lat="48.74997" lon="7.62868">
        <ele>152.901489</ele>
        <time>2010-07-03T08:59:13Z</time>
      </trkpt>
      <trkpt lat="48.74994" lon="7.62894">
        <ele>153.756958</ele>
        <time>2010-07-03T08:59:17Z</time>
      </trkpt>
      <trkpt lat="48.74992" lon="7.62915">
        <ele>154.971802</ele>
        <time>2010-07-03T08:59:23Z</time>
      </trkpt>
      <trkpt lat="48.74992" lon="7.62935">
        <ele>153.823364</ele>
        <time>2010-07-03T08:59:35Z</time>
      </trkpt>
      <trkpt lat="48.74987" lon="7.62959">
        <ele>152.323364</ele>
        <time>2010-07-03T08:59:39Z</time>
      </trkpt>
      <trkpt lat="48.74979" lon="7.62984">
        <ele>150.971802</ele>
        <time>2010-07-03T08:59:43Z</time>
      </trkpt>
      <trkpt lat="48.74973" lon="7.63005">
        <ele>150.901489</ele>
        <time>2010-07-03T08:59:46Z</time>
      </trkpt>
      <trkpt lat="48.74968" lon="7.63025">
        <ele>151.588989</ele>
        <time>2010-07-03T08:59:49Z</time>
      </trkpt>
      <trkpt lat="48.74963" lon="7.63048">
        <ele>151.338989</ele>
        <time>2010-07-03T08:59:53Z</time>
      </trkpt>
      <trkpt lat="48.74955" lon="7.63069">
        <ele>151.725708</ele>
        <time>2010-07-03T08:59:58Z</time>
      </trkpt>
      <trkpt lat="48.74948" lon="7.63091">
        <ele>151.979614</ele>
        <time>2010-07-03T09:00:04Z</time>
      </trkpt>
      <trkpt lat="48.74942" lon="7.63114">
        <ele>152.053833</ele>
        <time>2010-07-03T09:00:09Z</time>
      </trkpt>
      <trkpt lat="48.74936" lon="7.63135">
        <ele>151.881958</ele>
        <time>2010-07-03T09:00:13Z</time>
      </trkpt>
      <trkpt lat="48.7493" lon="7.63155">
        <ele>151.784302</ele>
        <time>2010-07-03T09:00:17Z</time>
      </trkpt>
      <trkpt lat="48.74927" lon="7.63176">
        <ele>150.897583</ele>
        <time>2010-07-03T09:00:21Z</time>
      </trkpt>
      <trkpt lat="48.74922" lon="7.63197">
        <ele>150.835083</ele>
        <time>2010-07-03T09:00:25Z</time>
      </trkpt>
      <trkpt lat="48.74914" lon="7.63219">
        <ele>150.147583</ele>
        <time>2010-07-03T09:00:30Z</time>
      </trkpt>
      <trkpt lat="48.74905" lon="7.63238">
        <ele>150.397583</ele>
        <time>2010-07-03T09:00:35Z</time>
      </trkpt>
      <trkpt lat="48.74898" lon="7.63258">
        <ele>150.280396</ele>
        <time>2010-07-03T09:00:40Z</time>
      </trkpt>
      <trkpt lat="48.74894" lon="7.63277">
        <ele>152.401489</ele>
        <time>2010-07-03T09:00:48Z</time>
      </trkpt>
      <trkpt lat="48.74886" lon="7.63295">
        <ele>151.456177</ele>
        <time>2010-07-03T09:00:54Z</time>
      </trkpt>
      <trkpt lat="48.74878" lon="7.63313">
        <ele>150.174927</ele>
        <time>2010-07-03T09:00:57Z</time>
      </trkpt>
      <trkpt lat="48.74868" lon="7.63334">
        <ele>149.389771</ele>
        <time>2010-07-03T09:01:00Z</time>
      </trkpt>
      <trkpt lat="48.74858" lon="7.63354">
        <ele>149.034302</ele>
        <time>2010-07-03T09:01:03Z</time>
      </trkpt>
      <trkpt lat="48.74848" lon="7.63371">
        <ele>148.120239</ele>
        <time>2010-07-03T09:01:06Z</time>
      </trkpt>
      <trkpt lat="48.74838" lon="7.63387">
        <ele>147.581177</ele>
        <time>2010-07-03T09:01:09Z</time>
      </trkpt>
      <trkpt lat="48.74827" lon="7.63401">
        <ele>147.424927</ele>
        <time>2010-07-03T09:01:12Z</time>
      </trkpt>
      <trkpt lat="48.74814" lon="7.63417">
        <ele>147.038208</ele>
        <time>2010-07-03T09:01:16Z</time>
      </trkpt>
      <trkpt lat="48.74802" lon="7.63433">
        <ele>146.249146</ele>
        <time>2010-07-03T09:01:20Z</time>
      </trkpt>
      <trkpt lat="48.7479" lon="7.63448">
        <ele>145.960083</ele>
        <time>2010-07-03T09:01:24Z</time>
      </trkpt>
      <trkpt lat="48.74778" lon="7.63462">
        <ele>146.327271</ele>
        <time>2010-07-03T09:01:29Z</time>
      </trkpt>
      <trkpt lat="48.74767" lon="7.63477">
        <ele>146.881958</ele>
        <time>2010-07-03T09:01:33Z</time>
      </trkpt>
      <trkpt lat="48.74755" lon="7.63491">
        <ele>146.061646</ele>
        <time>2010-07-03T09:01:37Z</time>
      </trkpt>
      <trkpt lat="48.74744" lon="7.63505">
        <ele>145.358521</ele>
        <time>2010-07-03T09:01:41Z</time>
      </trkpt>
      <trkpt lat="48.74731" lon="7.63521">
        <ele>144.674927</ele>
        <time>2010-07-03T09:01:46Z</time>
      </trkpt>
      <trkpt lat="48.74719" lon="7.63533">
        <ele>144.729614</ele>
        <time>2010-07-03T09:01:50Z</time>
      </trkpt>
      <trkpt lat="48.74708" lon="7.63546">
        <ele>145.096802</ele>
        <time>2010-07-03T09:01:54Z</time>
      </trkpt>
      <trkpt lat="48.74697" lon="7.6356">
        <ele>146.510864</ele>
        <time>2010-07-03T09:01:58Z</time>
      </trkpt>
      <trkpt lat="48.74684" lon="7.63574">
        <ele>147.913208</ele>
        <time>2010-07-03T09:02:02Z</time>
      </trkpt>
      <trkpt lat="48.7467" lon="7.63588">
        <ele>147.975708</ele>
        <time>2010-07-03T09:02:06Z</time>
      </trkpt>
      <trkpt lat="48.74659" lon="7.63603">
        <ele>147.581177</ele>
        <time>2010-07-03T09:02:10Z</time>
      </trkpt>
      <trkpt lat="48.74646" lon="7.63619">
        <ele>146.948364</ele>
        <time>2010-07-03T09:02:14Z</time>
      </trkpt>
      <trkpt lat="48.74634" lon="7.63635">
        <ele>145.838989</ele>
        <time>2010-07-03T09:02:18Z</time>
      </trkpt>
      <trkpt lat="48.74622" lon="7.63652">
        <ele>144.835083</ele>
        <time>2010-07-03T09:02:22Z</time>
      </trkpt>
      <trkpt lat="48.7461" lon="7.63667">
        <ele>144.276489</ele>
        <time>2010-07-03T09:02:26Z</time>
      </trkpt>
      <trkpt lat="48.74598" lon="7.63684">
        <ele>142.764771</ele>
        <time>2010-07-03T09:02:30Z</time>
      </trkpt>
      <trkpt lat="48.74585" lon="7.637">
        <ele>143.647583</ele>
        <time>2010-07-03T09:02:34Z</time>
      </trkpt>
      <trkpt lat="48.74572" lon="7.63717">
        <ele>145.596802</ele>
        <time>2010-07-03T09:02:38Z</time>
      </trkpt>
      <trkpt lat="48.74559" lon="7.63731">
        <ele>145.585083</ele>
        <time>2010-07-03T09:02:42Z</time>
      </trkpt>
      <trkpt lat="48.74547" lon="7.63747">
        <ele>145.788208</ele>
        <time>2010-07-03T09:02:46Z</time>
      </trkpt>
      <trkpt lat="48.74535" lon="7.63763">
        <ele>145.749146</ele>
        <time>2010-07-03T09:02:50Z</time>
      </trkpt>
      <trkpt lat="48.74523" lon="7.63781">
        <ele>146.026489</ele>
        <time>2010-07-03T09:02:54Z</time>
      </trkpt>
      <trkpt lat="48.74511" lon="7.63799">
        <ele>146.194458</ele>
        <time>2010-07-03T09:02:58Z</time>
      </trkpt>
      <trkpt lat="48.74498" lon="7.63815">
        <ele>146.565552</ele>
        <time>2010-07-03T09:03:02Z</time>
      </trkpt>
      <trkpt lat="48.74486" lon="7.63831">
        <ele>146.557739</ele>
        <time>2010-07-03T09:03:06Z</time>
      </trkpt>
      <trkpt lat="48.74474" lon="7.63846">
        <ele>146.565552</ele>
        <time>2010-07-03T09:03:10Z</time>
      </trkpt>
      <trkpt lat="48.74462" lon="7.63861">
        <ele>146.409302</ele>
        <time>2010-07-03T09:03:14Z</time>
      </trkpt>
      <trkpt lat="48.7445" lon="7.63876">
        <ele>146.444458</ele>
        <time>2010-07-03T09:03:18Z</time>
      </trkpt>
      <trkpt lat="48.74438" lon="7.63892">
        <ele>146.971802</ele>
        <time>2010-07-03T09:03:22Z</time>
      </trkpt>
      <trkpt lat="48.74426" lon="7.63909">
        <ele>146.530396</ele>
        <time>2010-07-03T09:03:26Z</time>
      </trkpt>
      <trkpt lat="48.74415" lon="7.63927">
        <ele>145.905396</ele>
        <time>2010-07-03T09:03:30Z</time>
      </trkpt>
      <trkpt lat="48.74405" lon="7.63944">
        <ele>145.698364</ele>
        <time>2010-07-03T09:03:34Z</time>
      </trkpt>
      <trkpt lat="48.74395" lon="7.63964">
        <ele>145.526489</ele>
        <time>2010-07-03T09:03:38Z</time>
      </trkpt>
      <trkpt lat="48.74385" lon="7.63983">
        <ele>145.241333</ele>
        <time>2010-07-03T09:03:42Z</time>
      </trkpt>
      <trkpt lat="48.74376" lon="7.64001">
        <ele>145.526489</ele>
        <time>2010-07-03T09:03:46Z</time>
      </trkpt>
      <trkpt lat="48.74366" lon="7.6402">
        <ele>145.565552</ele>
        <time>2010-07-03T09:03:50Z</time>
      </trkpt>
      <trkpt lat="48.74355" lon="7.64039">
        <ele>145.374146</ele>
        <time>2010-07-03T09:03:54Z</time>
      </trkpt>
      <trkpt lat="48.74344" lon="7.64058">
        <ele>145.174927</ele>
        <time>2010-07-03T09:03:58Z</time>
      </trkpt>
      <trkpt lat="48.74334" lon="7.64076">
        <ele>144.792114</ele>
        <time>2010-07-03T09:04:02Z</time>
      </trkpt>
      <trkpt lat="48.74324" lon="7.64096">
        <ele>144.952271</ele>
        <time>2010-07-03T09:04:06Z</time>
      </trkpt>
      <trkpt lat="48.74315" lon="7.64114">
        <ele>145.417114</ele>
        <time>2010-07-03T09:04:10Z</time>
      </trkpt>
      <trkpt lat="48.74305" lon="7.64132">
        <ele>145.311646</ele>
        <time>2010-07-03T09:04:14Z</time>
      </trkpt>
      <trkpt lat="48.74294" lon="7.64151">
        <ele>145.268677</ele>
        <time>2010-07-03T09:04:18Z</time>
      </trkpt>
      <trkpt lat="48.74284" lon="7.64169">
        <ele>145.713989</ele>
        <time>2010-07-03T09:04:22Z</time>
      </trkpt>
      <trkpt lat="48.74274" lon="7.64188">
        <ele>145.749146</ele>
        <time>2010-07-03T09:04:26Z</time>
      </trkpt>
      <trkpt lat="48.74265" lon="7.64208">
        <ele>146.194458</ele>
        <time>2010-07-03T09:04:30Z</time>
      </trkpt>
      <trkpt lat="48.74254" lon="7.64225">
        <ele>146.581177</ele>
        <time>2010-07-03T09:04:34Z</time>
      </trkpt>
      <trkpt lat="48.74244" lon="7.64243">
        <ele>146.678833</ele>
        <time>2010-07-03T09:04:38Z</time>
      </trkpt>
      <trkpt lat="48.74235" lon="7.64261">
        <ele>146.979614</ele>
        <time>2010-07-03T09:04:42Z</time>
      </trkpt>
      <trkpt lat="48.74225" lon="7.6428">
        <ele>146.921021</ele>
        <time>2010-07-03T09:04:46Z</time>
      </trkpt>
      <trkpt lat="48.74215" lon="7.64299">
        <ele>146.526489</ele>
        <time>2010-07-03T09:04:50Z</time>
      </trkpt>
      <trkpt lat="48.74206" lon="7.64317">
        <ele>146.772583</ele>
        <time>2010-07-03T09:04:54Z</time>
      </trkpt>
      <trkpt lat="48.74196" lon="7.64334">
        <ele>146.315552</ele>
        <time>2010-07-03T09:04:58Z</time>
      </trkpt>
      <trkpt lat="48.74186" lon="7.64353">
        <ele>144.878052</ele>
        <time>2010-07-03T09:05:02Z</time>
      </trkpt>
      <trkpt lat="48.74177" lon="7.64371">
        <ele>143.956177</ele>
        <time>2010-07-03T09:05:05Z</time>
      </trkpt>
      <trkpt lat="48.74167" lon="7.64391">
        <ele>142.952271</ele>
        <time>2010-07-03T09:05:08Z</time>
      </trkpt>
      <trkpt lat="48.74157" lon="7.64411">
        <ele>142.967896</ele>
        <time>2010-07-03T09:05:11Z</time>
      </trkpt>
      <trkpt lat="48.74146" lon="7.64428">
        <ele>142.811646</ele>
        <time>2010-07-03T09:05:14Z</time>
      </trkpt>
      <trkpt lat="48.74138" lon="7.64444">
        <ele>143.026489</ele>
        <time>2010-07-03T09:05:17Z</time>
      </trkpt>
      <trkpt lat="48.74127" lon="7.64464">
        <ele>143.280396</ele>
        <time>2010-07-03T09:05:21Z</time>
      </trkpt>
      <trkpt lat="48.7412" lon="7.64481">
        <ele>142.831177</ele>
        <time>2010-07-03T09:05:25Z</time>
      </trkpt>
      <trkpt lat="48.74112" lon="7.64498">
        <ele>141.819458</ele>
        <time>2010-07-03T09:05:44Z</time>
      </trkpt>
      <trkpt lat="48.74102" lon="7.64517">
        <ele>141.932739</ele>
        <time>2010-07-03T09:05:52Z</time>
      </trkpt>
      <trkpt lat="48.74092" lon="7.64537">
        <ele>141.503052</ele>
        <time>2010-07-03T09:05:57Z</time>
      </trkpt>
      <trkpt lat="48.74082" lon="7.64555">
        <ele>141.280396</ele>
        <time>2010-07-03T09:06:01Z</time>
      </trkpt>
      <trkpt lat="48.74072" lon="7.64573">
        <ele>141.217896</ele>
        <time>2010-07-03T09:06:04Z</time>
      </trkpt>
      <trkpt lat="48.74063" lon="7.64591">
        <ele>140.620239</ele>
        <time>2010-07-03T09:06:07Z</time>
      </trkpt>
      <trkpt lat="48.74054" lon="7.6461">
        <ele>140.784302</ele>
        <time>2010-07-03T09:06:10Z</time>
      </trkpt>
      <trkpt lat="48.74044" lon="7.6463">
        <ele>140.631958</ele>
        <time>2010-07-03T09:06:14Z</time>
      </trkpt>
      <trkpt lat="48.74033" lon="7.64648">
        <ele>140.354614</ele>
        <time>2010-07-03T09:06:18Z</time>
      </trkpt>
      <trkpt lat="48.74022" lon="7.64668">
        <ele>140.409302</ele>
        <time>2010-07-03T09:06:22Z</time>
      </trkpt>
      <trkpt lat="48.74012" lon="7.64689">
        <ele>140.799927</ele>
        <time>2010-07-03T09:06:26Z</time>
      </trkpt>
      <trkpt lat="48.74003" lon="7.64704">
        <ele>140.952271</ele>
        <time>2010-07-03T09:06:29Z</time>
      </trkpt>
      <trkpt lat="48.73994" lon="7.64721">
        <ele>140.944458</ele>
        <time>2010-07-03T09:06:32Z</time>
      </trkpt>
      <trkpt lat="48.73985" lon="7.64736">
        <ele>141.983521</ele>
        <time>2010-07-03T09:06:35Z</time>
      </trkpt>
      <trkpt lat="48.73975" lon="7.64752">
        <ele>142.596802</ele>
        <time>2010-07-03T09:06:38Z</time>
      </trkpt>
      <trkpt lat="48.73967" lon="7.64769">
        <ele>143.135864</ele>
        <time>2010-07-03T09:06:41Z</time>
      </trkpt>
      <trkpt lat="48.73958" lon="7.64785">
        <ele>143.518677</ele>
        <time>2010-07-03T09:06:44Z</time>
      </trkpt>
      <trkpt lat="48.7395" lon="7.64801">
        <ele>144.190552</ele>
        <time>2010-07-03T09:06:47Z</time>
      </trkpt>
      <trkpt lat="48.73941" lon="7.64817">
        <ele>144.549927</ele>
        <time>2010-07-03T09:06:50Z</time>
      </trkpt>
      <trkpt lat="48.73932" lon="7.64833">
        <ele>144.526489</ele>
        <time>2010-07-03T09:06:53Z</time>
      </trkpt>
      <trkpt lat="48.73922" lon="7.6485">
        <ele>144.319458</ele>
        <time>2010-07-03T09:06:56Z</time>
      </trkpt>
      <trkpt lat="48.73912" lon="7.64868">
        <ele>144.190552</ele>
        <time>2010-07-03T09:06:59Z</time>
      </trkpt>
      <trkpt lat="48.73903" lon="7.64885">
        <ele>143.995239</ele>
        <time>2010-07-03T09:07:02Z</time>
      </trkpt>
      <trkpt lat="48.73894" lon="7.64902">
        <ele>143.678833</ele>
        <time>2010-07-03T09:07:05Z</time>
      </trkpt>
      <trkpt lat="48.73883" lon="7.64922">
        <ele>143.760864</ele>
        <time>2010-07-03T09:07:09Z</time>
      </trkpt>
      <trkpt lat="48.73874" lon="7.6494">
        <ele>143.268677</ele>
        <time>2010-07-03T09:07:13Z</time>
      </trkpt>
      <trkpt lat="48.73864" lon="7.6496">
        <ele>143.253052</ele>
        <time>2010-07-03T09:07:18Z</time>
      </trkpt>
      <trkpt lat="48.73854" lon="7.64979">
        <ele>143.475708</ele>
        <time>2010-07-03T09:07:23Z</time>
      </trkpt>
      <trkpt lat="48.73844" lon="7.64997">
        <ele>143.346802</ele>
        <time>2010-07-03T09:07:27Z</time>
      </trkpt>
      <trkpt lat="48.73833" lon="7.65017">
        <ele>143.003052</ele>
        <time>2010-07-03T09:07:31Z</time>
      </trkpt>
      <trkpt lat="48.73823" lon="7.65037">
        <ele>142.862427</ele>
        <time>2010-07-03T09:07:35Z</time>
      </trkpt>
      <trkpt lat="48.73812" lon="7.65058">
        <ele>142.288208</ele>
        <time>2010-07-03T09:07:39Z</time>
      </trkpt>
      <trkpt lat="48.73801" lon="7.65079">
        <ele>142.784302</ele>
        <time>2010-07-03T09:07:43Z</time>
      </trkpt>
      <trkpt lat="48.73791" lon="7.65097">
        <ele>143.889771</ele>
        <time>2010-07-03T09:07:46Z</time>
      </trkpt>
      <trkpt lat="48.73781" lon="7.65114">
        <ele>144.311646</ele>
        <time>2010-07-03T09:07:49Z</time>
      </trkpt>
      <trkpt lat="48.73772" lon="7.65131">
        <ele>143.936646</ele>
        <time>2010-07-03T09:07:52Z</time>
      </trkpt>
      <trkpt lat="48.73763" lon="7.65148">
        <ele>144.292114</ele>
        <time>2010-07-03T09:07:55Z</time>
      </trkpt>
      <trkpt lat="48.73754" lon="7.65167">
        <ele>144.413208</ele>
        <time>2010-07-03T09:07:58Z</time>
      </trkpt>
      <trkpt lat="48.73743" lon="7.65184">
        <ele>144.710083</ele>
        <time>2010-07-03T09:08:01Z</time>
      </trkpt>
      <trkpt lat="48.73731" lon="7.65202">
        <ele>145.741333</ele>
        <time>2010-07-03T09:08:04Z</time>
      </trkpt>
      <trkpt lat="48.73718" lon="7.65221">
        <ele>146.460083</ele>
        <time>2010-07-03T09:08:07Z</time>
      </trkpt>
      <trkpt lat="48.73706" lon="7.6524">
        <ele>146.503052</ele>
        <time>2010-07-03T09:08:11Z</time>
      </trkpt>
      <trkpt lat="48.73697" lon="7.65263">
        <ele>145.284302</ele>
        <time>2010-07-03T09:08:15Z</time>
      </trkpt>
      <trkpt lat="48.73689" lon="7.65283">
        <ele>144.276489</ele>
        <time>2010-07-03T09:08:18Z</time>
      </trkpt>
      <trkpt lat="48.73679" lon="7.65303">
        <ele>142.975708</ele>
        <time>2010-07-03T09:08:21Z</time>
      </trkpt>
      <trkpt lat="48.73669" lon="7.65324">
        <ele>142.116333</ele>
        <time>2010-07-03T09:08:24Z</time>
      </trkpt>
      <trkpt lat="48.7366" lon="7.65343">
        <ele>140.874146</ele>
        <time>2010-07-03T09:08:27Z</time>
      </trkpt>
      <trkpt lat="48.73651" lon="7.65361">
        <ele>140.956177</ele>
        <time>2010-07-03T09:08:30Z</time>
      </trkpt>
      <trkpt lat="48.7364" lon="7.65382">
        <ele>141.717896</ele>
        <time>2010-07-03T09:08:34Z</time>
      </trkpt>
      <trkpt lat="48.73631" lon="7.65398">
        <ele>142.151489</ele>
        <time>2010-07-03T09:08:38Z</time>
      </trkpt>
      <trkpt lat="48.73621" lon="7.65417">
        <ele>141.631958</ele>
        <time>2010-07-03T09:08:43Z</time>
      </trkpt>
      <trkpt lat="48.73613" lon="7.65436">
        <ele>142.233521</ele>
        <time>2010-07-03T09:08:49Z</time>
      </trkpt>
      <trkpt lat="48.73605" lon="7.65454">
        <ele>142.671021</ele>
        <time>2010-07-03T09:08:56Z</time>
      </trkpt>
      <trkpt lat="48.73594" lon="7.65471">
        <ele>143.088989</ele>
        <time>2010-07-03T09:09:01Z</time>
      </trkpt>
      <trkpt lat="48.73584" lon="7.65488">
        <ele>143.467896</ele>
        <time>2010-07-03T09:09:05Z</time>
      </trkpt>
      <trkpt lat="48.73573" lon="7.65506">
        <ele>143.510864</ele>
        <time>2010-07-03T09:09:09Z</time>
      </trkpt>
      <trkpt lat="48.73562" lon="7.65526">
        <ele>143.924927</ele>
        <time>2010-07-03T09:09:13Z</time>
      </trkpt>
      <trkpt lat="48.73552" lon="7.65546">
        <ele>144.272583</ele>
        <time>2010-07-03T09:09:17Z</time>
      </trkpt>
      <trkpt lat="48.73541" lon="7.65567">
        <ele>144.913208</ele>
        <time>2010-07-03T09:09:21Z</time>
      </trkpt>
      <trkpt lat="48.73529" lon="7.65586">
        <ele>145.112427</ele>
        <time>2010-07-03T09:09:25Z</time>
      </trkpt>
      <trkpt lat="48.73518" lon="7.65607">
        <ele>145.174927</ele>
        <time>2010-07-03T09:09:29Z</time>
      </trkpt>
      <trkpt lat="48.73507" lon="7.65628">
        <ele>145.729614</ele>
        <time>2010-07-03T09:09:33Z</time>
      </trkpt>
      <trkpt lat="48.73496" lon="7.65649">
        <ele>145.616333</ele>
        <time>2010-07-03T09:09:37Z</time>
      </trkpt>
      <trkpt lat="48.73485" lon="7.6567">
        <ele>145.471802</ele>
        <time>2010-07-03T09:09:41Z</time>
      </trkpt>
      <trkpt lat="48.73474" lon="7.65691">
        <ele>145.495239</ele>
        <time>2010-07-03T09:09:45Z</time>
      </trkpt>
      <trkpt lat="48.73465" lon="7.65706">
        <ele>145.792114</ele>
        <time>2010-07-03T09:09:48Z</time>
      </trkpt>
      <trkpt lat="48.73454" lon="7.65728">
        <ele>145.792114</ele>
        <time>2010-07-03T09:09:52Z</time>
      </trkpt>
      <trkpt lat="48.73442" lon="7.65749">
        <ele>145.772583</ele>
        <time>2010-07-03T09:09:56Z</time>
      </trkpt>
      <trkpt lat="48.73431" lon="7.6577">
        <ele>145.893677</ele>
        <time>2010-07-03T09:10:00Z</time>
      </trkpt>
      <trkpt lat="48.73421" lon="7.65791">
        <ele>145.799927</ele>
        <time>2010-07-03T09:10:04Z</time>
      </trkpt>
      <trkpt lat="48.73409" lon="7.65812">
        <ele>145.553833</ele>
        <time>2010-07-03T09:10:08Z</time>
      </trkpt>
      <trkpt lat="48.73398" lon="7.65833">
        <ele>145.745239</ele>
        <time>2010-07-03T09:10:12Z</time>
      </trkpt>
      <trkpt lat="48.73387" lon="7.65853">
        <ele>145.893677</ele>
        <time>2010-07-03T09:10:16Z</time>
      </trkpt>
      <trkpt lat="48.73375" lon="7.65874">
        <ele>145.682739</ele>
        <time>2010-07-03T09:10:20Z</time>
      </trkpt>
      <trkpt lat="48.73365" lon="7.65895">
        <ele>145.710083</ele>
        <time>2010-07-03T09:10:24Z</time>
      </trkpt>
      <trkpt lat="48.73356" lon="7.65912">
        <ele>145.780396</ele>
        <time>2010-07-03T09:10:27Z</time>
      </trkpt>
      <trkpt lat="48.73345" lon="7.65933">
        <ele>145.487427</ele>
        <time>2010-07-03T09:10:31Z</time>
      </trkpt>
      <trkpt lat="48.73334" lon="7.65953">
        <ele>145.682739</ele>
        <time>2010-07-03T09:10:35Z</time>
      </trkpt>
      <trkpt lat="48.73325" lon="7.65969">
        <ele>145.483521</ele>
        <time>2010-07-03T09:10:38Z</time>
      </trkpt>
      <trkpt lat="48.73316" lon="7.65985">
        <ele>145.546021</ele>
        <time>2010-07-03T09:10:41Z</time>
      </trkpt>
      <trkpt lat="48.73308" lon="7.66002">
        <ele>145.229614</ele>
        <time>2010-07-03T09:10:44Z</time>
      </trkpt>
      <trkpt lat="48.73299" lon="7.66018">
        <ele>144.975708</ele>
        <time>2010-07-03T09:10:47Z</time>
      </trkpt>
      <trkpt lat="48.73288" lon="7.66037">
        <ele>145.096802</ele>
        <time>2010-07-03T09:10:51Z</time>
      </trkpt>
      <trkpt lat="48.73277" lon="7.66057">
        <ele>144.366333</ele>
        <time>2010-07-03T09:10:55Z</time>
      </trkpt>
      <trkpt lat="48.73267" lon="7.66078">
        <ele>144.928833</ele>
        <time>2010-07-03T09:10:59Z</time>
      </trkpt>
      <trkpt lat="48.73257" lon="7.66099">
        <ele>144.292114</ele>
        <time>2010-07-03T09:11:03Z</time>
      </trkpt>
      <trkpt lat="48.73248" lon="7.6612">
        <ele>144.538208</ele>
        <time>2010-07-03T09:11:07Z</time>
      </trkpt>
      <trkpt lat="48.73238" lon="7.66142">
        <ele>144.268677</ele>
        <time>2010-07-03T09:11:11Z</time>
      </trkpt>
      <trkpt lat="48.73227" lon="7.66163">
        <ele>144.116333</ele>
        <time>2010-07-03T09:11:15Z</time>
      </trkpt>
      <trkpt lat="48.73217" lon="7.66183">
        <ele>144.358521</ele>
        <time>2010-07-03T09:11:19Z</time>
      </trkpt>
      <trkpt lat="48.73206" lon="7.66204">
        <ele>143.585083</ele>
        <time>2010-07-03T09:11:23Z</time>
      </trkpt>
      <trkpt lat="48.73195" lon="7.66225">
        <ele>143.401489</ele>
        <time>2010-07-03T09:11:27Z</time>
      </trkpt>
      <trkpt lat="48.73188" lon="7.66243">
        <ele>143.409302</ele>
        <time>2010-07-03T09:11:30Z</time>
      </trkpt>
      <trkpt lat="48.7318" lon="7.66261">
        <ele>143.667114</ele>
        <time>2010-07-03T09:11:33Z</time>
      </trkpt>
      <trkpt lat="48.7317" lon="7.66282">
        <ele>142.932739</ele>
        <time>2010-07-03T09:11:37Z</time>
      </trkpt>
      <trkpt lat="48.73159" lon="7.66302">
        <ele>141.866333</ele>
        <time>2010-07-03T09:11:41Z</time>
      </trkpt>
      <trkpt lat="48.73149" lon="7.66323">
        <ele>141.835083</ele>
        <time>2010-07-03T09:11:45Z</time>
      </trkpt>
      <trkpt lat="48.7314" lon="7.66343">
        <ele>140.467896</ele>
        <time>2010-07-03T09:11:49Z</time>
      </trkpt>
      <trkpt lat="48.7313" lon="7.6636">
        <ele>139.514771</ele>
        <time>2010-07-03T09:11:53Z</time>
      </trkpt>
      <trkpt lat="48.7312" lon="7.66377">
        <ele>140.624146</ele>
        <time>2010-07-03T09:11:57Z</time>
      </trkpt>
      <trkpt lat="48.73109" lon="7.66394">
        <ele>140.729614</ele>
        <time>2010-07-03T09:12:01Z</time>
      </trkpt>
      <trkpt lat="48.73111" lon="7.66415">
        <ele>142.491333</ele>
        <time>2010-07-03T09:12:19Z</time>
      </trkpt>
      <trkpt lat="48.73124" lon="7.6643">
        <ele>145.030396</ele>
        <time>2010-07-03T09:12:26Z</time>
      </trkpt>
      <trkpt lat="48.73118" lon="7.66451">
        <ele>143.604614</ele>
        <time>2010-07-03T09:12:35Z</time>
      </trkpt>
      <trkpt lat="48.73106" lon="7.66471">
        <ele>141.366333</ele>
        <time>2010-07-03T09:12:39Z</time>
      </trkpt>
      <trkpt lat="48.73096" lon="7.66491">
        <ele>140.811646</ele>
        <time>2010-07-03T09:12:42Z</time>
      </trkpt>
      <trkpt lat="48.73087" lon="7.66511">
        <ele>140.518677</ele>
        <time>2010-07-03T09:12:45Z</time>
      </trkpt>
      <trkpt lat="48.73078" lon="7.6653">
        <ele>140.624146</ele>
        <time>2010-07-03T09:12:48Z</time>
      </trkpt>
      <trkpt lat="48.7307" lon="7.66547">
        <ele>141.381958</ele>
        <time>2010-07-03T09:12:51Z</time>
      </trkpt>
      <trkpt lat="48.7306" lon="7.66568">
        <ele>141.928833</ele>
        <time>2010-07-03T09:12:55Z</time>
      </trkpt>
      <trkpt lat="48.73052" lon="7.66585">
        <ele>141.741333</ele>
        <time>2010-07-03T09:12:59Z</time>
      </trkpt>
      <trkpt lat="48.73043" lon="7.66602">
        <ele>140.893677</ele>
        <time>2010-07-03T09:13:03Z</time>
      </trkpt>
      <trkpt lat="48.73035" lon="7.66619">
        <ele>140.471802</ele>
        <time>2010-07-03T09:13:07Z</time>
      </trkpt>
      <trkpt lat="48.73028" lon="7.66637">
        <ele>141.260864</ele>
        <time>2010-07-03T09:13:11Z</time>
      </trkpt>
      <trkpt lat="48.73019" lon="7.66657">
        <ele>141.971802</ele>
        <time>2010-07-03T09:13:16Z</time>
      </trkpt>
      <trkpt lat="48.7301" lon="7.66676">
        <ele>141.944458</ele>
        <time>2010-07-03T09:13:20Z</time>
      </trkpt>
      <trkpt lat="48.73" lon="7.66696">
        <ele>141.971802</ele>
        <time>2010-07-03T09:13:24Z</time>
      </trkpt>
      <trkpt lat="48.72991" lon="7.66716">
        <ele>142.194458</ele>
        <time>2010-07-03T09:13:28Z</time>
      </trkpt>
      <trkpt lat="48.72981" lon="7.66737">
        <ele>141.338989</ele>
        <time>2010-07-03T09:13:32Z</time>
      </trkpt>
      <trkpt lat="48.72972" lon="7.66757">
        <ele>141.428833</ele>
        <time>2010-07-03T09:13:36Z</time>
      </trkpt>
      <trkpt lat="48.72962" lon="7.66777">
        <ele>141.421021</ele>
        <time>2010-07-03T09:13:40Z</time>
      </trkpt>
      <trkpt lat="48.72953" lon="7.66798">
        <ele>140.768677</ele>
        <time>2010-07-03T09:13:44Z</time>
      </trkpt>
      <trkpt lat="48.72943" lon="7.66818">
        <ele>141.307739</ele>
        <time>2010-07-03T09:13:48Z</time>
      </trkpt>
      <trkpt lat="48.72933" lon="7.66838">
        <ele>141.284302</ele>
        <time>2010-07-03T09:13:52Z</time>
      </trkpt>
      <trkpt lat="48.72923" lon="7.66858">
        <ele>141.030396</ele>
        <time>2010-07-03T09:13:56Z</time>
      </trkpt>
      <trkpt lat="48.72914" lon="7.66877">
        <ele>140.253052</ele>
        <time>2010-07-03T09:14:00Z</time>
      </trkpt>
      <trkpt lat="48.72903" lon="7.66897">
        <ele>140.104614</ele>
        <time>2010-07-03T09:14:04Z</time>
      </trkpt>
      <trkpt lat="48.72893" lon="7.66917">
        <ele>139.932739</ele>
        <time>2010-07-03T09:14:08Z</time>
      </trkpt>
      <trkpt lat="48.72884" lon="7.66939">
        <ele>140.292114</ele>
        <time>2010-07-03T09:14:12Z</time>
      </trkpt>
      <trkpt lat="48.72874" lon="7.66958">
        <ele>139.588989</ele>
        <time>2010-07-03T09:14:16Z</time>
      </trkpt>
      <trkpt lat="48.72864" lon="7.66978">
        <ele>139.311646</ele>
        <time>2010-07-03T09:14:20Z</time>
      </trkpt>
      <trkpt lat="48.72853" lon="7.66998">
        <ele>138.674927</ele>
        <time>2010-07-03T09:14:24Z</time>
      </trkpt>
      <trkpt lat="48.72844" lon="7.67015">
        <ele>137.960083</ele>
        <time>2010-07-03T09:14:27Z</time>
      </trkpt>
      <trkpt lat="48.72837" lon="7.67031">
        <ele>138.010864</ele>
        <time>2010-07-03T09:14:30Z</time>
      </trkpt>
      <trkpt lat="48.72825" lon="7.67052">
        <ele>137.354614</ele>
        <time>2010-07-03T09:14:34Z</time>
      </trkpt>
      <trkpt lat="48.72817" lon="7.67069">
        <ele>137.475708</ele>
        <time>2010-07-03T09:14:37Z</time>
      </trkpt>
      <trkpt lat="48.72807" lon="7.67091">
        <ele>137.932739</ele>
        <time>2010-07-03T09:14:41Z</time>
      </trkpt>
      <trkpt lat="48.72796" lon="7.67113">
        <ele>137.788208</ele>
        <time>2010-07-03T09:14:45Z</time>
      </trkpt>
      <trkpt lat="48.72788" lon="7.67129">
        <ele>138.272583</ele>
        <time>2010-07-03T09:14:48Z</time>
      </trkpt>
      <trkpt lat="48.7278" lon="7.67146">
        <ele>138.081177</ele>
        <time>2010-07-03T09:14:51Z</time>
      </trkpt>
      <trkpt lat="48.72771" lon="7.67163">
        <ele>138.475708</ele>
        <time>2010-07-03T09:14:54Z</time>
      </trkpt>
      <trkpt lat="48.72763" lon="7.67179">
        <ele>138.663208</ele>
        <time>2010-07-03T09:14:57Z</time>
      </trkpt>
      <trkpt lat="48.72756" lon="7.67197">
        <ele>139.081177</ele>
        <time>2010-07-03T09:15:00Z</time>
      </trkpt>
      <trkpt lat="48.72747" lon="7.67213">
        <ele>139.682739</ele>
        <time>2010-07-03T09:15:03Z</time>
      </trkpt>
      <trkpt lat="48.72739" lon="7.67231">
        <ele>139.678833</ele>
        <time>2010-07-03T09:15:06Z</time>
      </trkpt>
      <trkpt lat="48.72732" lon="7.67249">
        <ele>140.077271</ele>
        <time>2010-07-03T09:15:09Z</time>
      </trkpt>
      <trkpt lat="48.72723" lon="7.67265">
        <ele>139.979614</ele>
        <time>2010-07-03T09:15:12Z</time>
      </trkpt>
      <trkpt lat="48.72714" lon="7.67282">
        <ele>139.991333</ele>
        <time>2010-07-03T09:15:15Z</time>
      </trkpt>
      <trkpt lat="48.72706" lon="7.67299">
        <ele>140.182739</ele>
        <time>2010-07-03T09:15:18Z</time>
      </trkpt>
      <trkpt lat="48.72697" lon="7.67317">
        <ele>140.639771</ele>
        <time>2010-07-03T09:15:21Z</time>
      </trkpt>
      <trkpt lat="48.72688" lon="7.67334">
        <ele>140.233521</ele>
        <time>2010-07-03T09:15:24Z</time>
      </trkpt>
      <trkpt lat="48.72681" lon="7.6735">
        <ele>140.135864</ele>
        <time>2010-07-03T09:15:27Z</time>
      </trkpt>
      <trkpt lat="48.72673" lon="7.67368">
        <ele>139.975708</ele>
        <time>2010-07-03T09:15:30Z</time>
      </trkpt>
      <trkpt lat="48.72665" lon="7.67384">
        <ele>139.831177</ele>
        <time>2010-07-03T09:15:33Z</time>
      </trkpt>
      <trkpt lat="48.72654" lon="7.67406">
        <ele>139.436646</ele>
        <time>2010-07-03T09:15:37Z</time>
      </trkpt>
      <trkpt lat="48.72644" lon="7.67427">
        <ele>139.424927</ele>
        <time>2010-07-03T09:15:41Z</time>
      </trkpt>
      <trkpt lat="48.72634" lon="7.67447">
        <ele>139.596802</ele>
        <time>2010-07-03T09:15:45Z</time>
      </trkpt>
      <trkpt lat="48.72624" lon="7.67467">
        <ele>139.092896</ele>
        <time>2010-07-03T09:15:49Z</time>
      </trkpt>
      <trkpt lat="48.72614" lon="7.67487">
        <ele>139.198364</ele>
        <time>2010-07-03T09:15:53Z</time>
      </trkpt>
      <trkpt lat="48.72604" lon="7.67507">
        <ele>138.643677</ele>
        <time>2010-07-03T09:15:57Z</time>
      </trkpt>
      <trkpt lat="48.72595" lon="7.67527">
        <ele>138.870239</ele>
        <time>2010-07-03T09:16:01Z</time>
      </trkpt>
      <trkpt lat="48.72585" lon="7.67545">
        <ele>137.909302</ele>
        <time>2010-07-03T09:16:05Z</time>
      </trkpt>
      <trkpt lat="48.72576" lon="7.67564">
        <ele>138.737427</ele>
        <time>2010-07-03T09:16:09Z</time>
      </trkpt>
      <trkpt lat="48.72567" lon="7.67584">
        <ele>139.315552</ele>
        <time>2010-07-03T09:16:13Z</time>
      </trkpt>
      <trkpt lat="48.72557" lon="7.67604">
        <ele>139.588989</ele>
        <time>2010-07-03T09:16:17Z</time>
      </trkpt>
      <trkpt lat="48.72547" lon="7.67622">
        <ele>139.663208</ele>
        <time>2010-07-03T09:16:21Z</time>
      </trkpt>
      <trkpt lat="48.72539" lon="7.67643">
        <ele>141.303833</ele>
        <time>2010-07-03T09:16:25Z</time>
      </trkpt>
      <trkpt lat="48.7253" lon="7.67662">
        <ele>141.565552</ele>
        <time>2010-07-03T09:16:29Z</time>
      </trkpt>
      <trkpt lat="48.72519" lon="7.67683">
        <ele>141.042114</ele>
        <time>2010-07-03T09:16:33Z</time>
      </trkpt>
      <trkpt lat="48.72509" lon="7.67703">
        <ele>140.850708</ele>
        <time>2010-07-03T09:16:37Z</time>
      </trkpt>
      <trkpt lat="48.72499" lon="7.67723">
        <ele>140.756958</ele>
        <time>2010-07-03T09:16:41Z</time>
      </trkpt>
      <trkpt lat="48.72488" lon="7.67742">
        <ele>139.538208</ele>
        <time>2010-07-03T09:16:45Z</time>
      </trkpt>
      <trkpt lat="48.72479" lon="7.67762">
        <ele>139.983521</ele>
        <time>2010-07-03T09:16:49Z</time>
      </trkpt>
      <trkpt lat="48.72471" lon="7.67781">
        <ele>140.190552</ele>
        <time>2010-07-03T09:17:08Z</time>
      </trkpt>
      <trkpt lat="48.72463" lon="7.678">
        <ele>140.878052</ele>
        <time>2010-07-03T09:17:13Z</time>
      </trkpt>
      <trkpt lat="48.72455" lon="7.67819">
        <ele>141.581177</ele>
        <time>2010-07-03T09:17:17Z</time>
      </trkpt>
      <trkpt lat="48.72446" lon="7.67836">
        <ele>141.444458</ele>
        <time>2010-07-03T09:17:21Z</time>
      </trkpt>
      <trkpt lat="48.72437" lon="7.67856">
        <ele>142.628052</ele>
        <time>2010-07-03T09:17:26Z</time>
      </trkpt>
      <trkpt lat="48.72429" lon="7.67872">
        <ele>142.085083</ele>
        <time>2010-07-03T09:17:30Z</time>
      </trkpt>
      <trkpt lat="48.7242" lon="7.67894">
        <ele>142.440552</ele>
        <time>2010-07-03T09:17:35Z</time>
      </trkpt>
      <trkpt lat="48.72413" lon="7.67913">
        <ele>143.897583</ele>
        <time>2010-07-03T09:17:39Z</time>
      </trkpt>
      <trkpt lat="48.72403" lon="7.67934">
        <ele>143.838989</ele>
        <time>2010-07-03T09:17:44Z</time>
      </trkpt>
      <trkpt lat="48.72393" lon="7.67952">
        <ele>143.276489</ele>
        <time>2010-07-03T09:17:48Z</time>
      </trkpt>
      <trkpt lat="48.72384" lon="7.67971">
        <ele>141.592896</ele>
        <time>2010-07-03T09:17:52Z</time>
      </trkpt>
      <trkpt lat="48.72376" lon="7.67988">
        <ele>141.010864</ele>
        <time>2010-07-03T09:17:55Z</time>
      </trkpt>
      <trkpt lat="48.72368" lon="7.68006">
        <ele>141.788208</ele>
        <time>2010-07-03T09:17:59Z</time>
      </trkpt>
      <trkpt lat="48.72359" lon="7.68022">
        <ele>141.674927</ele>
        <time>2010-07-03T09:18:02Z</time>
      </trkpt>
      <trkpt lat="48.7235" lon="7.68039">
        <ele>140.956177</ele>
        <time>2010-07-03T09:18:05Z</time>
      </trkpt>
      <trkpt lat="48.72342" lon="7.68055">
        <ele>140.272583</ele>
        <time>2010-07-03T09:18:09Z</time>
      </trkpt>
      <trkpt lat="48.72332" lon="7.68076">
        <ele>141.487427</ele>
        <time>2010-07-03T09:18:13Z</time>
      </trkpt>
      <trkpt lat="48.72323" lon="7.68096">
        <ele>141.635864</ele>
        <time>2010-07-03T09:18:17Z</time>
      </trkpt>
      <trkpt lat="48.72314" lon="7.68113">
        <ele>141.198364</ele>
        <time>2010-07-03T09:18:20Z</time>
      </trkpt>
      <trkpt lat="48.72305" lon="7.6813">
        <ele>140.346802</ele>
        <time>2010-07-03T09:18:23Z</time>
      </trkpt>
      <trkpt lat="48.72295" lon="7.6815">
        <ele>139.823364</ele>
        <time>2010-07-03T09:18:27Z</time>
      </trkpt>
      <trkpt lat="48.72287" lon="7.68167">
        <ele>140.108521</ele>
        <time>2010-07-03T09:18:30Z</time>
      </trkpt>
      <trkpt lat="48.72279" lon="7.68184">
        <ele>139.799927</ele>
        <time>2010-07-03T09:18:33Z</time>
      </trkpt>
      <trkpt lat="48.72271" lon="7.68201">
        <ele>140.444458</ele>
        <time>2010-07-03T09:18:36Z</time>
      </trkpt>
      <trkpt lat="48.72261" lon="7.68222">
        <ele>140.221802</ele>
        <time>2010-07-03T09:18:40Z</time>
      </trkpt>
      <trkpt lat="48.7225" lon="7.68242">
        <ele>140.268677</ele>
        <time>2010-07-03T09:18:44Z</time>
      </trkpt>
      <trkpt lat="48.72239" lon="7.68263">
        <ele>139.534302</ele>
        <time>2010-07-03T09:18:48Z</time>
      </trkpt>
      <trkpt lat="48.72228" lon="7.68284">
        <ele>139.713989</ele>
        <time>2010-07-03T09:18:52Z</time>
      </trkpt>
      <trkpt lat="48.72218" lon="7.68304">
        <ele>140.186646</ele>
        <time>2010-07-03T09:18:56Z</time>
      </trkpt>
      <trkpt lat="48.72207" lon="7.68322">
        <ele>139.624146</ele>
        <time>2010-07-03T09:19:00Z</time>
      </trkpt>
      <trkpt lat="48.72197" lon="7.6834">
        <ele>139.514771</ele>
        <time>2010-07-03T09:19:04Z</time>
      </trkpt>
      <trkpt lat="48.72186" lon="7.68357">
        <ele>140.104614</ele>
        <time>2010-07-03T09:19:08Z</time>
      </trkpt>
      <trkpt lat="48.72175" lon="7.68372">
        <ele>140.135864</ele>
        <time>2010-07-03T09:19:12Z</time>
      </trkpt>
      <trkpt lat="48.72164" lon="7.68388">
        <ele>139.417114</ele>
        <time>2010-07-03T09:19:16Z</time>
      </trkpt>
      <trkpt lat="48.72153" lon="7.68404">
        <ele>139.671021</ele>
        <time>2010-07-03T09:19:20Z</time>
      </trkpt>
      <trkpt lat="48.72141" lon="7.6842">
        <ele>139.303833</ele>
        <time>2010-07-03T09:19:24Z</time>
      </trkpt>
      <trkpt lat="48.72128" lon="7.68435">
        <ele>138.596802</ele>
        <time>2010-07-03T09:19:28Z</time>
      </trkpt>
      <trkpt lat="48.72116" lon="7.68452">
        <ele>140.592896</ele>
        <time>2010-07-03T09:19:32Z</time>
      </trkpt>
      <trkpt lat="48.72103" lon="7.68467">
        <ele>141.612427</ele>
        <time>2010-07-03T09:19:36Z</time>
      </trkpt>
      <trkpt lat="48.72089" lon="7.68482">
        <ele>142.296021</ele>
        <time>2010-07-03T09:19:40Z</time>
      </trkpt>
      <trkpt lat="48.72074" lon="7.68498">
        <ele>142.542114</ele>
        <time>2010-07-03T09:19:44Z</time>
      </trkpt>
      <trkpt lat="48.72062" lon="7.68509">
        <ele>142.690552</ele>
        <time>2010-07-03T09:19:47Z</time>
      </trkpt>
      <trkpt lat="48.7205" lon="7.68519">
        <ele>142.713989</ele>
        <time>2010-07-03T09:19:50Z</time>
      </trkpt>
      <trkpt lat="48.72038" lon="7.6853">
        <ele>142.967896</ele>
        <time>2010-07-03T09:19:53Z</time>
      </trkpt>
      <trkpt lat="48.72025" lon="7.68541">
        <ele>143.831177</ele>
        <time>2010-07-03T09:19:57Z</time>
      </trkpt>
      <trkpt lat="48.72013" lon="7.68553">
        <ele>145.506958</ele>
        <time>2010-07-03T09:20:01Z</time>
      </trkpt>
      <trkpt lat="48.71999" lon="7.68563">
        <ele>146.546021</ele>
        <time>2010-07-03T09:20:05Z</time>
      </trkpt>
      <trkpt lat="48.71985" lon="7.68577">
        <ele>147.280396</ele>
        <time>2010-07-03T09:20:09Z</time>
      </trkpt>
      <trkpt lat="48.71972" lon="7.68588">
        <ele>149.729614</ele>
        <time>2010-07-03T09:20:12Z</time>
      </trkpt>
      <trkpt lat="48.71956" lon="7.68601">
        <ele>149.307739</ele>
        <time>2010-07-03T09:20:16Z</time>
      </trkpt>
      <trkpt lat="48.71941" lon="7.68614">
        <ele>149.417114</ele>
        <time>2010-07-03T09:20:20Z</time>
      </trkpt>
      <trkpt lat="48.71927" lon="7.68626">
        <ele>148.768677</ele>
        <time>2010-07-03T09:20:24Z</time>
      </trkpt>
      <trkpt lat="48.71912" lon="7.68638">
        <ele>149.338989</ele>
        <time>2010-07-03T09:20:28Z</time>
      </trkpt>
      <trkpt lat="48.71899" lon="7.68648">
        <ele>149.854614</ele>
        <time>2010-07-03T09:20:32Z</time>
      </trkpt>
      <trkpt lat="48.71885" lon="7.68656">
        <ele>151.432739</ele>
        <time>2010-07-03T09:20:58Z</time>
      </trkpt>
      <trkpt lat="48.7187" lon="7.68667">
        <ele>152.975708</ele>
        <time>2010-07-03T09:21:03Z</time>
      </trkpt>
      <trkpt lat="48.71856" lon="7.68678">
        <ele>153.370239</ele>
        <time>2010-07-03T09:21:07Z</time>
      </trkpt>
      <trkpt lat="48.71841" lon="7.68689">
        <ele>153.143677</ele>
        <time>2010-07-03T09:21:11Z</time>
      </trkpt>
      <trkpt lat="48.71825" lon="7.68702">
        <ele>153.655396</ele>
        <time>2010-07-03T09:21:15Z</time>
      </trkpt>
      <trkpt lat="48.71813" lon="7.68712">
        <ele>154.796021</ele>
        <time>2010-07-03T09:21:18Z</time>
      </trkpt>
      <trkpt lat="48.71797" lon="7.68724">
        <ele>154.483521</ele>
        <time>2010-07-03T09:21:22Z</time>
      </trkpt>
      <trkpt lat="48.71782" lon="7.68737">
        <ele>155.131958</ele>
        <time>2010-07-03T09:21:26Z</time>
      </trkpt>
      <trkpt lat="48.71767" lon="7.6875">
        <ele>153.671021</ele>
        <time>2010-07-03T09:21:30Z</time>
      </trkpt>
      <trkpt lat="48.71753" lon="7.68762">
        <ele>153.616333</ele>
        <time>2010-07-03T09:21:34Z</time>
      </trkpt>
      <trkpt lat="48.71741" lon="7.68773">
        <ele>153.569458</ele>
        <time>2010-07-03T09:21:38Z</time>
      </trkpt>
      <trkpt lat="48.71727" lon="7.68784">
        <ele>152.370239</ele>
        <time>2010-07-03T09:21:43Z</time>
      </trkpt>
      <trkpt lat="48.71712" lon="7.68796">
        <ele>152.147583</ele>
        <time>2010-07-03T09:21:48Z</time>
      </trkpt>
      <trkpt lat="48.717" lon="7.68807">
        <ele>152.952271</ele>
        <time>2010-07-03T09:21:52Z</time>
      </trkpt>
      <trkpt lat="48.71686" lon="7.68818">
        <ele>152.069458</ele>
        <time>2010-07-03T09:21:57Z</time>
      </trkpt>
      <trkpt lat="48.71672" lon="7.68829">
        <ele>151.186646</ele>
        <time>2010-07-03T09:22:03Z</time>
      </trkpt>
      <trkpt lat="48.7166" lon="7.6884">
        <ele>150.741333</ele>
        <time>2010-07-03T09:22:08Z</time>
      </trkpt>
      <trkpt lat="48.71647" lon="7.68851">
        <ele>150.131958</ele>
        <time>2010-07-03T09:22:12Z</time>
      </trkpt>
      <trkpt lat="48.71632" lon="7.68862">
        <ele>150.210083</ele>
        <time>2010-07-03T09:22:17Z</time>
      </trkpt>
      <trkpt lat="48.7162" lon="7.68872">
        <ele>148.221802</ele>
        <time>2010-07-03T09:22:21Z</time>
      </trkpt>
      <trkpt lat="48.71607" lon="7.68882">
        <ele>148.370239</ele>
        <time>2010-07-03T09:22:25Z</time>
      </trkpt>
      <trkpt lat="48.71594" lon="7.68893">
        <ele>147.733521</ele>
        <time>2010-07-03T09:22:29Z</time>
      </trkpt>
      <trkpt lat="48.71581" lon="7.68903">
        <ele>147.725708</ele>
        <time>2010-07-03T09:22:33Z</time>
      </trkpt>
      <trkpt lat="48.71568" lon="7.68914">
        <ele>147.147583</ele>
        <time>2010-07-03T09:22:37Z</time>
      </trkpt>
      <trkpt lat="48.71555" lon="7.68925">
        <ele>146.284302</ele>
        <time>2010-07-03T09:22:41Z</time>
      </trkpt>
      <trkpt lat="48.71541" lon="7.68934">
        <ele>143.026489</ele>
        <time>2010-07-03T09:22:45Z</time>
      </trkpt>
      <trkpt lat="48.71526" lon="7.68945">
        <ele>140.405396</ele>
        <time>2010-07-03T09:22:49Z</time>
      </trkpt>
      <trkpt lat="48.71511" lon="7.68955">
        <ele>139.397583</ele>
        <time>2010-07-03T09:22:53Z</time>
      </trkpt>
      <trkpt lat="48.71497" lon="7.68967">
        <ele>137.713989</ele>
        <time>2010-07-03T09:22:57Z</time>
      </trkpt>
      <trkpt lat="48.71483" lon="7.6898">
        <ele>139.264771</ele>
        <time>2010-07-03T09:23:01Z</time>
      </trkpt>
      <trkpt lat="48.71468" lon="7.68995">
        <ele>139.491333</ele>
        <time>2010-07-03T09:23:05Z</time>
      </trkpt>
      <trkpt lat="48.71455" lon="7.69002">
        <ele>141.057739</ele>
        <time>2010-07-03T09:23:08Z</time>
      </trkpt>
      <trkpt lat="48.71442" lon="7.69012">
        <ele>139.827271</ele>
        <time>2010-07-03T09:23:12Z</time>
      </trkpt>
      <trkpt lat="48.71429" lon="7.69027">
        <ele>141.284302</ele>
        <time>2010-07-03T09:23:16Z</time>
      </trkpt>
      <trkpt lat="48.71416" lon="7.69042">
        <ele>142.108521</ele>
        <time>2010-07-03T09:23:20Z</time>
      </trkpt>
      <trkpt lat="48.71403" lon="7.69052">
        <ele>142.717896</ele>
        <time>2010-07-03T09:23:24Z</time>
      </trkpt>
      <trkpt lat="48.71389" lon="7.69065">
        <ele>144.299927</ele>
        <time>2010-07-03T09:23:29Z</time>
      </trkpt>
      <trkpt lat="48.71376" lon="7.69079">
        <ele>143.721802</ele>
        <time>2010-07-03T09:23:35Z</time>
      </trkpt>
      <trkpt lat="48.71364" lon="7.69091">
        <ele>146.354614</ele>
        <time>2010-07-03T09:23:40Z</time>
      </trkpt>
      <trkpt lat="48.71351" lon="7.691">
        <ele>147.616333</ele>
        <time>2010-07-03T09:23:44Z</time>
      </trkpt>
      <trkpt lat="48.71338" lon="7.69107">
        <ele>147.452271</ele>
        <time>2010-07-03T09:23:48Z</time>
      </trkpt>
      <trkpt lat="48.71324" lon="7.69115">
        <ele>147.077271</ele>
        <time>2010-07-03T09:23:52Z</time>
      </trkpt>
      <trkpt lat="48.71311" lon="7.69125">
        <ele>149.596802</ele>
        <time>2010-07-03T09:23:56Z</time>
      </trkpt>
      <trkpt lat="48.71296" lon="7.69133">
        <ele>150.202271</ele>
        <time>2010-07-03T09:24:00Z</time>
      </trkpt>
      <trkpt lat="48.71283" lon="7.69141">
        <ele>151.389771</ele>
        <time>2010-07-03T09:24:04Z</time>
      </trkpt>
      <trkpt lat="48.71269" lon="7.69152">
        <ele>153.776489</ele>
        <time>2010-07-03T09:24:08Z</time>
      </trkpt>
      <trkpt lat="48.71256" lon="7.69158">
        <ele>154.225708</ele>
        <time>2010-07-03T09:24:11Z</time>
      </trkpt>
      <trkpt lat="48.71243" lon="7.69168">
        <ele>154.381958</ele>
        <time>2010-07-03T09:24:14Z</time>
      </trkpt>
      <trkpt lat="48.71231" lon="7.69179">
        <ele>155.995239</ele>
        <time>2010-07-03T09:24:17Z</time>
      </trkpt>
      <trkpt lat="48.71218" lon="7.69192">
        <ele>157.194458</ele>
        <time>2010-07-03T09:24:20Z</time>
      </trkpt>
      <trkpt lat="48.71204" lon="7.69204">
        <ele>158.506958</ele>
        <time>2010-07-03T09:24:23Z</time>
      </trkpt>
      <trkpt lat="48.71189" lon="7.69217">
        <ele>158.924927</ele>
        <time>2010-07-03T09:24:26Z</time>
      </trkpt>
      <trkpt lat="48.71174" lon="7.69231">
        <ele>159.565552</ele>
        <time>2010-07-03T09:24:29Z</time>
      </trkpt>
      <trkpt lat="48.71159" lon="7.69244">
        <ele>157.917114</ele>
        <time>2010-07-03T09:24:32Z</time>
      </trkpt>
      <trkpt lat="48.71142" lon="7.69255">
        <ele>155.655396</ele>
        <time>2010-07-03T09:24:35Z</time>
      </trkpt>
      <trkpt lat="48.71125" lon="7.69269">
        <ele>154.940552</ele>
        <time>2010-07-03T09:24:38Z</time>
      </trkpt>
      <trkpt lat="48.71109" lon="7.69285">
        <ele>153.620239</ele>
        <time>2010-07-03T09:24:41Z</time>
      </trkpt>
      <trkpt lat="48.71093" lon="7.69301">
        <ele>152.881958</ele>
        <time>2010-07-03T09:24:44Z</time>
      </trkpt>
      <trkpt lat="48.71075" lon="7.69315">
        <ele>151.405396</ele>
        <time>2010-07-03T09:24:47Z</time>
      </trkpt>
      <trkpt lat="48.71058" lon="7.69331">
        <ele>148.358521</ele>
        <time>2010-07-03T09:24:50Z</time>
      </trkpt>
      <trkpt lat="48.71045" lon="7.69342">
        <ele>147.335083</ele>
        <time>2010-07-03T09:24:52Z</time>
      </trkpt>
      <trkpt lat="48.71032" lon="7.69353">
        <ele>145.198364</ele>
        <time>2010-07-03T09:24:54Z</time>
      </trkpt>
      <trkpt lat="48.71018" lon="7.69361">
        <ele>143.389771</ele>
        <time>2010-07-03T09:24:56Z</time>
      </trkpt>
      <trkpt lat="48.71006" lon="7.69374">
        <ele>145.174927</ele>
        <time>2010-07-03T09:24:58Z</time>
      </trkpt>
      <trkpt lat="48.70994" lon="7.69386">
        <ele>148.397583</ele>
        <time>2010-07-03T09:25:00Z</time>
      </trkpt>
      <trkpt lat="48.70977" lon="7.69399">
        <ele>146.803833</ele>
        <time>2010-07-03T09:25:03Z</time>
      </trkpt>
      <trkpt lat="48.70963" lon="7.69411">
        <ele>145.971802</ele>
        <time>2010-07-03T09:25:06Z</time>
      </trkpt>
      <trkpt lat="48.70948" lon="7.69421">
        <ele>145.803833</ele>
        <time>2010-07-03T09:25:09Z</time>
      </trkpt>
      <trkpt lat="48.70935" lon="7.69432">
        <ele>144.452271</ele>
        <time>2010-07-03T09:25:12Z</time>
      </trkpt>
      <trkpt lat="48.70923" lon="7.69444">
        <ele>142.483521</ele>
        <time>2010-07-03T09:25:15Z</time>
      </trkpt>
      <trkpt lat="48.7091" lon="7.69454">
        <ele>139.831177</ele>
        <time>2010-07-03T09:25:18Z</time>
      </trkpt>
      <trkpt lat="48.70895" lon="7.69465">
        <ele>139.741333</ele>
        <time>2010-07-03T09:25:21Z</time>
      </trkpt>
      <trkpt lat="48.70881" lon="7.69474">
        <ele>138.452271</ele>
        <time>2010-07-03T09:25:24Z</time>
      </trkpt>
      <trkpt lat="48.70866" lon="7.69479">
        <ele>144.319458</ele>
        <time>2010-07-03T09:25:27Z</time>
      </trkpt>
      <trkpt lat="48.70854" lon="7.69488">
        <ele>142.948364</ele>
        <time>2010-07-03T09:25:30Z</time>
      </trkpt>
      <trkpt lat="48.70849" lon="7.69508">
        <ele>139.581177</ele>
        <time>2010-07-03T09:25:33Z</time>
      </trkpt>
      <trkpt lat="48.70837" lon="7.69522">
        <ele>139.370239</ele>
        <time>2010-07-03T09:25:36Z</time>
      </trkpt>
      <trkpt lat="48.70823" lon="7.69536">
        <ele>139.940552</ele>
        <time>2010-07-03T09:25:39Z</time>
      </trkpt>
      <trkpt lat="48.7081" lon="7.69548">
        <ele>140.710083</ele>
        <time>2010-07-03T09:25:42Z</time>
      </trkpt>
      <trkpt lat="48.70796" lon="7.69559">
        <ele>140.745239</ele>
        <time>2010-07-03T09:25:45Z</time>
      </trkpt>
      <trkpt lat="48.70784" lon="7.69571">
        <ele>142.331177</ele>
        <time>2010-07-03T09:25:48Z</time>
      </trkpt>
      <trkpt lat="48.70771" lon="7.69581">
        <ele>140.577271</ele>
        <time>2010-07-03T09:25:51Z</time>
      </trkpt>
      <trkpt lat="48.70759" lon="7.6959">
        <ele>140.323364</ele>
        <time>2010-07-03T09:25:54Z</time>
      </trkpt>
      <trkpt lat="48.70743" lon="7.69604">
        <ele>141.514771</ele>
        <time>2010-07-03T09:25:58Z</time>
      </trkpt>
      <trkpt lat="48.70727" lon="7.69616">
        <ele>142.963989</ele>
        <time>2010-07-03T09:26:02Z</time>
      </trkpt>
      <trkpt lat="48.70713" lon="7.69625">
        <ele>143.303833</ele>
        <time>2010-07-03T09:26:05Z</time>
      </trkpt>
      <trkpt lat="48.70701" lon="7.69634">
        <ele>144.803833</ele>
        <time>2010-07-03T09:26:08Z</time>
      </trkpt>
      <trkpt lat="48.70687" lon="7.69644">
        <ele>145.331177</ele>
        <time>2010-07-03T09:26:11Z</time>
      </trkpt>
      <trkpt lat="48.70674" lon="7.69653">
        <ele>146.749146</ele>
        <time>2010-07-03T09:26:14Z</time>
      </trkpt>
      <trkpt lat="48.70661" lon="7.69662">
        <ele>147.592896</ele>
        <time>2010-07-03T09:26:17Z</time>
      </trkpt>
      <trkpt lat="48.70647" lon="7.6967">
        <ele>147.682739</ele>
        <time>2010-07-03T09:26:20Z</time>
      </trkpt>
      <trkpt lat="48.70635" lon="7.69678">
        <ele>147.436646</ele>
        <time>2010-07-03T09:26:23Z</time>
      </trkpt>
      <trkpt lat="48.70621" lon="7.69687">
        <ele>147.163208</ele>
        <time>2010-07-03T09:26:26Z</time>
      </trkpt>
      <trkpt lat="48.70609" lon="7.69695">
        <ele>147.276489</ele>
        <time>2010-07-03T09:26:29Z</time>
      </trkpt>
      <trkpt lat="48.70596" lon="7.69703">
        <ele>148.206177</ele>
        <time>2010-07-03T09:26:32Z</time>
      </trkpt>
      <trkpt lat="48.70583" lon="7.6971">
        <ele>148.307739</ele>
        <time>2010-07-03T09:26:35Z</time>
      </trkpt>
      <trkpt lat="48.7057" lon="7.69717">
        <ele>149.440552</ele>
        <time>2010-07-03T09:26:38Z</time>
      </trkpt>
      <trkpt lat="48.70554" lon="7.69728">
        <ele>149.721802</ele>
        <time>2010-07-03T09:26:42Z</time>
      </trkpt>
      <trkpt lat="48.70537" lon="7.69737">
        <ele>148.674927</ele>
        <time>2010-07-03T09:26:46Z</time>
      </trkpt>
      <trkpt lat="48.7052" lon="7.69745">
        <ele>148.963989</ele>
        <time>2010-07-03T09:26:50Z</time>
      </trkpt>
      <trkpt lat="48.70507" lon="7.69753">
        <ele>148.483521</ele>
        <time>2010-07-03T09:26:53Z</time>
      </trkpt>
      <trkpt lat="48.70494" lon="7.69761">
        <ele>148.616333</ele>
        <time>2010-07-03T09:26:56Z</time>
      </trkpt>
      <trkpt lat="48.70481" lon="7.69768">
        <ele>148.643677</ele>
        <time>2010-07-03T09:26:59Z</time>
      </trkpt>
      <trkpt lat="48.70467" lon="7.69775">
        <ele>149.178833</ele>
        <time>2010-07-03T09:27:02Z</time>
      </trkpt>
      <trkpt lat="48.70454" lon="7.69783">
        <ele>149.088989</ele>
        <time>2010-07-03T09:27:05Z</time>
      </trkpt>
      <trkpt lat="48.7044" lon="7.6979">
        <ele>149.049927</ele>
        <time>2010-07-03T09:27:08Z</time>
      </trkpt>
      <trkpt lat="48.70426" lon="7.69797">
        <ele>149.014771</ele>
        <time>2010-07-03T09:27:11Z</time>
      </trkpt>
      <trkpt lat="48.70412" lon="7.69805">
        <ele>147.393677</ele>
        <time>2010-07-03T09:27:14Z</time>
      </trkpt>
      <trkpt lat="48.70398" lon="7.69812">
        <ele>146.952271</ele>
        <time>2010-07-03T09:27:17Z</time>
      </trkpt>
      <trkpt lat="48.70384" lon="7.69819">
        <ele>146.944458</ele>
        <time>2010-07-03T09:27:20Z</time>
      </trkpt>
      <trkpt lat="48.70371" lon="7.69825">
        <ele>146.370239</ele>
        <time>2010-07-03T09:27:23Z</time>
      </trkpt>
      <trkpt lat="48.70356" lon="7.69833">
        <ele>146.467896</ele>
        <time>2010-07-03T09:27:26Z</time>
      </trkpt>
      <trkpt lat="48.70341" lon="7.69839">
        <ele>146.182739</ele>
        <time>2010-07-03T09:27:29Z</time>
      </trkpt>
      <trkpt lat="48.70327" lon="7.69846">
        <ele>147.690552</ele>
        <time>2010-07-03T09:27:32Z</time>
      </trkpt>
      <trkpt lat="48.70313" lon="7.6985">
        <ele>149.268677</ele>
        <time>2010-07-03T09:27:35Z</time>
      </trkpt>
      <trkpt lat="48.70298" lon="7.69854">
        <ele>151.225708</ele>
        <time>2010-07-03T09:27:39Z</time>
      </trkpt>
      <trkpt lat="48.70284" lon="7.69859">
        <ele>152.956177</ele>
        <time>2010-07-03T09:27:43Z</time>
      </trkpt>
      <trkpt lat="48.70271" lon="7.69866">
        <ele>153.081177</ele>
        <time>2010-07-03T09:27:47Z</time>
      </trkpt>
      <trkpt lat="48.70258" lon="7.69873">
        <ele>153.803833</ele>
        <time>2010-07-03T09:27:50Z</time>
      </trkpt>
      <trkpt lat="48.70245" lon="7.6988">
        <ele>153.928833</ele>
        <time>2010-07-03T09:27:53Z</time>
      </trkpt>
      <trkpt lat="48.70232" lon="7.69886">
        <ele>154.346802</ele>
        <time>2010-07-03T09:27:57Z</time>
      </trkpt>
      <trkpt lat="48.70219" lon="7.69894">
        <ele>154.206177</ele>
        <time>2010-07-03T09:28:00Z</time>
      </trkpt>
      <trkpt lat="48.70207" lon="7.69902">
        <ele>154.581177</ele>
        <time>2010-07-03T09:28:03Z</time>
      </trkpt>
      <trkpt lat="48.70193" lon="7.69908">
        <ele>155.307739</ele>
        <time>2010-07-03T09:28:07Z</time>
      </trkpt>
      <trkpt lat="48.70176" lon="7.69917">
        <ele>156.784302</ele>
        <time>2010-07-03T09:28:11Z</time>
      </trkpt>
      <trkpt lat="48.7016" lon="7.69926">
        <ele>157.737427</ele>
        <time>2010-07-03T09:28:15Z</time>
      </trkpt>
      <trkpt lat="48.70147" lon="7.69933">
        <ele>159.128052</ele>
        <time>2010-07-03T09:28:18Z</time>
      </trkpt>
      <trkpt lat="48.70132" lon="7.69943">
        <ele>157.342896</ele>
        <time>2010-07-03T09:28:22Z</time>
      </trkpt>
      <trkpt lat="48.70118" lon="7.6995">
        <ele>158.639771</ele>
        <time>2010-07-03T09:28:26Z</time>
      </trkpt>
      <trkpt lat="48.70105" lon="7.69958">
        <ele>159.639771</ele>
        <time>2010-07-03T09:28:30Z</time>
      </trkpt>
      <trkpt lat="48.70091" lon="7.69966">
        <ele>161.901489</ele>
        <time>2010-07-03T09:28:34Z</time>
      </trkpt>
      <trkpt lat="48.70076" lon="7.69972">
        <ele>162.401489</ele>
        <time>2010-07-03T09:28:38Z</time>
      </trkpt>
      <trkpt lat="48.7006" lon="7.69982">
        <ele>164.003052</ele>
        <time>2010-07-03T09:28:42Z</time>
      </trkpt>
      <trkpt lat="48.70045" lon="7.6999">
        <ele>164.624146</ele>
        <time>2010-07-03T09:28:46Z</time>
      </trkpt>
      <trkpt lat="48.70029" lon="7.69998">
        <ele>166.221802</ele>
        <time>2010-07-03T09:28:50Z</time>
      </trkpt>
      <trkpt lat="48.70012" lon="7.70008">
        <ele>167.530396</ele>
        <time>2010-07-03T09:28:54Z</time>
      </trkpt>
      <trkpt lat="48.69996" lon="7.70016">
        <ele>167.159302</ele>
        <time>2010-07-03T09:28:58Z</time>
      </trkpt>
      <trkpt lat="48.6998" lon="7.70023">
        <ele>167.647583</ele>
        <time>2010-07-03T09:29:02Z</time>
      </trkpt>
      <trkpt lat="48.69966" lon="7.70031">
        <ele>167.471802</ele>
        <time>2010-07-03T09:29:06Z</time>
      </trkpt>
      <trkpt lat="48.69952" lon="7.70038">
        <ele>168.733521</ele>
        <time>2010-07-03T09:29:10Z</time>
      </trkpt>
      <trkpt lat="48.69938" lon="7.70045">
        <ele>167.878052</ele>
        <time>2010-07-03T09:29:14Z</time>
      </trkpt>
      <trkpt lat="48.69925" lon="7.70052">
        <ele>167.378052</ele>
        <time>2010-07-03T09:29:18Z</time>
      </trkpt>
      <trkpt lat="48.69911" lon="7.70059">
        <ele>167.694458</ele>
        <time>2010-07-03T09:29:22Z</time>
      </trkpt>
      <trkpt lat="48.69898" lon="7.70068">
        <ele>167.858521</ele>
        <time>2010-07-03T09:29:26Z</time>
      </trkpt>
      <trkpt lat="48.69885" lon="7.70076">
        <ele>169.557739</ele>
        <time>2010-07-03T09:29:30Z</time>
      </trkpt>
      <trkpt lat="48.69869" lon="7.70083">
        <ele>168.753052</ele>
        <time>2010-07-03T09:29:35Z</time>
      </trkpt>
      <trkpt lat="48.69856" lon="7.70091">
        <ele>171.225708</ele>
        <time>2010-07-03T09:29:39Z</time>
      </trkpt>
      <trkpt lat="48.69843" lon="7.70099">
        <ele>171.479614</ele>
        <time>2010-07-03T09:29:43Z</time>
      </trkpt>
      <trkpt lat="48.6983" lon="7.70104">
        <ele>169.616333</ele>
        <time>2010-07-03T09:29:47Z</time>
      </trkpt>
      <trkpt lat="48.69817" lon="7.70111">
        <ele>171.167114</ele>
        <time>2010-07-03T09:29:51Z</time>
      </trkpt>
      <trkpt lat="48.69804" lon="7.7012">
        <ele>171.381958</ele>
        <time>2010-07-03T09:29:55Z</time>
      </trkpt>
      <trkpt lat="48.6979" lon="7.70127">
        <ele>171.428833</ele>
        <time>2010-07-03T09:29:59Z</time>
      </trkpt>
      <trkpt lat="48.69777" lon="7.70135">
        <ele>170.921021</ele>
        <time>2010-07-03T09:30:03Z</time>
      </trkpt>
      <trkpt lat="48.69763" lon="7.70141">
        <ele>169.928833</ele>
        <time>2010-07-03T09:30:07Z</time>
      </trkpt>
      <trkpt lat="48.6975" lon="7.70148">
        <ele>169.042114</ele>
        <time>2010-07-03T09:30:11Z</time>
      </trkpt>
      <trkpt lat="48.69735" lon="7.70156">
        <ele>165.780396</ele>
        <time>2010-07-03T09:30:15Z</time>
      </trkpt>
      <trkpt lat="48.6972" lon="7.70163">
        <ele>166.772583</ele>
        <time>2010-07-03T09:30:19Z</time>
      </trkpt>
      <trkpt lat="48.69704" lon="7.70172">
        <ele>166.245239</ele>
        <time>2010-07-03T09:30:23Z</time>
      </trkpt>
      <trkpt lat="48.69688" lon="7.7018">
        <ele>162.811646</ele>
        <time>2010-07-03T09:30:27Z</time>
      </trkpt>
      <trkpt lat="48.69673" lon="7.70188">
        <ele>163.772583</ele>
        <time>2010-07-03T09:30:31Z</time>
      </trkpt>
      <trkpt lat="48.69657" lon="7.70197">
        <ele>163.436646</ele>
        <time>2010-07-03T09:30:35Z</time>
      </trkpt>
      <trkpt lat="48.69642" lon="7.70206">
        <ele>163.721802</ele>
        <time>2010-07-03T09:30:39Z</time>
      </trkpt>
      <trkpt lat="48.69628" lon="7.70216">
        <ele>162.491333</ele>
        <time>2010-07-03T09:30:43Z</time>
      </trkpt>
      <trkpt lat="48.69613" lon="7.70222">
        <ele>163.405396</ele>
        <time>2010-07-03T09:30:47Z</time>
      </trkpt>
      <trkpt lat="48.69598" lon="7.7023">
        <ele>162.983521</ele>
        <time>2010-07-03T09:30:51Z</time>
      </trkpt>
      <trkpt lat="48.69581" lon="7.70239">
        <ele>163.463989</ele>
        <time>2010-07-03T09:30:55Z</time>
      </trkpt>
      <trkpt lat="48.69565" lon="7.70248">
        <ele>163.288208</ele>
        <time>2010-07-03T09:30:59Z</time>
      </trkpt>
      <trkpt lat="48.69552" lon="7.70255">
        <ele>163.573364</ele>
        <time>2010-07-03T09:31:02Z</time>
      </trkpt>
      <trkpt lat="48.69537" lon="7.70263">
        <ele>158.483521</ele>
        <time>2010-07-03T09:31:06Z</time>
      </trkpt>
      <trkpt lat="48.69521" lon="7.70271">
        <ele>158.338989</ele>
        <time>2010-07-03T09:31:10Z</time>
      </trkpt>
      <trkpt lat="48.69505" lon="7.70281">
        <ele>157.456177</ele>
        <time>2010-07-03T09:31:14Z</time>
      </trkpt>
      <trkpt lat="48.6949" lon="7.7029">
        <ele>156.061646</ele>
        <time>2010-07-03T09:31:18Z</time>
      </trkpt>
      <trkpt lat="48.69473" lon="7.70296">
        <ele>157.483521</ele>
        <time>2010-07-03T09:31:22Z</time>
      </trkpt>
      <trkpt lat="48.69457" lon="7.70305">
        <ele>157.631958</ele>
        <time>2010-07-03T09:31:26Z</time>
      </trkpt>
      <trkpt lat="48.6944" lon="7.70314">
        <ele>156.030396</ele>
        <time>2010-07-03T09:31:30Z</time>
      </trkpt>
      <trkpt lat="48.69424" lon="7.70323">
        <ele>155.233521</ele>
        <time>2010-07-03T09:31:34Z</time>
      </trkpt>
      <trkpt lat="48.69411" lon="7.70331">
        <ele>155.210083</ele>
        <time>2010-07-03T09:31:37Z</time>
      </trkpt>
      <trkpt lat="48.69398" lon="7.70337">
        <ele>155.147583</ele>
        <time>2010-07-03T09:31:40Z</time>
      </trkpt>
      <trkpt lat="48.69381" lon="7.70347">
        <ele>155.772583</ele>
        <time>2010-07-03T09:31:44Z</time>
      </trkpt>
      <trkpt lat="48.69368" lon="7.70355">
        <ele>155.186646</ele>
        <time>2010-07-03T09:31:47Z</time>
      </trkpt>
      <trkpt lat="48.69355" lon="7.70361">
        <ele>155.979614</ele>
        <time>2010-07-03T09:31:50Z</time>
      </trkpt>
      <trkpt lat="48.69341" lon="7.7037">
        <ele>153.784302</ele>
        <time>2010-07-03T09:31:54Z</time>
      </trkpt>
      <trkpt lat="48.69326" lon="7.70377">
        <ele>154.432739</ele>
        <time>2010-07-03T09:31:58Z</time>
      </trkpt>
      <trkpt lat="48.69312" lon="7.70386">
        <ele>154.463989</ele>
        <time>2010-07-03T09:32:02Z</time>
      </trkpt>
      <trkpt lat="48.69299" lon="7.70393">
        <ele>154.069458</ele>
        <time>2010-07-03T09:32:06Z</time>
      </trkpt>
      <trkpt lat="48.69285" lon="7.70399">
        <ele>154.124146</ele>
        <time>2010-07-03T09:32:10Z</time>
      </trkpt>
      <trkpt lat="48.69271" lon="7.70407">
        <ele>153.741333</ele>
        <time>2010-07-03T09:32:14Z</time>
      </trkpt>
      <trkpt lat="48.69256" lon="7.70416">
        <ele>153.530396</ele>
        <time>2010-07-03T09:32:18Z</time>
      </trkpt>
      <trkpt lat="48.69241" lon="7.70424">
        <ele>153.620239</ele>
        <time>2010-07-03T09:32:22Z</time>
      </trkpt>
      <trkpt lat="48.69227" lon="7.70431">
        <ele>153.991333</ele>
        <time>2010-07-03T09:32:26Z</time>
      </trkpt>
      <trkpt lat="48.69211" lon="7.70439">
        <ele>153.565552</ele>
        <time>2010-07-03T09:32:30Z</time>
      </trkpt>
      <trkpt lat="48.69195" lon="7.70448">
        <ele>153.885864</ele>
        <time>2010-07-03T09:32:34Z</time>
      </trkpt>
      <trkpt lat="48.69178" lon="7.70456">
        <ele>153.811646</ele>
        <time>2010-07-03T09:32:38Z</time>
      </trkpt>
      <trkpt lat="48.69162" lon="7.70465">
        <ele>153.522583</ele>
        <time>2010-07-03T09:32:42Z</time>
      </trkpt>
      <trkpt lat="48.69148" lon="7.70472">
        <ele>154.299927</ele>
        <time>2010-07-03T09:32:46Z</time>
      </trkpt>
      <trkpt lat="48.69134" lon="7.70478">
        <ele>154.358521</ele>
        <time>2010-07-03T09:32:50Z</time>
      </trkpt>
      <trkpt lat="48.6912" lon="7.70486">
        <ele>154.417114</ele>
        <time>2010-07-03T09:32:54Z</time>
      </trkpt>
      <trkpt lat="48.69106" lon="7.70495">
        <ele>154.272583</ele>
        <time>2010-07-03T09:32:58Z</time>
      </trkpt>
      <trkpt lat="48.69091" lon="7.70505">
        <ele>154.823364</ele>
        <time>2010-07-03T09:33:02Z</time>
      </trkpt>
      <trkpt lat="48.69076" lon="7.70513">
        <ele>154.233521</ele>
        <time>2010-07-03T09:33:06Z</time>
      </trkpt>
      <trkpt lat="48.6906" lon="7.70521">
        <ele>154.338989</ele>
        <time>2010-07-03T09:33:10Z</time>
      </trkpt>
      <trkpt lat="48.69043" lon="7.7053">
        <ele>154.190552</ele>
        <time>2010-07-03T09:33:14Z</time>
      </trkpt>
      <trkpt lat="48.69027" lon="7.70541">
        <ele>153.608521</ele>
        <time>2010-07-03T09:33:18Z</time>
      </trkpt>
      <trkpt lat="48.69014" lon="7.70547">
        <ele>153.448364</ele>
        <time>2010-07-03T09:33:21Z</time>
      </trkpt>
      <trkpt lat="48.69002" lon="7.70554">
        <ele>153.667114</ele>
        <time>2010-07-03T09:33:24Z</time>
      </trkpt>
      <trkpt lat="48.68989" lon="7.70562">
        <ele>153.909302</ele>
        <time>2010-07-03T09:33:27Z</time>
      </trkpt>
      <trkpt lat="48.68972" lon="7.7057">
        <ele>153.311646</ele>
        <time>2010-07-03T09:33:31Z</time>
      </trkpt>
      <trkpt lat="48.68956" lon="7.70579">
        <ele>153.378052</ele>
        <time>2010-07-03T09:33:35Z</time>
      </trkpt>
      <trkpt lat="48.68939" lon="7.70588">
        <ele>153.096802</ele>
        <time>2010-07-03T09:33:39Z</time>
      </trkpt>
      <trkpt lat="48.68926" lon="7.70595">
        <ele>153.428833</ele>
        <time>2010-07-03T09:33:42Z</time>
      </trkpt>
      <trkpt lat="48.68913" lon="7.70602">
        <ele>152.979614</ele>
        <time>2010-07-03T09:33:45Z</time>
      </trkpt>
      <trkpt lat="48.68897" lon="7.70609">
        <ele>152.901489</ele>
        <time>2010-07-03T09:33:49Z</time>
      </trkpt>
      <trkpt lat="48.68884" lon="7.70616">
        <ele>153.237427</ele>
        <time>2010-07-03T09:33:52Z</time>
      </trkpt>
      <trkpt lat="48.68869" lon="7.70624">
        <ele>153.276489</ele>
        <time>2010-07-03T09:33:55Z</time>
      </trkpt>
      <trkpt lat="48.68856" lon="7.7063">
        <ele>153.092896</ele>
        <time>2010-07-03T09:33:58Z</time>
      </trkpt>
      <trkpt lat="48.68843" lon="7.70637">
        <ele>152.835083</ele>
        <time>2010-07-03T09:34:01Z</time>
      </trkpt>
      <trkpt lat="48.68829" lon="7.70644">
        <ele>153.077271</ele>
        <time>2010-07-03T09:34:04Z</time>
      </trkpt>
      <trkpt lat="48.68816" lon="7.7065">
        <ele>153.092896</ele>
        <time>2010-07-03T09:34:07Z</time>
      </trkpt>
      <trkpt lat="48.68804" lon="7.70657">
        <ele>153.139771</ele>
        <time>2010-07-03T09:34:10Z</time>
      </trkpt>
      <trkpt lat="48.68791" lon="7.70665">
        <ele>153.745239</ele>
        <time>2010-07-03T09:34:13Z</time>
      </trkpt>
      <trkpt lat="48.68778" lon="7.70671">
        <ele>153.823364</ele>
        <time>2010-07-03T09:34:16Z</time>
      </trkpt>
      <trkpt lat="48.68761" lon="7.70681">
        <ele>153.835083</ele>
        <time>2010-07-03T09:34:20Z</time>
      </trkpt>
      <trkpt lat="48.68748" lon="7.70689">
        <ele>154.049927</ele>
        <time>2010-07-03T09:34:23Z</time>
      </trkpt>
      <trkpt lat="48.68735" lon="7.70696">
        <ele>154.006958</ele>
        <time>2010-07-03T09:34:26Z</time>
      </trkpt>
      <trkpt lat="48.68722" lon="7.70703">
        <ele>154.241333</ele>
        <time>2010-07-03T09:34:29Z</time>
      </trkpt>
      <trkpt lat="48.68705" lon="7.70712">
        <ele>154.026489</ele>
        <time>2010-07-03T09:34:33Z</time>
      </trkpt>
      <trkpt lat="48.68691" lon="7.70719">
        <ele>153.917114</ele>
        <time>2010-07-03T09:34:36Z</time>
      </trkpt>
      <trkpt lat="48.68677" lon="7.70725">
        <ele>153.971802</ele>
        <time>2010-07-03T09:34:39Z</time>
      </trkpt>
      <trkpt lat="48.68663" lon="7.70734">
        <ele>154.182739</ele>
        <time>2010-07-03T09:34:42Z</time>
      </trkpt>
      <trkpt lat="48.68649" lon="7.70742">
        <ele>155.139771</ele>
        <time>2010-07-03T09:34:45Z</time>
      </trkpt>
      <trkpt lat="48.68636" lon="7.70747">
        <ele>155.061646</ele>
        <time>2010-07-03T09:34:48Z</time>
      </trkpt>
      <trkpt lat="48.6862" lon="7.70756">
        <ele>154.928833</ele>
        <time>2010-07-03T09:34:52Z</time>
      </trkpt>
      <trkpt lat="48.68605" lon="7.70764">
        <ele>154.686646</ele>
        <time>2010-07-03T09:34:56Z</time>
      </trkpt>
      <trkpt lat="48.6859" lon="7.70771">
        <ele>154.987427</ele>
        <time>2010-07-03T09:35:00Z</time>
      </trkpt>
      <trkpt lat="48.68577" lon="7.70777">
        <ele>154.803833</ele>
        <time>2010-07-03T09:35:03Z</time>
      </trkpt>
      <trkpt lat="48.6856" lon="7.70787">
        <ele>155.421021</ele>
        <time>2010-07-03T09:35:07Z</time>
      </trkpt>
      <trkpt lat="48.68547" lon="7.70796">
        <ele>155.253052</ele>
        <time>2010-07-03T09:35:10Z</time>
      </trkpt>
      <trkpt lat="48.68535" lon="7.70802">
        <ele>155.096802</ele>
        <time>2010-07-03T09:35:13Z</time>
      </trkpt>
      <trkpt lat="48.68519" lon="7.708">
        <ele>156.327271</ele>
        <time>2010-07-03T09:35:17Z</time>
      </trkpt>
      <trkpt lat="48.68506" lon="7.70815">
        <ele>157.229614</ele>
        <time>2010-07-03T09:35:22Z</time>
      </trkpt>
      <trkpt lat="48.6849" lon="7.70825">
        <ele>157.268677</ele>
        <time>2010-07-03T09:35:26Z</time>
      </trkpt>
      <trkpt lat="48.68473" lon="7.70835">
        <ele>156.764771</ele>
        <time>2010-07-03T09:35:30Z</time>
      </trkpt>
      <trkpt lat="48.68461" lon="7.70842">
        <ele>156.413208</ele>
        <time>2010-07-03T09:35:33Z</time>
      </trkpt>
      <trkpt lat="48.68444" lon="7.7085">
        <ele>156.870239</ele>
        <time>2010-07-03T09:35:37Z</time>
      </trkpt>
      <trkpt lat="48.68429" lon="7.7086">
        <ele>157.120239</ele>
        <time>2010-07-03T09:35:41Z</time>
      </trkpt>
      <trkpt lat="48.68413" lon="7.70868">
        <ele>157.202271</ele>
        <time>2010-07-03T09:35:45Z</time>
      </trkpt>
      <trkpt lat="48.68397" lon="7.70877">
        <ele>157.452271</ele>
        <time>2010-07-03T09:35:49Z</time>
      </trkpt>
      <trkpt lat="48.68382" lon="7.70885">
        <ele>156.335083</ele>
        <time>2010-07-03T09:35:53Z</time>
      </trkpt>
      <trkpt lat="48.68368" lon="7.70893">
        <ele>155.198364</ele>
        <time>2010-07-03T09:35:57Z</time>
      </trkpt>
      <trkpt lat="48.68353" lon="7.70902">
        <ele>153.428833</ele>
        <time>2010-07-03T09:36:02Z</time>
      </trkpt>
      <trkpt lat="48.68338" lon="7.7091">
        <ele>152.604614</ele>
        <time>2010-07-03T09:36:07Z</time>
      </trkpt>
      <trkpt lat="48.68324" lon="7.70916">
        <ele>152.108521</ele>
        <time>2010-07-03T09:36:11Z</time>
      </trkpt>
      <trkpt lat="48.68308" lon="7.70922">
        <ele>152.452271</ele>
        <time>2010-07-03T09:36:16Z</time>
      </trkpt>
      <trkpt lat="48.68292" lon="7.70928">
        <ele>151.061646</ele>
        <time>2010-07-03T09:36:21Z</time>
      </trkpt>
      <trkpt lat="48.68279" lon="7.70935">
        <ele>150.799927</ele>
        <time>2010-07-03T09:36:25Z</time>
      </trkpt>
      <trkpt lat="48.68265" lon="7.70945">
        <ele>149.401489</ele>
        <time>2010-07-03T09:36:30Z</time>
      </trkpt>
      <trkpt lat="48.68252" lon="7.70956">
        <ele>148.217896</ele>
        <time>2010-07-03T09:36:54Z</time>
      </trkpt>
      <trkpt lat="48.68237" lon="7.70964">
        <ele>146.803833</ele>
        <time>2010-07-03T09:36:58Z</time>
      </trkpt>
      <trkpt lat="48.68224" lon="7.70971">
        <ele>146.631958</ele>
        <time>2010-07-03T09:37:01Z</time>
      </trkpt>
      <trkpt lat="48.68211" lon="7.70979">
        <ele>147.069458</ele>
        <time>2010-07-03T09:37:04Z</time>
      </trkpt>
      <trkpt lat="48.68194" lon="7.70987">
        <ele>146.276489</ele>
        <time>2010-07-03T09:37:08Z</time>
      </trkpt>
      <trkpt lat="48.68179" lon="7.70994">
        <ele>145.565552</ele>
        <time>2010-07-03T09:37:12Z</time>
      </trkpt>
      <trkpt lat="48.68165" lon="7.71001">
        <ele>145.682739</ele>
        <time>2010-07-03T09:37:16Z</time>
      </trkpt>
      <trkpt lat="48.68151" lon="7.71008">
        <ele>146.338989</ele>
        <time>2010-07-03T09:37:21Z</time>
      </trkpt>
      <trkpt lat="48.68138" lon="7.71016">
        <ele>147.503052</ele>
        <time>2010-07-03T09:37:25Z</time>
      </trkpt>
      <trkpt lat="48.68124" lon="7.71024">
        <ele>146.581177</ele>
        <time>2010-07-03T09:37:29Z</time>
      </trkpt>
      <trkpt lat="48.6811" lon="7.7103">
        <ele>145.565552</ele>
        <time>2010-07-03T09:37:33Z</time>
      </trkpt>
      <trkpt lat="48.68096" lon="7.71037">
        <ele>145.499146</ele>
        <time>2010-07-03T09:37:36Z</time>
      </trkpt>
      <trkpt lat="48.68082" lon="7.71045">
        <ele>145.624146</ele>
        <time>2010-07-03T09:37:39Z</time>
      </trkpt>
      <trkpt lat="48.68069" lon="7.71053">
        <ele>145.678833</ele>
        <time>2010-07-03T09:37:42Z</time>
      </trkpt>
      <trkpt lat="48.68053" lon="7.7106">
        <ele>145.624146</ele>
        <time>2010-07-03T09:37:46Z</time>
      </trkpt>
      <trkpt lat="48.68037" lon="7.71068">
        <ele>145.647583</ele>
        <time>2010-07-03T09:37:50Z</time>
      </trkpt>
      <trkpt lat="48.68021" lon="7.71076">
        <ele>145.940552</ele>
        <time>2010-07-03T09:37:54Z</time>
      </trkpt>
      <trkpt lat="48.68005" lon="7.71085">
        <ele>146.069458</ele>
        <time>2010-07-03T09:37:58Z</time>
      </trkpt>
      <trkpt lat="48.67988" lon="7.71094">
        <ele>146.253052</ele>
        <time>2010-07-03T09:38:02Z</time>
      </trkpt>
      <trkpt lat="48.67972" lon="7.71104">
        <ele>146.253052</ele>
        <time>2010-07-03T09:38:06Z</time>
      </trkpt>
      <trkpt lat="48.67959" lon="7.71111">
        <ele>145.948364</ele>
        <time>2010-07-03T09:38:09Z</time>
      </trkpt>
      <trkpt lat="48.67946" lon="7.71118">
        <ele>145.932739</ele>
        <time>2010-07-03T09:38:12Z</time>
      </trkpt>
      <trkpt lat="48.67931" lon="7.71128">
        <ele>145.983521</ele>
        <time>2010-07-03T09:38:16Z</time>
      </trkpt>
      <trkpt lat="48.67917" lon="7.71135">
        <ele>146.088989</ele>
        <time>2010-07-03T09:38:20Z</time>
      </trkpt>
      <trkpt lat="48.67902" lon="7.71143">
        <ele>145.616333</ele>
        <time>2010-07-03T09:38:24Z</time>
      </trkpt>
      <trkpt lat="48.67888" lon="7.71152">
        <ele>145.577271</ele>
        <time>2010-07-03T09:38:28Z</time>
      </trkpt>
      <trkpt lat="48.67871" lon="7.7116">
        <ele>145.542114</ele>
        <time>2010-07-03T09:38:32Z</time>
      </trkpt>
      <trkpt lat="48.67854" lon="7.71168">
        <ele>145.885864</ele>
        <time>2010-07-03T09:38:36Z</time>
      </trkpt>
      <trkpt lat="48.67838" lon="7.71177">
        <ele>145.264771</ele>
        <time>2010-07-03T09:38:40Z</time>
      </trkpt>
      <trkpt lat="48.67823" lon="7.71185">
        <ele>142.546021</ele>
        <time>2010-07-03T09:38:44Z</time>
      </trkpt>
      <trkpt lat="48.67809" lon="7.71192">
        <ele>142.128052</ele>
        <time>2010-07-03T09:38:47Z</time>
      </trkpt>
      <trkpt lat="48.67796" lon="7.71199">
        <ele>143.792114</ele>
        <time>2010-07-03T09:38:50Z</time>
      </trkpt>
      <trkpt lat="48.67782" lon="7.71207">
        <ele>143.846802</ele>
        <time>2010-07-03T09:38:53Z</time>
      </trkpt>
      <trkpt lat="48.67769" lon="7.71213">
        <ele>142.952271</ele>
        <time>2010-07-03T09:38:56Z</time>
      </trkpt>
      <trkpt lat="48.67752" lon="7.71222">
        <ele>140.784302</ele>
        <time>2010-07-03T09:39:00Z</time>
      </trkpt>
      <trkpt lat="48.67738" lon="7.71229">
        <ele>141.764771</ele>
        <time>2010-07-03T09:39:03Z</time>
      </trkpt>
      <trkpt lat="48.67724" lon="7.71237">
        <ele>143.374146</ele>
        <time>2010-07-03T09:39:06Z</time>
      </trkpt>
      <trkpt lat="48.6771" lon="7.71245">
        <ele>143.510864</ele>
        <time>2010-07-03T09:39:09Z</time>
      </trkpt>
      <trkpt lat="48.67696" lon="7.71254">
        <ele>144.581177</ele>
        <time>2010-07-03T09:39:12Z</time>
      </trkpt>
      <trkpt lat="48.67682" lon="7.71261">
        <ele>145.022583</ele>
        <time>2010-07-03T09:39:15Z</time>
      </trkpt>
      <trkpt lat="48.67669" lon="7.71269">
        <ele>143.913208</ele>
        <time>2010-07-03T09:39:18Z</time>
      </trkpt>
      <trkpt lat="48.67655" lon="7.71277">
        <ele>143.276489</ele>
        <time>2010-07-03T09:39:21Z</time>
      </trkpt>
      <trkpt lat="48.67642" lon="7.71283">
        <ele>140.499146</ele>
        <time>2010-07-03T09:39:24Z</time>
      </trkpt>
      <trkpt lat="48.67626" lon="7.71291">
        <ele>139.796021</ele>
        <time>2010-07-03T09:39:28Z</time>
      </trkpt>
      <trkpt lat="48.67613" lon="7.71298">
        <ele>141.471802</ele>
        <time>2010-07-03T09:39:31Z</time>
      </trkpt>
      <trkpt lat="48.67597" lon="7.71307">
        <ele>142.299927</ele>
        <time>2010-07-03T09:39:35Z</time>
      </trkpt>
      <trkpt lat="48.67584" lon="7.71315">
        <ele>142.628052</ele>
        <time>2010-07-03T09:39:38Z</time>
      </trkpt>
      <trkpt lat="48.67569" lon="7.71323">
        <ele>143.428833</ele>
        <time>2010-07-03T09:39:41Z</time>
      </trkpt>
      <trkpt lat="48.67554" lon="7.71332">
        <ele>143.452271</ele>
        <time>2010-07-03T09:39:44Z</time>
      </trkpt>
      <trkpt lat="48.6754" lon="7.7134">
        <ele>144.003052</ele>
        <time>2010-07-03T09:39:47Z</time>
      </trkpt>
      <trkpt lat="48.67526" lon="7.71348">
        <ele>143.569458</ele>
        <time>2010-07-03T09:39:50Z</time>
      </trkpt>
      <trkpt lat="48.67511" lon="7.71355">
        <ele>143.628052</ele>
        <time>2010-07-03T09:39:53Z</time>
      </trkpt>
      <trkpt lat="48.67497" lon="7.71362">
        <ele>143.569458</ele>
        <time>2010-07-03T09:39:56Z</time>
      </trkpt>
      <trkpt lat="48.67483" lon="7.71369">
        <ele>142.967896</ele>
        <time>2010-07-03T09:39:59Z</time>
      </trkpt>
      <trkpt lat="48.67468" lon="7.71378">
        <ele>142.424927</ele>
        <time>2010-07-03T09:40:03Z</time>
      </trkpt>
      <trkpt lat="48.67454" lon="7.71385">
        <ele>142.030396</ele>
        <time>2010-07-03T09:40:08Z</time>
      </trkpt>
      <trkpt lat="48.67438" lon="7.71392">
        <ele>142.190552</ele>
        <time>2010-07-03T09:40:13Z</time>
      </trkpt>
      <trkpt lat="48.67425" lon="7.71401">
        <ele>143.096802</ele>
        <time>2010-07-03T09:40:17Z</time>
      </trkpt>
      <trkpt lat="48.67411" lon="7.71409">
        <ele>143.237427</ele>
        <time>2010-07-03T09:40:21Z</time>
      </trkpt>
      <trkpt lat="48.67397" lon="7.71416">
        <ele>143.206177</ele>
        <time>2010-07-03T09:40:25Z</time>
      </trkpt>
      <trkpt lat="48.67381" lon="7.71424">
        <ele>142.667114</ele>
        <time>2010-07-03T09:40:30Z</time>
      </trkpt>
      <trkpt lat="48.67366" lon="7.71432">
        <ele>141.421021</ele>
        <time>2010-07-03T09:40:35Z</time>
      </trkpt>
      <trkpt lat="48.67351" lon="7.71438">
        <ele>140.999146</ele>
        <time>2010-07-03T09:40:40Z</time>
      </trkpt>
      <trkpt lat="48.67336" lon="7.71444">
        <ele>141.460083</ele>
        <time>2010-07-03T09:40:45Z</time>
      </trkpt>
      <trkpt lat="48.67322" lon="7.71452">
        <ele>141.491333</ele>
        <time>2010-07-03T09:40:50Z</time>
      </trkpt>
      <trkpt lat="48.67309" lon="7.71462">
        <ele>139.682739</ele>
        <time>2010-07-03T09:40:56Z</time>
      </trkpt>
      <trkpt lat="48.67294" lon="7.71467">
        <ele>138.729614</ele>
        <time>2010-07-03T09:42:21Z</time>
      </trkpt>
      <trkpt lat="48.67281" lon="7.71475">
        <ele>138.487427</ele>
        <time>2010-07-03T09:42:25Z</time>
      </trkpt>
      <trkpt lat="48.67265" lon="7.71483">
        <ele>138.217896</ele>
        <time>2010-07-03T09:42:29Z</time>
      </trkpt>
      <trkpt lat="48.6725" lon="7.71492">
        <ele>137.678833</ele>
        <time>2010-07-03T09:42:33Z</time>
      </trkpt>
      <trkpt lat="48.67237" lon="7.715">
        <ele>137.522583</ele>
        <time>2010-07-03T09:42:36Z</time>
      </trkpt>
      <trkpt lat="48.67223" lon="7.71506">
        <ele>137.753052</ele>
        <time>2010-07-03T09:42:39Z</time>
      </trkpt>
      <trkpt lat="48.67207" lon="7.71514">
        <ele>138.909302</ele>
        <time>2010-07-03T09:42:43Z</time>
      </trkpt>
      <trkpt lat="48.67192" lon="7.71523">
        <ele>139.530396</ele>
        <time>2010-07-03T09:42:47Z</time>
      </trkpt>
      <trkpt lat="48.67178" lon="7.71531">
        <ele>140.460083</ele>
        <time>2010-07-03T09:42:51Z</time>
      </trkpt>
      <trkpt lat="48.67164" lon="7.71539">
        <ele>140.706177</ele>
        <time>2010-07-03T09:42:55Z</time>
      </trkpt>
      <trkpt lat="48.67149" lon="7.71546">
        <ele>140.213989</ele>
        <time>2010-07-03T09:42:59Z</time>
      </trkpt>
      <trkpt lat="48.67134" lon="7.71555">
        <ele>140.924927</ele>
        <time>2010-07-03T09:43:04Z</time>
      </trkpt>
      <trkpt lat="48.67119" lon="7.71563">
        <ele>141.546021</ele>
        <time>2010-07-03T09:43:09Z</time>
      </trkpt>
      <trkpt lat="48.67107" lon="7.71573">
        <ele>140.253052</ele>
        <time>2010-07-03T09:43:16Z</time>
      </trkpt>
      <trkpt lat="48.67099" lon="7.71552">
        <ele>141.413208</ele>
        <time>2010-07-03T09:43:25Z</time>
      </trkpt>
      <trkpt lat="48.67085" lon="7.71548">
        <ele>139.956177</ele>
        <time>2010-07-03T09:43:52Z</time>
      </trkpt>
      <trkpt lat="48.67072" lon="7.71556">
        <ele>140.362427</ele>
        <time>2010-07-03T09:43:59Z</time>
      </trkpt>
      <trkpt lat="48.67058" lon="7.71565">
        <ele>141.225708</ele>
        <time>2010-07-03T09:44:04Z</time>
      </trkpt>
      <trkpt lat="48.67043" lon="7.71575">
        <ele>141.663208</ele>
        <time>2010-07-03T09:44:09Z</time>
      </trkpt>
      <trkpt lat="48.6703" lon="7.71586">
        <ele>141.588989</ele>
        <time>2010-07-03T09:44:13Z</time>
      </trkpt>
      <trkpt lat="48.67016" lon="7.71597">
        <ele>141.577271</ele>
        <time>2010-07-03T09:44:17Z</time>
      </trkpt>
      <trkpt lat="48.67004" lon="7.7161">
        <ele>142.167114</ele>
        <time>2010-07-03T09:44:21Z</time>
      </trkpt>
      <trkpt lat="48.66991" lon="7.71624">
        <ele>142.296021</ele>
        <time>2010-07-03T09:44:26Z</time>
      </trkpt>
      <trkpt lat="48.6698" lon="7.71638">
        <ele>140.569458</ele>
        <time>2010-07-03T09:44:35Z</time>
      </trkpt>
      <trkpt lat="48.6697" lon="7.71652">
        <ele>140.256958</ele>
        <time>2010-07-03T09:44:41Z</time>
      </trkpt>
      <trkpt lat="48.66959" lon="7.71669">
        <ele>139.077271</ele>
        <time>2010-07-03T09:44:47Z</time>
      </trkpt>
      <trkpt lat="48.6695" lon="7.71687">
        <ele>139.100708</ele>
        <time>2010-07-03T09:44:53Z</time>
      </trkpt>
      <trkpt lat="48.6694" lon="7.71705">
        <ele>139.381958</ele>
        <time>2010-07-03T09:44:59Z</time>
      </trkpt>
      <trkpt lat="48.66932" lon="7.71723">
        <ele>139.784302</ele>
        <time>2010-07-03T09:45:05Z</time>
      </trkpt>
      <trkpt lat="48.66925" lon="7.71741">
        <ele>139.311646</ele>
        <time>2010-07-03T09:45:13Z</time>
      </trkpt>
      <trkpt lat="48.66913" lon="7.71754">
        <ele>138.753052</ele>
        <time>2010-07-03T09:45:24Z</time>
      </trkpt>
      <trkpt lat="48.66903" lon="7.71771">
        <ele>138.225708</ele>
        <time>2010-07-03T09:45:29Z</time>
      </trkpt>
      <trkpt lat="48.66893" lon="7.71791">
        <ele>137.995239</ele>
        <time>2010-07-03T09:45:34Z</time>
      </trkpt>
      <trkpt lat="48.66884" lon="7.71807">
        <ele>138.194458</ele>
        <time>2010-07-03T09:45:38Z</time>
      </trkpt>
      <trkpt lat="48.66874" lon="7.71825">
        <ele>139.131958</ele>
        <time>2010-07-03T09:45:42Z</time>
      </trkpt>
      <trkpt lat="48.66865" lon="7.71843">
        <ele>138.588989</ele>
        <time>2010-07-03T09:45:46Z</time>
      </trkpt>
      <trkpt lat="48.66856" lon="7.71859">
        <ele>138.596802</ele>
        <time>2010-07-03T09:45:49Z</time>
      </trkpt>
      <trkpt lat="48.66847" lon="7.71878">
        <ele>138.905396</ele>
        <time>2010-07-03T09:45:53Z</time>
      </trkpt>
      <trkpt lat="48.66837" lon="7.71898">
        <ele>138.202271</ele>
        <time>2010-07-03T09:45:57Z</time>
      </trkpt>
      <trkpt lat="48.66828" lon="7.71917">
        <ele>136.616333</ele>
        <time>2010-07-03T09:46:02Z</time>
      </trkpt>
      <trkpt lat="48.66816" lon="7.71922">
        <ele>129.546021</ele>
        <time>2010-07-03T09:49:10Z</time>
      </trkpt>
      <trkpt lat="48.66813" lon="7.71941">
        <ele>131.491333</ele>
        <time>2010-07-03T09:55:45Z</time>
      </trkpt>
      <trkpt lat="48.668" lon="7.71954">
        <ele>135.210083</ele>
        <time>2010-07-03T09:55:51Z</time>
      </trkpt>
      <trkpt lat="48.66788" lon="7.71964">
        <ele>136.647583</ele>
        <time>2010-07-03T09:55:57Z</time>
      </trkpt>
      <trkpt lat="48.66777" lon="7.71977">
        <ele>137.628052</ele>
        <time>2010-07-03T09:56:02Z</time>
      </trkpt>
      <trkpt lat="48.66765" lon="7.71996">
        <ele>137.803833</ele>
        <time>2010-07-03T09:56:07Z</time>
      </trkpt>
      <trkpt lat="48.66756" lon="7.72012">
        <ele>137.772583</ele>
        <time>2010-07-03T09:56:11Z</time>
      </trkpt>
      <trkpt lat="48.66745" lon="7.72027">
        <ele>138.585083</ele>
        <time>2010-07-03T09:56:15Z</time>
      </trkpt>
      <trkpt lat="48.66735" lon="7.72044">
        <ele>138.428833</ele>
        <time>2010-07-03T09:56:19Z</time>
      </trkpt>
      <trkpt lat="48.66726" lon="7.72066">
        <ele>138.319458</ele>
        <time>2010-07-03T09:56:23Z</time>
      </trkpt>
      <trkpt lat="48.66719" lon="7.72085">
        <ele>138.862427</ele>
        <time>2010-07-03T09:56:27Z</time>
      </trkpt>
      <trkpt lat="48.66707" lon="7.721">
        <ele>139.495239</ele>
        <time>2010-07-03T09:56:31Z</time>
      </trkpt>
      <trkpt lat="48.66696" lon="7.72112">
        <ele>139.674927</ele>
        <time>2010-07-03T09:56:35Z</time>
      </trkpt>
      <trkpt lat="48.66684" lon="7.72125">
        <ele>140.702271</ele>
        <time>2010-07-03T09:56:40Z</time>
      </trkpt>
      <trkpt lat="48.66673" lon="7.72137">
        <ele>141.018677</ele>
        <time>2010-07-03T09:56:45Z</time>
      </trkpt>
      <trkpt lat="48.6666" lon="7.72152">
        <ele>141.378052</ele>
        <time>2010-07-03T09:56:50Z</time>
      </trkpt>
      <trkpt lat="48.66648" lon="7.72165">
        <ele>142.159302</ele>
        <time>2010-07-03T09:56:55Z</time>
      </trkpt>
      <trkpt lat="48.66636" lon="7.72178">
        <ele>142.487427</ele>
        <time>2010-07-03T09:57:00Z</time>
      </trkpt>
      <trkpt lat="48.66624" lon="7.72192">
        <ele>142.831177</ele>
        <time>2010-07-03T09:57:04Z</time>
      </trkpt>
      <trkpt lat="48.66613" lon="7.72204">
        <ele>143.643677</ele>
        <time>2010-07-03T09:57:08Z</time>
      </trkpt>
      <trkpt lat="48.66602" lon="7.72216">
        <ele>143.776489</ele>
        <time>2010-07-03T09:57:12Z</time>
      </trkpt>
      <trkpt lat="48.6659" lon="7.7223">
        <ele>144.104614</ele>
        <time>2010-07-03T09:57:16Z</time>
      </trkpt>
      <trkpt lat="48.66578" lon="7.72243">
        <ele>143.561646</ele>
        <time>2010-07-03T09:57:20Z</time>
      </trkpt>
      <trkpt lat="48.66566" lon="7.72257">
        <ele>143.671021</ele>
        <time>2010-07-03T09:57:24Z</time>
      </trkpt>
      <trkpt lat="48.66553" lon="7.72272">
        <ele>144.315552</ele>
        <time>2010-07-03T09:57:28Z</time>
      </trkpt>
      <trkpt lat="48.66541" lon="7.72285">
        <ele>143.971802</ele>
        <time>2010-07-03T09:57:32Z</time>
      </trkpt>
      <trkpt lat="48.66528" lon="7.72299">
        <ele>144.085083</ele>
        <time>2010-07-03T09:57:36Z</time>
      </trkpt>
      <trkpt lat="48.66515" lon="7.72312">
        <ele>143.807739</ele>
        <time>2010-07-03T09:57:40Z</time>
      </trkpt>
      <trkpt lat="48.66503" lon="7.72327">
        <ele>143.874146</ele>
        <time>2010-07-03T09:57:44Z</time>
      </trkpt>
      <trkpt lat="48.66489" lon="7.72342">
        <ele>143.628052</ele>
        <time>2010-07-03T09:57:48Z</time>
      </trkpt>
      <trkpt lat="48.66476" lon="7.72357">
        <ele>143.889771</ele>
        <time>2010-07-03T09:57:52Z</time>
      </trkpt>
      <trkpt lat="48.66462" lon="7.72371">
        <ele>144.088989</ele>
        <time>2010-07-03T09:57:56Z</time>
      </trkpt>
      <trkpt lat="48.66449" lon="7.72387">
        <ele>144.682739</ele>
        <time>2010-07-03T09:58:00Z</time>
      </trkpt>
      <trkpt lat="48.66435" lon="7.72401">
        <ele>144.381958</ele>
        <time>2010-07-03T09:58:04Z</time>
      </trkpt>
      <trkpt lat="48.66422" lon="7.72416">
        <ele>144.729614</ele>
        <time>2010-07-03T09:58:08Z</time>
      </trkpt>
      <trkpt lat="48.66409" lon="7.72431">
        <ele>145.155396</ele>
        <time>2010-07-03T09:58:12Z</time>
      </trkpt>
      <trkpt lat="48.66396" lon="7.72446">
        <ele>145.350708</ele>
        <time>2010-07-03T09:58:16Z</time>
      </trkpt>
      <trkpt lat="48.66384" lon="7.7246">
        <ele>144.788208</ele>
        <time>2010-07-03T09:58:20Z</time>
      </trkpt>
      <trkpt lat="48.66372" lon="7.72473">
        <ele>144.557739</ele>
        <time>2010-07-03T09:58:24Z</time>
      </trkpt>
      <trkpt lat="48.6636" lon="7.72486">
        <ele>143.710083</ele>
        <time>2010-07-03T09:58:28Z</time>
      </trkpt>
      <trkpt lat="48.66348" lon="7.72499">
        <ele>143.471802</ele>
        <time>2010-07-03T09:58:32Z</time>
      </trkpt>
      <trkpt lat="48.66335" lon="7.72513">
        <ele>143.346802</ele>
        <time>2010-07-03T09:58:37Z</time>
      </trkpt>
      <trkpt lat="48.66323" lon="7.72528">
        <ele>143.104614</ele>
        <time>2010-07-03T09:58:43Z</time>
      </trkpt>
      <trkpt lat="48.66311" lon="7.7254">
        <ele>143.299927</ele>
        <time>2010-07-03T09:58:48Z</time>
      </trkpt>
      <trkpt lat="48.66298" lon="7.72555">
        <ele>143.487427</ele>
        <time>2010-07-03T09:58:53Z</time>
      </trkpt>
      <trkpt lat="48.66286" lon="7.72569">
        <ele>142.885864</ele>
        <time>2010-07-03T09:58:57Z</time>
      </trkpt>
      <trkpt lat="48.66274" lon="7.72583">
        <ele>143.471802</ele>
        <time>2010-07-03T09:59:01Z</time>
      </trkpt>
      <trkpt lat="48.66262" lon="7.72596">
        <ele>143.432739</ele>
        <time>2010-07-03T09:59:05Z</time>
      </trkpt>
      <trkpt lat="48.66249" lon="7.7261">
        <ele>142.682739</ele>
        <time>2010-07-03T09:59:10Z</time>
      </trkpt>
      <trkpt lat="48.66238" lon="7.72623">
        <ele>142.979614</ele>
        <time>2010-07-03T09:59:15Z</time>
      </trkpt>
      <trkpt lat="48.66225" lon="7.72639">
        <ele>142.713989</ele>
        <time>2010-07-03T09:59:21Z</time>
      </trkpt>
      <trkpt lat="48.66213" lon="7.72653">
        <ele>143.253052</ele>
        <time>2010-07-03T09:59:26Z</time>
      </trkpt>
      <trkpt lat="48.662" lon="7.72666">
        <ele>143.378052</ele>
        <time>2010-07-03T09:59:35Z</time>
      </trkpt>
      <trkpt lat="48.66187" lon="7.72662">
        <ele>143.010864</ele>
        <time>2010-07-03T09:59:42Z</time>
      </trkpt>
      <trkpt lat="48.66179" lon="7.72641">
        <ele>143.780396</ele>
        <time>2010-07-03T09:59:48Z</time>
      </trkpt>
      <trkpt lat="48.66172" lon="7.72619">
        <ele>144.174927</ele>
        <time>2010-07-03T09:59:53Z</time>
      </trkpt>
      <trkpt lat="48.66166" lon="7.72599">
        <ele>144.858521</ele>
        <time>2010-07-03T09:59:57Z</time>
      </trkpt>
      <trkpt lat="48.66158" lon="7.72579">
        <ele>145.401489</ele>
        <time>2010-07-03T10:00:02Z</time>
      </trkpt>
      <trkpt lat="48.6615" lon="7.72558">
        <ele>145.674927</ele>
        <time>2010-07-03T10:00:07Z</time>
      </trkpt>
      <trkpt lat="48.66137" lon="7.72553">
        <ele>146.475708</ele>
        <time>2010-07-03T10:00:24Z</time>
      </trkpt>
      <trkpt lat="48.66126" lon="7.72567">
        <ele>146.217896</ele>
        <time>2010-07-03T10:00:28Z</time>
      </trkpt>
      <trkpt lat="48.66116" lon="7.72581">
        <ele>145.928833</ele>
        <time>2010-07-03T10:00:31Z</time>
      </trkpt>
      <trkpt lat="48.66105" lon="7.72596">
        <ele>145.651489</ele>
        <time>2010-07-03T10:00:34Z</time>
      </trkpt>
      <trkpt lat="48.66095" lon="7.7261">
        <ele>145.706177</ele>
        <time>2010-07-03T10:00:37Z</time>
      </trkpt>
      <trkpt lat="48.66084" lon="7.72623">
        <ele>145.620239</ele>
        <time>2010-07-03T10:00:40Z</time>
      </trkpt>
      <trkpt lat="48.66069" lon="7.72636">
        <ele>145.842896</ele>
        <time>2010-07-03T10:00:44Z</time>
      </trkpt>
      <trkpt lat="48.66055" lon="7.72652">
        <ele>146.057739</ele>
        <time>2010-07-03T10:00:48Z</time>
      </trkpt>
      <trkpt lat="48.6604" lon="7.72666">
        <ele>145.803833</ele>
        <time>2010-07-03T10:00:52Z</time>
      </trkpt>
      <trkpt lat="48.66028" lon="7.72678">
        <ele>145.659302</ele>
        <time>2010-07-03T10:00:55Z</time>
      </trkpt>
      <trkpt lat="48.66013" lon="7.7269">
        <ele>145.385864</ele>
        <time>2010-07-03T10:00:59Z</time>
      </trkpt>
      <trkpt lat="48.65999" lon="7.72702">
        <ele>145.202271</ele>
        <time>2010-07-03T10:01:03Z</time>
      </trkpt>
      <trkpt lat="48.65984" lon="7.72695">
        <ele>145.077271</ele>
        <time>2010-07-03T10:01:08Z</time>
      </trkpt>
      <trkpt lat="48.65978" lon="7.72671">
        <ele>145.889771</ele>
        <time>2010-07-03T10:01:13Z</time>
      </trkpt>
      <trkpt lat="48.65971" lon="7.7265">
        <ele>146.495239</ele>
        <time>2010-07-03T10:01:17Z</time>
      </trkpt>
      <trkpt lat="48.65961" lon="7.72636">
        <ele>147.006958</ele>
        <time>2010-07-03T10:01:21Z</time>
      </trkpt>
      <trkpt lat="48.6595" lon="7.72647">
        <ele>146.979614</ele>
        <time>2010-07-03T10:01:27Z</time>
      </trkpt>
      <trkpt lat="48.65953" lon="7.72667">
        <ele>145.108521</ele>
        <time>2010-07-03T10:04:13Z</time>
      </trkpt>
      <trkpt lat="48.65959" lon="7.72686">
        <ele>144.819458</ele>
        <time>2010-07-03T10:04:19Z</time>
      </trkpt>
      <trkpt lat="48.65966" lon="7.72704">
        <ele>144.671021</ele>
        <time>2010-07-03T10:04:25Z</time>
      </trkpt>
      <trkpt lat="48.6598" lon="7.72709">
        <ele>145.296021</ele>
        <time>2010-07-03T10:04:37Z</time>
      </trkpt>
      <trkpt lat="48.65989" lon="7.72725">
        <ele>144.858521</ele>
        <time>2010-07-03T10:04:54Z</time>
      </trkpt>
      <trkpt lat="48.66001" lon="7.72714">
        <ele>145.272583</ele>
        <time>2010-07-03T10:04:58Z</time>
      </trkpt>
      <trkpt lat="48.66015" lon="7.727">
        <ele>145.471802</ele>
        <time>2010-07-03T10:05:02Z</time>
      </trkpt>
      <trkpt lat="48.66029" lon="7.72688">
        <ele>145.553833</ele>
        <time>2010-07-03T10:05:06Z</time>
      </trkpt>
      <trkpt lat="48.66041" lon="7.72677">
        <ele>145.303833</ele>
        <time>2010-07-03T10:05:10Z</time>
      </trkpt>
      <trkpt lat="48.66055" lon="7.72665">
        <ele>145.370239</ele>
        <time>2010-07-03T10:05:15Z</time>
      </trkpt>
      <trkpt lat="48.66067" lon="7.72653">
        <ele>145.409302</ele>
        <time>2010-07-03T10:05:20Z</time>
      </trkpt>
      <trkpt lat="48.66079" lon="7.72642">
        <ele>144.534302</ele>
        <time>2010-07-03T10:05:26Z</time>
      </trkpt>
      <trkpt lat="48.66082" lon="7.72664">
        <ele>141.131958</ele>
        <time>2010-07-03T10:05:53Z</time>
      </trkpt>
      <trkpt lat="48.66077" lon="7.72644">
        <ele>144.885864</ele>
        <time>2010-07-03T10:06:34Z</time>
      </trkpt>
      <trkpt lat="48.66087" lon="7.72628">
        <ele>148.405396</ele>
        <time>2010-07-03T10:07:02Z</time>
      </trkpt>
      <trkpt lat="48.661" lon="7.72625">
        <ele>148.737427</ele>
        <time>2010-07-03T10:07:08Z</time>
      </trkpt>
      <trkpt lat="48.66113" lon="7.72619">
        <ele>148.245239</ele>
        <time>2010-07-03T10:07:13Z</time>
      </trkpt>
      <trkpt lat="48.66127" lon="7.72626">
        <ele>147.792114</ele>
        <time>2010-07-03T10:07:18Z</time>
      </trkpt>
      <trkpt lat="48.66133" lon="7.72644">
        <ele>147.276489</ele>
        <time>2010-07-03T10:07:22Z</time>
      </trkpt>
      <trkpt lat="48.66139" lon="7.72665">
        <ele>147.159302</ele>
        <time>2010-07-03T10:07:26Z</time>
      </trkpt>
      <trkpt lat="48.66143" lon="7.72685">
        <ele>146.546021</ele>
        <time>2010-07-03T10:07:30Z</time>
      </trkpt>
      <trkpt lat="48.6615" lon="7.72704">
        <ele>146.116333</ele>
        <time>2010-07-03T10:07:34Z</time>
      </trkpt>
      <trkpt lat="48.66148" lon="7.72725">
        <ele>146.663208</ele>
        <time>2010-07-03T10:07:42Z</time>
      </trkpt>
      <trkpt lat="48.66137" lon="7.72737">
        <ele>146.260864</ele>
        <time>2010-07-03T10:07:47Z</time>
      </trkpt>
      <trkpt lat="48.66124" lon="7.7275">
        <ele>145.647583</ele>
        <time>2010-07-03T10:07:52Z</time>
      </trkpt>
      <trkpt lat="48.66112" lon="7.72764">
        <ele>144.635864</ele>
        <time>2010-07-03T10:07:59Z</time>
      </trkpt>
      <trkpt lat="48.66098" lon="7.72779">
        <ele>144.069458</ele>
        <time>2010-07-03T10:08:04Z</time>
      </trkpt>
      <trkpt lat="48.66085" lon="7.72793">
        <ele>144.167114</ele>
        <time>2010-07-03T10:08:08Z</time>
      </trkpt>
      <trkpt lat="48.66073" lon="7.72808">
        <ele>144.213989</ele>
        <time>2010-07-03T10:08:12Z</time>
      </trkpt>
      <trkpt lat="48.6606" lon="7.72823">
        <ele>144.428833</ele>
        <time>2010-07-03T10:08:16Z</time>
      </trkpt>
      <trkpt lat="48.66046" lon="7.72837">
        <ele>145.100708</ele>
        <time>2010-07-03T10:08:20Z</time>
      </trkpt>
      <trkpt lat="48.66032" lon="7.72853">
        <ele>144.991333</ele>
        <time>2010-07-03T10:08:24Z</time>
      </trkpt>
      <trkpt lat="48.66019" lon="7.72869">
        <ele>145.374146</ele>
        <time>2010-07-03T10:08:28Z</time>
      </trkpt>
      <trkpt lat="48.66005" lon="7.72883">
        <ele>145.245239</ele>
        <time>2010-07-03T10:08:32Z</time>
      </trkpt>
      <trkpt lat="48.6599" lon="7.72899">
        <ele>145.217896</ele>
        <time>2010-07-03T10:08:36Z</time>
      </trkpt>
      <trkpt lat="48.65978" lon="7.72912">
        <ele>144.850708</ele>
        <time>2010-07-03T10:08:39Z</time>
      </trkpt>
      <trkpt lat="48.65965" lon="7.72927">
        <ele>145.233521</ele>
        <time>2010-07-03T10:08:42Z</time>
      </trkpt>
      <trkpt lat="48.65953" lon="7.72941">
        <ele>145.128052</ele>
        <time>2010-07-03T10:08:45Z</time>
      </trkpt>
      <trkpt lat="48.65942" lon="7.72953">
        <ele>144.538208</ele>
        <time>2010-07-03T10:08:48Z</time>
      </trkpt>
      <trkpt lat="48.65929" lon="7.72966">
        <ele>145.838989</ele>
        <time>2010-07-03T10:08:51Z</time>
      </trkpt>
      <trkpt lat="48.65917" lon="7.72977">
        <ele>145.213989</ele>
        <time>2010-07-03T10:08:54Z</time>
      </trkpt>
      <trkpt lat="48.65905" lon="7.72989">
        <ele>144.885864</ele>
        <time>2010-07-03T10:08:57Z</time>
      </trkpt>
      <trkpt lat="48.65893" lon="7.73001">
        <ele>144.573364</ele>
        <time>2010-07-03T10:09:00Z</time>
      </trkpt>
      <trkpt lat="48.65882" lon="7.73013">
        <ele>144.921021</ele>
        <time>2010-07-03T10:09:03Z</time>
      </trkpt>
      <trkpt lat="48.65866" lon="7.73026">
        <ele>144.256958</ele>
        <time>2010-07-03T10:09:07Z</time>
      </trkpt>
      <trkpt lat="48.65851" lon="7.73035">
        <ele>144.100708</ele>
        <time>2010-07-03T10:09:11Z</time>
      </trkpt>
      <trkpt lat="48.65839" lon="7.73044">
        <ele>143.151489</ele>
        <time>2010-07-03T10:09:15Z</time>
      </trkpt>
      <trkpt lat="48.65828" lon="7.73055">
        <ele>142.960083</ele>
        <time>2010-07-03T10:09:20Z</time>
      </trkpt>
      <trkpt lat="48.65815" lon="7.73066">
        <ele>142.866333</ele>
        <time>2010-07-03T10:09:24Z</time>
      </trkpt>
      <trkpt lat="48.65806" lon="7.73082">
        <ele>143.792114</ele>
        <time>2010-07-03T10:09:29Z</time>
      </trkpt>
      <trkpt lat="48.65796" lon="7.73096">
        <ele>143.764771</ele>
        <time>2010-07-03T10:09:50Z</time>
      </trkpt>
      <trkpt lat="48.65784" lon="7.73105">
        <ele>143.393677</ele>
        <time>2010-07-03T10:09:54Z</time>
      </trkpt>
      <trkpt lat="48.65771" lon="7.73117">
        <ele>143.495239</ele>
        <time>2010-07-03T10:09:58Z</time>
      </trkpt>
      <trkpt lat="48.65759" lon="7.73127">
        <ele>142.635864</ele>
        <time>2010-07-03T10:10:02Z</time>
      </trkpt>
      <trkpt lat="48.65745" lon="7.73139">
        <ele>142.014771</ele>
        <time>2010-07-03T10:10:06Z</time>
      </trkpt>
      <trkpt lat="48.6573" lon="7.73152">
        <ele>142.366333</ele>
        <time>2010-07-03T10:10:10Z</time>
      </trkpt>
      <trkpt lat="48.65714" lon="7.73165">
        <ele>142.772583</ele>
        <time>2010-07-03T10:10:14Z</time>
      </trkpt>
      <trkpt lat="48.65699" lon="7.73179">
        <ele>142.991333</ele>
        <time>2010-07-03T10:10:18Z</time>
      </trkpt>
      <trkpt lat="48.65687" lon="7.7319">
        <ele>142.506958</ele>
        <time>2010-07-03T10:10:21Z</time>
      </trkpt>
      <trkpt lat="48.65675" lon="7.732">
        <ele>142.467896</ele>
        <time>2010-07-03T10:10:24Z</time>
      </trkpt>
      <trkpt lat="48.65663" lon="7.7321">
        <ele>142.444458</ele>
        <time>2010-07-03T10:10:27Z</time>
      </trkpt>
      <trkpt lat="48.65651" lon="7.7322">
        <ele>142.003052</ele>
        <time>2010-07-03T10:10:30Z</time>
      </trkpt>
      <trkpt lat="48.65638" lon="7.73231">
        <ele>141.667114</ele>
        <time>2010-07-03T10:10:33Z</time>
      </trkpt>
      <trkpt lat="48.65625" lon="7.73243">
        <ele>141.612427</ele>
        <time>2010-07-03T10:10:36Z</time>
      </trkpt>
      <trkpt lat="48.65613" lon="7.73254">
        <ele>142.096802</ele>
        <time>2010-07-03T10:10:39Z</time>
      </trkpt>
      <trkpt lat="48.65601" lon="7.73265">
        <ele>141.827271</ele>
        <time>2010-07-03T10:10:42Z</time>
      </trkpt>
      <trkpt lat="48.65588" lon="7.73277">
        <ele>141.811646</ele>
        <time>2010-07-03T10:10:45Z</time>
      </trkpt>
      <trkpt lat="48.65576" lon="7.73287">
        <ele>141.592896</ele>
        <time>2010-07-03T10:10:48Z</time>
      </trkpt>
      <trkpt lat="48.65564" lon="7.73297">
        <ele>141.710083</ele>
        <time>2010-07-03T10:10:51Z</time>
      </trkpt>
      <trkpt lat="48.65552" lon="7.73308">
        <ele>142.241333</ele>
        <time>2010-07-03T10:10:54Z</time>
      </trkpt>
      <trkpt lat="48.6554" lon="7.73319">
        <ele>142.174927</ele>
        <time>2010-07-03T10:10:57Z</time>
      </trkpt>
      <trkpt lat="48.65529" lon="7.7333">
        <ele>142.342896</ele>
        <time>2010-07-03T10:11:00Z</time>
      </trkpt>
      <trkpt lat="48.65514" lon="7.73343">
        <ele>142.296021</ele>
        <time>2010-07-03T10:11:04Z</time>
      </trkpt>
      <trkpt lat="48.655" lon="7.73356">
        <ele>142.100708</ele>
        <time>2010-07-03T10:11:08Z</time>
      </trkpt>
      <trkpt lat="48.65488" lon="7.73366">
        <ele>142.225708</ele>
        <time>2010-07-03T10:11:12Z</time>
      </trkpt>
      <trkpt lat="48.65474" lon="7.73379">
        <ele>142.401489</ele>
        <time>2010-07-03T10:11:17Z</time>
      </trkpt>
      <trkpt lat="48.65459" lon="7.73393">
        <ele>142.315552</ele>
        <time>2010-07-03T10:11:21Z</time>
      </trkpt>
      <trkpt lat="48.65448" lon="7.73404">
        <ele>142.049927</ele>
        <time>2010-07-03T10:11:24Z</time>
      </trkpt>
      <trkpt lat="48.65436" lon="7.73414">
        <ele>142.069458</ele>
        <time>2010-07-03T10:11:27Z</time>
      </trkpt>
      <trkpt lat="48.65424" lon="7.73424">
        <ele>142.194458</ele>
        <time>2010-07-03T10:11:30Z</time>
      </trkpt>
      <trkpt lat="48.65408" lon="7.73438">
        <ele>142.131958</ele>
        <time>2010-07-03T10:11:34Z</time>
      </trkpt>
      <trkpt lat="48.65396" lon="7.73449">
        <ele>141.897583</ele>
        <time>2010-07-03T10:11:37Z</time>
      </trkpt>
      <trkpt lat="48.65383" lon="7.73459">
        <ele>141.956177</ele>
        <time>2010-07-03T10:11:40Z</time>
      </trkpt>
      <trkpt lat="48.65371" lon="7.73469">
        <ele>141.807739</ele>
        <time>2010-07-03T10:11:43Z</time>
      </trkpt>
      <trkpt lat="48.65358" lon="7.73481">
        <ele>141.581177</ele>
        <time>2010-07-03T10:11:46Z</time>
      </trkpt>
      <trkpt lat="48.65345" lon="7.73492">
        <ele>141.741333</ele>
        <time>2010-07-03T10:11:49Z</time>
      </trkpt>
      <trkpt lat="48.65333" lon="7.73503">
        <ele>141.706177</ele>
        <time>2010-07-03T10:11:52Z</time>
      </trkpt>
      <trkpt lat="48.65321" lon="7.73514">
        <ele>141.823364</ele>
        <time>2010-07-03T10:11:55Z</time>
      </trkpt>
      <trkpt lat="48.65308" lon="7.73525">
        <ele>141.038208</ele>
        <time>2010-07-03T10:11:58Z</time>
      </trkpt>
      <trkpt lat="48.65295" lon="7.73536">
        <ele>141.049927</ele>
        <time>2010-07-03T10:12:01Z</time>
      </trkpt>
      <trkpt lat="48.65282" lon="7.73548">
        <ele>141.432739</ele>
        <time>2010-07-03T10:12:05Z</time>
      </trkpt>
      <trkpt lat="48.65268" lon="7.73556">
        <ele>141.631958</ele>
        <time>2010-07-03T10:12:13Z</time>
      </trkpt>
      <trkpt lat="48.65254" lon="7.73566">
        <ele>141.327271</ele>
        <time>2010-07-03T10:12:15Z</time>
      </trkpt>
      <trkpt lat="48.65237" lon="7.73585">
        <ele>141.831177</ele>
        <time>2010-07-03T10:12:18Z</time>
      </trkpt>
      <trkpt lat="48.65225" lon="7.73597">
        <ele>141.928833</ele>
        <time>2010-07-03T10:12:20Z</time>
      </trkpt>
      <trkpt lat="48.65213" lon="7.73607">
        <ele>141.588989</ele>
        <time>2010-07-03T10:12:23Z</time>
      </trkpt>
      <trkpt lat="48.652" lon="7.73617">
        <ele>140.807739</ele>
        <time>2010-07-03T10:12:26Z</time>
      </trkpt>
      <trkpt lat="48.65189" lon="7.73628">
        <ele>140.210083</ele>
        <time>2010-07-03T10:12:30Z</time>
      </trkpt>
      <trkpt lat="48.65178" lon="7.7364">
        <ele>139.870239</ele>
        <time>2010-07-03T10:12:33Z</time>
      </trkpt>
      <trkpt lat="48.65166" lon="7.73651">
        <ele>139.963989</ele>
        <time>2010-07-03T10:12:36Z</time>
      </trkpt>
      <trkpt lat="48.65154" lon="7.73662">
        <ele>140.542114</ele>
        <time>2010-07-03T10:12:40Z</time>
      </trkpt>
      <trkpt lat="48.65142" lon="7.73673">
        <ele>140.077271</ele>
        <time>2010-07-03T10:12:43Z</time>
      </trkpt>
      <trkpt lat="48.65128" lon="7.73687">
        <ele>139.768677</ele>
        <time>2010-07-03T10:12:47Z</time>
      </trkpt>
      <trkpt lat="48.65113" lon="7.737">
        <ele>139.397583</ele>
        <time>2010-07-03T10:12:51Z</time>
      </trkpt>
      <trkpt lat="48.65098" lon="7.73714">
        <ele>139.413208</ele>
        <time>2010-07-03T10:12:55Z</time>
      </trkpt>
      <trkpt lat="48.65083" lon="7.73727">
        <ele>139.620239</ele>
        <time>2010-07-03T10:12:59Z</time>
      </trkpt>
      <trkpt lat="48.65069" lon="7.7374">
        <ele>139.506958</ele>
        <time>2010-07-03T10:13:03Z</time>
      </trkpt>
      <trkpt lat="48.65057" lon="7.73751">
        <ele>139.362427</ele>
        <time>2010-07-03T10:13:06Z</time>
      </trkpt>
      <trkpt lat="48.65046" lon="7.73761">
        <ele>139.010864</ele>
        <time>2010-07-03T10:13:09Z</time>
      </trkpt>
      <trkpt lat="48.65035" lon="7.73773">
        <ele>138.725708</ele>
        <time>2010-07-03T10:13:12Z</time>
      </trkpt>
      <trkpt lat="48.65023" lon="7.73784">
        <ele>138.956177</ele>
        <time>2010-07-03T10:13:15Z</time>
      </trkpt>
      <trkpt lat="48.65008" lon="7.73797">
        <ele>139.108521</ele>
        <time>2010-07-03T10:13:19Z</time>
      </trkpt>
      <trkpt lat="48.64996" lon="7.73808">
        <ele>139.163208</ele>
        <time>2010-07-03T10:13:22Z</time>
      </trkpt>
      <trkpt lat="48.64985" lon="7.73819">
        <ele>139.085083</ele>
        <time>2010-07-03T10:13:25Z</time>
      </trkpt>
      <trkpt lat="48.6497" lon="7.73834">
        <ele>139.096802</ele>
        <time>2010-07-03T10:13:29Z</time>
      </trkpt>
      <trkpt lat="48.64957" lon="7.73846">
        <ele>139.124146</ele>
        <time>2010-07-03T10:13:33Z</time>
      </trkpt>
      <trkpt lat="48.64942" lon="7.73856">
        <ele>139.233521</ele>
        <time>2010-07-03T10:13:37Z</time>
      </trkpt>
      <trkpt lat="48.64928" lon="7.73867">
        <ele>139.249146</ele>
        <time>2010-07-03T10:13:41Z</time>
      </trkpt>
      <trkpt lat="48.64917" lon="7.73878">
        <ele>139.405396</ele>
        <time>2010-07-03T10:13:45Z</time>
      </trkpt>
      <trkpt lat="48.64905" lon="7.73889">
        <ele>139.682739</ele>
        <time>2010-07-03T10:13:49Z</time>
      </trkpt>
      <trkpt lat="48.64891" lon="7.73902">
        <ele>139.620239</ele>
        <time>2010-07-03T10:13:53Z</time>
      </trkpt>
      <trkpt lat="48.64876" lon="7.73916">
        <ele>139.995239</ele>
        <time>2010-07-03T10:13:57Z</time>
      </trkpt>
      <trkpt lat="48.64861" lon="7.73929">
        <ele>139.514771</ele>
        <time>2010-07-03T10:14:01Z</time>
      </trkpt>
      <trkpt lat="48.64846" lon="7.73942">
        <ele>140.014771</ele>
        <time>2010-07-03T10:14:05Z</time>
      </trkpt>
      <trkpt lat="48.64835" lon="7.73953">
        <ele>139.862427</ele>
        <time>2010-07-03T10:14:08Z</time>
      </trkpt>
      <trkpt lat="48.64823" lon="7.73963">
        <ele>139.682739</ele>
        <time>2010-07-03T10:14:11Z</time>
      </trkpt>
      <trkpt lat="48.64809" lon="7.73972">
        <ele>139.909302</ele>
        <time>2010-07-03T10:14:14Z</time>
      </trkpt>
      <trkpt lat="48.64796" lon="7.73982">
        <ele>139.784302</ele>
        <time>2010-07-03T10:14:17Z</time>
      </trkpt>
      <trkpt lat="48.64782" lon="7.73993">
        <ele>140.674927</ele>
        <time>2010-07-03T10:14:21Z</time>
      </trkpt>
      <trkpt lat="48.64769" lon="7.74001">
        <ele>141.518677</ele>
        <time>2010-07-03T10:14:30Z</time>
      </trkpt>
      <trkpt lat="48.64758" lon="7.74016">
        <ele>140.479614</ele>
        <time>2010-07-03T10:16:36Z</time>
      </trkpt>
      <trkpt lat="48.64744" lon="7.7403">
        <ele>138.772583</ele>
        <time>2010-07-03T10:16:41Z</time>
      </trkpt>
      <trkpt lat="48.64731" lon="7.74043">
        <ele>138.178833</ele>
        <time>2010-07-03T10:16:44Z</time>
      </trkpt>
      <trkpt lat="48.64716" lon="7.74055">
        <ele>138.557739</ele>
        <time>2010-07-03T10:16:47Z</time>
      </trkpt>
      <trkpt lat="48.64703" lon="7.74066">
        <ele>139.042114</ele>
        <time>2010-07-03T10:16:50Z</time>
      </trkpt>
      <trkpt lat="48.6469" lon="7.74078">
        <ele>139.460083</ele>
        <time>2010-07-03T10:16:53Z</time>
      </trkpt>
      <trkpt lat="48.64678" lon="7.74089">
        <ele>139.858521</ele>
        <time>2010-07-03T10:16:56Z</time>
      </trkpt>
      <trkpt lat="48.64663" lon="7.74102">
        <ele>139.901489</ele>
        <time>2010-07-03T10:17:00Z</time>
      </trkpt>
      <trkpt lat="48.64648" lon="7.74116">
        <ele>140.331177</ele>
        <time>2010-07-03T10:17:04Z</time>
      </trkpt>
      <trkpt lat="48.64633" lon="7.74131">
        <ele>140.288208</ele>
        <time>2010-07-03T10:17:08Z</time>
      </trkpt>
      <trkpt lat="48.64618" lon="7.74144">
        <ele>140.249146</ele>
        <time>2010-07-03T10:17:12Z</time>
      </trkpt>
      <trkpt lat="48.64603" lon="7.74158">
        <ele>140.299927</ele>
        <time>2010-07-03T10:17:16Z</time>
      </trkpt>
      <trkpt lat="48.64588" lon="7.74171">
        <ele>140.135864</ele>
        <time>2010-07-03T10:17:20Z</time>
      </trkpt>
      <trkpt lat="48.64573" lon="7.74185">
        <ele>140.647583</ele>
        <time>2010-07-03T10:17:24Z</time>
      </trkpt>
      <trkpt lat="48.64558" lon="7.74198">
        <ele>140.940552</ele>
        <time>2010-07-03T10:17:28Z</time>
      </trkpt>
      <trkpt lat="48.64544" lon="7.74211">
        <ele>141.362427</ele>
        <time>2010-07-03T10:17:32Z</time>
      </trkpt>
      <trkpt lat="48.6453" lon="7.74223">
        <ele>142.088989</ele>
        <time>2010-07-03T10:17:36Z</time>
      </trkpt>
      <trkpt lat="48.64516" lon="7.74235">
        <ele>142.409302</ele>
        <time>2010-07-03T10:17:40Z</time>
      </trkpt>
      <trkpt lat="48.64502" lon="7.74247">
        <ele>142.342896</ele>
        <time>2010-07-03T10:17:44Z</time>
      </trkpt>
      <trkpt lat="48.64487" lon="7.7426">
        <ele>141.967896</ele>
        <time>2010-07-03T10:17:48Z</time>
      </trkpt>
      <trkpt lat="48.64472" lon="7.74274">
        <ele>141.995239</ele>
        <time>2010-07-03T10:17:52Z</time>
      </trkpt>
      <trkpt lat="48.6446" lon="7.74284">
        <ele>141.881958</ele>
        <time>2010-07-03T10:17:55Z</time>
      </trkpt>
      <trkpt lat="48.64449" lon="7.74294">
        <ele>142.081177</ele>
        <time>2010-07-03T10:17:58Z</time>
      </trkpt>
      <trkpt lat="48.64437" lon="7.74304">
        <ele>142.319458</ele>
        <time>2010-07-03T10:18:01Z</time>
      </trkpt>
      <trkpt lat="48.64425" lon="7.74315">
        <ele>142.307739</ele>
        <time>2010-07-03T10:18:04Z</time>
      </trkpt>
      <trkpt lat="48.64413" lon="7.74327">
        <ele>142.022583</ele>
        <time>2010-07-03T10:18:07Z</time>
      </trkpt>
      <trkpt lat="48.64401" lon="7.74339">
        <ele>141.936646</ele>
        <time>2010-07-03T10:18:10Z</time>
      </trkpt>
      <trkpt lat="48.64389" lon="7.7435">
        <ele>141.647583</ele>
        <time>2010-07-03T10:18:13Z</time>
      </trkpt>
      <trkpt lat="48.64378" lon="7.74363">
        <ele>141.421021</ele>
        <time>2010-07-03T10:18:16Z</time>
      </trkpt>
      <trkpt lat="48.64367" lon="7.74376">
        <ele>141.366333</ele>
        <time>2010-07-03T10:18:19Z</time>
      </trkpt>
      <trkpt lat="48.64351" lon="7.74383">
        <ele>140.674927</ele>
        <time>2010-07-03T10:18:23Z</time>
      </trkpt>
      <trkpt lat="48.64336" lon="7.74387">
        <ele>141.784302</ele>
        <time>2010-07-03T10:18:28Z</time>
      </trkpt>
      <trkpt lat="48.64342" lon="7.74408">
        <ele>143.518677</ele>
        <time>2010-07-03T10:18:57Z</time>
      </trkpt>
      <trkpt lat="48.64349" lon="7.74426">
        <ele>142.202271</ele>
        <time>2010-07-03T10:19:04Z</time>
      </trkpt>
      <trkpt lat="48.64338" lon="7.74439">
        <ele>140.803833</ele>
        <time>2010-07-03T10:19:45Z</time>
      </trkpt>
      <trkpt lat="48.64323" lon="7.74448">
        <ele>140.034302</ele>
        <time>2010-07-03T10:19:49Z</time>
      </trkpt>
      <trkpt lat="48.64307" lon="7.74459">
        <ele>138.592896</ele>
        <time>2010-07-03T10:19:53Z</time>
      </trkpt>
      <trkpt lat="48.64295" lon="7.74468">
        <ele>138.702271</ele>
        <time>2010-07-03T10:19:56Z</time>
      </trkpt>
      <trkpt lat="48.64283" lon="7.74479">
        <ele>138.803833</ele>
        <time>2010-07-03T10:19:59Z</time>
      </trkpt>
      <trkpt lat="48.64271" lon="7.7449">
        <ele>138.674927</ele>
        <time>2010-07-03T10:20:02Z</time>
      </trkpt>
      <trkpt lat="48.64258" lon="7.74503">
        <ele>138.366333</ele>
        <time>2010-07-03T10:20:05Z</time>
      </trkpt>
      <trkpt lat="48.64245" lon="7.74515">
        <ele>138.213989</ele>
        <time>2010-07-03T10:20:08Z</time>
      </trkpt>
      <trkpt lat="48.64232" lon="7.74527">
        <ele>137.999146</ele>
        <time>2010-07-03T10:20:11Z</time>
      </trkpt>
      <trkpt lat="48.64218" lon="7.74538">
        <ele>137.979614</ele>
        <time>2010-07-03T10:20:14Z</time>
      </trkpt>
      <trkpt lat="48.64205" lon="7.74549">
        <ele>138.487427</ele>
        <time>2010-07-03T10:20:17Z</time>
      </trkpt>
      <trkpt lat="48.64193" lon="7.74561">
        <ele>138.428833</ele>
        <time>2010-07-03T10:20:20Z</time>
      </trkpt>
      <trkpt lat="48.64181" lon="7.74571">
        <ele>138.631958</ele>
        <time>2010-07-03T10:20:23Z</time>
      </trkpt>
      <trkpt lat="48.64168" lon="7.74582">
        <ele>138.913208</ele>
        <time>2010-07-03T10:20:26Z</time>
      </trkpt>
      <trkpt lat="48.64156" lon="7.74592">
        <ele>139.608521</ele>
        <time>2010-07-03T10:20:29Z</time>
      </trkpt>
      <trkpt lat="48.64143" lon="7.74604">
        <ele>139.503052</ele>
        <time>2010-07-03T10:20:32Z</time>
      </trkpt>
      <trkpt lat="48.64131" lon="7.74615">
        <ele>139.233521</ele>
        <time>2010-07-03T10:20:35Z</time>
      </trkpt>
      <trkpt lat="48.64119" lon="7.74626">
        <ele>139.323364</ele>
        <time>2010-07-03T10:20:38Z</time>
      </trkpt>
      <trkpt lat="48.64107" lon="7.74638">
        <ele>139.120239</ele>
        <time>2010-07-03T10:20:41Z</time>
      </trkpt>
      <trkpt lat="48.64095" lon="7.74649">
        <ele>138.948364</ele>
        <time>2010-07-03T10:20:44Z</time>
      </trkpt>
      <trkpt lat="48.64082" lon="7.74659">
        <ele>138.424927</ele>
        <time>2010-07-03T10:20:47Z</time>
      </trkpt>
      <trkpt lat="48.6407" lon="7.74669">
        <ele>138.780396</ele>
        <time>2010-07-03T10:20:50Z</time>
      </trkpt>
      <trkpt lat="48.64058" lon="7.74681">
        <ele>138.764771</ele>
        <time>2010-07-03T10:20:53Z</time>
      </trkpt>
      <trkpt lat="48.64045" lon="7.74691">
        <ele>138.725708</ele>
        <time>2010-07-03T10:20:56Z</time>
      </trkpt>
      <trkpt lat="48.64034" lon="7.74703">
        <ele>138.686646</ele>
        <time>2010-07-03T10:20:59Z</time>
      </trkpt>
      <trkpt lat="48.64021" lon="7.74713">
        <ele>138.960083</ele>
        <time>2010-07-03T10:21:02Z</time>
      </trkpt>
      <trkpt lat="48.6401" lon="7.74723">
        <ele>138.870239</ele>
        <time>2010-07-03T10:21:05Z</time>
      </trkpt>
      <trkpt lat="48.63997" lon="7.74733">
        <ele>138.733521</ele>
        <time>2010-07-03T10:21:08Z</time>
      </trkpt>
      <trkpt lat="48.63985" lon="7.74743">
        <ele>138.510864</ele>
        <time>2010-07-03T10:21:11Z</time>
      </trkpt>
      <trkpt lat="48.63972" lon="7.74754">
        <ele>138.565552</ele>
        <time>2010-07-03T10:21:14Z</time>
      </trkpt>
      <trkpt lat="48.6396" lon="7.74766">
        <ele>138.694458</ele>
        <time>2010-07-03T10:21:17Z</time>
      </trkpt>
      <trkpt lat="48.63948" lon="7.74777">
        <ele>138.592896</ele>
        <time>2010-07-03T10:21:20Z</time>
      </trkpt>
      <trkpt lat="48.63937" lon="7.74788">
        <ele>138.647583</ele>
        <time>2010-07-03T10:21:23Z</time>
      </trkpt>
      <trkpt lat="48.63924" lon="7.74798">
        <ele>138.581177</ele>
        <time>2010-07-03T10:21:26Z</time>
      </trkpt>
      <trkpt lat="48.63913" lon="7.7481">
        <ele>138.737427</ele>
        <time>2010-07-03T10:21:29Z</time>
      </trkpt>
      <trkpt lat="48.63897" lon="7.74823">
        <ele>138.553833</ele>
        <time>2010-07-03T10:21:33Z</time>
      </trkpt>
      <trkpt lat="48.63885" lon="7.74833">
        <ele>139.174927</ele>
        <time>2010-07-03T10:21:36Z</time>
      </trkpt>
      <trkpt lat="48.63872" lon="7.74842">
        <ele>139.393677</ele>
        <time>2010-07-03T10:21:39Z</time>
      </trkpt>
      <trkpt lat="48.63857" lon="7.74856">
        <ele>139.631958</ele>
        <time>2010-07-03T10:21:43Z</time>
      </trkpt>
      <trkpt lat="48.63845" lon="7.74867">
        <ele>139.776489</ele>
        <time>2010-07-03T10:21:46Z</time>
      </trkpt>
      <trkpt lat="48.63833" lon="7.74878">
        <ele>139.741333</ele>
        <time>2010-07-03T10:21:49Z</time>
      </trkpt>
      <trkpt lat="48.63821" lon="7.74889">
        <ele>139.725708</ele>
        <time>2010-07-03T10:21:52Z</time>
      </trkpt>
      <trkpt lat="48.6381" lon="7.749">
        <ele>139.631958</ele>
        <time>2010-07-03T10:21:55Z</time>
      </trkpt>
      <trkpt lat="48.63798" lon="7.74911">
        <ele>139.971802</ele>
        <time>2010-07-03T10:21:58Z</time>
      </trkpt>
      <trkpt lat="48.63786" lon="7.74922">
        <ele>140.221802</ele>
        <time>2010-07-03T10:22:01Z</time>
      </trkpt>
      <trkpt lat="48.6377" lon="7.74934">
        <ele>140.721802</ele>
        <time>2010-07-03T10:22:05Z</time>
      </trkpt>
      <trkpt lat="48.63755" lon="7.74946">
        <ele>140.838989</ele>
        <time>2010-07-03T10:22:09Z</time>
      </trkpt>
      <trkpt lat="48.63741" lon="7.74956">
        <ele>141.276489</ele>
        <time>2010-07-03T10:22:13Z</time>
      </trkpt>
      <trkpt lat="48.63729" lon="7.74965">
        <ele>141.749146</ele>
        <time>2010-07-03T10:22:17Z</time>
      </trkpt>
      <trkpt lat="48.63715" lon="7.74974">
        <ele>142.585083</ele>
        <time>2010-07-03T10:22:22Z</time>
      </trkpt>
      <trkpt lat="48.63701" lon="7.74982">
        <ele>142.616333</ele>
        <time>2010-07-03T10:22:28Z</time>
      </trkpt>
      <trkpt lat="48.63687" lon="7.74992">
        <ele>143.417114</ele>
        <time>2010-07-03T10:22:33Z</time>
      </trkpt>
      <trkpt lat="48.63673" lon="7.75003">
        <ele>143.475708</ele>
        <time>2010-07-03T10:22:37Z</time>
      </trkpt>
      <trkpt lat="48.63659" lon="7.75013">
        <ele>143.233521</ele>
        <time>2010-07-03T10:22:41Z</time>
      </trkpt>
      <trkpt lat="48.63646" lon="7.75022">
        <ele>143.229614</ele>
        <time>2010-07-03T10:22:45Z</time>
      </trkpt>
      <trkpt lat="48.63632" lon="7.75031">
        <ele>143.436646</ele>
        <time>2010-07-03T10:22:49Z</time>
      </trkpt>
      <trkpt lat="48.63619" lon="7.7504">
        <ele>143.393677</ele>
        <time>2010-07-03T10:22:53Z</time>
      </trkpt>
      <trkpt lat="48.63605" lon="7.7505">
        <ele>143.417114</ele>
        <time>2010-07-03T10:22:57Z</time>
      </trkpt>
      <trkpt lat="48.63591" lon="7.75059">
        <ele>142.991333</ele>
        <time>2010-07-03T10:23:01Z</time>
      </trkpt>
      <trkpt lat="48.63577" lon="7.75071">
        <ele>142.631958</ele>
        <time>2010-07-03T10:23:05Z</time>
      </trkpt>
      <trkpt lat="48.63563" lon="7.75082">
        <ele>142.210083</ele>
        <time>2010-07-03T10:23:09Z</time>
      </trkpt>
      <trkpt lat="48.63549" lon="7.75096">
        <ele>141.585083</ele>
        <time>2010-07-03T10:23:13Z</time>
      </trkpt>
      <trkpt lat="48.63535" lon="7.7511">
        <ele>141.475708</ele>
        <time>2010-07-03T10:23:17Z</time>
      </trkpt>
      <trkpt lat="48.63522" lon="7.75126">
        <ele>141.413208</ele>
        <time>2010-07-03T10:23:21Z</time>
      </trkpt>
      <trkpt lat="48.63511" lon="7.75141">
        <ele>140.092896</ele>
        <time>2010-07-03T10:23:25Z</time>
      </trkpt>
      <trkpt lat="48.635" lon="7.75159">
        <ele>138.967896</ele>
        <time>2010-07-03T10:23:29Z</time>
      </trkpt>
      <trkpt lat="48.63488" lon="7.75177">
        <ele>138.284302</ele>
        <time>2010-07-03T10:23:33Z</time>
      </trkpt>
      <trkpt lat="48.63478" lon="7.75196">
        <ele>138.003052</ele>
        <time>2010-07-03T10:23:37Z</time>
      </trkpt>
      <trkpt lat="48.63468" lon="7.75216">
        <ele>137.717896</ele>
        <time>2010-07-03T10:23:41Z</time>
      </trkpt>
      <trkpt lat="48.6346" lon="7.75235">
        <ele>137.120239</ele>
        <time>2010-07-03T10:23:45Z</time>
      </trkpt>
      <trkpt lat="48.63452" lon="7.75256">
        <ele>137.253052</ele>
        <time>2010-07-03T10:23:49Z</time>
      </trkpt>
      <trkpt lat="48.63444" lon="7.75277">
        <ele>136.460083</ele>
        <time>2010-07-03T10:23:53Z</time>
      </trkpt>
      <trkpt lat="48.63435" lon="7.75297">
        <ele>136.229614</ele>
        <time>2010-07-03T10:23:57Z</time>
      </trkpt>
      <trkpt lat="48.63427" lon="7.75316">
        <ele>136.053833</ele>
        <time>2010-07-03T10:24:01Z</time>
      </trkpt>
      <trkpt lat="48.63417" lon="7.75333">
        <ele>135.768677</ele>
        <time>2010-07-03T10:24:05Z</time>
      </trkpt>
      <trkpt lat="48.63406" lon="7.75349">
        <ele>136.081177</ele>
        <time>2010-07-03T10:24:09Z</time>
      </trkpt>
      <trkpt lat="48.63395" lon="7.75364">
        <ele>136.120239</ele>
        <time>2010-07-03T10:24:14Z</time>
      </trkpt>
      <trkpt lat="48.63387" lon="7.75381">
        <ele>136.702271</ele>
        <time>2010-07-03T10:24:19Z</time>
      </trkpt>
      <trkpt lat="48.6338" lon="7.75399">
        <ele>139.022583</ele>
        <time>2010-07-03T10:24:42Z</time>
      </trkpt>
      <trkpt lat="48.63369" lon="7.75414">
        <ele>139.003052</ele>
        <time>2010-07-03T10:24:59Z</time>
      </trkpt>
      <trkpt lat="48.63358" lon="7.75431">
        <ele>137.878052</ele>
        <time>2010-07-03T10:25:05Z</time>
      </trkpt>
      <trkpt lat="48.63348" lon="7.75447">
        <ele>135.956177</ele>
        <time>2010-07-03T10:25:08Z</time>
      </trkpt>
      <trkpt lat="48.63335" lon="7.75464">
        <ele>135.651489</ele>
        <time>2010-07-03T10:25:11Z</time>
      </trkpt>
      <trkpt lat="48.63322" lon="7.75481">
        <ele>135.413208</ele>
        <time>2010-07-03T10:25:14Z</time>
      </trkpt>
      <trkpt lat="48.63311" lon="7.75498">
        <ele>135.405396</ele>
        <time>2010-07-03T10:25:17Z</time>
      </trkpt>
      <trkpt lat="48.63298" lon="7.75513">
        <ele>135.229614</ele>
        <time>2010-07-03T10:25:20Z</time>
      </trkpt>
      <trkpt lat="48.63287" lon="7.75526">
        <ele>135.436646</ele>
        <time>2010-07-03T10:25:23Z</time>
      </trkpt>
      <trkpt lat="48.63274" lon="7.75538">
        <ele>135.780396</ele>
        <time>2010-07-03T10:25:26Z</time>
      </trkpt>
      <trkpt lat="48.63262" lon="7.75548">
        <ele>136.421021</ele>
        <time>2010-07-03T10:25:29Z</time>
      </trkpt>
      <trkpt lat="48.63246" lon="7.75561">
        <ele>137.030396</ele>
        <time>2010-07-03T10:25:33Z</time>
      </trkpt>
      <trkpt lat="48.63231" lon="7.75571">
        <ele>137.706177</ele>
        <time>2010-07-03T10:25:37Z</time>
      </trkpt>
      <trkpt lat="48.63214" lon="7.75581">
        <ele>137.378052</ele>
        <time>2010-07-03T10:25:41Z</time>
      </trkpt>
      <trkpt lat="48.63197" lon="7.75589">
        <ele>137.475708</ele>
        <time>2010-07-03T10:25:45Z</time>
      </trkpt>
      <trkpt lat="48.63181" lon="7.75596">
        <ele>137.842896</ele>
        <time>2010-07-03T10:25:49Z</time>
      </trkpt>
      <trkpt lat="48.63167" lon="7.75601">
        <ele>138.120239</ele>
        <time>2010-07-03T10:25:52Z</time>
      </trkpt>
      <trkpt lat="48.63153" lon="7.75604">
        <ele>137.889771</ele>
        <time>2010-07-03T10:25:55Z</time>
      </trkpt>
      <trkpt lat="48.63139" lon="7.75607">
        <ele>138.213989</ele>
        <time>2010-07-03T10:25:58Z</time>
      </trkpt>
      <trkpt lat="48.63125" lon="7.75609">
        <ele>138.760864</ele>
        <time>2010-07-03T10:26:01Z</time>
      </trkpt>
      <trkpt lat="48.63109" lon="7.75609">
        <ele>139.428833</ele>
        <time>2010-07-03T10:26:04Z</time>
      </trkpt>
      <trkpt lat="48.63093" lon="7.75608">
        <ele>140.342896</ele>
        <time>2010-07-03T10:26:07Z</time>
      </trkpt>
      <trkpt lat="48.63079" lon="7.75608">
        <ele>139.202271</ele>
        <time>2010-07-03T10:26:10Z</time>
      </trkpt>
      <trkpt lat="48.63063" lon="7.75607">
        <ele>139.264771</ele>
        <time>2010-07-03T10:26:13Z</time>
      </trkpt>
      <trkpt lat="48.63047" lon="7.75602">
        <ele>139.866333</ele>
        <time>2010-07-03T10:26:16Z</time>
      </trkpt>
      <trkpt lat="48.63034" lon="7.75597">
        <ele>140.362427</ele>
        <time>2010-07-03T10:26:19Z</time>
      </trkpt>
      <trkpt lat="48.63018" lon="7.7559">
        <ele>141.467896</ele>
        <time>2010-07-03T10:26:22Z</time>
      </trkpt>
      <trkpt lat="48.63004" lon="7.75583">
        <ele>141.491333</ele>
        <time>2010-07-03T10:26:25Z</time>
      </trkpt>
      <trkpt lat="48.6299" lon="7.75577">
        <ele>140.167114</ele>
        <time>2010-07-03T10:26:28Z</time>
      </trkpt>
      <trkpt lat="48.62977" lon="7.75567">
        <ele>139.624146</ele>
        <time>2010-07-03T10:26:31Z</time>
      </trkpt>
      <trkpt lat="48.62964" lon="7.75556">
        <ele>139.956177</ele>
        <time>2010-07-03T10:26:34Z</time>
      </trkpt>
      <trkpt lat="48.62951" lon="7.75544">
        <ele>141.159302</ele>
        <time>2010-07-03T10:26:37Z</time>
      </trkpt>
      <trkpt lat="48.62938" lon="7.75531">
        <ele>141.819458</ele>
        <time>2010-07-03T10:26:40Z</time>
      </trkpt>
      <trkpt lat="48.62925" lon="7.75517">
        <ele>142.342896</ele>
        <time>2010-07-03T10:26:43Z</time>
      </trkpt>
      <trkpt lat="48.62914" lon="7.75502">
        <ele>141.944458</ele>
        <time>2010-07-03T10:26:46Z</time>
      </trkpt>
      <trkpt lat="48.62902" lon="7.75487">
        <ele>141.225708</ele>
        <time>2010-07-03T10:26:49Z</time>
      </trkpt>
      <trkpt lat="48.6289" lon="7.75476">
        <ele>139.538208</ele>
        <time>2010-07-03T10:26:52Z</time>
      </trkpt>
      <trkpt lat="48.62878" lon="7.75465">
        <ele>141.256958</ele>
        <time>2010-07-03T10:26:55Z</time>
      </trkpt>
      <trkpt lat="48.62868" lon="7.75455">
        <ele>149.620239</ele>
        <time>2010-07-03T10:27:20Z</time>
      </trkpt>
      <trkpt lat="48.62854" lon="7.75452">
        <ele>149.081177</ele>
        <time>2010-07-03T10:27:28Z</time>
      </trkpt>
      <trkpt lat="48.62839" lon="7.75445">
        <ele>149.628052</ele>
        <time>2010-07-03T10:27:34Z</time>
      </trkpt>
      <trkpt lat="48.62823" lon="7.75438">
        <ele>149.428833</ele>
        <time>2010-07-03T10:27:39Z</time>
      </trkpt>
      <trkpt lat="48.62806" lon="7.75433">
        <ele>149.350708</ele>
        <time>2010-07-03T10:27:43Z</time>
      </trkpt>
      <trkpt lat="48.62793" lon="7.7543">
        <ele>149.284302</ele>
        <time>2010-07-03T10:27:46Z</time>
      </trkpt>
      <trkpt lat="48.62779" lon="7.75426">
        <ele>149.264771</ele>
        <time>2010-07-03T10:27:49Z</time>
      </trkpt>
      <trkpt lat="48.62763" lon="7.75423">
        <ele>148.878052</ele>
        <time>2010-07-03T10:27:52Z</time>
      </trkpt>
      <trkpt lat="48.62748" lon="7.75422">
        <ele>148.444458</ele>
        <time>2010-07-03T10:27:55Z</time>
      </trkpt>
      <trkpt lat="48.62733" lon="7.75425">
        <ele>148.862427</ele>
        <time>2010-07-03T10:27:58Z</time>
      </trkpt>
      <trkpt lat="48.62718" lon="7.75428">
        <ele>149.381958</ele>
        <time>2010-07-03T10:28:01Z</time>
      </trkpt>
      <trkpt lat="48.62705" lon="7.75432">
        <ele>149.288208</ele>
        <time>2010-07-03T10:28:04Z</time>
      </trkpt>
      <trkpt lat="48.62688" lon="7.75438">
        <ele>149.721802</ele>
        <time>2010-07-03T10:28:08Z</time>
      </trkpt>
      <trkpt lat="48.62674" lon="7.75438">
        <ele>149.319458</ele>
        <time>2010-07-03T10:28:12Z</time>
      </trkpt>
      <trkpt lat="48.62662" lon="7.75447">
        <ele>148.674927</ele>
        <time>2010-07-03T10:28:17Z</time>
      </trkpt>
      <trkpt lat="48.62658" lon="7.75468">
        <ele>146.936646</ele>
        <time>2010-07-03T10:28:23Z</time>
      </trkpt>
      <trkpt lat="48.62661" lon="7.75488">
        <ele>145.956177</ele>
        <time>2010-07-03T10:28:28Z</time>
      </trkpt>
      <trkpt lat="48.62665" lon="7.75511">
        <ele>145.315552</ele>
        <time>2010-07-03T10:28:33Z</time>
      </trkpt>
      <trkpt lat="48.62667" lon="7.75532">
        <ele>145.046021</ele>
        <time>2010-07-03T10:28:37Z</time>
      </trkpt>
      <trkpt lat="48.6267" lon="7.75556">
        <ele>144.600708</ele>
        <time>2010-07-03T10:28:42Z</time>
      </trkpt>
      <trkpt lat="48.62674" lon="7.75577">
        <ele>143.846802</ele>
        <time>2010-07-03T10:28:46Z</time>
      </trkpt>
      <trkpt lat="48.62669" lon="7.75597">
        <ele>143.182739</ele>
        <time>2010-07-03T10:28:50Z</time>
      </trkpt>
      <trkpt lat="48.62657" lon="7.75608">
        <ele>142.421021</ele>
        <time>2010-07-03T10:28:54Z</time>
      </trkpt>
      <trkpt lat="48.62644" lon="7.75615">
        <ele>142.315552</ele>
        <time>2010-07-03T10:28:58Z</time>
      </trkpt>
      <trkpt lat="48.62632" lon="7.75624">
        <ele>142.073364</ele>
        <time>2010-07-03T10:29:03Z</time>
      </trkpt>
      <trkpt lat="48.62617" lon="7.75629">
        <ele>141.651489</ele>
        <time>2010-07-03T10:29:09Z</time>
      </trkpt>
      <trkpt lat="48.62605" lon="7.75618">
        <ele>142.936646</ele>
        <time>2010-07-03T10:29:17Z</time>
      </trkpt>
      <trkpt lat="48.62597" lon="7.75602">
        <ele>144.233521</ele>
        <time>2010-07-03T10:29:22Z</time>
      </trkpt>
      <trkpt lat="48.62588" lon="7.75586">
        <ele>144.991333</ele>
        <time>2010-07-03T10:29:27Z</time>
      </trkpt>
      <trkpt lat="48.62579" lon="7.75568">
        <ele>145.772583</ele>
        <time>2010-07-03T10:29:32Z</time>
      </trkpt>
      <trkpt lat="48.62565" lon="7.7557">
        <ele>144.096802</ele>
        <time>2010-07-03T10:30:00Z</time>
      </trkpt>
      <trkpt lat="48.62552" lon="7.75575">
        <ele>142.034302</ele>
        <time>2010-07-03T10:31:02Z</time>
      </trkpt>
      <trkpt lat="48.62542" lon="7.75591">
        <ele>141.479614</ele>
        <time>2010-07-03T10:31:09Z</time>
      </trkpt>
      <trkpt lat="48.62531" lon="7.75607">
        <ele>140.565552</ele>
        <time>2010-07-03T10:31:16Z</time>
      </trkpt>
      <trkpt lat="48.62519" lon="7.75623">
        <ele>139.745239</ele>
        <time>2010-07-03T10:31:22Z</time>
      </trkpt>
      <trkpt lat="48.62506" lon="7.75639">
        <ele>139.417114</ele>
        <time>2010-07-03T10:31:27Z</time>
      </trkpt>
      <trkpt lat="48.62495" lon="7.75654">
        <ele>138.917114</ele>
        <time>2010-07-03T10:31:31Z</time>
      </trkpt>
      <trkpt lat="48.62483" lon="7.75669">
        <ele>137.991333</ele>
        <time>2010-07-03T10:31:35Z</time>
      </trkpt>
      <trkpt lat="48.62471" lon="7.75682">
        <ele>137.788208</ele>
        <time>2010-07-03T10:31:39Z</time>
      </trkpt>
      <trkpt lat="48.6246" lon="7.75696">
        <ele>138.631958</ele>
        <time>2010-07-03T10:31:43Z</time>
      </trkpt>
      <trkpt lat="48.62447" lon="7.75712">
        <ele>138.436646</ele>
        <time>2010-07-03T10:31:47Z</time>
      </trkpt>
      <trkpt lat="48.62434" lon="7.75728">
        <ele>137.858521</ele>
        <time>2010-07-03T10:31:51Z</time>
      </trkpt>
      <trkpt lat="48.62422" lon="7.75746">
        <ele>137.151489</ele>
        <time>2010-07-03T10:31:55Z</time>
      </trkpt>
      <trkpt lat="48.62409" lon="7.75762">
        <ele>137.120239</ele>
        <time>2010-07-03T10:31:59Z</time>
      </trkpt>
      <trkpt lat="48.62398" lon="7.75779">
        <ele>137.003052</ele>
        <time>2010-07-03T10:32:03Z</time>
      </trkpt>
      <trkpt lat="48.62385" lon="7.75796">
        <ele>136.796021</ele>
        <time>2010-07-03T10:32:07Z</time>
      </trkpt>
      <trkpt lat="48.62375" lon="7.75809">
        <ele>136.022583</ele>
        <time>2010-07-03T10:32:10Z</time>
      </trkpt>
      <trkpt lat="48.62362" lon="7.75826">
        <ele>135.565552</ele>
        <time>2010-07-03T10:32:14Z</time>
      </trkpt>
      <trkpt lat="48.62349" lon="7.75843">
        <ele>135.323364</ele>
        <time>2010-07-03T10:32:18Z</time>
      </trkpt>
      <trkpt lat="48.62337" lon="7.7586">
        <ele>135.163208</ele>
        <time>2010-07-03T10:32:22Z</time>
      </trkpt>
      <trkpt lat="48.62325" lon="7.75875">
        <ele>135.108521</ele>
        <time>2010-07-03T10:32:26Z</time>
      </trkpt>
      <trkpt lat="48.62312" lon="7.75892">
        <ele>134.702271</ele>
        <time>2010-07-03T10:32:31Z</time>
      </trkpt>
      <trkpt lat="48.62302" lon="7.75904">
        <ele>136.409302</ele>
        <time>2010-07-03T10:32:35Z</time>
      </trkpt>
      <trkpt lat="48.62291" lon="7.75918">
        <ele>137.643677</ele>
        <time>2010-07-03T10:32:41Z</time>
      </trkpt>
      <trkpt lat="48.6228" lon="7.7593">
        <ele>137.428833</ele>
        <time>2010-07-03T10:32:46Z</time>
      </trkpt>
      <trkpt lat="48.62267" lon="7.75946">
        <ele>138.088989</ele>
        <time>2010-07-03T10:32:51Z</time>
      </trkpt>
      <trkpt lat="48.62257" lon="7.7596">
        <ele>138.003052</ele>
        <time>2010-07-03T10:32:55Z</time>
      </trkpt>
      <trkpt lat="48.62246" lon="7.75974">
        <ele>138.077271</ele>
        <time>2010-07-03T10:32:59Z</time>
      </trkpt>
      <trkpt lat="48.62236" lon="7.75988">
        <ele>137.585083</ele>
        <time>2010-07-03T10:33:03Z</time>
      </trkpt>
      <trkpt lat="48.62224" lon="7.76002">
        <ele>137.413208</ele>
        <time>2010-07-03T10:33:07Z</time>
      </trkpt>
      <trkpt lat="48.62211" lon="7.76015">
        <ele>137.288208</ele>
        <time>2010-07-03T10:33:11Z</time>
      </trkpt>
      <trkpt lat="48.62198" lon="7.76028">
        <ele>136.885864</ele>
        <time>2010-07-03T10:33:15Z</time>
      </trkpt>
      <trkpt lat="48.62184" lon="7.7604">
        <ele>136.491333</ele>
        <time>2010-07-03T10:33:19Z</time>
      </trkpt>
      <trkpt lat="48.6217" lon="7.76052">
        <ele>136.682739</ele>
        <time>2010-07-03T10:33:23Z</time>
      </trkpt>
      <trkpt lat="48.62155" lon="7.76062">
        <ele>136.741333</ele>
        <time>2010-07-03T10:33:27Z</time>
      </trkpt>
      <trkpt lat="48.62141" lon="7.76071">
        <ele>137.088989</ele>
        <time>2010-07-03T10:33:31Z</time>
      </trkpt>
      <trkpt lat="48.62127" lon="7.76075">
        <ele>135.561646</ele>
        <time>2010-07-03T10:33:36Z</time>
      </trkpt>
      <trkpt lat="48.62114" lon="7.76084">
        <ele>134.776489</ele>
        <time>2010-07-03T10:33:40Z</time>
      </trkpt>
      <trkpt lat="48.621" lon="7.76093">
        <ele>135.479614</ele>
        <time>2010-07-03T10:33:44Z</time>
      </trkpt>
      <trkpt lat="48.62085" lon="7.76098">
        <ele>135.776489</ele>
        <time>2010-07-03T10:33:48Z</time>
      </trkpt>
      <trkpt lat="48.6207" lon="7.76103">
        <ele>136.155396</ele>
        <time>2010-07-03T10:33:52Z</time>
      </trkpt>
      <trkpt lat="48.62054" lon="7.76106">
        <ele>136.381958</ele>
        <time>2010-07-03T10:33:56Z</time>
      </trkpt>
      <trkpt lat="48.62038" lon="7.76109">
        <ele>137.217896</ele>
        <time>2010-07-03T10:34:00Z</time>
      </trkpt>
      <trkpt lat="48.62022" lon="7.76111">
        <ele>137.885864</ele>
        <time>2010-07-03T10:34:04Z</time>
      </trkpt>
      <trkpt lat="48.62005" lon="7.76111">
        <ele>138.573364</ele>
        <time>2010-07-03T10:34:09Z</time>
      </trkpt>
      <trkpt lat="48.61989" lon="7.76113">
        <ele>139.522583</ele>
        <time>2010-07-03T10:34:14Z</time>
      </trkpt>
      <trkpt lat="48.61975" lon="7.76115">
        <ele>139.655396</ele>
        <time>2010-07-03T10:34:19Z</time>
      </trkpt>
      <trkpt lat="48.61962" lon="7.76116">
        <ele>139.819458</ele>
        <time>2010-07-03T10:34:23Z</time>
      </trkpt>
      <trkpt lat="48.61947" lon="7.76119">
        <ele>139.174927</ele>
        <time>2010-07-03T10:34:28Z</time>
      </trkpt>
      <trkpt lat="48.61932" lon="7.76121">
        <ele>139.483521</ele>
        <time>2010-07-03T10:34:32Z</time>
      </trkpt>
      <trkpt lat="48.61916" lon="7.76124">
        <ele>138.764771</ele>
        <time>2010-07-03T10:34:36Z</time>
      </trkpt>
      <trkpt lat="48.619" lon="7.76127">
        <ele>138.819458</ele>
        <time>2010-07-03T10:34:40Z</time>
      </trkpt>
      <trkpt lat="48.61883" lon="7.76128">
        <ele>139.085083</ele>
        <time>2010-07-03T10:34:44Z</time>
      </trkpt>
      <trkpt lat="48.61869" lon="7.76131">
        <ele>138.905396</ele>
        <time>2010-07-03T10:34:48Z</time>
      </trkpt>
      <trkpt lat="48.61853" lon="7.76132">
        <ele>138.342896</ele>
        <time>2010-07-03T10:34:52Z</time>
      </trkpt>
      <trkpt lat="48.61836" lon="7.76135">
        <ele>138.006958</ele>
        <time>2010-07-03T10:34:56Z</time>
      </trkpt>
      <trkpt lat="48.61819" lon="7.76138">
        <ele>137.854614</ele>
        <time>2010-07-03T10:35:00Z</time>
      </trkpt>
      <trkpt lat="48.61802" lon="7.7614">
        <ele>137.471802</ele>
        <time>2010-07-03T10:35:04Z</time>
      </trkpt>
      <trkpt lat="48.61784" lon="7.76143">
        <ele>137.296021</ele>
        <time>2010-07-03T10:35:08Z</time>
      </trkpt>
      <trkpt lat="48.6177" lon="7.76145">
        <ele>137.069458</ele>
        <time>2010-07-03T10:35:11Z</time>
      </trkpt>
      <trkpt lat="48.61753" lon="7.76147">
        <ele>137.245239</ele>
        <time>2010-07-03T10:35:15Z</time>
      </trkpt>
      <trkpt lat="48.61736" lon="7.76149">
        <ele>137.456177</ele>
        <time>2010-07-03T10:35:19Z</time>
      </trkpt>
      <trkpt lat="48.61722" lon="7.76151">
        <ele>137.647583</ele>
        <time>2010-07-03T10:35:22Z</time>
      </trkpt>
      <trkpt lat="48.61705" lon="7.76153">
        <ele>138.221802</ele>
        <time>2010-07-03T10:35:26Z</time>
      </trkpt>
      <trkpt lat="48.61688" lon="7.76155">
        <ele>138.128052</ele>
        <time>2010-07-03T10:35:30Z</time>
      </trkpt>
      <trkpt lat="48.6167" lon="7.76157">
        <ele>138.565552</ele>
        <time>2010-07-03T10:35:34Z</time>
      </trkpt>
      <trkpt lat="48.61653" lon="7.76161">
        <ele>138.565552</ele>
        <time>2010-07-03T10:35:38Z</time>
      </trkpt>
      <trkpt lat="48.61637" lon="7.76164">
        <ele>138.733521</ele>
        <time>2010-07-03T10:35:42Z</time>
      </trkpt>
      <trkpt lat="48.6162" lon="7.76166">
        <ele>138.362427</ele>
        <time>2010-07-03T10:35:46Z</time>
      </trkpt>
      <trkpt lat="48.61603" lon="7.76168">
        <ele>138.128052</ele>
        <time>2010-07-03T10:35:50Z</time>
      </trkpt>
      <trkpt lat="48.61585" lon="7.7617">
        <ele>138.721802</ele>
        <time>2010-07-03T10:35:54Z</time>
      </trkpt>
      <trkpt lat="48.61568" lon="7.76172">
        <ele>139.389771</ele>
        <time>2010-07-03T10:35:58Z</time>
      </trkpt>
      <trkpt lat="48.61551" lon="7.76175">
        <ele>139.163208</ele>
        <time>2010-07-03T10:36:02Z</time>
      </trkpt>
      <trkpt lat="48.61534" lon="7.76177">
        <ele>139.299927</ele>
        <time>2010-07-03T10:36:06Z</time>
      </trkpt>
      <trkpt lat="48.61518" lon="7.7618">
        <ele>139.163208</ele>
        <time>2010-07-03T10:36:10Z</time>
      </trkpt>
      <trkpt lat="48.61501" lon="7.76185">
        <ele>139.210083</ele>
        <time>2010-07-03T10:36:14Z</time>
      </trkpt>
      <trkpt lat="48.61484" lon="7.76186">
        <ele>139.741333</ele>
        <time>2010-07-03T10:36:18Z</time>
      </trkpt>
      <trkpt lat="48.61468" lon="7.76188">
        <ele>139.424927</ele>
        <time>2010-07-03T10:36:22Z</time>
      </trkpt>
      <trkpt lat="48.61452" lon="7.76189">
        <ele>138.620239</ele>
        <time>2010-07-03T10:36:26Z</time>
      </trkpt>
      <trkpt lat="48.61436" lon="7.76193">
        <ele>138.034302</ele>
        <time>2010-07-03T10:36:30Z</time>
      </trkpt>
      <trkpt lat="48.6142" lon="7.76194">
        <ele>137.389771</ele>
        <time>2010-07-03T10:36:34Z</time>
      </trkpt>
      <trkpt lat="48.61407" lon="7.76195">
        <ele>137.807739</ele>
        <time>2010-07-03T10:36:38Z</time>
      </trkpt>
      <trkpt lat="48.6139" lon="7.76197">
        <ele>137.827271</ele>
        <time>2010-07-03T10:36:43Z</time>
      </trkpt>
      <trkpt lat="48.61377" lon="7.76198">
        <ele>138.120239</ele>
        <time>2010-07-03T10:36:48Z</time>
      </trkpt>
      <trkpt lat="48.61363" lon="7.76201">
        <ele>140.471802</ele>
        <time>2010-07-03T10:36:54Z</time>
      </trkpt>
      <trkpt lat="48.61349" lon="7.76204">
        <ele>140.960083</ele>
        <time>2010-07-03T10:36:59Z</time>
      </trkpt>
      <trkpt lat="48.61335" lon="7.76204">
        <ele>141.022583</ele>
        <time>2010-07-03T10:37:05Z</time>
      </trkpt>
      <trkpt lat="48.6132" lon="7.76206">
        <ele>142.139771</ele>
        <time>2010-07-03T10:38:20Z</time>
      </trkpt>
      <trkpt lat="48.61305" lon="7.76209">
        <ele>142.534302</ele>
        <time>2010-07-03T10:38:26Z</time>
      </trkpt>
      <trkpt lat="48.61289" lon="7.76212">
        <ele>142.221802</ele>
        <time>2010-07-03T10:38:32Z</time>
      </trkpt>
      <trkpt lat="48.61275" lon="7.76213">
        <ele>142.151489</ele>
        <time>2010-07-03T10:38:36Z</time>
      </trkpt>
      <trkpt lat="48.61258" lon="7.76215">
        <ele>141.729614</ele>
        <time>2010-07-03T10:38:41Z</time>
      </trkpt>
      <trkpt lat="48.61241" lon="7.76217">
        <ele>142.202271</ele>
        <time>2010-07-03T10:38:45Z</time>
      </trkpt>
      <trkpt lat="48.61226" lon="7.76219">
        <ele>142.854614</ele>
        <time>2010-07-03T10:38:49Z</time>
      </trkpt>
      <trkpt lat="48.6121" lon="7.7622">
        <ele>142.713989</ele>
        <time>2010-07-03T10:38:54Z</time>
      </trkpt>
      <trkpt lat="48.61194" lon="7.76219">
        <ele>141.866333</ele>
        <time>2010-07-03T10:38:59Z</time>
      </trkpt>
      <trkpt lat="48.61179" lon="7.7622">
        <ele>141.635864</ele>
        <time>2010-07-03T10:39:04Z</time>
      </trkpt>
      <trkpt lat="48.61163" lon="7.76222">
        <ele>141.284302</ele>
        <time>2010-07-03T10:39:09Z</time>
      </trkpt>
      <trkpt lat="48.61149" lon="7.76225">
        <ele>141.264771</ele>
        <time>2010-07-03T10:39:14Z</time>
      </trkpt>
      <trkpt lat="48.61134" lon="7.76227">
        <ele>141.546021</ele>
        <time>2010-07-03T10:39:19Z</time>
      </trkpt>
      <trkpt lat="48.6112" lon="7.76229">
        <ele>141.846802</ele>
        <time>2010-07-03T10:39:23Z</time>
      </trkpt>
      <trkpt lat="48.61103" lon="7.76232">
        <ele>142.245239</ele>
        <time>2010-07-03T10:39:28Z</time>
      </trkpt>
      <trkpt lat="48.61088" lon="7.76234">
        <ele>142.272583</ele>
        <time>2010-07-03T10:39:33Z</time>
      </trkpt>
      <trkpt lat="48.61072" lon="7.76238">
        <ele>143.046021</ele>
        <time>2010-07-03T10:39:38Z</time>
      </trkpt>
      <trkpt lat="48.61058" lon="7.7624">
        <ele>143.225708</ele>
        <time>2010-07-03T10:39:42Z</time>
      </trkpt>
      <trkpt lat="48.61041" lon="7.76244">
        <ele>143.374146</ele>
        <time>2010-07-03T10:39:47Z</time>
      </trkpt>
      <trkpt lat="48.61028" lon="7.76245">
        <ele>143.366333</ele>
        <time>2010-07-03T10:39:51Z</time>
      </trkpt>
      <trkpt lat="48.61012" lon="7.76251">
        <ele>145.217896</ele>
        <time>2010-07-03T10:39:56Z</time>
      </trkpt>
      <trkpt lat="48.60995" lon="7.76249">
        <ele>144.663208</ele>
        <time>2010-07-03T10:40:00Z</time>
      </trkpt>
      <trkpt lat="48.60978" lon="7.7625">
        <ele>144.624146</ele>
        <time>2010-07-03T10:40:04Z</time>
      </trkpt>
      <trkpt lat="48.60961" lon="7.76251">
        <ele>144.495239</ele>
        <time>2010-07-03T10:40:08Z</time>
      </trkpt>
      <trkpt lat="48.60943" lon="7.76252">
        <ele>144.241333</ele>
        <time>2010-07-03T10:40:12Z</time>
      </trkpt>
      <trkpt lat="48.60926" lon="7.76254">
        <ele>144.401489</ele>
        <time>2010-07-03T10:40:16Z</time>
      </trkpt>
      <trkpt lat="48.60908" lon="7.76257">
        <ele>144.413208</ele>
        <time>2010-07-03T10:40:20Z</time>
      </trkpt>
      <trkpt lat="48.60894" lon="7.7626">
        <ele>143.858521</ele>
        <time>2010-07-03T10:40:23Z</time>
      </trkpt>
      <trkpt lat="48.60881" lon="7.76262">
        <ele>143.862427</ele>
        <time>2010-07-03T10:40:26Z</time>
      </trkpt>
      <trkpt lat="48.60867" lon="7.76264">
        <ele>144.022583</ele>
        <time>2010-07-03T10:40:29Z</time>
      </trkpt>
      <trkpt lat="48.60849" lon="7.76267">
        <ele>143.620239</ele>
        <time>2010-07-03T10:40:33Z</time>
      </trkpt>
      <trkpt lat="48.60836" lon="7.76268">
        <ele>144.073364</ele>
        <time>2010-07-03T10:40:36Z</time>
      </trkpt>
      <trkpt lat="48.60822" lon="7.76271">
        <ele>144.194458</ele>
        <time>2010-07-03T10:40:39Z</time>
      </trkpt>
      <trkpt lat="48.60806" lon="7.76271">
        <ele>144.296021</ele>
        <time>2010-07-03T10:40:42Z</time>
      </trkpt>
      <trkpt lat="48.60791" lon="7.76274">
        <ele>144.116333</ele>
        <time>2010-07-03T10:40:45Z</time>
      </trkpt>
      <trkpt lat="48.60778" lon="7.76277">
        <ele>144.108521</ele>
        <time>2010-07-03T10:40:48Z</time>
      </trkpt>
      <trkpt lat="48.6076" lon="7.76279">
        <ele>143.655396</ele>
        <time>2010-07-03T10:40:52Z</time>
      </trkpt>
      <trkpt lat="48.60743" lon="7.7628">
        <ele>143.710083</ele>
        <time>2010-07-03T10:40:56Z</time>
      </trkpt>
      <trkpt lat="48.60726" lon="7.76283">
        <ele>143.811646</ele>
        <time>2010-07-03T10:41:00Z</time>
      </trkpt>
      <trkpt lat="48.6071" lon="7.76286">
        <ele>143.522583</ele>
        <time>2010-07-03T10:41:04Z</time>
      </trkpt>
      <trkpt lat="48.60693" lon="7.76289">
        <ele>143.389771</ele>
        <time>2010-07-03T10:41:08Z</time>
      </trkpt>
      <trkpt lat="48.6068" lon="7.7629">
        <ele>143.506958</ele>
        <time>2010-07-03T10:41:11Z</time>
      </trkpt>
      <trkpt lat="48.60663" lon="7.76292">
        <ele>143.573364</ele>
        <time>2010-07-03T10:41:15Z</time>
      </trkpt>
      <trkpt lat="48.60646" lon="7.76294">
        <ele>143.663208</ele>
        <time>2010-07-03T10:41:19Z</time>
      </trkpt>
      <trkpt lat="48.60628" lon="7.76297">
        <ele>143.483521</ele>
        <time>2010-07-03T10:41:23Z</time>
      </trkpt>
      <trkpt lat="48.60611" lon="7.763">
        <ele>143.768677</ele>
        <time>2010-07-03T10:41:27Z</time>
      </trkpt>
      <trkpt lat="48.60593" lon="7.76302">
        <ele>143.838989</ele>
        <time>2010-07-03T10:41:31Z</time>
      </trkpt>
      <trkpt lat="48.60576" lon="7.76305">
        <ele>144.178833</ele>
        <time>2010-07-03T10:41:35Z</time>
      </trkpt>
      <trkpt lat="48.60561" lon="7.7631">
        <ele>144.409302</ele>
        <time>2010-07-03T10:41:39Z</time>
      </trkpt>
      <trkpt lat="48.60545" lon="7.76313">
        <ele>145.253052</ele>
        <time>2010-07-03T10:41:43Z</time>
      </trkpt>
      <trkpt lat="48.60527" lon="7.76315">
        <ele>145.260864</ele>
        <time>2010-07-03T10:41:47Z</time>
      </trkpt>
      <trkpt lat="48.60514" lon="7.76315">
        <ele>144.620239</ele>
        <time>2010-07-03T10:41:50Z</time>
      </trkpt>
      <trkpt lat="48.60499" lon="7.76315">
        <ele>144.030396</ele>
        <time>2010-07-03T10:41:54Z</time>
      </trkpt>
      <trkpt lat="48.60485" lon="7.76316">
        <ele>143.936646</ele>
        <time>2010-07-03T10:41:58Z</time>
      </trkpt>
      <trkpt lat="48.6047" lon="7.76317">
        <ele>144.057739</ele>
        <time>2010-07-03T10:42:02Z</time>
      </trkpt>
      <trkpt lat="48.60454" lon="7.7632">
        <ele>143.909302</ele>
        <time>2010-07-03T10:42:06Z</time>
      </trkpt>
      <trkpt lat="48.60437" lon="7.76324">
        <ele>143.721802</ele>
        <time>2010-07-03T10:42:10Z</time>
      </trkpt>
      <trkpt lat="48.60422" lon="7.76328">
        <ele>143.327271</ele>
        <time>2010-07-03T10:42:14Z</time>
      </trkpt>
      <trkpt lat="48.60407" lon="7.76334">
        <ele>142.694458</ele>
        <time>2010-07-03T10:42:19Z</time>
      </trkpt>
      <trkpt lat="48.60394" lon="7.76339">
        <ele>142.202271</ele>
        <time>2010-07-03T10:42:24Z</time>
      </trkpt>
      <trkpt lat="48.60379" lon="7.76346">
        <ele>142.088989</ele>
        <time>2010-07-03T10:42:30Z</time>
      </trkpt>
      <trkpt lat="48.60364" lon="7.76353">
        <ele>142.299927</ele>
        <time>2010-07-03T10:42:35Z</time>
      </trkpt>
      <trkpt lat="48.60351" lon="7.76359">
        <ele>142.268677</ele>
        <time>2010-07-03T10:42:39Z</time>
      </trkpt>
      <trkpt lat="48.60335" lon="7.76364">
        <ele>142.096802</ele>
        <time>2010-07-03T10:42:44Z</time>
      </trkpt>
      <trkpt lat="48.6032" lon="7.76372">
        <ele>141.866333</ele>
        <time>2010-07-03T10:42:49Z</time>
      </trkpt>
      <trkpt lat="48.60306" lon="7.76372">
        <ele>143.256958</ele>
        <time>2010-07-03T10:43:20Z</time>
      </trkpt>
      <trkpt lat="48.60295" lon="7.76359">
        <ele>141.409302</ele>
        <time>2010-07-03T10:45:15Z</time>
      </trkpt>
      <trkpt lat="48.60281" lon="7.76352">
        <ele>140.421021</ele>
        <time>2010-07-03T10:45:21Z</time>
      </trkpt>
      <trkpt lat="48.60273" lon="7.7633">
        <ele>138.327271</ele>
        <time>2010-07-03T10:45:27Z</time>
      </trkpt>
      <trkpt lat="48.60273" lon="7.76308">
        <ele>139.081177</ele>
        <time>2010-07-03T10:45:31Z</time>
      </trkpt>
      <trkpt lat="48.60274" lon="7.76288">
        <ele>139.354614</ele>
        <time>2010-07-03T10:45:35Z</time>
      </trkpt>
      <trkpt lat="48.60276" lon="7.76267">
        <ele>139.792114</ele>
        <time>2010-07-03T10:45:39Z</time>
      </trkpt>
      <trkpt lat="48.60278" lon="7.76243">
        <ele>141.323364</ele>
        <time>2010-07-03T10:45:43Z</time>
      </trkpt>
      <trkpt lat="48.60279" lon="7.76221">
        <ele>141.448364</ele>
        <time>2010-07-03T10:45:47Z</time>
      </trkpt>
      <trkpt lat="48.60279" lon="7.762">
        <ele>138.522583</ele>
        <time>2010-07-03T10:45:52Z</time>
      </trkpt>
      <trkpt lat="48.60276" lon="7.7618">
        <ele>137.612427</ele>
        <time>2010-07-03T10:45:57Z</time>
      </trkpt>
      <trkpt lat="48.6027" lon="7.76159">
        <ele>137.131958</ele>
        <time>2010-07-03T10:46:02Z</time>
      </trkpt>
      <trkpt lat="48.60262" lon="7.7614">
        <ele>136.635864</ele>
        <time>2010-07-03T10:46:07Z</time>
      </trkpt>
      <trkpt lat="48.60255" lon="7.76123">
        <ele>136.342896</ele>
        <time>2010-07-03T10:46:11Z</time>
      </trkpt>
      <trkpt lat="48.60245" lon="7.76105">
        <ele>137.315552</ele>
        <time>2010-07-03T10:46:15Z</time>
      </trkpt>
      <trkpt lat="48.60236" lon="7.7609">
        <ele>137.393677</ele>
        <time>2010-07-03T10:46:19Z</time>
      </trkpt>
      <trkpt lat="48.60227" lon="7.76069">
        <ele>137.510864</ele>
        <time>2010-07-03T10:46:24Z</time>
      </trkpt>
      <trkpt lat="48.60223" lon="7.76049">
        <ele>137.674927</ele>
        <time>2010-07-03T10:46:28Z</time>
      </trkpt>
      <trkpt lat="48.60223" lon="7.76028">
        <ele>138.061646</ele>
        <time>2010-07-03T10:46:32Z</time>
      </trkpt>
      <trkpt lat="48.60223" lon="7.76004">
        <ele>138.510864</ele>
        <time>2010-07-03T10:46:37Z</time>
      </trkpt>
      <trkpt lat="48.60228" lon="7.75984">
        <ele>137.909302</ele>
        <time>2010-07-03T10:46:42Z</time>
      </trkpt>
      <trkpt lat="48.60229" lon="7.75963">
        <ele>138.546021</ele>
        <time>2010-07-03T10:46:47Z</time>
      </trkpt>
      <trkpt lat="48.6023" lon="7.75941">
        <ele>137.796021</ele>
        <time>2010-07-03T10:46:52Z</time>
      </trkpt>
      <trkpt lat="48.60233" lon="7.75918">
        <ele>136.671021</ele>
        <time>2010-07-03T10:46:57Z</time>
      </trkpt>
      <trkpt lat="48.60237" lon="7.75897">
        <ele>137.139771</ele>
        <time>2010-07-03T10:47:01Z</time>
      </trkpt>
      <trkpt lat="48.60242" lon="7.75874">
        <ele>138.432739</ele>
        <time>2010-07-03T10:47:06Z</time>
      </trkpt>
      <trkpt lat="48.60256" lon="7.75872">
        <ele>138.557739</ele>
        <time>2010-07-03T10:47:16Z</time>
      </trkpt>
      <trkpt lat="48.60245" lon="7.75859">
        <ele>136.217896</ele>
        <time>2010-07-03T11:00:05Z</time>
      </trkpt>
      <trkpt lat="48.60246" lon="7.75835">
        <ele>136.120239</ele>
        <time>2010-07-03T11:00:12Z</time>
      </trkpt>
      <trkpt lat="48.6025" lon="7.75813">
        <ele>136.202271</ele>
        <time>2010-07-03T11:00:18Z</time>
      </trkpt>
      <trkpt lat="48.60256" lon="7.75792">
        <ele>137.010864</ele>
        <time>2010-07-03T11:00:25Z</time>
      </trkpt>
      <trkpt lat="48.60265" lon="7.75774">
        <ele>137.186646</ele>
        <time>2010-07-03T11:00:32Z</time>
      </trkpt>
      <trkpt lat="48.60275" lon="7.7576">
        <ele>136.120239</ele>
        <time>2010-07-03T11:00:38Z</time>
      </trkpt>
      <trkpt lat="48.60288" lon="7.75752">
        <ele>138.729614</ele>
        <time>2010-07-03T11:00:47Z</time>
      </trkpt>
      <trkpt lat="48.60298" lon="7.75767">
        <ele>141.307739</ele>
        <time>2010-07-03T11:00:55Z</time>
      </trkpt>
      <trkpt lat="48.60292" lon="7.75749">
        <ele>139.073364</ele>
        <time>2010-07-03T11:24:14Z</time>
      </trkpt>
      <trkpt lat="48.60293" lon="7.75729">
        <ele>138.483521</ele>
        <time>2010-07-03T11:24:21Z</time>
      </trkpt>
      <trkpt lat="48.60306" lon="7.75717">
        <ele>139.092896</ele>
        <time>2010-07-03T11:24:28Z</time>
      </trkpt>
      <trkpt lat="48.60295" lon="7.75705">
        <ele>139.518677</ele>
        <time>2010-07-03T11:24:34Z</time>
      </trkpt>
      <trkpt lat="48.60286" lon="7.75688">
        <ele>138.354614</ele>
        <time>2010-07-03T11:24:39Z</time>
      </trkpt>
      <trkpt lat="48.60275" lon="7.75673">
        <ele>138.424927</ele>
        <time>2010-07-03T11:24:44Z</time>
      </trkpt>
      <trkpt lat="48.60265" lon="7.75659">
        <ele>137.358521</ele>
        <time>2010-07-03T11:24:49Z</time>
      </trkpt>
      <trkpt lat="48.60254" lon="7.75644">
        <ele>137.503052</ele>
        <time>2010-07-03T11:24:53Z</time>
      </trkpt>
      <trkpt lat="48.60244" lon="7.75629">
        <ele>137.600708</ele>
        <time>2010-07-03T11:24:57Z</time>
      </trkpt>
      <trkpt lat="48.60232" lon="7.75615">
        <ele>138.303833</ele>
        <time>2010-07-03T11:25:01Z</time>
      </trkpt>
      <trkpt lat="48.6022" lon="7.756">
        <ele>138.901489</ele>
        <time>2010-07-03T11:25:05Z</time>
      </trkpt>
      <trkpt lat="48.60207" lon="7.75584">
        <ele>140.323364</ele>
        <time>2010-07-03T11:25:09Z</time>
      </trkpt>
      <trkpt lat="48.60193" lon="7.75569">
        <ele>141.710083</ele>
        <time>2010-07-03T11:25:13Z</time>
      </trkpt>
      <trkpt lat="48.60181" lon="7.75553">
        <ele>142.069458</ele>
        <time>2010-07-03T11:25:17Z</time>
      </trkpt>
      <trkpt lat="48.60169" lon="7.75538">
        <ele>142.151489</ele>
        <time>2010-07-03T11:25:21Z</time>
      </trkpt>
      <trkpt lat="48.60157" lon="7.75522">
        <ele>142.628052</ele>
        <time>2010-07-03T11:25:25Z</time>
      </trkpt>
      <trkpt lat="48.60147" lon="7.75509">
        <ele>142.432739</ele>
        <time>2010-07-03T11:25:29Z</time>
      </trkpt>
      <trkpt lat="48.60136" lon="7.75496">
        <ele>143.159302</ele>
        <time>2010-07-03T11:25:33Z</time>
      </trkpt>
      <trkpt lat="48.60124" lon="7.75483">
        <ele>142.682739</ele>
        <time>2010-07-03T11:25:38Z</time>
      </trkpt>
      <trkpt lat="48.60112" lon="7.75469">
        <ele>144.276489</ele>
        <time>2010-07-03T11:25:44Z</time>
      </trkpt>
      <trkpt lat="48.60099" lon="7.75464">
        <ele>145.651489</ele>
        <time>2010-07-03T11:25:48Z</time>
      </trkpt>
      <trkpt lat="48.60085" lon="7.75466">
        <ele>144.721802</ele>
        <time>2010-07-03T11:25:52Z</time>
      </trkpt>
      <trkpt lat="48.60071" lon="7.75468">
        <ele>143.592896</ele>
        <time>2010-07-03T11:25:56Z</time>
      </trkpt>
      <trkpt lat="48.60057" lon="7.7547">
        <ele>142.729614</ele>
        <time>2010-07-03T11:26:00Z</time>
      </trkpt>
      <trkpt lat="48.60042" lon="7.75472">
        <ele>143.401489</ele>
        <time>2010-07-03T11:26:05Z</time>
      </trkpt>
      <trkpt lat="48.60032" lon="7.75457">
        <ele>142.467896</ele>
        <time>2010-07-03T11:26:18Z</time>
      </trkpt>
      <trkpt lat="48.60018" lon="7.75461">
        <ele>141.522583</ele>
        <time>2010-07-03T11:26:29Z</time>
      </trkpt>
      <trkpt lat="48.60003" lon="7.75461">
        <ele>141.249146</ele>
        <time>2010-07-03T11:26:33Z</time>
      </trkpt>
      <trkpt lat="48.59987" lon="7.75452">
        <ele>141.374146</ele>
        <time>2010-07-03T11:26:37Z</time>
      </trkpt>
      <trkpt lat="48.59974" lon="7.75441">
        <ele>141.362427</ele>
        <time>2010-07-03T11:26:41Z</time>
      </trkpt>
      <trkpt lat="48.59962" lon="7.75429">
        <ele>142.303833</ele>
        <time>2010-07-03T11:26:45Z</time>
      </trkpt>
      <trkpt lat="48.59948" lon="7.7542">
        <ele>142.823364</ele>
        <time>2010-07-03T11:26:49Z</time>
      </trkpt>
      <trkpt lat="48.59935" lon="7.75406">
        <ele>143.975708</ele>
        <time>2010-07-03T11:26:53Z</time>
      </trkpt>
      <trkpt lat="48.5992" lon="7.75393">
        <ele>144.651489</ele>
        <time>2010-07-03T11:26:57Z</time>
      </trkpt>
      <trkpt lat="48.59907" lon="7.7538">
        <ele>144.401489</ele>
        <time>2010-07-03T11:27:01Z</time>
      </trkpt>
      <trkpt lat="48.59896" lon="7.75366">
        <ele>144.225708</ele>
        <time>2010-07-03T11:27:05Z</time>
      </trkpt>
      <trkpt lat="48.59885" lon="7.75352">
        <ele>142.858521</ele>
        <time>2010-07-03T11:27:09Z</time>
      </trkpt>
      <trkpt lat="48.59876" lon="7.75336">
        <ele>141.768677</ele>
        <time>2010-07-03T11:27:16Z</time>
      </trkpt>
      <trkpt lat="48.59885" lon="7.75318">
        <ele>139.358521</ele>
        <time>2010-07-03T11:27:22Z</time>
      </trkpt>
      <trkpt lat="48.59892" lon="7.75299">
        <ele>138.764771</ele>
        <time>2010-07-03T11:27:28Z</time>
      </trkpt>
      <trkpt lat="48.59877" lon="7.75289">
        <ele>139.698364</ele>
        <time>2010-07-03T11:28:09Z</time>
      </trkpt>
      <trkpt lat="48.59863" lon="7.75284">
        <ele>140.741333</ele>
        <time>2010-07-03T11:28:13Z</time>
      </trkpt>
      <trkpt lat="48.5985" lon="7.75276">
        <ele>141.331177</ele>
        <time>2010-07-03T11:28:17Z</time>
      </trkpt>
      <trkpt lat="48.59837" lon="7.75264">
        <ele>142.073364</ele>
        <time>2010-07-03T11:28:21Z</time>
      </trkpt>
      <trkpt lat="48.59824" lon="7.75251">
        <ele>143.565552</ele>
        <time>2010-07-03T11:28:25Z</time>
      </trkpt>
      <trkpt lat="48.59811" lon="7.75238">
        <ele>144.280396</ele>
        <time>2010-07-03T11:28:29Z</time>
      </trkpt>
      <trkpt lat="48.59797" lon="7.75225">
        <ele>144.526489</ele>
        <time>2010-07-03T11:28:33Z</time>
      </trkpt>
      <trkpt lat="48.59785" lon="7.7521">
        <ele>144.760864</ele>
        <time>2010-07-03T11:28:37Z</time>
      </trkpt>
      <trkpt lat="48.59774" lon="7.75192">
        <ele>144.600708</ele>
        <time>2010-07-03T11:28:41Z</time>
      </trkpt>
      <trkpt lat="48.59764" lon="7.75176">
        <ele>144.862427</ele>
        <time>2010-07-03T11:28:45Z</time>
      </trkpt>
      <trkpt lat="48.59754" lon="7.75156">
        <ele>143.608521</ele>
        <time>2010-07-03T11:28:50Z</time>
      </trkpt>
      <trkpt lat="48.59744" lon="7.7514">
        <ele>144.065552</ele>
        <time>2010-07-03T11:28:54Z</time>
      </trkpt>
      <trkpt lat="48.59733" lon="7.75125">
        <ele>144.452271</ele>
        <time>2010-07-03T11:28:58Z</time>
      </trkpt>
      <trkpt lat="48.59724" lon="7.75109">
        <ele>144.530396</ele>
        <time>2010-07-03T11:29:02Z</time>
      </trkpt>
      <trkpt lat="48.59715" lon="7.75093">
        <ele>143.694458</ele>
        <time>2010-07-03T11:29:06Z</time>
      </trkpt>
      <trkpt lat="48.59707" lon="7.75077">
        <ele>143.491333</ele>
        <time>2010-07-03T11:29:10Z</time>
      </trkpt>
      <trkpt lat="48.59696" lon="7.75062">
        <ele>143.842896</ele>
        <time>2010-07-03T11:29:14Z</time>
      </trkpt>
      <trkpt lat="48.59684" lon="7.75042">
        <ele>144.217896</ele>
        <time>2010-07-03T11:29:19Z</time>
      </trkpt>
      <trkpt lat="48.59675" lon="7.75027">
        <ele>144.686646</ele>
        <time>2010-07-03T11:29:23Z</time>
      </trkpt>
      <trkpt lat="48.59663" lon="7.75008">
        <ele>144.475708</ele>
        <time>2010-07-03T11:29:28Z</time>
      </trkpt>
      <trkpt lat="48.59652" lon="7.74991">
        <ele>144.046021</ele>
        <time>2010-07-03T11:29:32Z</time>
      </trkpt>
      <trkpt lat="48.59643" lon="7.74975">
        <ele>143.850708</ele>
        <time>2010-07-03T11:29:36Z</time>
      </trkpt>
      <trkpt lat="48.59632" lon="7.74959">
        <ele>144.268677</ele>
        <time>2010-07-03T11:29:40Z</time>
      </trkpt>
      <trkpt lat="48.5962" lon="7.74942">
        <ele>144.151489</ele>
        <time>2010-07-03T11:29:44Z</time>
      </trkpt>
      <trkpt lat="48.5961" lon="7.74925">
        <ele>144.600708</ele>
        <time>2010-07-03T11:29:48Z</time>
      </trkpt>
      <trkpt lat="48.59601" lon="7.74908">
        <ele>145.081177</ele>
        <time>2010-07-03T11:29:52Z</time>
      </trkpt>
      <trkpt lat="48.59591" lon="7.7489">
        <ele>145.171021</ele>
        <time>2010-07-03T11:29:56Z</time>
      </trkpt>
      <trkpt lat="48.59581" lon="7.74873">
        <ele>144.878052</ele>
        <time>2010-07-03T11:30:00Z</time>
      </trkpt>
      <trkpt lat="48.59571" lon="7.74855">
        <ele>145.428833</ele>
        <time>2010-07-03T11:30:04Z</time>
      </trkpt>
      <trkpt lat="48.59562" lon="7.74838">
        <ele>145.237427</ele>
        <time>2010-07-03T11:30:08Z</time>
      </trkpt>
      <trkpt lat="48.59551" lon="7.7482">
        <ele>145.421021</ele>
        <time>2010-07-03T11:30:12Z</time>
      </trkpt>
      <trkpt lat="48.59541" lon="7.74804">
        <ele>145.577271</ele>
        <time>2010-07-03T11:30:16Z</time>
      </trkpt>
      <trkpt lat="48.5953" lon="7.74786">
        <ele>145.721802</ele>
        <time>2010-07-03T11:30:20Z</time>
      </trkpt>
      <trkpt lat="48.5952" lon="7.7477">
        <ele>145.143677</ele>
        <time>2010-07-03T11:30:24Z</time>
      </trkpt>
      <trkpt lat="48.5951" lon="7.74752">
        <ele>144.682739</ele>
        <time>2010-07-03T11:30:28Z</time>
      </trkpt>
      <trkpt lat="48.595" lon="7.74736">
        <ele>144.862427</ele>
        <time>2010-07-03T11:30:32Z</time>
      </trkpt>
      <trkpt lat="48.59489" lon="7.74718">
        <ele>144.424927</ele>
        <time>2010-07-03T11:30:37Z</time>
      </trkpt>
      <trkpt lat="48.59479" lon="7.74702">
        <ele>144.370239</ele>
        <time>2010-07-03T11:30:41Z</time>
      </trkpt>
      <trkpt lat="48.5947" lon="7.74685">
        <ele>144.542114</ele>
        <time>2010-07-03T11:30:45Z</time>
      </trkpt>
      <trkpt lat="48.5946" lon="7.7467">
        <ele>144.311646</ele>
        <time>2010-07-03T11:30:49Z</time>
      </trkpt>
      <trkpt lat="48.5945" lon="7.74654">
        <ele>144.139771</ele>
        <time>2010-07-03T11:30:53Z</time>
      </trkpt>
      <trkpt lat="48.5944" lon="7.74637">
        <ele>144.460083</ele>
        <time>2010-07-03T11:30:57Z</time>
      </trkpt>
      <trkpt lat="48.59431" lon="7.74621">
        <ele>144.346802</ele>
        <time>2010-07-03T11:31:01Z</time>
      </trkpt>
      <trkpt lat="48.5942" lon="7.74604">
        <ele>144.682739</ele>
        <time>2010-07-03T11:31:05Z</time>
      </trkpt>
      <trkpt lat="48.59411" lon="7.74587">
        <ele>144.506958</ele>
        <time>2010-07-03T11:31:09Z</time>
      </trkpt>
      <trkpt lat="48.59404" lon="7.74569">
        <ele>143.467896</ele>
        <time>2010-07-03T11:31:13Z</time>
      </trkpt>
      <trkpt lat="48.59395" lon="7.74549">
        <ele>143.456177</ele>
        <time>2010-07-03T11:31:18Z</time>
      </trkpt>
      <trkpt lat="48.59385" lon="7.74534">
        <ele>144.171021</ele>
        <time>2010-07-03T11:31:22Z</time>
      </trkpt>
      <trkpt lat="48.59369" lon="7.74527">
        <ele>141.475708</ele>
        <time>2010-07-03T11:31:28Z</time>
      </trkpt>
      <trkpt lat="48.59359" lon="7.74513">
        <ele>141.264771</ele>
        <time>2010-07-03T11:31:32Z</time>
      </trkpt>
      <trkpt lat="48.59346" lon="7.74494">
        <ele>142.100708</ele>
        <time>2010-07-03T11:31:37Z</time>
      </trkpt>
      <trkpt lat="48.59336" lon="7.74479">
        <ele>142.737427</ele>
        <time>2010-07-03T11:31:41Z</time>
      </trkpt>
      <trkpt lat="48.59324" lon="7.74461">
        <ele>143.256958</ele>
        <time>2010-07-03T11:31:46Z</time>
      </trkpt>
      <trkpt lat="48.59315" lon="7.74446">
        <ele>142.616333</ele>
        <time>2010-07-03T11:31:50Z</time>
      </trkpt>
      <trkpt lat="48.59306" lon="7.7443">
        <ele>142.260864</ele>
        <time>2010-07-03T11:31:54Z</time>
      </trkpt>
      <trkpt lat="48.59295" lon="7.74412">
        <ele>141.647583</ele>
        <time>2010-07-03T11:31:59Z</time>
      </trkpt>
      <trkpt lat="48.59286" lon="7.74397">
        <ele>141.999146</ele>
        <time>2010-07-03T11:32:04Z</time>
      </trkpt>
      <trkpt lat="48.59277" lon="7.74378">
        <ele>141.479614</ele>
        <time>2010-07-03T11:32:13Z</time>
      </trkpt>
      <trkpt lat="48.59263" lon="7.74383">
        <ele>140.725708</ele>
        <time>2010-07-03T11:32:17Z</time>
      </trkpt>
      <trkpt lat="48.59249" lon="7.74391">
        <ele>139.288208</ele>
        <time>2010-07-03T11:32:21Z</time>
      </trkpt>
      <trkpt lat="48.59236" lon="7.74401">
        <ele>138.503052</ele>
        <time>2010-07-03T11:32:25Z</time>
      </trkpt>
      <trkpt lat="48.59221" lon="7.74406">
        <ele>137.612427</ele>
        <time>2010-07-03T11:32:31Z</time>
      </trkpt>
      <trkpt lat="48.59206" lon="7.74405">
        <ele>138.936646</ele>
        <time>2010-07-03T11:32:37Z</time>
      </trkpt>
      <trkpt lat="48.5919" lon="7.74405">
        <ele>139.620239</ele>
        <time>2010-07-03T11:32:42Z</time>
      </trkpt>
      <trkpt lat="48.59177" lon="7.74401">
        <ele>137.713989</ele>
        <time>2010-07-03T11:32:48Z</time>
      </trkpt>
      <trkpt lat="48.59163" lon="7.74392">
        <ele>139.924927</ele>
        <time>2010-07-03T11:32:54Z</time>
      </trkpt>
      <trkpt lat="48.59152" lon="7.74378">
        <ele>140.913208</ele>
        <time>2010-07-03T11:33:01Z</time>
      </trkpt>
      <trkpt lat="48.59141" lon="7.74361">
        <ele>142.061646</ele>
        <time>2010-07-03T11:33:30Z</time>
      </trkpt>
      <trkpt lat="48.59134" lon="7.74342">
        <ele>144.053833</ele>
        <time>2010-07-03T11:33:35Z</time>
      </trkpt>
      <trkpt lat="48.59129" lon="7.74321">
        <ele>141.616333</ele>
        <time>2010-07-03T11:33:41Z</time>
      </trkpt>
      <trkpt lat="48.59124" lon="7.74299">
        <ele>142.768677</ele>
        <time>2010-07-03T11:33:46Z</time>
      </trkpt>
      <trkpt lat="48.59123" lon="7.74276">
        <ele>142.268677</ele>
        <time>2010-07-03T11:33:53Z</time>
      </trkpt>
      <trkpt lat="48.59125" lon="7.74254">
        <ele>142.053833</ele>
        <time>2010-07-03T11:34:00Z</time>
      </trkpt>
      <trkpt lat="48.59129" lon="7.74234">
        <ele>140.796021</ele>
        <time>2010-07-03T11:34:07Z</time>
      </trkpt>
      <trkpt lat="48.59137" lon="7.74216">
        <ele>140.624146</ele>
        <time>2010-07-03T11:34:36Z</time>
      </trkpt>
      <trkpt lat="48.59144" lon="7.74199">
        <ele>138.585083</ele>
        <time>2010-07-03T11:34:44Z</time>
      </trkpt>
      <trkpt lat="48.59154" lon="7.74185">
        <ele>137.936646</ele>
        <time>2010-07-03T11:34:49Z</time>
      </trkpt>
      <trkpt lat="48.59164" lon="7.7417">
        <ele>138.061646</ele>
        <time>2010-07-03T11:34:55Z</time>
      </trkpt>
      <trkpt lat="48.59177" lon="7.74157">
        <ele>137.913208</ele>
        <time>2010-07-03T11:35:02Z</time>
      </trkpt>
      <trkpt lat="48.59164" lon="7.74136">
        <ele>139.846802</ele>
        <time>2010-07-03T11:35:07Z</time>
      </trkpt>
      <trkpt lat="48.59155" lon="7.74116">
        <ele>140.186646</ele>
        <time>2010-07-03T11:35:12Z</time>
      </trkpt>
      <trkpt lat="48.59145" lon="7.74096">
        <ele>140.592896</ele>
        <time>2010-07-03T11:35:17Z</time>
      </trkpt>
      <trkpt lat="48.59139" lon="7.74075">
        <ele>140.620239</ele>
        <time>2010-07-03T11:35:22Z</time>
      </trkpt>
      <trkpt lat="48.59131" lon="7.74053">
        <ele>140.292114</ele>
        <time>2010-07-03T11:35:27Z</time>
      </trkpt>
      <trkpt lat="48.59123" lon="7.7403">
        <ele>140.241333</ele>
        <time>2010-07-03T11:35:32Z</time>
      </trkpt>
      <trkpt lat="48.59115" lon="7.74012">
        <ele>140.760864</ele>
        <time>2010-07-03T11:35:36Z</time>
      </trkpt>
      <trkpt lat="48.59106" lon="7.73992">
        <ele>141.651489</ele>
        <time>2010-07-03T11:35:41Z</time>
      </trkpt>
      <trkpt lat="48.59097" lon="7.73971">
        <ele>142.401489</ele>
        <time>2010-07-03T11:35:46Z</time>
      </trkpt>
      <trkpt lat="48.59088" lon="7.73952">
        <ele>144.171021</ele>
        <time>2010-07-03T11:35:50Z</time>
      </trkpt>
      <trkpt lat="48.59073" lon="7.73939">
        <ele>145.452271</ele>
        <time>2010-07-03T11:35:54Z</time>
      </trkpt>
      <trkpt lat="48.59058" lon="7.73928">
        <ele>146.710083</ele>
        <time>2010-07-03T11:35:58Z</time>
      </trkpt>
      <trkpt lat="48.59044" lon="7.73917">
        <ele>147.862427</ele>
        <time>2010-07-03T11:36:02Z</time>
      </trkpt>
      <trkpt lat="48.59031" lon="7.73904">
        <ele>148.190552</ele>
        <time>2010-07-03T11:36:06Z</time>
      </trkpt>
      <trkpt lat="48.59018" lon="7.73891">
        <ele>148.499146</ele>
        <time>2010-07-03T11:36:10Z</time>
      </trkpt>
      <trkpt lat="48.59004" lon="7.73883">
        <ele>151.139771</ele>
        <time>2010-07-03T11:36:13Z</time>
      </trkpt>
      <trkpt lat="48.5899" lon="7.73871">
        <ele>151.713989</ele>
        <time>2010-07-03T11:36:17Z</time>
      </trkpt>
      <trkpt lat="48.58977" lon="7.73859">
        <ele>151.006958</ele>
        <time>2010-07-03T11:36:21Z</time>
      </trkpt>
      <trkpt lat="48.58964" lon="7.73846">
        <ele>151.249146</ele>
        <time>2010-07-03T11:36:25Z</time>
      </trkpt>
      <trkpt lat="48.58952" lon="7.73835">
        <ele>149.073364</ele>
        <time>2010-07-03T11:36:30Z</time>
      </trkpt>
      <trkpt lat="48.5894" lon="7.73825">
        <ele>150.307739</ele>
        <time>2010-07-03T11:36:33Z</time>
      </trkpt>
      <trkpt lat="48.58928" lon="7.73816">
        <ele>149.202271</ele>
        <time>2010-07-03T11:36:38Z</time>
      </trkpt>
      <trkpt lat="48.58922" lon="7.73834">
        <ele>145.022583</ele>
        <time>2010-07-03T11:36:54Z</time>
      </trkpt>
      <trkpt lat="48.58913" lon="7.73855">
        <ele>143.534302</ele>
        <time>2010-07-03T11:37:01Z</time>
      </trkpt>
      <trkpt lat="48.58908" lon="7.73875">
        <ele>140.350708</ele>
        <time>2010-07-03T11:37:07Z</time>
      </trkpt>
      <trkpt lat="48.58896" lon="7.73886">
        <ele>142.807739</ele>
        <time>2010-07-03T11:38:24Z</time>
      </trkpt>
      <trkpt lat="48.58886" lon="7.73907">
        <ele>143.733521</ele>
        <time>2010-07-03T11:38:29Z</time>
      </trkpt>
      <trkpt lat="48.58877" lon="7.73924">
        <ele>144.010864</ele>
        <time>2010-07-03T11:38:33Z</time>
      </trkpt>
      <trkpt lat="48.58868" lon="7.73942">
        <ele>144.475708</ele>
        <time>2010-07-03T11:38:38Z</time>
      </trkpt>
      <trkpt lat="48.58855" lon="7.73949">
        <ele>146.053833</ele>
        <time>2010-07-03T11:39:01Z</time>
      </trkpt>
      <trkpt lat="48.58841" lon="7.73937">
        <ele>147.534302</ele>
        <time>2010-07-03T11:39:07Z</time>
      </trkpt>
      <trkpt lat="48.5883" lon="7.73924">
        <ele>147.819458</ele>
        <time>2010-07-03T11:39:11Z</time>
      </trkpt>
      <trkpt lat="48.58819" lon="7.73912">
        <ele>147.424927</ele>
        <time>2010-07-03T11:39:15Z</time>
      </trkpt>
      <trkpt lat="48.58807" lon="7.73899">
        <ele>147.022583</ele>
        <time>2010-07-03T11:39:19Z</time>
      </trkpt>
      <trkpt lat="48.58796" lon="7.73886">
        <ele>146.292114</ele>
        <time>2010-07-03T11:39:23Z</time>
      </trkpt>
      <trkpt lat="48.58784" lon="7.73872">
        <ele>145.499146</ele>
        <time>2010-07-03T11:39:29Z</time>
      </trkpt>
      <trkpt lat="48.58782" lon="7.73851">
        <ele>143.147583</ele>
        <time>2010-07-03T11:39:42Z</time>
      </trkpt>
      <trkpt lat="48.5877" lon="7.73839">
        <ele>143.542114</ele>
        <time>2010-07-03T11:39:48Z</time>
      </trkpt>
      <trkpt lat="48.58755" lon="7.73827">
        <ele>143.495239</ele>
        <time>2010-07-03T11:39:57Z</time>
      </trkpt>
      <trkpt lat="48.58743" lon="7.73817">
        <ele>143.253052</ele>
        <time>2010-07-03T11:40:02Z</time>
      </trkpt>
      <trkpt lat="48.58728" lon="7.73807">
        <ele>142.651489</ele>
        <time>2010-07-03T11:40:06Z</time>
      </trkpt>
      <trkpt lat="48.58718" lon="7.73793">
        <ele>142.444458</ele>
        <time>2010-07-03T11:40:10Z</time>
      </trkpt>
      <trkpt lat="48.58707" lon="7.73778">
        <ele>141.917114</ele>
        <time>2010-07-03T11:40:15Z</time>
      </trkpt>
      <trkpt lat="48.58697" lon="7.73763">
        <ele>143.542114</ele>
        <time>2010-07-03T11:40:19Z</time>
      </trkpt>
      <trkpt lat="48.58685" lon="7.73751">
        <ele>144.378052</ele>
        <time>2010-07-03T11:40:24Z</time>
      </trkpt>
      <trkpt lat="48.58674" lon="7.73741">
        <ele>146.592896</ele>
        <time>2010-07-03T11:40:33Z</time>
      </trkpt>
      <trkpt lat="48.58662" lon="7.73725">
        <ele>143.983521</ele>
        <time>2010-07-03T11:40:40Z</time>
      </trkpt>
      <trkpt lat="48.5865" lon="7.73713">
        <ele>142.881958</ele>
        <time>2010-07-03T11:40:47Z</time>
      </trkpt>
      <trkpt lat="48.58639" lon="7.73701">
        <ele>140.878052</ele>
        <time>2010-07-03T11:40:52Z</time>
      </trkpt>
      <trkpt lat="48.58628" lon="7.73689">
        <ele>139.549927</ele>
        <time>2010-07-03T11:40:56Z</time>
      </trkpt>
      <trkpt lat="48.58616" lon="7.73671">
        <ele>138.296021</ele>
        <time>2010-07-03T11:41:01Z</time>
      </trkpt>
      <trkpt lat="48.58606" lon="7.73656">
        <ele>136.624146</ele>
        <time>2010-07-03T11:41:07Z</time>
      </trkpt>
      <trkpt lat="48.58594" lon="7.73643">
        <ele>135.456177</ele>
        <time>2010-07-03T11:41:12Z</time>
      </trkpt>
      <trkpt lat="48.58581" lon="7.73633">
        <ele>133.596802</ele>
        <time>2010-07-03T11:41:18Z</time>
      </trkpt>
      <trkpt lat="48.58571" lon="7.73616">
        <ele>135.631958</ele>
        <time>2010-07-03T11:41:24Z</time>
      </trkpt>
      <trkpt lat="48.58561" lon="7.73605">
        <ele>143.174927</ele>
        <time>2010-07-03T11:41:29Z</time>
      </trkpt>
    </trkseg>
  </trk>
</gpx>